<?xml version="1.0" encoding="UTF-8" standalone="no" ?>
<gpx xmlns="http://www.topografix.com/GPX/1/1" xmlns:xsi="http://www.w3.org/2001/XMLSchema-instance" xsi:schemaLocation="http://www.topografix.com/GPX/1/1 http://www.topografix.com/GPX/1/1/gpx.xsd" version="1.1" creator="VisuGPX - https://www.visugpx.com">
  <metadata>
    <name>86. Back to Ginals 12ème étape</name>
  </metadata>
  <trk>
    <name><![CDATA[86. Back to Ginals 12ème étape_1]]></name>
    <trkseg>
      <trkpt lat="44.12588" lon="1.24681">
        <ele>178.4</ele>
        <time>2023-07-07T05:27:23Z</time>
      </trkpt>
      <trkpt lat="44.12579" lon="1.24684">
        <ele>179</ele>
        <time>2023-07-07T05:27:30Z</time>
      </trkpt>
      <trkpt lat="44.12567" lon="1.24685">
        <ele>179.2</ele>
        <time>2023-07-07T05:27:39Z</time>
      </trkpt>
      <trkpt lat="44.12562" lon="1.24685">
        <ele>179.4</ele>
        <time>2023-07-07T05:27:43Z</time>
      </trkpt>
      <trkpt lat="44.12557" lon="1.24682">
        <ele>179.6</ele>
        <time>2023-07-07T05:27:47Z</time>
      </trkpt>
      <trkpt lat="44.12549" lon="1.24665">
        <ele>179</ele>
        <time>2023-07-07T05:27:57Z</time>
      </trkpt>
      <trkpt lat="44.12549" lon="1.24663">
        <ele>179.2</ele>
        <time>2023-07-07T05:27:58Z</time>
      </trkpt>
      <trkpt lat="44.12547" lon="1.24661">
        <ele>179.2</ele>
        <time>2023-07-07T05:28:02Z</time>
      </trkpt>
      <trkpt lat="44.12546" lon="1.2466">
        <ele>179.2</ele>
        <time>2023-07-07T05:28:03Z</time>
      </trkpt>
      <trkpt lat="44.12546" lon="1.24661">
        <ele>179.2</ele>
        <time>2023-07-07T05:28:06Z</time>
      </trkpt>
      <trkpt lat="44.12545" lon="1.2466">
        <ele>179.2</ele>
        <time>2023-07-07T05:28:07Z</time>
      </trkpt>
      <trkpt lat="44.12544" lon="1.2466">
        <ele>179.2</ele>
        <time>2023-07-07T05:28:08Z</time>
      </trkpt>
      <trkpt lat="44.1254" lon="1.24656">
        <ele>179.2</ele>
        <time>2023-07-07T05:28:12Z</time>
      </trkpt>
      <trkpt lat="44.12536" lon="1.24653">
        <ele>179.4</ele>
        <time>2023-07-07T05:28:15Z</time>
      </trkpt>
      <trkpt lat="44.12531" lon="1.24646">
        <ele>179.6</ele>
        <time>2023-07-07T05:28:21Z</time>
      </trkpt>
      <trkpt lat="44.12529" lon="1.24643">
        <ele>179.8</ele>
        <time>2023-07-07T05:28:24Z</time>
      </trkpt>
      <trkpt lat="44.12528" lon="1.2464">
        <ele>179.6</ele>
        <time>2023-07-07T05:28:27Z</time>
      </trkpt>
      <trkpt lat="44.12527" lon="1.24641">
        <ele>179.8</ele>
        <time>2023-07-07T05:28:29Z</time>
      </trkpt>
      <trkpt lat="44.12527" lon="1.24641">
        <ele>179.8</ele>
        <time>2023-07-07T05:28:30Z</time>
      </trkpt>
      <trkpt lat="44.12527" lon="1.24641">
        <ele>179.8</ele>
        <time>2023-07-07T05:28:32Z</time>
      </trkpt>
      <trkpt lat="44.12528" lon="1.2464">
        <ele>179.8</ele>
        <time>2023-07-07T05:28:34Z</time>
      </trkpt>
      <trkpt lat="44.12528" lon="1.2464">
        <ele>179.6</ele>
        <time>2023-07-07T05:28:36Z</time>
      </trkpt>
      <trkpt lat="44.1253" lon="1.24645">
        <ele>179.6</ele>
        <time>2023-07-07T05:28:41Z</time>
      </trkpt>
      <trkpt lat="44.1253" lon="1.24648">
        <ele>179.6</ele>
        <time>2023-07-07T05:28:43Z</time>
      </trkpt>
      <trkpt lat="44.12526" lon="1.24655">
        <ele>180.6</ele>
        <time>2023-07-07T05:28:50Z</time>
      </trkpt>
      <trkpt lat="44.12523" lon="1.24657">
        <ele>180.6</ele>
        <time>2023-07-07T05:28:52Z</time>
      </trkpt>
      <trkpt lat="44.12515" lon="1.24663">
        <ele>181</ele>
        <time>2023-07-07T05:29:00Z</time>
      </trkpt>
      <trkpt lat="44.12514" lon="1.24664">
        <ele>181</ele>
        <time>2023-07-07T05:29:01Z</time>
      </trkpt>
      <trkpt lat="44.12507" lon="1.24668">
        <ele>181.6</ele>
        <time>2023-07-07T05:29:08Z</time>
      </trkpt>
      <trkpt lat="44.12498" lon="1.24668">
        <ele>181.4</ele>
        <time>2023-07-07T05:29:15Z</time>
      </trkpt>
      <trkpt lat="44.12487" lon="1.24667">
        <ele>181.2</ele>
        <time>2023-07-07T05:29:25Z</time>
      </trkpt>
      <trkpt lat="44.12486" lon="1.24667">
        <ele>181.2</ele>
        <time>2023-07-07T05:29:26Z</time>
      </trkpt>
      <trkpt lat="44.12481" lon="1.24668">
        <ele>181</ele>
        <time>2023-07-07T05:29:30Z</time>
      </trkpt>
      <trkpt lat="44.12475" lon="1.24669">
        <ele>180.4</ele>
        <time>2023-07-07T05:29:35Z</time>
      </trkpt>
      <trkpt lat="44.12467" lon="1.24671">
        <ele>180.4</ele>
        <time>2023-07-07T05:29:42Z</time>
      </trkpt>
      <trkpt lat="44.12466" lon="1.24671">
        <ele>180.4</ele>
        <time>2023-07-07T05:29:43Z</time>
      </trkpt>
      <trkpt lat="44.12462" lon="1.24671">
        <ele>180.2</ele>
        <time>2023-07-07T05:29:46Z</time>
      </trkpt>
      <trkpt lat="44.1246" lon="1.2467">
        <ele>180.2</ele>
        <time>2023-07-07T05:29:48Z</time>
      </trkpt>
      <trkpt lat="44.12457" lon="1.2467">
        <ele>180.2</ele>
        <time>2023-07-07T05:29:50Z</time>
      </trkpt>
      <trkpt lat="44.12447" lon="1.2467">
        <ele>179.6</ele>
        <time>2023-07-07T05:29:58Z</time>
      </trkpt>
      <trkpt lat="44.12441" lon="1.24671">
        <ele>179.4</ele>
        <time>2023-07-07T05:30:03Z</time>
      </trkpt>
      <trkpt lat="44.12439" lon="1.24671">
        <ele>179.2</ele>
        <time>2023-07-07T05:30:05Z</time>
      </trkpt>
      <trkpt lat="44.12429" lon="1.24671">
        <ele>179</ele>
        <time>2023-07-07T05:30:13Z</time>
      </trkpt>
      <trkpt lat="44.12419" lon="1.24674">
        <ele>178.8</ele>
        <time>2023-07-07T05:30:21Z</time>
      </trkpt>
      <trkpt lat="44.12415" lon="1.24676">
        <ele>178.8</ele>
        <time>2023-07-07T05:30:25Z</time>
      </trkpt>
      <trkpt lat="44.12412" lon="1.24678">
        <ele>178.8</ele>
        <time>2023-07-07T05:30:28Z</time>
      </trkpt>
      <trkpt lat="44.1241" lon="1.24678">
        <ele>178.8</ele>
        <time>2023-07-07T05:30:30Z</time>
      </trkpt>
      <trkpt lat="44.12404" lon="1.24679">
        <ele>178.4</ele>
        <time>2023-07-07T05:30:35Z</time>
      </trkpt>
      <trkpt lat="44.12402" lon="1.2468">
        <ele>178.4</ele>
        <time>2023-07-07T05:30:37Z</time>
      </trkpt>
      <trkpt lat="44.12395" lon="1.24682">
        <ele>178.4</ele>
        <time>2023-07-07T05:30:44Z</time>
      </trkpt>
      <trkpt lat="44.12394" lon="1.24682">
        <ele>178.4</ele>
        <time>2023-07-07T05:30:45Z</time>
      </trkpt>
      <trkpt lat="44.12389" lon="1.24684">
        <ele>178.2</ele>
        <time>2023-07-07T05:30:49Z</time>
      </trkpt>
      <trkpt lat="44.12385" lon="1.24687">
        <ele>178.2</ele>
        <time>2023-07-07T05:30:53Z</time>
      </trkpt>
      <trkpt lat="44.12373" lon="1.24684">
        <ele>178</ele>
        <time>2023-07-07T05:31:02Z</time>
      </trkpt>
      <trkpt lat="44.1236" lon="1.24678">
        <ele>177.8</ele>
        <time>2023-07-07T05:31:11Z</time>
      </trkpt>
      <trkpt lat="44.12356" lon="1.24675">
        <ele>177.4</ele>
        <time>2023-07-07T05:31:15Z</time>
      </trkpt>
      <trkpt lat="44.12354" lon="1.24674">
        <ele>177.2</ele>
        <time>2023-07-07T05:31:18Z</time>
      </trkpt>
      <trkpt lat="44.12349" lon="1.24674">
        <ele>176.8</ele>
        <time>2023-07-07T05:31:23Z</time>
      </trkpt>
      <trkpt lat="44.12345" lon="1.24675">
        <ele>176.8</ele>
        <time>2023-07-07T05:31:25Z</time>
      </trkpt>
      <trkpt lat="44.1234" lon="1.24675">
        <ele>176.4</ele>
        <time>2023-07-07T05:31:28Z</time>
      </trkpt>
      <trkpt lat="44.1233" lon="1.24675">
        <ele>175.6</ele>
        <time>2023-07-07T05:31:35Z</time>
      </trkpt>
      <trkpt lat="44.12325" lon="1.24675">
        <ele>175.4</ele>
        <time>2023-07-07T05:31:39Z</time>
      </trkpt>
      <trkpt lat="44.12319" lon="1.24678">
        <ele>174.6</ele>
        <time>2023-07-07T05:31:43Z</time>
      </trkpt>
      <trkpt lat="44.12314" lon="1.24678">
        <ele>174</ele>
        <time>2023-07-07T05:31:46Z</time>
      </trkpt>
      <trkpt lat="44.1231" lon="1.24674">
        <ele>173.6</ele>
        <time>2023-07-07T05:31:50Z</time>
      </trkpt>
      <trkpt lat="44.12305" lon="1.24668">
        <ele>173</ele>
        <time>2023-07-07T05:31:56Z</time>
      </trkpt>
      <trkpt lat="44.12305" lon="1.24664">
        <ele>172.8</ele>
        <time>2023-07-07T05:31:58Z</time>
      </trkpt>
      <trkpt lat="44.12306" lon="1.24657">
        <ele>172</ele>
        <time>2023-07-07T05:32:02Z</time>
      </trkpt>
      <trkpt lat="44.12306" lon="1.24655">
        <ele>171.8</ele>
        <time>2023-07-07T05:32:03Z</time>
      </trkpt>
      <trkpt lat="44.12306" lon="1.24652">
        <ele>171.8</ele>
        <time>2023-07-07T05:32:05Z</time>
      </trkpt>
      <trkpt lat="44.12309" lon="1.24641">
        <ele>171.2</ele>
        <time>2023-07-07T05:32:13Z</time>
      </trkpt>
      <trkpt lat="44.1231" lon="1.24637">
        <ele>171</ele>
        <time>2023-07-07T05:32:16Z</time>
      </trkpt>
      <trkpt lat="44.12311" lon="1.24629">
        <ele>171</ele>
        <time>2023-07-07T05:32:20Z</time>
      </trkpt>
      <trkpt lat="44.12312" lon="1.24626">
        <ele>171</ele>
        <time>2023-07-07T05:32:22Z</time>
      </trkpt>
      <trkpt lat="44.12313" lon="1.24623">
        <ele>170.8</ele>
        <time>2023-07-07T05:32:23Z</time>
      </trkpt>
      <trkpt lat="44.12316" lon="1.24615">
        <ele>169.8</ele>
        <time>2023-07-07T05:32:28Z</time>
      </trkpt>
      <trkpt lat="44.12316" lon="1.24614">
        <ele>169.6</ele>
        <time>2023-07-07T05:32:29Z</time>
      </trkpt>
      <trkpt lat="44.12316" lon="1.24614">
        <ele>169.6</ele>
        <time>2023-07-07T05:32:30Z</time>
      </trkpt>
      <trkpt lat="44.12315" lon="1.24605">
        <ele>169.4</ele>
        <time>2023-07-07T05:32:33Z</time>
      </trkpt>
      <trkpt lat="44.12314" lon="1.24603">
        <ele>169.2</ele>
        <time>2023-07-07T05:32:34Z</time>
      </trkpt>
      <trkpt lat="44.1231" lon="1.24601">
        <ele>168.6</ele>
        <time>2023-07-07T05:32:38Z</time>
      </trkpt>
      <trkpt lat="44.12309" lon="1.24601">
        <ele>168.4</ele>
        <time>2023-07-07T05:32:39Z</time>
      </trkpt>
      <trkpt lat="44.12307" lon="1.24603">
        <ele>168</ele>
        <time>2023-07-07T05:32:41Z</time>
      </trkpt>
      <trkpt lat="44.12306" lon="1.24605">
        <ele>168</ele>
        <time>2023-07-07T05:32:42Z</time>
      </trkpt>
      <trkpt lat="44.12304" lon="1.24612">
        <ele>168</ele>
        <time>2023-07-07T05:32:46Z</time>
      </trkpt>
      <trkpt lat="44.12303" lon="1.24613">
        <ele>168</ele>
        <time>2023-07-07T05:32:47Z</time>
      </trkpt>
      <trkpt lat="44.12302" lon="1.24619">
        <ele>168</ele>
        <time>2023-07-07T05:32:51Z</time>
      </trkpt>
      <trkpt lat="44.12301" lon="1.24623">
        <ele>167.8</ele>
        <time>2023-07-07T05:32:54Z</time>
      </trkpt>
      <trkpt lat="44.12299" lon="1.24628">
        <ele>168</ele>
        <time>2023-07-07T05:32:58Z</time>
      </trkpt>
      <trkpt lat="44.12299" lon="1.24632">
        <ele>168</ele>
        <time>2023-07-07T05:33:00Z</time>
      </trkpt>
      <trkpt lat="44.12299" lon="1.24636">
        <ele>168</ele>
        <time>2023-07-07T05:33:01Z</time>
      </trkpt>
      <trkpt lat="44.12298" lon="1.24637">
        <ele>168</ele>
        <time>2023-07-07T05:33:02Z</time>
      </trkpt>
      <trkpt lat="44.12294" lon="1.24645">
        <ele>167.6</ele>
        <time>2023-07-07T05:33:07Z</time>
      </trkpt>
      <trkpt lat="44.12293" lon="1.24647">
        <ele>167.6</ele>
        <time>2023-07-07T05:33:08Z</time>
      </trkpt>
      <trkpt lat="44.12292" lon="1.2465">
        <ele>167.4</ele>
        <time>2023-07-07T05:33:11Z</time>
      </trkpt>
      <trkpt lat="44.12291" lon="1.2465">
        <ele>167.4</ele>
        <time>2023-07-07T05:33:12Z</time>
      </trkpt>
      <trkpt lat="44.1229" lon="1.24651">
        <ele>167.4</ele>
        <time>2023-07-07T05:33:14Z</time>
      </trkpt>
      <trkpt lat="44.12287" lon="1.24658">
        <ele>166.8</ele>
        <time>2023-07-07T05:33:18Z</time>
      </trkpt>
      <trkpt lat="44.12286" lon="1.24663">
        <ele>166.8</ele>
        <time>2023-07-07T05:33:21Z</time>
      </trkpt>
      <trkpt lat="44.12284" lon="1.24668">
        <ele>166.8</ele>
        <time>2023-07-07T05:33:25Z</time>
      </trkpt>
      <trkpt lat="44.12283" lon="1.24672">
        <ele>166.8</ele>
        <time>2023-07-07T05:33:28Z</time>
      </trkpt>
      <trkpt lat="44.12282" lon="1.24677">
        <ele>166.4</ele>
        <time>2023-07-07T05:33:30Z</time>
      </trkpt>
      <trkpt lat="44.12279" lon="1.24683">
        <ele>166.4</ele>
        <time>2023-07-07T05:33:33Z</time>
      </trkpt>
      <trkpt lat="44.12277" lon="1.2469">
        <ele>166</ele>
        <time>2023-07-07T05:33:37Z</time>
      </trkpt>
      <trkpt lat="44.12276" lon="1.24694">
        <ele>166</ele>
        <time>2023-07-07T05:33:40Z</time>
      </trkpt>
      <trkpt lat="44.12276" lon="1.24697">
        <ele>165.8</ele>
        <time>2023-07-07T05:33:42Z</time>
      </trkpt>
      <trkpt lat="44.12274" lon="1.24706">
        <ele>165.6</ele>
        <time>2023-07-07T05:33:46Z</time>
      </trkpt>
      <trkpt lat="44.12267" lon="1.24728">
        <ele>165.4</ele>
        <time>2023-07-07T05:33:53Z</time>
      </trkpt>
      <trkpt lat="44.12265" lon="1.2474">
        <ele>165.2</ele>
        <time>2023-07-07T05:33:57Z</time>
      </trkpt>
      <trkpt lat="44.12263" lon="1.24748">
        <ele>165</ele>
        <time>2023-07-07T05:34:00Z</time>
      </trkpt>
      <trkpt lat="44.12262" lon="1.24751">
        <ele>164.8</ele>
        <time>2023-07-07T05:34:01Z</time>
      </trkpt>
      <trkpt lat="44.1226" lon="1.24758">
        <ele>164.4</ele>
        <time>2023-07-07T05:34:04Z</time>
      </trkpt>
      <trkpt lat="44.12259" lon="1.24759">
        <ele>164.4</ele>
        <time>2023-07-07T05:34:05Z</time>
      </trkpt>
      <trkpt lat="44.12258" lon="1.24762">
        <ele>164.2</ele>
        <time>2023-07-07T05:34:07Z</time>
      </trkpt>
      <trkpt lat="44.12258" lon="1.24764">
        <ele>164.2</ele>
        <time>2023-07-07T05:34:08Z</time>
      </trkpt>
      <trkpt lat="44.12258" lon="1.24765">
        <ele>164.2</ele>
        <time>2023-07-07T05:34:09Z</time>
      </trkpt>
      <trkpt lat="44.12256" lon="1.24773">
        <ele>163.6</ele>
        <time>2023-07-07T05:34:14Z</time>
      </trkpt>
      <trkpt lat="44.12256" lon="1.24775">
        <ele>163.6</ele>
        <time>2023-07-07T05:34:15Z</time>
      </trkpt>
      <trkpt lat="44.12254" lon="1.24787">
        <ele>163.4</ele>
        <time>2023-07-07T05:34:21Z</time>
      </trkpt>
      <trkpt lat="44.12254" lon="1.2479">
        <ele>163.2</ele>
        <time>2023-07-07T05:34:22Z</time>
      </trkpt>
      <trkpt lat="44.12251" lon="1.24803">
        <ele>162.8</ele>
        <time>2023-07-07T05:34:29Z</time>
      </trkpt>
      <trkpt lat="44.12244" lon="1.24815">
        <ele>162.8</ele>
        <time>2023-07-07T05:34:37Z</time>
      </trkpt>
      <trkpt lat="44.12241" lon="1.2482">
        <ele>162.2</ele>
        <time>2023-07-07T05:34:40Z</time>
      </trkpt>
      <trkpt lat="44.12238" lon="1.24824">
        <ele>161.6</ele>
        <time>2023-07-07T05:34:43Z</time>
      </trkpt>
      <trkpt lat="44.12234" lon="1.24833">
        <ele>161.4</ele>
        <time>2023-07-07T05:34:49Z</time>
      </trkpt>
      <trkpt lat="44.12232" lon="1.24837">
        <ele>161.2</ele>
        <time>2023-07-07T05:34:52Z</time>
      </trkpt>
      <trkpt lat="44.12231" lon="1.24839">
        <ele>161</ele>
        <time>2023-07-07T05:34:54Z</time>
      </trkpt>
      <trkpt lat="44.1223" lon="1.24842">
        <ele>160.6</ele>
        <time>2023-07-07T05:34:57Z</time>
      </trkpt>
      <trkpt lat="44.12229" lon="1.24843">
        <ele>160.6</ele>
        <time>2023-07-07T05:34:58Z</time>
      </trkpt>
      <trkpt lat="44.12227" lon="1.24846">
        <ele>160.4</ele>
        <time>2023-07-07T05:35:00Z</time>
      </trkpt>
      <trkpt lat="44.12226" lon="1.24848">
        <ele>160.2</ele>
        <time>2023-07-07T05:35:02Z</time>
      </trkpt>
      <trkpt lat="44.12223" lon="1.24852">
        <ele>160</ele>
        <time>2023-07-07T05:35:05Z</time>
      </trkpt>
      <trkpt lat="44.12221" lon="1.24855">
        <ele>160</ele>
        <time>2023-07-07T05:35:08Z</time>
      </trkpt>
      <trkpt lat="44.12216" lon="1.24864">
        <ele>159.4</ele>
        <time>2023-07-07T05:35:14Z</time>
      </trkpt>
      <trkpt lat="44.12215" lon="1.24865">
        <ele>159.4</ele>
        <time>2023-07-07T05:35:15Z</time>
      </trkpt>
      <trkpt lat="44.12211" lon="1.24871">
        <ele>159.2</ele>
        <time>2023-07-07T05:35:19Z</time>
      </trkpt>
      <trkpt lat="44.12208" lon="1.24875">
        <ele>158.8</ele>
        <time>2023-07-07T05:35:23Z</time>
      </trkpt>
      <trkpt lat="44.12204" lon="1.24879">
        <ele>158.6</ele>
        <time>2023-07-07T05:35:25Z</time>
      </trkpt>
      <trkpt lat="44.12202" lon="1.24882">
        <ele>158.2</ele>
        <time>2023-07-07T05:35:28Z</time>
      </trkpt>
      <trkpt lat="44.12201" lon="1.24883">
        <ele>158.2</ele>
        <time>2023-07-07T05:35:29Z</time>
      </trkpt>
      <trkpt lat="44.122" lon="1.24885">
        <ele>158.2</ele>
        <time>2023-07-07T05:35:30Z</time>
      </trkpt>
      <trkpt lat="44.12198" lon="1.24888">
        <ele>158</ele>
        <time>2023-07-07T05:35:32Z</time>
      </trkpt>
      <trkpt lat="44.12196" lon="1.24891">
        <ele>158</ele>
        <time>2023-07-07T05:35:34Z</time>
      </trkpt>
      <trkpt lat="44.12195" lon="1.24892">
        <ele>158</ele>
        <time>2023-07-07T05:35:35Z</time>
      </trkpt>
      <trkpt lat="44.12192" lon="1.24897">
        <ele>158</ele>
        <time>2023-07-07T05:35:38Z</time>
      </trkpt>
      <trkpt lat="44.12188" lon="1.24903">
        <ele>157.8</ele>
        <time>2023-07-07T05:35:41Z</time>
      </trkpt>
      <trkpt lat="44.12187" lon="1.24904">
        <ele>157.8</ele>
        <time>2023-07-07T05:35:42Z</time>
      </trkpt>
      <trkpt lat="44.12183" lon="1.2491">
        <ele>157.2</ele>
        <time>2023-07-07T05:35:46Z</time>
      </trkpt>
      <trkpt lat="44.1218" lon="1.24914">
        <ele>156.8</ele>
        <time>2023-07-07T05:35:49Z</time>
      </trkpt>
      <trkpt lat="44.12174" lon="1.24924">
        <ele>156.2</ele>
        <time>2023-07-07T05:35:56Z</time>
      </trkpt>
      <trkpt lat="44.12169" lon="1.24931">
        <ele>155.6</ele>
        <time>2023-07-07T05:36:03Z</time>
      </trkpt>
      <trkpt lat="44.12162" lon="1.24941">
        <ele>155.4</ele>
        <time>2023-07-07T05:36:10Z</time>
      </trkpt>
      <trkpt lat="44.12161" lon="1.24944">
        <ele>155</ele>
        <time>2023-07-07T05:36:13Z</time>
      </trkpt>
      <trkpt lat="44.12159" lon="1.24946">
        <ele>154.8</ele>
        <time>2023-07-07T05:36:15Z</time>
      </trkpt>
      <trkpt lat="44.12154" lon="1.24951">
        <ele>154.6</ele>
        <time>2023-07-07T05:36:21Z</time>
      </trkpt>
      <trkpt lat="44.12153" lon="1.24953">
        <ele>154.4</ele>
        <time>2023-07-07T05:36:22Z</time>
      </trkpt>
      <trkpt lat="44.12149" lon="1.24958">
        <ele>154</ele>
        <time>2023-07-07T05:36:26Z</time>
      </trkpt>
      <trkpt lat="44.12147" lon="1.24963">
        <ele>153.6</ele>
        <time>2023-07-07T05:36:29Z</time>
      </trkpt>
      <trkpt lat="44.12146" lon="1.24965">
        <ele>153.6</ele>
        <time>2023-07-07T05:36:30Z</time>
      </trkpt>
      <trkpt lat="44.12144" lon="1.24967">
        <ele>153.6</ele>
        <time>2023-07-07T05:36:33Z</time>
      </trkpt>
      <trkpt lat="44.12143" lon="1.24968">
        <ele>153.4</ele>
        <time>2023-07-07T05:36:34Z</time>
      </trkpt>
      <trkpt lat="44.12141" lon="1.2497">
        <ele>153</ele>
        <time>2023-07-07T05:36:36Z</time>
      </trkpt>
      <trkpt lat="44.12141" lon="1.24971">
        <ele>153</ele>
        <time>2023-07-07T05:36:37Z</time>
      </trkpt>
      <trkpt lat="44.1214" lon="1.24973">
        <ele>152.8</ele>
        <time>2023-07-07T05:36:38Z</time>
      </trkpt>
      <trkpt lat="44.12136" lon="1.24982">
        <ele>152.8</ele>
        <time>2023-07-07T05:36:42Z</time>
      </trkpt>
      <trkpt lat="44.1213" lon="1.24998">
        <ele>152.8</ele>
        <time>2023-07-07T05:36:49Z</time>
      </trkpt>
      <trkpt lat="44.12127" lon="1.25004">
        <ele>152.6</ele>
        <time>2023-07-07T05:36:55Z</time>
      </trkpt>
      <trkpt lat="44.12123" lon="1.25012">
        <ele>152.4</ele>
        <time>2023-07-07T05:36:59Z</time>
      </trkpt>
      <trkpt lat="44.1212" lon="1.25019">
        <ele>152</ele>
        <time>2023-07-07T05:37:03Z</time>
      </trkpt>
      <trkpt lat="44.12119" lon="1.2502">
        <ele>151.8</ele>
        <time>2023-07-07T05:37:04Z</time>
      </trkpt>
      <trkpt lat="44.12115" lon="1.25029">
        <ele>151.2</ele>
        <time>2023-07-07T05:37:11Z</time>
      </trkpt>
      <trkpt lat="44.12114" lon="1.25031">
        <ele>151.2</ele>
        <time>2023-07-07T05:37:12Z</time>
      </trkpt>
      <trkpt lat="44.12111" lon="1.2504">
        <ele>150.8</ele>
        <time>2023-07-07T05:37:17Z</time>
      </trkpt>
      <trkpt lat="44.12109" lon="1.25047">
        <ele>150.6</ele>
        <time>2023-07-07T05:37:20Z</time>
      </trkpt>
      <trkpt lat="44.12108" lon="1.2505">
        <ele>150.4</ele>
        <time>2023-07-07T05:37:22Z</time>
      </trkpt>
      <trkpt lat="44.12107" lon="1.25053">
        <ele>150.6</ele>
        <time>2023-07-07T05:37:24Z</time>
      </trkpt>
      <trkpt lat="44.12108" lon="1.25061">
        <ele>150.2</ele>
        <time>2023-07-07T05:37:29Z</time>
      </trkpt>
      <trkpt lat="44.12108" lon="1.25063">
        <ele>150</ele>
        <time>2023-07-07T05:37:30Z</time>
      </trkpt>
      <trkpt lat="44.12107" lon="1.25071">
        <ele>149.6</ele>
        <time>2023-07-07T05:37:36Z</time>
      </trkpt>
      <trkpt lat="44.12109" lon="1.25075">
        <ele>149.6</ele>
        <time>2023-07-07T05:37:38Z</time>
      </trkpt>
      <trkpt lat="44.1211" lon="1.25077">
        <ele>149.6</ele>
        <time>2023-07-07T05:37:40Z</time>
      </trkpt>
      <trkpt lat="44.12111" lon="1.25081">
        <ele>149.6</ele>
        <time>2023-07-07T05:37:43Z</time>
      </trkpt>
      <trkpt lat="44.12111" lon="1.25083">
        <ele>149.6</ele>
        <time>2023-07-07T05:37:44Z</time>
      </trkpt>
      <trkpt lat="44.12112" lon="1.25092">
        <ele>149.4</ele>
        <time>2023-07-07T05:37:50Z</time>
      </trkpt>
      <trkpt lat="44.12114" lon="1.25102">
        <ele>149</ele>
        <time>2023-07-07T05:37:57Z</time>
      </trkpt>
      <trkpt lat="44.12112" lon="1.25117">
        <ele>148.8</ele>
        <time>2023-07-07T05:38:04Z</time>
      </trkpt>
      <trkpt lat="44.12112" lon="1.25124">
        <ele>148.6</ele>
        <time>2023-07-07T05:38:07Z</time>
      </trkpt>
      <trkpt lat="44.1211" lon="1.25132">
        <ele>148.6</ele>
        <time>2023-07-07T05:38:11Z</time>
      </trkpt>
      <trkpt lat="44.1211" lon="1.25134">
        <ele>148.6</ele>
        <time>2023-07-07T05:38:12Z</time>
      </trkpt>
      <trkpt lat="44.1211" lon="1.2514">
        <ele>148.6</ele>
        <time>2023-07-07T05:38:15Z</time>
      </trkpt>
      <trkpt lat="44.12109" lon="1.25144">
        <ele>148.4</ele>
        <time>2023-07-07T05:38:17Z</time>
      </trkpt>
      <trkpt lat="44.12104" lon="1.25157">
        <ele>148.4</ele>
        <time>2023-07-07T05:38:24Z</time>
      </trkpt>
      <trkpt lat="44.12103" lon="1.25162">
        <ele>148.2</ele>
        <time>2023-07-07T05:38:27Z</time>
      </trkpt>
      <trkpt lat="44.12103" lon="1.25166">
        <ele>148</ele>
        <time>2023-07-07T05:38:29Z</time>
      </trkpt>
      <trkpt lat="44.12102" lon="1.25169">
        <ele>147.8</ele>
        <time>2023-07-07T05:38:31Z</time>
      </trkpt>
      <trkpt lat="44.12101" lon="1.25172">
        <ele>147.8</ele>
        <time>2023-07-07T05:38:33Z</time>
      </trkpt>
      <trkpt lat="44.121" lon="1.25174">
        <ele>147.6</ele>
        <time>2023-07-07T05:38:34Z</time>
      </trkpt>
      <trkpt lat="44.12098" lon="1.25176">
        <ele>147.6</ele>
        <time>2023-07-07T05:38:36Z</time>
      </trkpt>
      <trkpt lat="44.12097" lon="1.25177">
        <ele>147.6</ele>
        <time>2023-07-07T05:38:37Z</time>
      </trkpt>
      <trkpt lat="44.12091" lon="1.25189">
        <ele>146.8</ele>
        <time>2023-07-07T05:38:45Z</time>
      </trkpt>
      <trkpt lat="44.12088" lon="1.25193">
        <ele>147</ele>
        <time>2023-07-07T05:38:48Z</time>
      </trkpt>
      <trkpt lat="44.12083" lon="1.25197">
        <ele>146.6</ele>
        <time>2023-07-07T05:38:52Z</time>
      </trkpt>
      <trkpt lat="44.12077" lon="1.25203">
        <ele>146.8</ele>
        <time>2023-07-07T05:38:58Z</time>
      </trkpt>
      <trkpt lat="44.12076" lon="1.25204">
        <ele>146.6</ele>
        <time>2023-07-07T05:38:59Z</time>
      </trkpt>
      <trkpt lat="44.12075" lon="1.25206">
        <ele>146.6</ele>
        <time>2023-07-07T05:39:00Z</time>
      </trkpt>
      <trkpt lat="44.12071" lon="1.25211">
        <ele>146</ele>
        <time>2023-07-07T05:39:04Z</time>
      </trkpt>
      <trkpt lat="44.12068" lon="1.25214">
        <ele>145.8</ele>
        <time>2023-07-07T05:39:06Z</time>
      </trkpt>
      <trkpt lat="44.12062" lon="1.2522">
        <ele>145.8</ele>
        <time>2023-07-07T05:39:13Z</time>
      </trkpt>
      <trkpt lat="44.12059" lon="1.25222">
        <ele>145.4</ele>
        <time>2023-07-07T05:39:16Z</time>
      </trkpt>
      <trkpt lat="44.12057" lon="1.25224">
        <ele>145.2</ele>
        <time>2023-07-07T05:39:18Z</time>
      </trkpt>
      <trkpt lat="44.12055" lon="1.25227">
        <ele>145.2</ele>
        <time>2023-07-07T05:39:21Z</time>
      </trkpt>
      <trkpt lat="44.12053" lon="1.25229">
        <ele>145.2</ele>
        <time>2023-07-07T05:39:23Z</time>
      </trkpt>
      <trkpt lat="44.1205" lon="1.25234">
        <ele>145.2</ele>
        <time>2023-07-07T05:39:26Z</time>
      </trkpt>
      <trkpt lat="44.12048" lon="1.25238">
        <ele>145.2</ele>
        <time>2023-07-07T05:39:28Z</time>
      </trkpt>
      <trkpt lat="44.12045" lon="1.25244">
        <ele>145</ele>
        <time>2023-07-07T05:39:32Z</time>
      </trkpt>
      <trkpt lat="44.12044" lon="1.2525">
        <ele>145</ele>
        <time>2023-07-07T05:39:35Z</time>
      </trkpt>
      <trkpt lat="44.12044" lon="1.25258">
        <ele>145</ele>
        <time>2023-07-07T05:39:40Z</time>
      </trkpt>
      <trkpt lat="44.12044" lon="1.2526">
        <ele>145</ele>
        <time>2023-07-07T05:39:41Z</time>
      </trkpt>
      <trkpt lat="44.12043" lon="1.25267">
        <ele>145</ele>
        <time>2023-07-07T05:39:45Z</time>
      </trkpt>
      <trkpt lat="44.12044" lon="1.25273">
        <ele>144.8</ele>
        <time>2023-07-07T05:39:48Z</time>
      </trkpt>
      <trkpt lat="44.12043" lon="1.25275">
        <ele>144.8</ele>
        <time>2023-07-07T05:39:49Z</time>
      </trkpt>
      <trkpt lat="44.12042" lon="1.25283">
        <ele>144.6</ele>
        <time>2023-07-07T05:39:53Z</time>
      </trkpt>
      <trkpt lat="44.12042" lon="1.25288">
        <ele>144.6</ele>
        <time>2023-07-07T05:39:56Z</time>
      </trkpt>
      <trkpt lat="44.12042" lon="1.25296">
        <ele>144.6</ele>
        <time>2023-07-07T05:40:00Z</time>
      </trkpt>
      <trkpt lat="44.12043" lon="1.25304">
        <ele>144.4</ele>
        <time>2023-07-07T05:40:04Z</time>
      </trkpt>
      <trkpt lat="44.12044" lon="1.25311">
        <ele>144.4</ele>
        <time>2023-07-07T05:40:08Z</time>
      </trkpt>
      <trkpt lat="44.12045" lon="1.25315">
        <ele>144.4</ele>
        <time>2023-07-07T05:40:11Z</time>
      </trkpt>
      <trkpt lat="44.12045" lon="1.25324">
        <ele>144.4</ele>
        <time>2023-07-07T05:40:17Z</time>
      </trkpt>
      <trkpt lat="44.12043" lon="1.25331">
        <ele>144.2</ele>
        <time>2023-07-07T05:40:23Z</time>
      </trkpt>
      <trkpt lat="44.12043" lon="1.25334">
        <ele>144.2</ele>
        <time>2023-07-07T05:40:25Z</time>
      </trkpt>
      <trkpt lat="44.12041" lon="1.25338">
        <ele>144.2</ele>
        <time>2023-07-07T05:40:29Z</time>
      </trkpt>
      <trkpt lat="44.1204" lon="1.25341">
        <ele>144</ele>
        <time>2023-07-07T05:40:31Z</time>
      </trkpt>
      <trkpt lat="44.12039" lon="1.25345">
        <ele>144</ele>
        <time>2023-07-07T05:40:32Z</time>
      </trkpt>
      <trkpt lat="44.12038" lon="1.25348">
        <ele>144</ele>
        <time>2023-07-07T05:40:34Z</time>
      </trkpt>
      <trkpt lat="44.12038" lon="1.2535">
        <ele>144</ele>
        <time>2023-07-07T05:40:35Z</time>
      </trkpt>
      <trkpt lat="44.12037" lon="1.25352">
        <ele>144</ele>
        <time>2023-07-07T05:40:37Z</time>
      </trkpt>
      <trkpt lat="44.12034" lon="1.25366">
        <ele>143.4</ele>
        <time>2023-07-07T05:40:47Z</time>
      </trkpt>
      <trkpt lat="44.12032" lon="1.2537">
        <ele>143.4</ele>
        <time>2023-07-07T05:40:50Z</time>
      </trkpt>
      <trkpt lat="44.12031" lon="1.25379">
        <ele>143.2</ele>
        <time>2023-07-07T05:40:55Z</time>
      </trkpt>
      <trkpt lat="44.12029" lon="1.25386">
        <ele>143.2</ele>
        <time>2023-07-07T05:40:59Z</time>
      </trkpt>
      <trkpt lat="44.12026" lon="1.25395">
        <ele>143</ele>
        <time>2023-07-07T05:41:03Z</time>
      </trkpt>
      <trkpt lat="44.12023" lon="1.25403">
        <ele>143.2</ele>
        <time>2023-07-07T05:41:08Z</time>
      </trkpt>
      <trkpt lat="44.12021" lon="1.25407">
        <ele>143.2</ele>
        <time>2023-07-07T05:41:10Z</time>
      </trkpt>
      <trkpt lat="44.12014" lon="1.25419">
        <ele>143.2</ele>
        <time>2023-07-07T05:41:18Z</time>
      </trkpt>
      <trkpt lat="44.12011" lon="1.25426">
        <ele>143.2</ele>
        <time>2023-07-07T05:41:22Z</time>
      </trkpt>
      <trkpt lat="44.12009" lon="1.25431">
        <ele>143.2</ele>
        <time>2023-07-07T05:41:26Z</time>
      </trkpt>
      <trkpt lat="44.12005" lon="1.25437">
        <ele>143.2</ele>
        <time>2023-07-07T05:41:32Z</time>
      </trkpt>
      <trkpt lat="44.12004" lon="1.25441">
        <ele>143</ele>
        <time>2023-07-07T05:41:34Z</time>
      </trkpt>
      <trkpt lat="44.12002" lon="1.25446">
        <ele>143.2</ele>
        <time>2023-07-07T05:41:37Z</time>
      </trkpt>
      <trkpt lat="44.12" lon="1.2545">
        <ele>143.2</ele>
        <time>2023-07-07T05:41:39Z</time>
      </trkpt>
      <trkpt lat="44.12" lon="1.25455">
        <ele>143.6</ele>
        <time>2023-07-07T05:41:43Z</time>
      </trkpt>
      <trkpt lat="44.12001" lon="1.25459">
        <ele>143.6</ele>
        <time>2023-07-07T05:41:45Z</time>
      </trkpt>
      <trkpt lat="44.12001" lon="1.25464">
        <ele>143.6</ele>
        <time>2023-07-07T05:41:48Z</time>
      </trkpt>
      <trkpt lat="44.11998" lon="1.25468">
        <ele>143.8</ele>
        <time>2023-07-07T05:41:52Z</time>
      </trkpt>
      <trkpt lat="44.11998" lon="1.25469">
        <ele>143.6</ele>
        <time>2023-07-07T05:41:54Z</time>
      </trkpt>
      <trkpt lat="44.11997" lon="1.25473">
        <ele>143.8</ele>
        <time>2023-07-07T05:41:56Z</time>
      </trkpt>
      <trkpt lat="44.11997" lon="1.25475">
        <ele>143.8</ele>
        <time>2023-07-07T05:41:57Z</time>
      </trkpt>
      <trkpt lat="44.11997" lon="1.25479">
        <ele>144.2</ele>
        <time>2023-07-07T05:41:59Z</time>
      </trkpt>
      <trkpt lat="44.11996" lon="1.25483">
        <ele>144.4</ele>
        <time>2023-07-07T05:42:01Z</time>
      </trkpt>
      <trkpt lat="44.11996" lon="1.25486">
        <ele>144.4</ele>
        <time>2023-07-07T05:42:03Z</time>
      </trkpt>
      <trkpt lat="44.11995" lon="1.25493">
        <ele>144.6</ele>
        <time>2023-07-07T05:42:06Z</time>
      </trkpt>
      <trkpt lat="44.11993" lon="1.25506">
        <ele>145.2</ele>
        <time>2023-07-07T05:42:13Z</time>
      </trkpt>
      <trkpt lat="44.11993" lon="1.25509">
        <ele>145.4</ele>
        <time>2023-07-07T05:42:15Z</time>
      </trkpt>
      <trkpt lat="44.11993" lon="1.25514">
        <ele>145.4</ele>
        <time>2023-07-07T05:42:18Z</time>
      </trkpt>
      <trkpt lat="44.11993" lon="1.25518">
        <ele>145.4</ele>
        <time>2023-07-07T05:42:20Z</time>
      </trkpt>
      <trkpt lat="44.11994" lon="1.25531">
        <ele>146</ele>
        <time>2023-07-07T05:42:27Z</time>
      </trkpt>
      <trkpt lat="44.11992" lon="1.25541">
        <ele>146.4</ele>
        <time>2023-07-07T05:42:31Z</time>
      </trkpt>
      <trkpt lat="44.1199" lon="1.25549">
        <ele>146.6</ele>
        <time>2023-07-07T05:42:35Z</time>
      </trkpt>
      <trkpt lat="44.11987" lon="1.25561">
        <ele>147</ele>
        <time>2023-07-07T05:42:43Z</time>
      </trkpt>
      <trkpt lat="44.11985" lon="1.25567">
        <ele>147</ele>
        <time>2023-07-07T05:42:46Z</time>
      </trkpt>
      <trkpt lat="44.11981" lon="1.25576">
        <ele>147.2</ele>
        <time>2023-07-07T05:42:51Z</time>
      </trkpt>
      <trkpt lat="44.11977" lon="1.25583">
        <ele>147.6</ele>
        <time>2023-07-07T05:42:55Z</time>
      </trkpt>
      <trkpt lat="44.11975" lon="1.25589">
        <ele>147.4</ele>
        <time>2023-07-07T05:42:59Z</time>
      </trkpt>
      <trkpt lat="44.1197" lon="1.25598">
        <ele>147.8</ele>
        <time>2023-07-07T05:43:07Z</time>
      </trkpt>
      <trkpt lat="44.11964" lon="1.25608">
        <ele>147.4</ele>
        <time>2023-07-07T05:43:14Z</time>
      </trkpt>
      <trkpt lat="44.11957" lon="1.25619">
        <ele>147.4</ele>
        <time>2023-07-07T05:43:22Z</time>
      </trkpt>
      <trkpt lat="44.11951" lon="1.25628">
        <ele>147.2</ele>
        <time>2023-07-07T05:43:29Z</time>
      </trkpt>
      <trkpt lat="44.11946" lon="1.25634">
        <ele>146.8</ele>
        <time>2023-07-07T05:43:34Z</time>
      </trkpt>
      <trkpt lat="44.11945" lon="1.25637">
        <ele>146.6</ele>
        <time>2023-07-07T05:43:36Z</time>
      </trkpt>
      <trkpt lat="44.11943" lon="1.2564">
        <ele>146.6</ele>
        <time>2023-07-07T05:43:38Z</time>
      </trkpt>
      <trkpt lat="44.11943" lon="1.25642">
        <ele>146.6</ele>
        <time>2023-07-07T05:43:39Z</time>
      </trkpt>
      <trkpt lat="44.1194" lon="1.25646">
        <ele>146.6</ele>
        <time>2023-07-07T05:43:42Z</time>
      </trkpt>
      <trkpt lat="44.11939" lon="1.25647">
        <ele>146.6</ele>
        <time>2023-07-07T05:43:43Z</time>
      </trkpt>
      <trkpt lat="44.11936" lon="1.2565">
        <ele>146.6</ele>
        <time>2023-07-07T05:43:45Z</time>
      </trkpt>
      <trkpt lat="44.11932" lon="1.25656">
        <ele>146.2</ele>
        <time>2023-07-07T05:43:51Z</time>
      </trkpt>
      <trkpt lat="44.1193" lon="1.25659">
        <ele>146</ele>
        <time>2023-07-07T05:43:54Z</time>
      </trkpt>
      <trkpt lat="44.11929" lon="1.2566">
        <ele>145.8</ele>
        <time>2023-07-07T05:43:55Z</time>
      </trkpt>
      <trkpt lat="44.11927" lon="1.25667">
        <ele>145.8</ele>
        <time>2023-07-07T05:43:59Z</time>
      </trkpt>
      <trkpt lat="44.11925" lon="1.25673">
        <ele>145.4</ele>
        <time>2023-07-07T05:44:02Z</time>
      </trkpt>
      <trkpt lat="44.11923" lon="1.25677">
        <ele>145.2</ele>
        <time>2023-07-07T05:44:04Z</time>
      </trkpt>
      <trkpt lat="44.1192" lon="1.25683">
        <ele>145.2</ele>
        <time>2023-07-07T05:44:08Z</time>
      </trkpt>
      <trkpt lat="44.11917" lon="1.25689">
        <ele>145.2</ele>
        <time>2023-07-07T05:44:12Z</time>
      </trkpt>
      <trkpt lat="44.11912" lon="1.25697">
        <ele>144.4</ele>
        <time>2023-07-07T05:44:19Z</time>
      </trkpt>
      <trkpt lat="44.11912" lon="1.25699">
        <ele>144.4</ele>
        <time>2023-07-07T05:44:20Z</time>
      </trkpt>
      <trkpt lat="44.11905" lon="1.25716">
        <ele>144</ele>
        <time>2023-07-07T05:44:29Z</time>
      </trkpt>
      <trkpt lat="44.11901" lon="1.25731">
        <ele>143.8</ele>
        <time>2023-07-07T05:44:40Z</time>
      </trkpt>
      <trkpt lat="44.119" lon="1.25733">
        <ele>143.6</ele>
        <time>2023-07-07T05:44:41Z</time>
      </trkpt>
      <trkpt lat="44.119" lon="1.25734">
        <ele>143.4</ele>
        <time>2023-07-07T05:44:42Z</time>
      </trkpt>
      <trkpt lat="44.11897" lon="1.25745">
        <ele>143.2</ele>
        <time>2023-07-07T05:44:48Z</time>
      </trkpt>
      <trkpt lat="44.11897" lon="1.25747">
        <ele>143.2</ele>
        <time>2023-07-07T05:44:49Z</time>
      </trkpt>
      <trkpt lat="44.11896" lon="1.25756">
        <ele>143.4</ele>
        <time>2023-07-07T05:44:54Z</time>
      </trkpt>
      <trkpt lat="44.11897" lon="1.25763">
        <ele>143.4</ele>
        <time>2023-07-07T05:44:58Z</time>
      </trkpt>
      <trkpt lat="44.11897" lon="1.25765">
        <ele>143.4</ele>
        <time>2023-07-07T05:44:59Z</time>
      </trkpt>
      <trkpt lat="44.11894" lon="1.25786">
        <ele>143.4</ele>
        <time>2023-07-07T05:45:10Z</time>
      </trkpt>
      <trkpt lat="44.11893" lon="1.25788">
        <ele>143.4</ele>
        <time>2023-07-07T05:45:11Z</time>
      </trkpt>
      <trkpt lat="44.11894" lon="1.25808">
        <ele>143.6</ele>
        <time>2023-07-07T05:45:21Z</time>
      </trkpt>
      <trkpt lat="44.11895" lon="1.25812">
        <ele>143.4</ele>
        <time>2023-07-07T05:45:23Z</time>
      </trkpt>
      <trkpt lat="44.11895" lon="1.2582">
        <ele>143.6</ele>
        <time>2023-07-07T05:45:28Z</time>
      </trkpt>
      <trkpt lat="44.11895" lon="1.25827">
        <ele>143.8</ele>
        <time>2023-07-07T05:45:32Z</time>
      </trkpt>
      <trkpt lat="44.11896" lon="1.25832">
        <ele>143.8</ele>
        <time>2023-07-07T05:45:35Z</time>
      </trkpt>
      <trkpt lat="44.11897" lon="1.25845">
        <ele>144</ele>
        <time>2023-07-07T05:45:42Z</time>
      </trkpt>
      <trkpt lat="44.11897" lon="1.25855">
        <ele>144</ele>
        <time>2023-07-07T05:45:48Z</time>
      </trkpt>
      <trkpt lat="44.11899" lon="1.25867">
        <ele>144.2</ele>
        <time>2023-07-07T05:45:55Z</time>
      </trkpt>
      <trkpt lat="44.11899" lon="1.25879">
        <ele>144.4</ele>
        <time>2023-07-07T05:46:02Z</time>
      </trkpt>
      <trkpt lat="44.11899" lon="1.25884">
        <ele>144.4</ele>
        <time>2023-07-07T05:46:05Z</time>
      </trkpt>
      <trkpt lat="44.11899" lon="1.25885">
        <ele>144.6</ele>
        <time>2023-07-07T05:46:06Z</time>
      </trkpt>
      <trkpt lat="44.119" lon="1.25888">
        <ele>144.8</ele>
        <time>2023-07-07T05:46:08Z</time>
      </trkpt>
      <trkpt lat="44.11901" lon="1.2589">
        <ele>144.6</ele>
        <time>2023-07-07T05:46:09Z</time>
      </trkpt>
      <trkpt lat="44.11901" lon="1.25891">
        <ele>144.8</ele>
        <time>2023-07-07T05:46:10Z</time>
      </trkpt>
      <trkpt lat="44.11903" lon="1.25897">
        <ele>145</ele>
        <time>2023-07-07T05:46:13Z</time>
      </trkpt>
      <trkpt lat="44.11903" lon="1.25901">
        <ele>145</ele>
        <time>2023-07-07T05:46:15Z</time>
      </trkpt>
      <trkpt lat="44.11903" lon="1.25905">
        <ele>145</ele>
        <time>2023-07-07T05:46:17Z</time>
      </trkpt>
      <trkpt lat="44.11904" lon="1.25913">
        <ele>145.6</ele>
        <time>2023-07-07T05:46:21Z</time>
      </trkpt>
      <trkpt lat="44.11904" lon="1.25921">
        <ele>146</ele>
        <time>2023-07-07T05:46:26Z</time>
      </trkpt>
      <trkpt lat="44.11909" lon="1.25932">
        <ele>146.2</ele>
        <time>2023-07-07T05:46:33Z</time>
      </trkpt>
      <trkpt lat="44.1191" lon="1.25933">
        <ele>146.2</ele>
        <time>2023-07-07T05:46:34Z</time>
      </trkpt>
      <trkpt lat="44.1191" lon="1.25934">
        <ele>146.2</ele>
        <time>2023-07-07T05:46:35Z</time>
      </trkpt>
      <trkpt lat="44.1191" lon="1.25937">
        <ele>146.2</ele>
        <time>2023-07-07T05:46:36Z</time>
      </trkpt>
      <trkpt lat="44.11911" lon="1.25938">
        <ele>146.4</ele>
        <time>2023-07-07T05:46:37Z</time>
      </trkpt>
      <trkpt lat="44.11911" lon="1.2594">
        <ele>146.6</ele>
        <time>2023-07-07T05:46:38Z</time>
      </trkpt>
      <trkpt lat="44.11911" lon="1.25941">
        <ele>146.6</ele>
        <time>2023-07-07T05:46:39Z</time>
      </trkpt>
      <trkpt lat="44.11911" lon="1.25943">
        <ele>146.6</ele>
        <time>2023-07-07T05:46:40Z</time>
      </trkpt>
      <trkpt lat="44.11911" lon="1.25945">
        <ele>146.6</ele>
        <time>2023-07-07T05:46:41Z</time>
      </trkpt>
      <trkpt lat="44.11911" lon="1.25953">
        <ele>146.6</ele>
        <time>2023-07-07T05:46:45Z</time>
      </trkpt>
      <trkpt lat="44.11911" lon="1.25954">
        <ele>146.6</ele>
        <time>2023-07-07T05:46:46Z</time>
      </trkpt>
      <trkpt lat="44.1191" lon="1.25966">
        <ele>147.6</ele>
        <time>2023-07-07T05:46:53Z</time>
      </trkpt>
      <trkpt lat="44.1191" lon="1.25978">
        <ele>148.2</ele>
        <time>2023-07-07T05:47:00Z</time>
      </trkpt>
      <trkpt lat="44.11912" lon="1.25988">
        <ele>148.6</ele>
        <time>2023-07-07T05:47:06Z</time>
      </trkpt>
      <trkpt lat="44.11912" lon="1.25991">
        <ele>148.6</ele>
        <time>2023-07-07T05:47:08Z</time>
      </trkpt>
      <trkpt lat="44.11912" lon="1.25996">
        <ele>148.8</ele>
        <time>2023-07-07T05:47:11Z</time>
      </trkpt>
      <trkpt lat="44.11912" lon="1.26001">
        <ele>149.2</ele>
        <time>2023-07-07T05:47:15Z</time>
      </trkpt>
      <trkpt lat="44.11911" lon="1.26013">
        <ele>149.6</ele>
        <time>2023-07-07T05:47:22Z</time>
      </trkpt>
      <trkpt lat="44.11911" lon="1.26015">
        <ele>149.8</ele>
        <time>2023-07-07T05:47:23Z</time>
      </trkpt>
      <trkpt lat="44.11909" lon="1.26029">
        <ele>150</ele>
        <time>2023-07-07T05:47:31Z</time>
      </trkpt>
      <trkpt lat="44.11907" lon="1.26037">
        <ele>150.4</ele>
        <time>2023-07-07T05:47:36Z</time>
      </trkpt>
      <trkpt lat="44.11907" lon="1.26039">
        <ele>150.6</ele>
        <time>2023-07-07T05:47:37Z</time>
      </trkpt>
      <trkpt lat="44.11906" lon="1.26043">
        <ele>150.8</ele>
        <time>2023-07-07T05:47:39Z</time>
      </trkpt>
      <trkpt lat="44.11902" lon="1.26055">
        <ele>151</ele>
        <time>2023-07-07T05:47:47Z</time>
      </trkpt>
      <trkpt lat="44.119" lon="1.26066">
        <ele>151.4</ele>
        <time>2023-07-07T05:47:54Z</time>
      </trkpt>
      <trkpt lat="44.11898" lon="1.2607">
        <ele>151.6</ele>
        <time>2023-07-07T05:47:56Z</time>
      </trkpt>
      <trkpt lat="44.11897" lon="1.26071">
        <ele>151.6</ele>
        <time>2023-07-07T05:47:57Z</time>
      </trkpt>
      <trkpt lat="44.11896" lon="1.26076">
        <ele>152</ele>
        <time>2023-07-07T05:48:00Z</time>
      </trkpt>
      <trkpt lat="44.11893" lon="1.26084">
        <ele>152.2</ele>
        <time>2023-07-07T05:48:06Z</time>
      </trkpt>
      <trkpt lat="44.11891" lon="1.26094">
        <ele>152.6</ele>
        <time>2023-07-07T05:48:13Z</time>
      </trkpt>
      <trkpt lat="44.1189" lon="1.261">
        <ele>152.6</ele>
        <time>2023-07-07T05:48:17Z</time>
      </trkpt>
      <trkpt lat="44.1189" lon="1.26104">
        <ele>152.8</ele>
        <time>2023-07-07T05:48:21Z</time>
      </trkpt>
      <trkpt lat="44.11889" lon="1.26108">
        <ele>153</ele>
        <time>2023-07-07T05:48:24Z</time>
      </trkpt>
      <trkpt lat="44.11888" lon="1.26113">
        <ele>153.4</ele>
        <time>2023-07-07T05:48:26Z</time>
      </trkpt>
      <trkpt lat="44.11883" lon="1.26131">
        <ele>154</ele>
        <time>2023-07-07T05:48:35Z</time>
      </trkpt>
      <trkpt lat="44.11883" lon="1.26132">
        <ele>154.2</ele>
        <time>2023-07-07T05:48:36Z</time>
      </trkpt>
      <trkpt lat="44.11881" lon="1.26137">
        <ele>154.4</ele>
        <time>2023-07-07T05:48:40Z</time>
      </trkpt>
      <trkpt lat="44.1188" lon="1.26142">
        <ele>154.8</ele>
        <time>2023-07-07T05:48:44Z</time>
      </trkpt>
      <trkpt lat="44.11878" lon="1.26153">
        <ele>155.2</ele>
        <time>2023-07-07T05:48:50Z</time>
      </trkpt>
      <trkpt lat="44.11876" lon="1.26158">
        <ele>155.2</ele>
        <time>2023-07-07T05:48:53Z</time>
      </trkpt>
      <trkpt lat="44.11873" lon="1.26167">
        <ele>155.6</ele>
        <time>2023-07-07T05:48:59Z</time>
      </trkpt>
      <trkpt lat="44.11872" lon="1.26172">
        <ele>156.2</ele>
        <time>2023-07-07T05:49:02Z</time>
      </trkpt>
      <trkpt lat="44.11869" lon="1.26185">
        <ele>156.8</ele>
        <time>2023-07-07T05:49:10Z</time>
      </trkpt>
      <trkpt lat="44.11868" lon="1.26186">
        <ele>156.8</ele>
        <time>2023-07-07T05:49:11Z</time>
      </trkpt>
      <trkpt lat="44.11866" lon="1.26195">
        <ele>157</ele>
        <time>2023-07-07T05:49:17Z</time>
      </trkpt>
      <trkpt lat="44.11865" lon="1.26198">
        <ele>157.2</ele>
        <time>2023-07-07T05:49:19Z</time>
      </trkpt>
      <trkpt lat="44.11861" lon="1.26208">
        <ele>157.8</ele>
        <time>2023-07-07T05:49:27Z</time>
      </trkpt>
      <trkpt lat="44.11861" lon="1.2621">
        <ele>157.8</ele>
        <time>2023-07-07T05:49:28Z</time>
      </trkpt>
      <trkpt lat="44.11859" lon="1.26218">
        <ele>158.2</ele>
        <time>2023-07-07T05:49:33Z</time>
      </trkpt>
      <trkpt lat="44.11857" lon="1.26222">
        <ele>158.4</ele>
        <time>2023-07-07T05:49:36Z</time>
      </trkpt>
      <trkpt lat="44.11857" lon="1.26225">
        <ele>158.4</ele>
        <time>2023-07-07T05:49:38Z</time>
      </trkpt>
      <trkpt lat="44.11856" lon="1.2623">
        <ele>158.6</ele>
        <time>2023-07-07T05:49:41Z</time>
      </trkpt>
      <trkpt lat="44.11854" lon="1.26236">
        <ele>159</ele>
        <time>2023-07-07T05:49:44Z</time>
      </trkpt>
      <trkpt lat="44.11852" lon="1.26245">
        <ele>159.2</ele>
        <time>2023-07-07T05:49:48Z</time>
      </trkpt>
      <trkpt lat="44.1185" lon="1.26252">
        <ele>159.2</ele>
        <time>2023-07-07T05:49:53Z</time>
      </trkpt>
      <trkpt lat="44.11849" lon="1.26253">
        <ele>159.4</ele>
        <time>2023-07-07T05:49:54Z</time>
      </trkpt>
      <trkpt lat="44.11847" lon="1.26266">
        <ele>160</ele>
        <time>2023-07-07T05:50:01Z</time>
      </trkpt>
      <trkpt lat="44.11845" lon="1.26275">
        <ele>160.4</ele>
        <time>2023-07-07T05:50:06Z</time>
      </trkpt>
      <trkpt lat="44.11844" lon="1.2628">
        <ele>161</ele>
        <time>2023-07-07T05:50:09Z</time>
      </trkpt>
      <trkpt lat="44.11844" lon="1.26282">
        <ele>161</ele>
        <time>2023-07-07T05:50:10Z</time>
      </trkpt>
      <trkpt lat="44.11843" lon="1.26289">
        <ele>161.2</ele>
        <time>2023-07-07T05:50:14Z</time>
      </trkpt>
      <trkpt lat="44.11843" lon="1.26293">
        <ele>161.4</ele>
        <time>2023-07-07T05:50:16Z</time>
      </trkpt>
      <trkpt lat="44.11843" lon="1.26299">
        <ele>161.4</ele>
        <time>2023-07-07T05:50:19Z</time>
      </trkpt>
      <trkpt lat="44.11842" lon="1.26308">
        <ele>162</ele>
        <time>2023-07-07T05:50:24Z</time>
      </trkpt>
      <trkpt lat="44.11842" lon="1.26309">
        <ele>162</ele>
        <time>2023-07-07T05:50:25Z</time>
      </trkpt>
      <trkpt lat="44.11841" lon="1.26313">
        <ele>162</ele>
        <time>2023-07-07T05:50:27Z</time>
      </trkpt>
      <trkpt lat="44.11841" lon="1.26319">
        <ele>162.4</ele>
        <time>2023-07-07T05:50:31Z</time>
      </trkpt>
      <trkpt lat="44.11839" lon="1.26327">
        <ele>162.2</ele>
        <time>2023-07-07T05:50:36Z</time>
      </trkpt>
      <trkpt lat="44.11839" lon="1.2633">
        <ele>162.4</ele>
        <time>2023-07-07T05:50:38Z</time>
      </trkpt>
      <trkpt lat="44.11839" lon="1.26334">
        <ele>162.4</ele>
        <time>2023-07-07T05:50:40Z</time>
      </trkpt>
      <trkpt lat="44.11838" lon="1.26337">
        <ele>162.6</ele>
        <time>2023-07-07T05:50:42Z</time>
      </trkpt>
      <trkpt lat="44.11838" lon="1.26343">
        <ele>162.8</ele>
        <time>2023-07-07T05:50:45Z</time>
      </trkpt>
      <trkpt lat="44.11838" lon="1.26347">
        <ele>162.8</ele>
        <time>2023-07-07T05:50:47Z</time>
      </trkpt>
      <trkpt lat="44.11837" lon="1.26349">
        <ele>163</ele>
        <time>2023-07-07T05:50:48Z</time>
      </trkpt>
      <trkpt lat="44.11837" lon="1.26354">
        <ele>163.4</ele>
        <time>2023-07-07T05:50:51Z</time>
      </trkpt>
      <trkpt lat="44.11836" lon="1.26358">
        <ele>163.6</ele>
        <time>2023-07-07T05:50:53Z</time>
      </trkpt>
      <trkpt lat="44.11835" lon="1.26361">
        <ele>164</ele>
        <time>2023-07-07T05:50:55Z</time>
      </trkpt>
      <trkpt lat="44.11834" lon="1.26367">
        <ele>164.2</ele>
        <time>2023-07-07T05:50:58Z</time>
      </trkpt>
      <trkpt lat="44.11834" lon="1.26368">
        <ele>164.2</ele>
        <time>2023-07-07T05:50:59Z</time>
      </trkpt>
      <trkpt lat="44.11833" lon="1.26373">
        <ele>164.2</ele>
        <time>2023-07-07T05:51:02Z</time>
      </trkpt>
      <trkpt lat="44.11833" lon="1.26377">
        <ele>164.2</ele>
        <time>2023-07-07T05:51:04Z</time>
      </trkpt>
      <trkpt lat="44.11833" lon="1.26384">
        <ele>164.6</ele>
        <time>2023-07-07T05:51:08Z</time>
      </trkpt>
      <trkpt lat="44.11832" lon="1.26394">
        <ele>164.8</ele>
        <time>2023-07-07T05:51:13Z</time>
      </trkpt>
      <trkpt lat="44.1183" lon="1.26403">
        <ele>165.2</ele>
        <time>2023-07-07T05:51:18Z</time>
      </trkpt>
      <trkpt lat="44.1183" lon="1.26405">
        <ele>165.2</ele>
        <time>2023-07-07T05:51:19Z</time>
      </trkpt>
      <trkpt lat="44.11832" lon="1.26407">
        <ele>165.2</ele>
        <time>2023-07-07T05:51:21Z</time>
      </trkpt>
      <trkpt lat="44.11832" lon="1.2641">
        <ele>165.4</ele>
        <time>2023-07-07T05:51:23Z</time>
      </trkpt>
      <trkpt lat="44.11832" lon="1.26418">
        <ele>165.6</ele>
        <time>2023-07-07T05:51:28Z</time>
      </trkpt>
      <trkpt lat="44.11831" lon="1.26424">
        <ele>165.6</ele>
        <time>2023-07-07T05:51:31Z</time>
      </trkpt>
      <trkpt lat="44.1183" lon="1.26435">
        <ele>166.2</ele>
        <time>2023-07-07T05:51:37Z</time>
      </trkpt>
      <trkpt lat="44.1183" lon="1.26436">
        <ele>166.2</ele>
        <time>2023-07-07T05:51:38Z</time>
      </trkpt>
      <trkpt lat="44.11828" lon="1.26447">
        <ele>166.4</ele>
        <time>2023-07-07T05:51:44Z</time>
      </trkpt>
      <trkpt lat="44.11828" lon="1.26449">
        <ele>166.4</ele>
        <time>2023-07-07T05:51:45Z</time>
      </trkpt>
      <trkpt lat="44.11828" lon="1.26451">
        <ele>166.6</ele>
        <time>2023-07-07T05:51:46Z</time>
      </trkpt>
      <trkpt lat="44.11827" lon="1.26456">
        <ele>167</ele>
        <time>2023-07-07T05:51:49Z</time>
      </trkpt>
      <trkpt lat="44.11827" lon="1.2646">
        <ele>167.2</ele>
        <time>2023-07-07T05:51:52Z</time>
      </trkpt>
      <trkpt lat="44.11828" lon="1.26462">
        <ele>167.2</ele>
        <time>2023-07-07T05:51:53Z</time>
      </trkpt>
      <trkpt lat="44.11829" lon="1.26464">
        <ele>167.4</ele>
        <time>2023-07-07T05:51:54Z</time>
      </trkpt>
      <trkpt lat="44.11829" lon="1.26475">
        <ele>167.4</ele>
        <time>2023-07-07T05:52:01Z</time>
      </trkpt>
      <trkpt lat="44.11829" lon="1.26477">
        <ele>167.4</ele>
        <time>2023-07-07T05:52:02Z</time>
      </trkpt>
      <trkpt lat="44.11828" lon="1.2648">
        <ele>167.8</ele>
        <time>2023-07-07T05:52:04Z</time>
      </trkpt>
      <trkpt lat="44.11829" lon="1.26491">
        <ele>168.2</ele>
        <time>2023-07-07T05:52:10Z</time>
      </trkpt>
      <trkpt lat="44.11831" lon="1.26501">
        <ele>168.4</ele>
        <time>2023-07-07T05:52:18Z</time>
      </trkpt>
      <trkpt lat="44.1183" lon="1.26506">
        <ele>168.6</ele>
        <time>2023-07-07T05:52:22Z</time>
      </trkpt>
      <trkpt lat="44.1183" lon="1.26508">
        <ele>168.8</ele>
        <time>2023-07-07T05:52:23Z</time>
      </trkpt>
      <trkpt lat="44.11831" lon="1.26515">
        <ele>169.4</ele>
        <time>2023-07-07T05:52:27Z</time>
      </trkpt>
      <trkpt lat="44.11829" lon="1.26525">
        <ele>169.8</ele>
        <time>2023-07-07T05:52:34Z</time>
      </trkpt>
      <trkpt lat="44.11829" lon="1.26527">
        <ele>169.8</ele>
        <time>2023-07-07T05:52:35Z</time>
      </trkpt>
      <trkpt lat="44.11829" lon="1.26539">
        <ele>170.2</ele>
        <time>2023-07-07T05:52:43Z</time>
      </trkpt>
      <trkpt lat="44.11828" lon="1.2654">
        <ele>170.2</ele>
        <time>2023-07-07T05:52:44Z</time>
      </trkpt>
      <trkpt lat="44.11828" lon="1.26541">
        <ele>170.2</ele>
        <time>2023-07-07T05:52:45Z</time>
      </trkpt>
      <trkpt lat="44.11828" lon="1.26544">
        <ele>170.4</ele>
        <time>2023-07-07T05:52:47Z</time>
      </trkpt>
      <trkpt lat="44.11827" lon="1.26548">
        <ele>170.4</ele>
        <time>2023-07-07T05:52:49Z</time>
      </trkpt>
      <trkpt lat="44.11827" lon="1.26556">
        <ele>170.6</ele>
        <time>2023-07-07T05:52:53Z</time>
      </trkpt>
      <trkpt lat="44.11826" lon="1.26557">
        <ele>170.6</ele>
        <time>2023-07-07T05:52:54Z</time>
      </trkpt>
      <trkpt lat="44.11826" lon="1.26562">
        <ele>170.8</ele>
        <time>2023-07-07T05:52:57Z</time>
      </trkpt>
      <trkpt lat="44.11821" lon="1.26578">
        <ele>171.4</ele>
        <time>2023-07-07T05:53:06Z</time>
      </trkpt>
      <trkpt lat="44.11819" lon="1.26588">
        <ele>171.6</ele>
        <time>2023-07-07T05:53:13Z</time>
      </trkpt>
      <trkpt lat="44.11818" lon="1.26594">
        <ele>172</ele>
        <time>2023-07-07T05:53:17Z</time>
      </trkpt>
      <trkpt lat="44.11818" lon="1.266">
        <ele>172.2</ele>
        <time>2023-07-07T05:53:22Z</time>
      </trkpt>
      <trkpt lat="44.11817" lon="1.26606">
        <ele>172.2</ele>
        <time>2023-07-07T05:53:26Z</time>
      </trkpt>
      <trkpt lat="44.11816" lon="1.26612">
        <ele>172.2</ele>
        <time>2023-07-07T05:53:30Z</time>
      </trkpt>
      <trkpt lat="44.11815" lon="1.26619">
        <ele>172.4</ele>
        <time>2023-07-07T05:53:35Z</time>
      </trkpt>
      <trkpt lat="44.11814" lon="1.26623">
        <ele>172.4</ele>
        <time>2023-07-07T05:53:37Z</time>
      </trkpt>
      <trkpt lat="44.11811" lon="1.26636">
        <ele>173</ele>
        <time>2023-07-07T05:53:42Z</time>
      </trkpt>
      <trkpt lat="44.1181" lon="1.2664">
        <ele>173.2</ele>
        <time>2023-07-07T05:53:44Z</time>
      </trkpt>
      <trkpt lat="44.1181" lon="1.26643">
        <ele>173.2</ele>
        <time>2023-07-07T05:53:46Z</time>
      </trkpt>
      <trkpt lat="44.11809" lon="1.26648">
        <ele>173.4</ele>
        <time>2023-07-07T05:53:49Z</time>
      </trkpt>
      <trkpt lat="44.11809" lon="1.2665">
        <ele>173.4</ele>
        <time>2023-07-07T05:53:50Z</time>
      </trkpt>
      <trkpt lat="44.11808" lon="1.26653">
        <ele>173.6</ele>
        <time>2023-07-07T05:53:52Z</time>
      </trkpt>
      <trkpt lat="44.11803" lon="1.26668">
        <ele>173.6</ele>
        <time>2023-07-07T05:54:01Z</time>
      </trkpt>
      <trkpt lat="44.11801" lon="1.26676">
        <ele>174</ele>
        <time>2023-07-07T05:54:06Z</time>
      </trkpt>
      <trkpt lat="44.118" lon="1.26682">
        <ele>174.4</ele>
        <time>2023-07-07T05:54:10Z</time>
      </trkpt>
      <trkpt lat="44.11798" lon="1.2669">
        <ele>174.6</ele>
        <time>2023-07-07T05:54:15Z</time>
      </trkpt>
      <trkpt lat="44.11796" lon="1.26693">
        <ele>174.8</ele>
        <time>2023-07-07T05:54:18Z</time>
      </trkpt>
      <trkpt lat="44.11794" lon="1.26701">
        <ele>175.2</ele>
        <time>2023-07-07T05:54:23Z</time>
      </trkpt>
      <trkpt lat="44.11791" lon="1.26708">
        <ele>175.4</ele>
        <time>2023-07-07T05:54:27Z</time>
      </trkpt>
      <trkpt lat="44.11787" lon="1.26723">
        <ele>175.4</ele>
        <time>2023-07-07T05:54:36Z</time>
      </trkpt>
      <trkpt lat="44.11786" lon="1.26727">
        <ele>175.6</ele>
        <time>2023-07-07T05:54:38Z</time>
      </trkpt>
      <trkpt lat="44.11783" lon="1.26733">
        <ele>176.2</ele>
        <time>2023-07-07T05:54:42Z</time>
      </trkpt>
      <trkpt lat="44.11781" lon="1.26737">
        <ele>176.6</ele>
        <time>2023-07-07T05:54:44Z</time>
      </trkpt>
      <trkpt lat="44.11777" lon="1.26746">
        <ele>176.8</ele>
        <time>2023-07-07T05:54:51Z</time>
      </trkpt>
      <trkpt lat="44.11772" lon="1.26751">
        <ele>177.2</ele>
        <time>2023-07-07T05:54:56Z</time>
      </trkpt>
      <trkpt lat="44.11769" lon="1.26754">
        <ele>177.2</ele>
        <time>2023-07-07T05:54:59Z</time>
      </trkpt>
      <trkpt lat="44.11768" lon="1.26756">
        <ele>177.2</ele>
        <time>2023-07-07T05:55:02Z</time>
      </trkpt>
      <trkpt lat="44.11764" lon="1.2676">
        <ele>177.2</ele>
        <time>2023-07-07T05:55:07Z</time>
      </trkpt>
      <trkpt lat="44.11759" lon="1.26764">
        <ele>177.2</ele>
        <time>2023-07-07T05:55:12Z</time>
      </trkpt>
      <trkpt lat="44.11758" lon="1.26764">
        <ele>177.2</ele>
        <time>2023-07-07T05:55:13Z</time>
      </trkpt>
      <trkpt lat="44.11751" lon="1.26773">
        <ele>177.8</ele>
        <time>2023-07-07T05:55:21Z</time>
      </trkpt>
      <trkpt lat="44.11748" lon="1.26776">
        <ele>178</ele>
        <time>2023-07-07T05:55:24Z</time>
      </trkpt>
      <trkpt lat="44.11745" lon="1.26778">
        <ele>178.2</ele>
        <time>2023-07-07T05:55:26Z</time>
      </trkpt>
      <trkpt lat="44.11741" lon="1.26783">
        <ele>178.2</ele>
        <time>2023-07-07T05:55:30Z</time>
      </trkpt>
      <trkpt lat="44.11734" lon="1.26787">
        <ele>178.4</ele>
        <time>2023-07-07T05:55:35Z</time>
      </trkpt>
      <trkpt lat="44.11729" lon="1.26794">
        <ele>178.6</ele>
        <time>2023-07-07T05:55:40Z</time>
      </trkpt>
      <trkpt lat="44.1172" lon="1.26801">
        <ele>178.8</ele>
        <time>2023-07-07T05:55:49Z</time>
      </trkpt>
      <trkpt lat="44.11717" lon="1.26803">
        <ele>179.2</ele>
        <time>2023-07-07T05:55:52Z</time>
      </trkpt>
      <trkpt lat="44.11713" lon="1.26806">
        <ele>179.4</ele>
        <time>2023-07-07T05:55:56Z</time>
      </trkpt>
      <trkpt lat="44.11703" lon="1.26812">
        <ele>180.2</ele>
        <time>2023-07-07T05:56:04Z</time>
      </trkpt>
      <trkpt lat="44.11702" lon="1.26813">
        <ele>180.2</ele>
        <time>2023-07-07T05:56:05Z</time>
      </trkpt>
      <trkpt lat="44.11701" lon="1.26814">
        <ele>180.2</ele>
        <time>2023-07-07T05:56:06Z</time>
      </trkpt>
      <trkpt lat="44.11697" lon="1.26817">
        <ele>180.2</ele>
        <time>2023-07-07T05:56:09Z</time>
      </trkpt>
      <trkpt lat="44.11692" lon="1.26822">
        <ele>180.8</ele>
        <time>2023-07-07T05:56:15Z</time>
      </trkpt>
      <trkpt lat="44.11684" lon="1.26828">
        <ele>181</ele>
        <time>2023-07-07T05:56:22Z</time>
      </trkpt>
      <trkpt lat="44.11679" lon="1.26833">
        <ele>181.2</ele>
        <time>2023-07-07T05:56:27Z</time>
      </trkpt>
      <trkpt lat="44.11678" lon="1.26834">
        <ele>181.4</ele>
        <time>2023-07-07T05:56:28Z</time>
      </trkpt>
      <trkpt lat="44.11673" lon="1.26838">
        <ele>181.4</ele>
        <time>2023-07-07T05:56:32Z</time>
      </trkpt>
      <trkpt lat="44.11672" lon="1.26839">
        <ele>181.4</ele>
        <time>2023-07-07T05:56:33Z</time>
      </trkpt>
      <trkpt lat="44.11669" lon="1.26841">
        <ele>181.4</ele>
        <time>2023-07-07T05:56:35Z</time>
      </trkpt>
      <trkpt lat="44.11668" lon="1.26842">
        <ele>181.4</ele>
        <time>2023-07-07T05:56:36Z</time>
      </trkpt>
      <trkpt lat="44.11667" lon="1.26843">
        <ele>181.4</ele>
        <time>2023-07-07T05:56:37Z</time>
      </trkpt>
      <trkpt lat="44.11665" lon="1.26846">
        <ele>181.4</ele>
        <time>2023-07-07T05:56:39Z</time>
      </trkpt>
      <trkpt lat="44.11664" lon="1.26846">
        <ele>181.4</ele>
        <time>2023-07-07T05:56:40Z</time>
      </trkpt>
      <trkpt lat="44.11662" lon="1.26848">
        <ele>181.6</ele>
        <time>2023-07-07T05:56:42Z</time>
      </trkpt>
      <trkpt lat="44.11661" lon="1.26849">
        <ele>181.6</ele>
        <time>2023-07-07T05:56:43Z</time>
      </trkpt>
      <trkpt lat="44.11659" lon="1.26851">
        <ele>181.8</ele>
        <time>2023-07-07T05:56:45Z</time>
      </trkpt>
      <trkpt lat="44.11653" lon="1.26855">
        <ele>182.2</ele>
        <time>2023-07-07T05:56:49Z</time>
      </trkpt>
      <trkpt lat="44.11652" lon="1.26856">
        <ele>182.4</ele>
        <time>2023-07-07T05:56:50Z</time>
      </trkpt>
      <trkpt lat="44.11645" lon="1.26862">
        <ele>182.4</ele>
        <time>2023-07-07T05:56:56Z</time>
      </trkpt>
      <trkpt lat="44.11639" lon="1.26867">
        <ele>182.6</ele>
        <time>2023-07-07T05:57:01Z</time>
      </trkpt>
      <trkpt lat="44.11635" lon="1.26873">
        <ele>182.8</ele>
        <time>2023-07-07T05:57:05Z</time>
      </trkpt>
      <trkpt lat="44.11633" lon="1.26875">
        <ele>182.8</ele>
        <time>2023-07-07T05:57:07Z</time>
      </trkpt>
      <trkpt lat="44.11632" lon="1.26878">
        <ele>182.8</ele>
        <time>2023-07-07T05:57:09Z</time>
      </trkpt>
      <trkpt lat="44.11627" lon="1.26885">
        <ele>183</ele>
        <time>2023-07-07T05:57:14Z</time>
      </trkpt>
      <trkpt lat="44.11623" lon="1.26893">
        <ele>183.2</ele>
        <time>2023-07-07T05:57:19Z</time>
      </trkpt>
      <trkpt lat="44.11623" lon="1.26894">
        <ele>183.2</ele>
        <time>2023-07-07T05:57:20Z</time>
      </trkpt>
      <trkpt lat="44.11622" lon="1.26896">
        <ele>183.2</ele>
        <time>2023-07-07T05:57:21Z</time>
      </trkpt>
      <trkpt lat="44.11621" lon="1.26897">
        <ele>183.2</ele>
        <time>2023-07-07T05:57:22Z</time>
      </trkpt>
      <trkpt lat="44.1162" lon="1.26898">
        <ele>183.2</ele>
        <time>2023-07-07T05:57:23Z</time>
      </trkpt>
      <trkpt lat="44.11619" lon="1.26902">
        <ele>183.4</ele>
        <time>2023-07-07T05:57:25Z</time>
      </trkpt>
      <trkpt lat="44.11616" lon="1.26909">
        <ele>183.8</ele>
        <time>2023-07-07T05:57:30Z</time>
      </trkpt>
      <trkpt lat="44.11615" lon="1.26915">
        <ele>184</ele>
        <time>2023-07-07T05:57:34Z</time>
      </trkpt>
      <trkpt lat="44.11612" lon="1.26924">
        <ele>184.4</ele>
        <time>2023-07-07T05:57:39Z</time>
      </trkpt>
      <trkpt lat="44.11609" lon="1.26933">
        <ele>184.8</ele>
        <time>2023-07-07T05:57:45Z</time>
      </trkpt>
      <trkpt lat="44.11606" lon="1.26939">
        <ele>184.6</ele>
        <time>2023-07-07T05:57:49Z</time>
      </trkpt>
      <trkpt lat="44.11602" lon="1.26953">
        <ele>185</ele>
        <time>2023-07-07T05:57:57Z</time>
      </trkpt>
      <trkpt lat="44.11599" lon="1.26961">
        <ele>185.4</ele>
        <time>2023-07-07T05:58:03Z</time>
      </trkpt>
      <trkpt lat="44.11597" lon="1.26964">
        <ele>186</ele>
        <time>2023-07-07T05:58:06Z</time>
      </trkpt>
      <trkpt lat="44.11596" lon="1.26966">
        <ele>186</ele>
        <time>2023-07-07T05:58:08Z</time>
      </trkpt>
      <trkpt lat="44.11593" lon="1.2697">
        <ele>186</ele>
        <time>2023-07-07T05:58:11Z</time>
      </trkpt>
      <trkpt lat="44.11593" lon="1.26972">
        <ele>186</ele>
        <time>2023-07-07T05:58:12Z</time>
      </trkpt>
      <trkpt lat="44.11591" lon="1.26978">
        <ele>186.6</ele>
        <time>2023-07-07T05:58:16Z</time>
      </trkpt>
      <trkpt lat="44.1159" lon="1.26981">
        <ele>186.6</ele>
        <time>2023-07-07T05:58:18Z</time>
      </trkpt>
      <trkpt lat="44.11589" lon="1.26984">
        <ele>186.4</ele>
        <time>2023-07-07T05:58:20Z</time>
      </trkpt>
      <trkpt lat="44.11587" lon="1.26995">
        <ele>186.2</ele>
        <time>2023-07-07T05:58:26Z</time>
      </trkpt>
      <trkpt lat="44.11585" lon="1.27">
        <ele>186.6</ele>
        <time>2023-07-07T05:58:29Z</time>
      </trkpt>
      <trkpt lat="44.11584" lon="1.27004">
        <ele>186.8</ele>
        <time>2023-07-07T05:58:31Z</time>
      </trkpt>
      <trkpt lat="44.11581" lon="1.27011">
        <ele>187</ele>
        <time>2023-07-07T05:58:36Z</time>
      </trkpt>
      <trkpt lat="44.1158" lon="1.27013">
        <ele>187.2</ele>
        <time>2023-07-07T05:58:37Z</time>
      </trkpt>
      <trkpt lat="44.11578" lon="1.27019">
        <ele>187.4</ele>
        <time>2023-07-07T05:58:41Z</time>
      </trkpt>
      <trkpt lat="44.11577" lon="1.27022">
        <ele>187.4</ele>
        <time>2023-07-07T05:58:43Z</time>
      </trkpt>
      <trkpt lat="44.11576" lon="1.27025">
        <ele>187.6</ele>
        <time>2023-07-07T05:58:45Z</time>
      </trkpt>
      <trkpt lat="44.11575" lon="1.27032">
        <ele>187.6</ele>
        <time>2023-07-07T05:58:49Z</time>
      </trkpt>
      <trkpt lat="44.11573" lon="1.27039">
        <ele>187.6</ele>
        <time>2023-07-07T05:58:52Z</time>
      </trkpt>
      <trkpt lat="44.1157" lon="1.27046">
        <ele>188</ele>
        <time>2023-07-07T05:58:56Z</time>
      </trkpt>
      <trkpt lat="44.1157" lon="1.27048">
        <ele>188.2</ele>
        <time>2023-07-07T05:58:57Z</time>
      </trkpt>
      <trkpt lat="44.11568" lon="1.27055">
        <ele>188.4</ele>
        <time>2023-07-07T05:59:02Z</time>
      </trkpt>
      <trkpt lat="44.11568" lon="1.27057">
        <ele>188.4</ele>
        <time>2023-07-07T05:59:03Z</time>
      </trkpt>
      <trkpt lat="44.11567" lon="1.27062">
        <ele>188.4</ele>
        <time>2023-07-07T05:59:06Z</time>
      </trkpt>
      <trkpt lat="44.11567" lon="1.27067">
        <ele>188.6</ele>
        <time>2023-07-07T05:59:09Z</time>
      </trkpt>
      <trkpt lat="44.11567" lon="1.27069">
        <ele>188.6</ele>
        <time>2023-07-07T05:59:10Z</time>
      </trkpt>
      <trkpt lat="44.11564" lon="1.27081">
        <ele>188.8</ele>
        <time>2023-07-07T05:59:17Z</time>
      </trkpt>
      <trkpt lat="44.11564" lon="1.27089">
        <ele>188.8</ele>
        <time>2023-07-07T05:59:22Z</time>
      </trkpt>
      <trkpt lat="44.11565" lon="1.27092">
        <ele>189</ele>
        <time>2023-07-07T05:59:24Z</time>
      </trkpt>
      <trkpt lat="44.11565" lon="1.27097">
        <ele>189.2</ele>
        <time>2023-07-07T05:59:27Z</time>
      </trkpt>
      <trkpt lat="44.11567" lon="1.27102">
        <ele>189.2</ele>
        <time>2023-07-07T05:59:31Z</time>
      </trkpt>
      <trkpt lat="44.11568" lon="1.27112">
        <ele>189.4</ele>
        <time>2023-07-07T05:59:36Z</time>
      </trkpt>
      <trkpt lat="44.1157" lon="1.27117">
        <ele>189.6</ele>
        <time>2023-07-07T05:59:39Z</time>
      </trkpt>
      <trkpt lat="44.11571" lon="1.27123">
        <ele>189.8</ele>
        <time>2023-07-07T05:59:42Z</time>
      </trkpt>
      <trkpt lat="44.11572" lon="1.2713">
        <ele>190</ele>
        <time>2023-07-07T05:59:46Z</time>
      </trkpt>
      <trkpt lat="44.11573" lon="1.27133">
        <ele>190</ele>
        <time>2023-07-07T05:59:48Z</time>
      </trkpt>
      <trkpt lat="44.11573" lon="1.27136">
        <ele>190</ele>
        <time>2023-07-07T05:59:50Z</time>
      </trkpt>
      <trkpt lat="44.11575" lon="1.27141">
        <ele>190</ele>
        <time>2023-07-07T05:59:53Z</time>
      </trkpt>
      <trkpt lat="44.11579" lon="1.27148">
        <ele>190.2</ele>
        <time>2023-07-07T05:59:58Z</time>
      </trkpt>
      <trkpt lat="44.11581" lon="1.27153">
        <ele>190.4</ele>
        <time>2023-07-07T06:00:01Z</time>
      </trkpt>
      <trkpt lat="44.11588" lon="1.27159">
        <ele>190.6</ele>
        <time>2023-07-07T06:00:06Z</time>
      </trkpt>
      <trkpt lat="44.11589" lon="1.27164">
        <ele>190.4</ele>
        <time>2023-07-07T06:00:09Z</time>
      </trkpt>
      <trkpt lat="44.11595" lon="1.27175">
        <ele>190.2</ele>
        <time>2023-07-07T06:00:17Z</time>
      </trkpt>
      <trkpt lat="44.11597" lon="1.27177">
        <ele>190.2</ele>
        <time>2023-07-07T06:00:19Z</time>
      </trkpt>
      <trkpt lat="44.11609" lon="1.27185">
        <ele>189.6</ele>
        <time>2023-07-07T06:00:26Z</time>
      </trkpt>
      <trkpt lat="44.11615" lon="1.27197">
        <ele>189.2</ele>
        <time>2023-07-07T06:00:34Z</time>
      </trkpt>
      <trkpt lat="44.11622" lon="1.27207">
        <ele>189</ele>
        <time>2023-07-07T06:00:41Z</time>
      </trkpt>
      <trkpt lat="44.11623" lon="1.27209">
        <ele>189</ele>
        <time>2023-07-07T06:00:42Z</time>
      </trkpt>
      <trkpt lat="44.11624" lon="1.27214">
        <ele>188.8</ele>
        <time>2023-07-07T06:00:46Z</time>
      </trkpt>
      <trkpt lat="44.11625" lon="1.27215">
        <ele>188.8</ele>
        <time>2023-07-07T06:00:47Z</time>
      </trkpt>
      <trkpt lat="44.11627" lon="1.27218">
        <ele>188.6</ele>
        <time>2023-07-07T06:00:49Z</time>
      </trkpt>
      <trkpt lat="44.11633" lon="1.27229">
        <ele>188.2</ele>
        <time>2023-07-07T06:00:58Z</time>
      </trkpt>
      <trkpt lat="44.11637" lon="1.27233">
        <ele>188</ele>
        <time>2023-07-07T06:01:01Z</time>
      </trkpt>
      <trkpt lat="44.11642" lon="1.27237">
        <ele>187.8</ele>
        <time>2023-07-07T06:01:05Z</time>
      </trkpt>
      <trkpt lat="44.11647" lon="1.27241">
        <ele>187.6</ele>
        <time>2023-07-07T06:01:09Z</time>
      </trkpt>
      <trkpt lat="44.11648" lon="1.27245">
        <ele>187.6</ele>
        <time>2023-07-07T06:01:11Z</time>
      </trkpt>
      <trkpt lat="44.11652" lon="1.27259">
        <ele>187.4</ele>
        <time>2023-07-07T06:01:18Z</time>
      </trkpt>
      <trkpt lat="44.11653" lon="1.27266">
        <ele>187.2</ele>
        <time>2023-07-07T06:01:22Z</time>
      </trkpt>
      <trkpt lat="44.11653" lon="1.27268">
        <ele>187.2</ele>
        <time>2023-07-07T06:01:23Z</time>
      </trkpt>
      <trkpt lat="44.11654" lon="1.27272">
        <ele>187</ele>
        <time>2023-07-07T06:01:25Z</time>
      </trkpt>
      <trkpt lat="44.11654" lon="1.27274">
        <ele>187</ele>
        <time>2023-07-07T06:01:26Z</time>
      </trkpt>
      <trkpt lat="44.11656" lon="1.27288">
        <ele>187.4</ele>
        <time>2023-07-07T06:01:34Z</time>
      </trkpt>
      <trkpt lat="44.11659" lon="1.273">
        <ele>186.8</ele>
        <time>2023-07-07T06:01:41Z</time>
      </trkpt>
      <trkpt lat="44.11659" lon="1.27304">
        <ele>186.6</ele>
        <time>2023-07-07T06:01:43Z</time>
      </trkpt>
      <trkpt lat="44.1166" lon="1.27311">
        <ele>186.6</ele>
        <time>2023-07-07T06:01:47Z</time>
      </trkpt>
      <trkpt lat="44.11659" lon="1.27325">
        <ele>186.4</ele>
        <time>2023-07-07T06:01:55Z</time>
      </trkpt>
      <trkpt lat="44.11659" lon="1.27328">
        <ele>186</ele>
        <time>2023-07-07T06:01:57Z</time>
      </trkpt>
      <trkpt lat="44.11657" lon="1.27339">
        <ele>186</ele>
        <time>2023-07-07T06:02:03Z</time>
      </trkpt>
      <trkpt lat="44.11654" lon="1.27353">
        <ele>185.8</ele>
        <time>2023-07-07T06:02:11Z</time>
      </trkpt>
      <trkpt lat="44.11651" lon="1.27369">
        <ele>185.8</ele>
        <time>2023-07-07T06:02:20Z</time>
      </trkpt>
      <trkpt lat="44.11648" lon="1.2738">
        <ele>185.8</ele>
        <time>2023-07-07T06:02:27Z</time>
      </trkpt>
      <trkpt lat="44.11646" lon="1.27386">
        <ele>186</ele>
        <time>2023-07-07T06:02:30Z</time>
      </trkpt>
      <trkpt lat="44.11643" lon="1.27398">
        <ele>185.8</ele>
        <time>2023-07-07T06:02:37Z</time>
      </trkpt>
      <trkpt lat="44.11642" lon="1.27402">
        <ele>185.6</ele>
        <time>2023-07-07T06:02:39Z</time>
      </trkpt>
      <trkpt lat="44.11641" lon="1.27404">
        <ele>185.6</ele>
        <time>2023-07-07T06:02:40Z</time>
      </trkpt>
      <trkpt lat="44.11635" lon="1.27418">
        <ele>185.6</ele>
        <time>2023-07-07T06:02:48Z</time>
      </trkpt>
      <trkpt lat="44.1163" lon="1.2743">
        <ele>185.4</ele>
        <time>2023-07-07T06:02:56Z</time>
      </trkpt>
      <trkpt lat="44.11629" lon="1.27431">
        <ele>185.2</ele>
        <time>2023-07-07T06:02:57Z</time>
      </trkpt>
      <trkpt lat="44.11622" lon="1.27445">
        <ele>185.2</ele>
        <time>2023-07-07T06:03:06Z</time>
      </trkpt>
      <trkpt lat="44.1162" lon="1.2745">
        <ele>185.2</ele>
        <time>2023-07-07T06:03:09Z</time>
      </trkpt>
      <trkpt lat="44.11617" lon="1.27456">
        <ele>184.8</ele>
        <time>2023-07-07T06:03:13Z</time>
      </trkpt>
      <trkpt lat="44.11615" lon="1.27459">
        <ele>184.6</ele>
        <time>2023-07-07T06:03:15Z</time>
      </trkpt>
      <trkpt lat="44.11607" lon="1.27468">
        <ele>184.4</ele>
        <time>2023-07-07T06:03:22Z</time>
      </trkpt>
      <trkpt lat="44.11605" lon="1.27471">
        <ele>184.4</ele>
        <time>2023-07-07T06:03:25Z</time>
      </trkpt>
      <trkpt lat="44.11602" lon="1.27474">
        <ele>184</ele>
        <time>2023-07-07T06:03:28Z</time>
      </trkpt>
      <trkpt lat="44.116" lon="1.27477">
        <ele>183.8</ele>
        <time>2023-07-07T06:03:30Z</time>
      </trkpt>
      <trkpt lat="44.11592" lon="1.2749">
        <ele>183.6</ele>
        <time>2023-07-07T06:03:40Z</time>
      </trkpt>
      <trkpt lat="44.11591" lon="1.27492">
        <ele>183.4</ele>
        <time>2023-07-07T06:03:41Z</time>
      </trkpt>
      <trkpt lat="44.11585" lon="1.27503">
        <ele>182.8</ele>
        <time>2023-07-07T06:03:48Z</time>
      </trkpt>
      <trkpt lat="44.11582" lon="1.27508">
        <ele>182.2</ele>
        <time>2023-07-07T06:03:51Z</time>
      </trkpt>
      <trkpt lat="44.11579" lon="1.27515">
        <ele>181.8</ele>
        <time>2023-07-07T06:03:55Z</time>
      </trkpt>
      <trkpt lat="44.11578" lon="1.27519">
        <ele>181.8</ele>
        <time>2023-07-07T06:03:57Z</time>
      </trkpt>
      <trkpt lat="44.11573" lon="1.27532">
        <ele>181.4</ele>
        <time>2023-07-07T06:04:05Z</time>
      </trkpt>
      <trkpt lat="44.11571" lon="1.27536">
        <ele>181</ele>
        <time>2023-07-07T06:04:08Z</time>
      </trkpt>
      <trkpt lat="44.1157" lon="1.27543">
        <ele>180.8</ele>
        <time>2023-07-07T06:04:12Z</time>
      </trkpt>
      <trkpt lat="44.11568" lon="1.27552">
        <ele>180.4</ele>
        <time>2023-07-07T06:04:17Z</time>
      </trkpt>
      <trkpt lat="44.11565" lon="1.27558">
        <ele>180.2</ele>
        <time>2023-07-07T06:04:21Z</time>
      </trkpt>
      <trkpt lat="44.11564" lon="1.27563">
        <ele>180.2</ele>
        <time>2023-07-07T06:04:24Z</time>
      </trkpt>
      <trkpt lat="44.11564" lon="1.27565">
        <ele>180</ele>
        <time>2023-07-07T06:04:25Z</time>
      </trkpt>
      <trkpt lat="44.11564" lon="1.27566">
        <ele>180</ele>
        <time>2023-07-07T06:04:26Z</time>
      </trkpt>
      <trkpt lat="44.11563" lon="1.27572">
        <ele>179.8</ele>
        <time>2023-07-07T06:04:29Z</time>
      </trkpt>
      <trkpt lat="44.11563" lon="1.27579">
        <ele>179.4</ele>
        <time>2023-07-07T06:04:33Z</time>
      </trkpt>
      <trkpt lat="44.11563" lon="1.27582">
        <ele>179.2</ele>
        <time>2023-07-07T06:04:35Z</time>
      </trkpt>
      <trkpt lat="44.11563" lon="1.27587">
        <ele>178.8</ele>
        <time>2023-07-07T06:04:38Z</time>
      </trkpt>
      <trkpt lat="44.11562" lon="1.276">
        <ele>178.6</ele>
        <time>2023-07-07T06:04:46Z</time>
      </trkpt>
      <trkpt lat="44.11561" lon="1.27612">
        <ele>178.2</ele>
        <time>2023-07-07T06:04:53Z</time>
      </trkpt>
      <trkpt lat="44.11559" lon="1.2762">
        <ele>178</ele>
        <time>2023-07-07T06:04:57Z</time>
      </trkpt>
      <trkpt lat="44.11559" lon="1.27624">
        <ele>177.8</ele>
        <time>2023-07-07T06:04:59Z</time>
      </trkpt>
      <trkpt lat="44.11558" lon="1.27627">
        <ele>177.6</ele>
        <time>2023-07-07T06:05:01Z</time>
      </trkpt>
      <trkpt lat="44.11556" lon="1.2764">
        <ele>177.4</ele>
        <time>2023-07-07T06:05:08Z</time>
      </trkpt>
      <trkpt lat="44.11555" lon="1.27643">
        <ele>177.2</ele>
        <time>2023-07-07T06:05:10Z</time>
      </trkpt>
      <trkpt lat="44.11553" lon="1.27649">
        <ele>177</ele>
        <time>2023-07-07T06:05:13Z</time>
      </trkpt>
      <trkpt lat="44.11553" lon="1.2765">
        <ele>176.8</ele>
        <time>2023-07-07T06:05:14Z</time>
      </trkpt>
      <trkpt lat="44.11553" lon="1.27652">
        <ele>176.6</ele>
        <time>2023-07-07T06:05:15Z</time>
      </trkpt>
      <trkpt lat="44.11551" lon="1.27662">
        <ele>176.2</ele>
        <time>2023-07-07T06:05:21Z</time>
      </trkpt>
      <trkpt lat="44.11551" lon="1.27663">
        <ele>176</ele>
        <time>2023-07-07T06:05:22Z</time>
      </trkpt>
      <trkpt lat="44.1155" lon="1.27667">
        <ele>176</ele>
        <time>2023-07-07T06:05:25Z</time>
      </trkpt>
      <trkpt lat="44.11549" lon="1.2767">
        <ele>175.8</ele>
        <time>2023-07-07T06:05:27Z</time>
      </trkpt>
      <trkpt lat="44.11549" lon="1.27673">
        <ele>175.8</ele>
        <time>2023-07-07T06:05:29Z</time>
      </trkpt>
      <trkpt lat="44.11549" lon="1.27675">
        <ele>175.8</ele>
        <time>2023-07-07T06:05:30Z</time>
      </trkpt>
      <trkpt lat="44.11547" lon="1.2768">
        <ele>175.6</ele>
        <time>2023-07-07T06:05:33Z</time>
      </trkpt>
      <trkpt lat="44.11548" lon="1.27683">
        <ele>175.2</ele>
        <time>2023-07-07T06:05:35Z</time>
      </trkpt>
      <trkpt lat="44.11548" lon="1.27685">
        <ele>175</ele>
        <time>2023-07-07T06:05:36Z</time>
      </trkpt>
      <trkpt lat="44.11546" lon="1.277">
        <ele>175</ele>
        <time>2023-07-07T06:05:44Z</time>
      </trkpt>
      <trkpt lat="44.11541" lon="1.27715">
        <ele>174.8</ele>
        <time>2023-07-07T06:05:51Z</time>
      </trkpt>
      <trkpt lat="44.11541" lon="1.27716">
        <ele>175</ele>
        <time>2023-07-07T06:05:52Z</time>
      </trkpt>
      <trkpt lat="44.11537" lon="1.27726">
        <ele>174.8</ele>
        <time>2023-07-07T06:05:58Z</time>
      </trkpt>
      <trkpt lat="44.11535" lon="1.27735">
        <ele>175.2</ele>
        <time>2023-07-07T06:06:05Z</time>
      </trkpt>
      <trkpt lat="44.11533" lon="1.27741">
        <ele>175.2</ele>
        <time>2023-07-07T06:06:09Z</time>
      </trkpt>
      <trkpt lat="44.11532" lon="1.27743">
        <ele>175.2</ele>
        <time>2023-07-07T06:06:11Z</time>
      </trkpt>
      <trkpt lat="44.11527" lon="1.27751">
        <ele>175.8</ele>
        <time>2023-07-07T06:06:17Z</time>
      </trkpt>
      <trkpt lat="44.11525" lon="1.27756">
        <ele>176</ele>
        <time>2023-07-07T06:06:20Z</time>
      </trkpt>
      <trkpt lat="44.11514" lon="1.27768">
        <ele>176.4</ele>
        <time>2023-07-07T06:06:29Z</time>
      </trkpt>
      <trkpt lat="44.11507" lon="1.27774">
        <ele>176.8</ele>
        <time>2023-07-07T06:06:35Z</time>
      </trkpt>
      <trkpt lat="44.11506" lon="1.27775">
        <ele>176.8</ele>
        <time>2023-07-07T06:06:36Z</time>
      </trkpt>
      <trkpt lat="44.11504" lon="1.27776">
        <ele>177</ele>
        <time>2023-07-07T06:06:38Z</time>
      </trkpt>
      <trkpt lat="44.11501" lon="1.27777">
        <ele>177.2</ele>
        <time>2023-07-07T06:06:40Z</time>
      </trkpt>
      <trkpt lat="44.115" lon="1.27778">
        <ele>177.2</ele>
        <time>2023-07-07T06:06:41Z</time>
      </trkpt>
      <trkpt lat="44.11489" lon="1.27788">
        <ele>177.6</ele>
        <time>2023-07-07T06:06:49Z</time>
      </trkpt>
      <trkpt lat="44.11487" lon="1.27789">
        <ele>177.8</ele>
        <time>2023-07-07T06:06:51Z</time>
      </trkpt>
      <trkpt lat="44.11484" lon="1.2779">
        <ele>177.8</ele>
        <time>2023-07-07T06:06:53Z</time>
      </trkpt>
      <trkpt lat="44.11478" lon="1.27792">
        <ele>177.8</ele>
        <time>2023-07-07T06:06:58Z</time>
      </trkpt>
      <trkpt lat="44.11477" lon="1.27793">
        <ele>178</ele>
        <time>2023-07-07T06:06:59Z</time>
      </trkpt>
      <trkpt lat="44.11475" lon="1.27795">
        <ele>178</ele>
        <time>2023-07-07T06:07:01Z</time>
      </trkpt>
      <trkpt lat="44.11472" lon="1.27797">
        <ele>178.2</ele>
        <time>2023-07-07T06:07:04Z</time>
      </trkpt>
      <trkpt lat="44.1146" lon="1.27806">
        <ele>178.8</ele>
        <time>2023-07-07T06:07:13Z</time>
      </trkpt>
      <trkpt lat="44.11458" lon="1.27807">
        <ele>179</ele>
        <time>2023-07-07T06:07:15Z</time>
      </trkpt>
      <trkpt lat="44.11454" lon="1.27809">
        <ele>179.2</ele>
        <time>2023-07-07T06:07:20Z</time>
      </trkpt>
      <trkpt lat="44.11444" lon="1.27812">
        <ele>179.6</ele>
        <time>2023-07-07T06:07:29Z</time>
      </trkpt>
      <trkpt lat="44.11444" lon="1.27812">
        <ele>179.6</ele>
        <time>2023-07-07T06:07:30Z</time>
      </trkpt>
      <trkpt lat="44.11441" lon="1.27813">
        <ele>179.6</ele>
        <time>2023-07-07T06:07:32Z</time>
      </trkpt>
      <trkpt lat="44.1144" lon="1.27814">
        <ele>179.6</ele>
        <time>2023-07-07T06:07:33Z</time>
      </trkpt>
      <trkpt lat="44.11438" lon="1.27816">
        <ele>180.2</ele>
        <time>2023-07-07T06:07:35Z</time>
      </trkpt>
      <trkpt lat="44.11437" lon="1.27817">
        <ele>180.4</ele>
        <time>2023-07-07T06:07:36Z</time>
      </trkpt>
      <trkpt lat="44.11432" lon="1.27821">
        <ele>180.6</ele>
        <time>2023-07-07T06:07:41Z</time>
      </trkpt>
      <trkpt lat="44.11429" lon="1.27824">
        <ele>180.8</ele>
        <time>2023-07-07T06:07:43Z</time>
      </trkpt>
      <trkpt lat="44.11427" lon="1.27825">
        <ele>180.8</ele>
        <time>2023-07-07T06:07:45Z</time>
      </trkpt>
      <trkpt lat="44.1142" lon="1.27833">
        <ele>181.2</ele>
        <time>2023-07-07T06:07:51Z</time>
      </trkpt>
      <trkpt lat="44.11419" lon="1.27834">
        <ele>181.4</ele>
        <time>2023-07-07T06:07:52Z</time>
      </trkpt>
      <trkpt lat="44.11411" lon="1.27842">
        <ele>181.6</ele>
        <time>2023-07-07T06:07:59Z</time>
      </trkpt>
      <trkpt lat="44.11406" lon="1.2785">
        <ele>182</ele>
        <time>2023-07-07T06:08:05Z</time>
      </trkpt>
      <trkpt lat="44.11402" lon="1.27858">
        <ele>182.2</ele>
        <time>2023-07-07T06:08:10Z</time>
      </trkpt>
      <trkpt lat="44.114" lon="1.2786">
        <ele>182.2</ele>
        <time>2023-07-07T06:08:12Z</time>
      </trkpt>
      <trkpt lat="44.114" lon="1.27861">
        <ele>182.2</ele>
        <time>2023-07-07T06:08:13Z</time>
      </trkpt>
      <trkpt lat="44.11393" lon="1.27877">
        <ele>182.6</ele>
        <time>2023-07-07T06:08:22Z</time>
      </trkpt>
      <trkpt lat="44.11388" lon="1.27886">
        <ele>183</ele>
        <time>2023-07-07T06:08:28Z</time>
      </trkpt>
      <trkpt lat="44.11385" lon="1.27892">
        <ele>183</ele>
        <time>2023-07-07T06:08:32Z</time>
      </trkpt>
      <trkpt lat="44.11381" lon="1.279">
        <ele>183.2</ele>
        <time>2023-07-07T06:08:37Z</time>
      </trkpt>
      <trkpt lat="44.11378" lon="1.27907">
        <ele>183.8</ele>
        <time>2023-07-07T06:08:42Z</time>
      </trkpt>
      <trkpt lat="44.11375" lon="1.27912">
        <ele>184</ele>
        <time>2023-07-07T06:08:46Z</time>
      </trkpt>
      <trkpt lat="44.11375" lon="1.27914">
        <ele>184.2</ele>
        <time>2023-07-07T06:08:47Z</time>
      </trkpt>
      <trkpt lat="44.11373" lon="1.27917">
        <ele>184.2</ele>
        <time>2023-07-07T06:08:49Z</time>
      </trkpt>
      <trkpt lat="44.11372" lon="1.27919">
        <ele>184.4</ele>
        <time>2023-07-07T06:08:50Z</time>
      </trkpt>
      <trkpt lat="44.11372" lon="1.2792">
        <ele>184.4</ele>
        <time>2023-07-07T06:08:51Z</time>
      </trkpt>
      <trkpt lat="44.11371" lon="1.27923">
        <ele>184.6</ele>
        <time>2023-07-07T06:08:53Z</time>
      </trkpt>
      <trkpt lat="44.1137" lon="1.27925">
        <ele>184.8</ele>
        <time>2023-07-07T06:08:55Z</time>
      </trkpt>
      <trkpt lat="44.11367" lon="1.27932">
        <ele>185</ele>
        <time>2023-07-07T06:08:59Z</time>
      </trkpt>
      <trkpt lat="44.11366" lon="1.27937">
        <ele>185.2</ele>
        <time>2023-07-07T06:09:02Z</time>
      </trkpt>
      <trkpt lat="44.11365" lon="1.27944">
        <ele>185.2</ele>
        <time>2023-07-07T06:09:07Z</time>
      </trkpt>
      <trkpt lat="44.11364" lon="1.27946">
        <ele>185.2</ele>
        <time>2023-07-07T06:09:08Z</time>
      </trkpt>
      <trkpt lat="44.11364" lon="1.27951">
        <ele>185.2</ele>
        <time>2023-07-07T06:09:11Z</time>
      </trkpt>
      <trkpt lat="44.11363" lon="1.27956">
        <ele>185.4</ele>
        <time>2023-07-07T06:09:14Z</time>
      </trkpt>
      <trkpt lat="44.11361" lon="1.2797">
        <ele>186</ele>
        <time>2023-07-07T06:09:22Z</time>
      </trkpt>
      <trkpt lat="44.11361" lon="1.27976">
        <ele>186.2</ele>
        <time>2023-07-07T06:09:26Z</time>
      </trkpt>
      <trkpt lat="44.1136" lon="1.27981">
        <ele>186.4</ele>
        <time>2023-07-07T06:09:29Z</time>
      </trkpt>
      <trkpt lat="44.1136" lon="1.27983">
        <ele>186.4</ele>
        <time>2023-07-07T06:09:30Z</time>
      </trkpt>
      <trkpt lat="44.1136" lon="1.27985">
        <ele>186.4</ele>
        <time>2023-07-07T06:09:31Z</time>
      </trkpt>
      <trkpt lat="44.11362" lon="1.27998">
        <ele>187.4</ele>
        <time>2023-07-07T06:09:38Z</time>
      </trkpt>
      <trkpt lat="44.11362" lon="1.28">
        <ele>187.6</ele>
        <time>2023-07-07T06:09:39Z</time>
      </trkpt>
      <trkpt lat="44.11363" lon="1.28006">
        <ele>187.8</ele>
        <time>2023-07-07T06:09:43Z</time>
      </trkpt>
      <trkpt lat="44.11365" lon="1.28011">
        <ele>187.8</ele>
        <time>2023-07-07T06:09:46Z</time>
      </trkpt>
      <trkpt lat="44.11367" lon="1.28022">
        <ele>188.4</ele>
        <time>2023-07-07T06:09:52Z</time>
      </trkpt>
      <trkpt lat="44.11368" lon="1.28023">
        <ele>188.6</ele>
        <time>2023-07-07T06:09:53Z</time>
      </trkpt>
      <trkpt lat="44.11368" lon="1.28025">
        <ele>188.6</ele>
        <time>2023-07-07T06:09:54Z</time>
      </trkpt>
      <trkpt lat="44.1137" lon="1.28038">
        <ele>188.6</ele>
        <time>2023-07-07T06:10:01Z</time>
      </trkpt>
      <trkpt lat="44.11375" lon="1.28048">
        <ele>189.2</ele>
        <time>2023-07-07T06:10:08Z</time>
      </trkpt>
      <trkpt lat="44.11378" lon="1.28054">
        <ele>189.6</ele>
        <time>2023-07-07T06:10:14Z</time>
      </trkpt>
      <trkpt lat="44.11379" lon="1.28055">
        <ele>189.8</ele>
        <time>2023-07-07T06:10:15Z</time>
      </trkpt>
      <trkpt lat="44.11384" lon="1.28074">
        <ele>190.4</ele>
        <time>2023-07-07T06:10:25Z</time>
      </trkpt>
      <trkpt lat="44.11386" lon="1.28083">
        <ele>190.6</ele>
        <time>2023-07-07T06:10:29Z</time>
      </trkpt>
      <trkpt lat="44.11387" lon="1.2809">
        <ele>191</ele>
        <time>2023-07-07T06:10:33Z</time>
      </trkpt>
      <trkpt lat="44.11388" lon="1.28102">
        <ele>191.6</ele>
        <time>2023-07-07T06:10:40Z</time>
      </trkpt>
      <trkpt lat="44.11389" lon="1.28105">
        <ele>191.8</ele>
        <time>2023-07-07T06:10:42Z</time>
      </trkpt>
      <trkpt lat="44.1139" lon="1.28118">
        <ele>192.6</ele>
        <time>2023-07-07T06:10:50Z</time>
      </trkpt>
      <trkpt lat="44.11391" lon="1.28126">
        <ele>192.6</ele>
        <time>2023-07-07T06:10:54Z</time>
      </trkpt>
      <trkpt lat="44.11393" lon="1.28132">
        <ele>193.2</ele>
        <time>2023-07-07T06:10:58Z</time>
      </trkpt>
      <trkpt lat="44.11394" lon="1.28135">
        <ele>193.4</ele>
        <time>2023-07-07T06:11:00Z</time>
      </trkpt>
      <trkpt lat="44.11395" lon="1.28144">
        <ele>193.4</ele>
        <time>2023-07-07T06:11:05Z</time>
      </trkpt>
      <trkpt lat="44.11398" lon="1.28154">
        <ele>193.8</ele>
        <time>2023-07-07T06:11:11Z</time>
      </trkpt>
      <trkpt lat="44.11398" lon="1.28157">
        <ele>194</ele>
        <time>2023-07-07T06:11:13Z</time>
      </trkpt>
      <trkpt lat="44.114" lon="1.28162">
        <ele>194.2</ele>
        <time>2023-07-07T06:11:16Z</time>
      </trkpt>
      <trkpt lat="44.11399" lon="1.28169">
        <ele>194.4</ele>
        <time>2023-07-07T06:11:19Z</time>
      </trkpt>
      <trkpt lat="44.11399" lon="1.28171">
        <ele>194.4</ele>
        <time>2023-07-07T06:11:20Z</time>
      </trkpt>
      <trkpt lat="44.114" lon="1.28173">
        <ele>194.4</ele>
        <time>2023-07-07T06:11:21Z</time>
      </trkpt>
      <trkpt lat="44.114" lon="1.28174">
        <ele>194.4</ele>
        <time>2023-07-07T06:11:22Z</time>
      </trkpt>
      <trkpt lat="44.11402" lon="1.28177">
        <ele>194.4</ele>
        <time>2023-07-07T06:11:24Z</time>
      </trkpt>
      <trkpt lat="44.11403" lon="1.28178">
        <ele>194.4</ele>
        <time>2023-07-07T06:11:25Z</time>
      </trkpt>
      <trkpt lat="44.11404" lon="1.2818">
        <ele>194.4</ele>
        <time>2023-07-07T06:11:26Z</time>
      </trkpt>
      <trkpt lat="44.11405" lon="1.28189">
        <ele>195</ele>
        <time>2023-07-07T06:11:31Z</time>
      </trkpt>
      <trkpt lat="44.11407" lon="1.28199">
        <ele>195</ele>
        <time>2023-07-07T06:11:37Z</time>
      </trkpt>
      <trkpt lat="44.11409" lon="1.28206">
        <ele>194.8</ele>
        <time>2023-07-07T06:11:41Z</time>
      </trkpt>
      <trkpt lat="44.1141" lon="1.2821">
        <ele>194.8</ele>
        <time>2023-07-07T06:11:43Z</time>
      </trkpt>
      <trkpt lat="44.11409" lon="1.28223">
        <ele>194.8</ele>
        <time>2023-07-07T06:11:51Z</time>
      </trkpt>
      <trkpt lat="44.11408" lon="1.28241">
        <ele>195</ele>
        <time>2023-07-07T06:11:59Z</time>
      </trkpt>
      <trkpt lat="44.11407" lon="1.28252">
        <ele>195.2</ele>
        <time>2023-07-07T06:12:06Z</time>
      </trkpt>
      <trkpt lat="44.11407" lon="1.28258">
        <ele>195.2</ele>
        <time>2023-07-07T06:12:10Z</time>
      </trkpt>
      <trkpt lat="44.11406" lon="1.2826">
        <ele>195.2</ele>
        <time>2023-07-07T06:12:11Z</time>
      </trkpt>
      <trkpt lat="44.11405" lon="1.28266">
        <ele>195.4</ele>
        <time>2023-07-07T06:12:14Z</time>
      </trkpt>
      <trkpt lat="44.11406" lon="1.28284">
        <ele>195.4</ele>
        <time>2023-07-07T06:12:22Z</time>
      </trkpt>
      <trkpt lat="44.11406" lon="1.28286">
        <ele>195.4</ele>
        <time>2023-07-07T06:12:23Z</time>
      </trkpt>
      <trkpt lat="44.11403" lon="1.28299">
        <ele>195.4</ele>
        <time>2023-07-07T06:12:30Z</time>
      </trkpt>
      <trkpt lat="44.11398" lon="1.28312">
        <ele>195.8</ele>
        <time>2023-07-07T06:12:38Z</time>
      </trkpt>
      <trkpt lat="44.11397" lon="1.28321">
        <ele>196</ele>
        <time>2023-07-07T06:12:43Z</time>
      </trkpt>
      <trkpt lat="44.11397" lon="1.28325">
        <ele>196</ele>
        <time>2023-07-07T06:12:46Z</time>
      </trkpt>
      <trkpt lat="44.11395" lon="1.28329">
        <ele>195.8</ele>
        <time>2023-07-07T06:12:49Z</time>
      </trkpt>
      <trkpt lat="44.11395" lon="1.28334">
        <ele>196</ele>
        <time>2023-07-07T06:12:52Z</time>
      </trkpt>
      <trkpt lat="44.11395" lon="1.28336">
        <ele>196</ele>
        <time>2023-07-07T06:12:53Z</time>
      </trkpt>
      <trkpt lat="44.11393" lon="1.28344">
        <ele>196</ele>
        <time>2023-07-07T06:12:58Z</time>
      </trkpt>
      <trkpt lat="44.11391" lon="1.28349">
        <ele>195.8</ele>
        <time>2023-07-07T06:13:01Z</time>
      </trkpt>
      <trkpt lat="44.1139" lon="1.28355">
        <ele>196.2</ele>
        <time>2023-07-07T06:13:04Z</time>
      </trkpt>
      <trkpt lat="44.11388" lon="1.28363">
        <ele>196.2</ele>
        <time>2023-07-07T06:13:08Z</time>
      </trkpt>
      <trkpt lat="44.11386" lon="1.28374">
        <ele>196.2</ele>
        <time>2023-07-07T06:13:15Z</time>
      </trkpt>
      <trkpt lat="44.11384" lon="1.28387">
        <ele>196.4</ele>
        <time>2023-07-07T06:13:22Z</time>
      </trkpt>
      <trkpt lat="44.11383" lon="1.2839">
        <ele>196.4</ele>
        <time>2023-07-07T06:13:24Z</time>
      </trkpt>
      <trkpt lat="44.11383" lon="1.28397">
        <ele>196.2</ele>
        <time>2023-07-07T06:13:28Z</time>
      </trkpt>
      <trkpt lat="44.11382" lon="1.28404">
        <ele>196</ele>
        <time>2023-07-07T06:13:32Z</time>
      </trkpt>
      <trkpt lat="44.11382" lon="1.28408">
        <ele>196</ele>
        <time>2023-07-07T06:13:34Z</time>
      </trkpt>
      <trkpt lat="44.11381" lon="1.28412">
        <ele>195.8</ele>
        <time>2023-07-07T06:13:36Z</time>
      </trkpt>
      <trkpt lat="44.11381" lon="1.28414">
        <ele>195.8</ele>
        <time>2023-07-07T06:13:37Z</time>
      </trkpt>
      <trkpt lat="44.1138" lon="1.28417">
        <ele>195.8</ele>
        <time>2023-07-07T06:13:39Z</time>
      </trkpt>
      <trkpt lat="44.11377" lon="1.28433">
        <ele>196</ele>
        <time>2023-07-07T06:13:48Z</time>
      </trkpt>
      <trkpt lat="44.11374" lon="1.28445">
        <ele>195.2</ele>
        <time>2023-07-07T06:13:55Z</time>
      </trkpt>
      <trkpt lat="44.11372" lon="1.28448">
        <ele>195.4</ele>
        <time>2023-07-07T06:13:57Z</time>
      </trkpt>
      <trkpt lat="44.11371" lon="1.2845">
        <ele>195.4</ele>
        <time>2023-07-07T06:13:58Z</time>
      </trkpt>
      <trkpt lat="44.1137" lon="1.28457">
        <ele>195.4</ele>
        <time>2023-07-07T06:14:02Z</time>
      </trkpt>
      <trkpt lat="44.11369" lon="1.28467">
        <ele>195.4</ele>
        <time>2023-07-07T06:14:07Z</time>
      </trkpt>
      <trkpt lat="44.11369" lon="1.28472">
        <ele>195</ele>
        <time>2023-07-07T06:14:10Z</time>
      </trkpt>
      <trkpt lat="44.11368" lon="1.28477">
        <ele>195</ele>
        <time>2023-07-07T06:14:13Z</time>
      </trkpt>
      <trkpt lat="44.11365" lon="1.28484">
        <ele>194.6</ele>
        <time>2023-07-07T06:14:17Z</time>
      </trkpt>
      <trkpt lat="44.11364" lon="1.2849">
        <ele>194.6</ele>
        <time>2023-07-07T06:14:20Z</time>
      </trkpt>
      <trkpt lat="44.11362" lon="1.28504">
        <ele>194.2</ele>
        <time>2023-07-07T06:14:28Z</time>
      </trkpt>
      <trkpt lat="44.11362" lon="1.28508">
        <ele>194</ele>
        <time>2023-07-07T06:14:30Z</time>
      </trkpt>
      <trkpt lat="44.11362" lon="1.28516">
        <ele>193.8</ele>
        <time>2023-07-07T06:14:34Z</time>
      </trkpt>
      <trkpt lat="44.11359" lon="1.28528">
        <ele>193.4</ele>
        <time>2023-07-07T06:14:41Z</time>
      </trkpt>
      <trkpt lat="44.11359" lon="1.28529">
        <ele>193.2</ele>
        <time>2023-07-07T06:14:42Z</time>
      </trkpt>
      <trkpt lat="44.11356" lon="1.28538">
        <ele>193.2</ele>
        <time>2023-07-07T06:14:47Z</time>
      </trkpt>
      <trkpt lat="44.11354" lon="1.28545">
        <ele>193.2</ele>
        <time>2023-07-07T06:14:51Z</time>
      </trkpt>
      <trkpt lat="44.11353" lon="1.28548">
        <ele>193.2</ele>
        <time>2023-07-07T06:14:53Z</time>
      </trkpt>
      <trkpt lat="44.11352" lon="1.28554">
        <ele>193</ele>
        <time>2023-07-07T06:14:56Z</time>
      </trkpt>
      <trkpt lat="44.11352" lon="1.28559">
        <ele>192.8</ele>
        <time>2023-07-07T06:14:59Z</time>
      </trkpt>
      <trkpt lat="44.11351" lon="1.28561">
        <ele>192.6</ele>
        <time>2023-07-07T06:15:00Z</time>
      </trkpt>
      <trkpt lat="44.1135" lon="1.28567">
        <ele>192.6</ele>
        <time>2023-07-07T06:15:04Z</time>
      </trkpt>
      <trkpt lat="44.11349" lon="1.2857">
        <ele>192.6</ele>
        <time>2023-07-07T06:15:06Z</time>
      </trkpt>
      <trkpt lat="44.11347" lon="1.28576">
        <ele>192.2</ele>
        <time>2023-07-07T06:15:10Z</time>
      </trkpt>
      <trkpt lat="44.11346" lon="1.28579">
        <ele>192</ele>
        <time>2023-07-07T06:15:12Z</time>
      </trkpt>
      <trkpt lat="44.11347" lon="1.28579">
        <ele>192</ele>
        <time>2023-07-07T06:15:13Z</time>
      </trkpt>
      <trkpt lat="44.11347" lon="1.2858">
        <ele>191.8</ele>
        <time>2023-07-07T06:15:14Z</time>
      </trkpt>
      <trkpt lat="44.11347" lon="1.28583">
        <ele>192</ele>
        <time>2023-07-07T06:15:16Z</time>
      </trkpt>
      <trkpt lat="44.11347" lon="1.28587">
        <ele>191.8</ele>
        <time>2023-07-07T06:15:19Z</time>
      </trkpt>
      <trkpt lat="44.11345" lon="1.28602">
        <ele>191.6</ele>
        <time>2023-07-07T06:15:27Z</time>
      </trkpt>
      <trkpt lat="44.11345" lon="1.28606">
        <ele>191.6</ele>
        <time>2023-07-07T06:15:29Z</time>
      </trkpt>
      <trkpt lat="44.11343" lon="1.28613">
        <ele>191.6</ele>
        <time>2023-07-07T06:15:33Z</time>
      </trkpt>
      <trkpt lat="44.11343" lon="1.28617">
        <ele>191.6</ele>
        <time>2023-07-07T06:15:35Z</time>
      </trkpt>
      <trkpt lat="44.11342" lon="1.28627">
        <ele>191.4</ele>
        <time>2023-07-07T06:15:41Z</time>
      </trkpt>
      <trkpt lat="44.1134" lon="1.28633">
        <ele>191</ele>
        <time>2023-07-07T06:15:45Z</time>
      </trkpt>
      <trkpt lat="44.11339" lon="1.28638">
        <ele>191</ele>
        <time>2023-07-07T06:15:48Z</time>
      </trkpt>
      <trkpt lat="44.11339" lon="1.28641">
        <ele>190.8</ele>
        <time>2023-07-07T06:15:49Z</time>
      </trkpt>
      <trkpt lat="44.11337" lon="1.28647">
        <ele>191</ele>
        <time>2023-07-07T06:15:53Z</time>
      </trkpt>
      <trkpt lat="44.11337" lon="1.2865">
        <ele>191</ele>
        <time>2023-07-07T06:15:55Z</time>
      </trkpt>
      <trkpt lat="44.11335" lon="1.28662">
        <ele>191</ele>
        <time>2023-07-07T06:16:02Z</time>
      </trkpt>
      <trkpt lat="44.11333" lon="1.28673">
        <ele>191.6</ele>
        <time>2023-07-07T06:16:08Z</time>
      </trkpt>
      <trkpt lat="44.11333" lon="1.28675">
        <ele>191.6</ele>
        <time>2023-07-07T06:16:09Z</time>
      </trkpt>
      <trkpt lat="44.1133" lon="1.28688">
        <ele>191.4</ele>
        <time>2023-07-07T06:16:17Z</time>
      </trkpt>
      <trkpt lat="44.11328" lon="1.28699">
        <ele>191.4</ele>
        <time>2023-07-07T06:16:24Z</time>
      </trkpt>
      <trkpt lat="44.11327" lon="1.28714">
        <ele>191.8</ele>
        <time>2023-07-07T06:16:31Z</time>
      </trkpt>
      <trkpt lat="44.11325" lon="1.28723">
        <ele>192</ele>
        <time>2023-07-07T06:16:36Z</time>
      </trkpt>
      <trkpt lat="44.11324" lon="1.28726">
        <ele>192</ele>
        <time>2023-07-07T06:16:38Z</time>
      </trkpt>
      <trkpt lat="44.11323" lon="1.2873">
        <ele>192</ele>
        <time>2023-07-07T06:16:41Z</time>
      </trkpt>
      <trkpt lat="44.11322" lon="1.28733">
        <ele>192</ele>
        <time>2023-07-07T06:16:43Z</time>
      </trkpt>
      <trkpt lat="44.1132" lon="1.28741">
        <ele>192.2</ele>
        <time>2023-07-07T06:16:46Z</time>
      </trkpt>
      <trkpt lat="44.11317" lon="1.28755">
        <ele>192.8</ele>
        <time>2023-07-07T06:16:54Z</time>
      </trkpt>
      <trkpt lat="44.11313" lon="1.28766">
        <ele>192.8</ele>
        <time>2023-07-07T06:17:01Z</time>
      </trkpt>
      <trkpt lat="44.11311" lon="1.28768">
        <ele>193</ele>
        <time>2023-07-07T06:17:03Z</time>
      </trkpt>
      <trkpt lat="44.1131" lon="1.28772">
        <ele>193.2</ele>
        <time>2023-07-07T06:17:06Z</time>
      </trkpt>
      <trkpt lat="44.11308" lon="1.28775">
        <ele>193.4</ele>
        <time>2023-07-07T06:17:08Z</time>
      </trkpt>
      <trkpt lat="44.11306" lon="1.28779">
        <ele>193.4</ele>
        <time>2023-07-07T06:17:11Z</time>
      </trkpt>
      <trkpt lat="44.11301" lon="1.2879">
        <ele>193.8</ele>
        <time>2023-07-07T06:17:19Z</time>
      </trkpt>
      <trkpt lat="44.11301" lon="1.28791">
        <ele>194</ele>
        <time>2023-07-07T06:17:20Z</time>
      </trkpt>
      <trkpt lat="44.11296" lon="1.28799">
        <ele>194.6</ele>
        <time>2023-07-07T06:17:27Z</time>
      </trkpt>
      <trkpt lat="44.11289" lon="1.28811">
        <ele>194.8</ele>
        <time>2023-07-07T06:17:36Z</time>
      </trkpt>
      <trkpt lat="44.11289" lon="1.28812">
        <ele>194.8</ele>
        <time>2023-07-07T06:17:37Z</time>
      </trkpt>
      <trkpt lat="44.11288" lon="1.28813">
        <ele>195</ele>
        <time>2023-07-07T06:17:38Z</time>
      </trkpt>
      <trkpt lat="44.11287" lon="1.28814">
        <ele>195</ele>
        <time>2023-07-07T06:17:39Z</time>
      </trkpt>
      <trkpt lat="44.11282" lon="1.28822">
        <ele>195.2</ele>
        <time>2023-07-07T06:17:43Z</time>
      </trkpt>
      <trkpt lat="44.11281" lon="1.28823">
        <ele>195.2</ele>
        <time>2023-07-07T06:17:44Z</time>
      </trkpt>
      <trkpt lat="44.1128" lon="1.28824">
        <ele>195.4</ele>
        <time>2023-07-07T06:17:45Z</time>
      </trkpt>
      <trkpt lat="44.11277" lon="1.28829">
        <ele>195.8</ele>
        <time>2023-07-07T06:17:48Z</time>
      </trkpt>
      <trkpt lat="44.11275" lon="1.28833">
        <ele>196</ele>
        <time>2023-07-07T06:17:50Z</time>
      </trkpt>
      <trkpt lat="44.11274" lon="1.28836">
        <ele>196</ele>
        <time>2023-07-07T06:17:52Z</time>
      </trkpt>
      <trkpt lat="44.11273" lon="1.28838">
        <ele>196.2</ele>
        <time>2023-07-07T06:17:54Z</time>
      </trkpt>
      <trkpt lat="44.11271" lon="1.28847">
        <ele>196.8</ele>
        <time>2023-07-07T06:18:00Z</time>
      </trkpt>
      <trkpt lat="44.1127" lon="1.28851">
        <ele>197</ele>
        <time>2023-07-07T06:18:02Z</time>
      </trkpt>
      <trkpt lat="44.11266" lon="1.28858">
        <ele>197.4</ele>
        <time>2023-07-07T06:18:07Z</time>
      </trkpt>
      <trkpt lat="44.11263" lon="1.28869">
        <ele>197.2</ele>
        <time>2023-07-07T06:18:14Z</time>
      </trkpt>
      <trkpt lat="44.1126" lon="1.28875">
        <ele>197.6</ele>
        <time>2023-07-07T06:18:18Z</time>
      </trkpt>
      <trkpt lat="44.11258" lon="1.2888">
        <ele>197.8</ele>
        <time>2023-07-07T06:18:21Z</time>
      </trkpt>
      <trkpt lat="44.11255" lon="1.28886">
        <ele>198</ele>
        <time>2023-07-07T06:18:24Z</time>
      </trkpt>
      <trkpt lat="44.11253" lon="1.28889">
        <ele>198</ele>
        <time>2023-07-07T06:18:26Z</time>
      </trkpt>
      <trkpt lat="44.11252" lon="1.2889">
        <ele>198</ele>
        <time>2023-07-07T06:18:27Z</time>
      </trkpt>
      <trkpt lat="44.11246" lon="1.28898">
        <ele>198</ele>
        <time>2023-07-07T06:18:33Z</time>
      </trkpt>
      <trkpt lat="44.11243" lon="1.28905">
        <ele>198</ele>
        <time>2023-07-07T06:18:38Z</time>
      </trkpt>
      <trkpt lat="44.11242" lon="1.28908">
        <ele>197.6</ele>
        <time>2023-07-07T06:18:40Z</time>
      </trkpt>
      <trkpt lat="44.11241" lon="1.28911">
        <ele>197.8</ele>
        <time>2023-07-07T06:18:42Z</time>
      </trkpt>
      <trkpt lat="44.11237" lon="1.28918">
        <ele>197.8</ele>
        <time>2023-07-07T06:18:47Z</time>
      </trkpt>
      <trkpt lat="44.11231" lon="1.28932">
        <ele>197.8</ele>
        <time>2023-07-07T06:18:55Z</time>
      </trkpt>
      <trkpt lat="44.11227" lon="1.28938">
        <ele>198.2</ele>
        <time>2023-07-07T06:19:01Z</time>
      </trkpt>
      <trkpt lat="44.11222" lon="1.28948">
        <ele>198.2</ele>
        <time>2023-07-07T06:19:08Z</time>
      </trkpt>
      <trkpt lat="44.11221" lon="1.2895">
        <ele>198.2</ele>
        <time>2023-07-07T06:19:09Z</time>
      </trkpt>
      <trkpt lat="44.11218" lon="1.28957">
        <ele>198.2</ele>
        <time>2023-07-07T06:19:14Z</time>
      </trkpt>
      <trkpt lat="44.11218" lon="1.28959">
        <ele>198.2</ele>
        <time>2023-07-07T06:19:15Z</time>
      </trkpt>
      <trkpt lat="44.11214" lon="1.28964">
        <ele>198.2</ele>
        <time>2023-07-07T06:19:19Z</time>
      </trkpt>
      <trkpt lat="44.11211" lon="1.28969">
        <ele>198</ele>
        <time>2023-07-07T06:19:23Z</time>
      </trkpt>
      <trkpt lat="44.11205" lon="1.28981">
        <ele>198.2</ele>
        <time>2023-07-07T06:19:31Z</time>
      </trkpt>
      <trkpt lat="44.112" lon="1.28992">
        <ele>198</ele>
        <time>2023-07-07T06:19:39Z</time>
      </trkpt>
      <trkpt lat="44.11199" lon="1.28993">
        <ele>198</ele>
        <time>2023-07-07T06:19:40Z</time>
      </trkpt>
      <trkpt lat="44.11194" lon="1.29005">
        <ele>198</ele>
        <time>2023-07-07T06:19:47Z</time>
      </trkpt>
      <trkpt lat="44.11189" lon="1.29019">
        <ele>198.2</ele>
        <time>2023-07-07T06:19:55Z</time>
      </trkpt>
      <trkpt lat="44.11188" lon="1.2902">
        <ele>198.2</ele>
        <time>2023-07-07T06:19:56Z</time>
      </trkpt>
      <trkpt lat="44.11185" lon="1.29029">
        <ele>198.4</ele>
        <time>2023-07-07T06:20:01Z</time>
      </trkpt>
      <trkpt lat="44.11182" lon="1.29035">
        <ele>198.4</ele>
        <time>2023-07-07T06:20:05Z</time>
      </trkpt>
      <trkpt lat="44.11176" lon="1.2905">
        <ele>198.8</ele>
        <time>2023-07-07T06:20:15Z</time>
      </trkpt>
      <trkpt lat="44.11172" lon="1.29059">
        <ele>199</ele>
        <time>2023-07-07T06:20:21Z</time>
      </trkpt>
      <trkpt lat="44.11169" lon="1.29068">
        <ele>198.8</ele>
        <time>2023-07-07T06:20:26Z</time>
      </trkpt>
      <trkpt lat="44.11165" lon="1.29079">
        <ele>199</ele>
        <time>2023-07-07T06:20:34Z</time>
      </trkpt>
      <trkpt lat="44.11164" lon="1.29081">
        <ele>199</ele>
        <time>2023-07-07T06:20:35Z</time>
      </trkpt>
      <trkpt lat="44.1116" lon="1.29093">
        <ele>199.4</ele>
        <time>2023-07-07T06:20:43Z</time>
      </trkpt>
      <trkpt lat="44.1116" lon="1.29095">
        <ele>199.6</ele>
        <time>2023-07-07T06:20:44Z</time>
      </trkpt>
      <trkpt lat="44.11157" lon="1.29103">
        <ele>199.6</ele>
        <time>2023-07-07T06:20:48Z</time>
      </trkpt>
      <trkpt lat="44.11156" lon="1.29108">
        <ele>199.8</ele>
        <time>2023-07-07T06:20:51Z</time>
      </trkpt>
      <trkpt lat="44.11156" lon="1.2911">
        <ele>199.8</ele>
        <time>2023-07-07T06:20:52Z</time>
      </trkpt>
      <trkpt lat="44.11153" lon="1.2912">
        <ele>199.6</ele>
        <time>2023-07-07T06:20:59Z</time>
      </trkpt>
      <trkpt lat="44.1115" lon="1.29132">
        <ele>200</ele>
        <time>2023-07-07T06:21:06Z</time>
      </trkpt>
      <trkpt lat="44.11147" lon="1.29144">
        <ele>200</ele>
        <time>2023-07-07T06:21:13Z</time>
      </trkpt>
      <trkpt lat="44.11147" lon="1.29147">
        <ele>200</ele>
        <time>2023-07-07T06:21:15Z</time>
      </trkpt>
      <trkpt lat="44.11145" lon="1.29155">
        <ele>200.6</ele>
        <time>2023-07-07T06:21:20Z</time>
      </trkpt>
      <trkpt lat="44.1114" lon="1.2917">
        <ele>200.8</ele>
        <time>2023-07-07T06:21:30Z</time>
      </trkpt>
      <trkpt lat="44.11139" lon="1.29172">
        <ele>200.6</ele>
        <time>2023-07-07T06:21:32Z</time>
      </trkpt>
      <trkpt lat="44.11139" lon="1.29175">
        <ele>200.6</ele>
        <time>2023-07-07T06:21:34Z</time>
      </trkpt>
      <trkpt lat="44.11138" lon="1.29179">
        <ele>200.8</ele>
        <time>2023-07-07T06:21:36Z</time>
      </trkpt>
      <trkpt lat="44.11138" lon="1.29181">
        <ele>200.8</ele>
        <time>2023-07-07T06:21:37Z</time>
      </trkpt>
      <trkpt lat="44.11134" lon="1.29193">
        <ele>200.8</ele>
        <time>2023-07-07T06:21:44Z</time>
      </trkpt>
      <trkpt lat="44.11131" lon="1.29206">
        <ele>201</ele>
        <time>2023-07-07T06:21:51Z</time>
      </trkpt>
      <trkpt lat="44.1113" lon="1.29208">
        <ele>201.2</ele>
        <time>2023-07-07T06:21:52Z</time>
      </trkpt>
      <trkpt lat="44.11129" lon="1.29212">
        <ele>201</ele>
        <time>2023-07-07T06:21:55Z</time>
      </trkpt>
      <trkpt lat="44.11128" lon="1.29216">
        <ele>201.2</ele>
        <time>2023-07-07T06:21:57Z</time>
      </trkpt>
      <trkpt lat="44.11128" lon="1.29218">
        <ele>201.2</ele>
        <time>2023-07-07T06:21:58Z</time>
      </trkpt>
      <trkpt lat="44.11123" lon="1.29229">
        <ele>201.2</ele>
        <time>2023-07-07T06:22:05Z</time>
      </trkpt>
      <trkpt lat="44.11122" lon="1.2923">
        <ele>201.4</ele>
        <time>2023-07-07T06:22:06Z</time>
      </trkpt>
      <trkpt lat="44.11119" lon="1.29241">
        <ele>202</ele>
        <time>2023-07-07T06:22:14Z</time>
      </trkpt>
      <trkpt lat="44.11119" lon="1.29242">
        <ele>202.2</ele>
        <time>2023-07-07T06:22:15Z</time>
      </trkpt>
      <trkpt lat="44.11118" lon="1.29244">
        <ele>202.4</ele>
        <time>2023-07-07T06:22:16Z</time>
      </trkpt>
      <trkpt lat="44.11117" lon="1.29246">
        <ele>202.4</ele>
        <time>2023-07-07T06:22:17Z</time>
      </trkpt>
      <trkpt lat="44.11114" lon="1.29251">
        <ele>202.6</ele>
        <time>2023-07-07T06:22:21Z</time>
      </trkpt>
      <trkpt lat="44.11113" lon="1.29255">
        <ele>202.6</ele>
        <time>2023-07-07T06:22:23Z</time>
      </trkpt>
      <trkpt lat="44.11111" lon="1.2926">
        <ele>202.8</ele>
        <time>2023-07-07T06:22:26Z</time>
      </trkpt>
      <trkpt lat="44.11108" lon="1.29266">
        <ele>202.8</ele>
        <time>2023-07-07T06:22:30Z</time>
      </trkpt>
      <trkpt lat="44.11105" lon="1.29274">
        <ele>202.8</ele>
        <time>2023-07-07T06:22:35Z</time>
      </trkpt>
      <trkpt lat="44.11103" lon="1.29279">
        <ele>203</ele>
        <time>2023-07-07T06:22:38Z</time>
      </trkpt>
      <trkpt lat="44.111" lon="1.29285">
        <ele>203.2</ele>
        <time>2023-07-07T06:22:42Z</time>
      </trkpt>
      <trkpt lat="44.11099" lon="1.29289">
        <ele>203.2</ele>
        <time>2023-07-07T06:22:44Z</time>
      </trkpt>
      <trkpt lat="44.11098" lon="1.29292">
        <ele>203.4</ele>
        <time>2023-07-07T06:22:46Z</time>
      </trkpt>
      <trkpt lat="44.11094" lon="1.29305">
        <ele>204</ele>
        <time>2023-07-07T06:22:53Z</time>
      </trkpt>
      <trkpt lat="44.11091" lon="1.29315">
        <ele>204.4</ele>
        <time>2023-07-07T06:22:58Z</time>
      </trkpt>
      <trkpt lat="44.1109" lon="1.29318">
        <ele>204.6</ele>
        <time>2023-07-07T06:23:00Z</time>
      </trkpt>
      <trkpt lat="44.11087" lon="1.29324">
        <ele>204.8</ele>
        <time>2023-07-07T06:23:04Z</time>
      </trkpt>
      <trkpt lat="44.11087" lon="1.29325">
        <ele>204.8</ele>
        <time>2023-07-07T06:23:05Z</time>
      </trkpt>
      <trkpt lat="44.11085" lon="1.29328">
        <ele>205</ele>
        <time>2023-07-07T06:23:07Z</time>
      </trkpt>
      <trkpt lat="44.11083" lon="1.29332">
        <ele>205.2</ele>
        <time>2023-07-07T06:23:10Z</time>
      </trkpt>
      <trkpt lat="44.11082" lon="1.29333">
        <ele>205.2</ele>
        <time>2023-07-07T06:23:11Z</time>
      </trkpt>
      <trkpt lat="44.11079" lon="1.29339">
        <ele>205.2</ele>
        <time>2023-07-07T06:23:15Z</time>
      </trkpt>
      <trkpt lat="44.11078" lon="1.29341">
        <ele>205.4</ele>
        <time>2023-07-07T06:23:17Z</time>
      </trkpt>
      <trkpt lat="44.11075" lon="1.29345">
        <ele>205.4</ele>
        <time>2023-07-07T06:23:20Z</time>
      </trkpt>
      <trkpt lat="44.11074" lon="1.29348">
        <ele>205.4</ele>
        <time>2023-07-07T06:23:22Z</time>
      </trkpt>
      <trkpt lat="44.11073" lon="1.2935">
        <ele>205.4</ele>
        <time>2023-07-07T06:23:23Z</time>
      </trkpt>
      <trkpt lat="44.11067" lon="1.29366">
        <ele>205.8</ele>
        <time>2023-07-07T06:23:33Z</time>
      </trkpt>
      <trkpt lat="44.11065" lon="1.29369">
        <ele>206</ele>
        <time>2023-07-07T06:23:35Z</time>
      </trkpt>
      <trkpt lat="44.1106" lon="1.2938">
        <ele>206</ele>
        <time>2023-07-07T06:23:42Z</time>
      </trkpt>
      <trkpt lat="44.11058" lon="1.29386">
        <ele>206</ele>
        <time>2023-07-07T06:23:46Z</time>
      </trkpt>
      <trkpt lat="44.11054" lon="1.29394">
        <ele>205.6</ele>
        <time>2023-07-07T06:23:52Z</time>
      </trkpt>
      <trkpt lat="44.11051" lon="1.29402">
        <ele>205.2</ele>
        <time>2023-07-07T06:23:58Z</time>
      </trkpt>
      <trkpt lat="44.11051" lon="1.29402">
        <ele>205.2</ele>
        <time>2023-07-07T06:23:59Z</time>
      </trkpt>
      <trkpt lat="44.1105" lon="1.29404">
        <ele>205.6</ele>
        <time>2023-07-07T06:24:06Z</time>
      </trkpt>
      <trkpt lat="44.11043" lon="1.29416">
        <ele>205.6</ele>
        <time>2023-07-07T06:24:13Z</time>
      </trkpt>
      <trkpt lat="44.11039" lon="1.29432">
        <ele>204.8</ele>
        <time>2023-07-07T06:24:22Z</time>
      </trkpt>
      <trkpt lat="44.11033" lon="1.29448">
        <ele>204.6</ele>
        <time>2023-07-07T06:24:31Z</time>
      </trkpt>
      <trkpt lat="44.11028" lon="1.29462">
        <ele>204.6</ele>
        <time>2023-07-07T06:24:40Z</time>
      </trkpt>
      <trkpt lat="44.11024" lon="1.29473">
        <ele>204.4</ele>
        <time>2023-07-07T06:24:47Z</time>
      </trkpt>
      <trkpt lat="44.11024" lon="1.29474">
        <ele>204.2</ele>
        <time>2023-07-07T06:24:48Z</time>
      </trkpt>
      <trkpt lat="44.11022" lon="1.29477">
        <ele>204</ele>
        <time>2023-07-07T06:24:50Z</time>
      </trkpt>
      <trkpt lat="44.11016" lon="1.29488">
        <ele>203.4</ele>
        <time>2023-07-07T06:24:58Z</time>
      </trkpt>
      <trkpt lat="44.11016" lon="1.29489">
        <ele>203.4</ele>
        <time>2023-07-07T06:24:59Z</time>
      </trkpt>
      <trkpt lat="44.11015" lon="1.29493">
        <ele>203.4</ele>
        <time>2023-07-07T06:25:01Z</time>
      </trkpt>
      <trkpt lat="44.11013" lon="1.29501">
        <ele>203.6</ele>
        <time>2023-07-07T06:25:06Z</time>
      </trkpt>
      <trkpt lat="44.1101" lon="1.29511">
        <ele>203.4</ele>
        <time>2023-07-07T06:25:12Z</time>
      </trkpt>
      <trkpt lat="44.11009" lon="1.29513">
        <ele>203.2</ele>
        <time>2023-07-07T06:25:13Z</time>
      </trkpt>
      <trkpt lat="44.11009" lon="1.29515">
        <ele>203.2</ele>
        <time>2023-07-07T06:25:14Z</time>
      </trkpt>
      <trkpt lat="44.11005" lon="1.29524">
        <ele>202.8</ele>
        <time>2023-07-07T06:25:20Z</time>
      </trkpt>
      <trkpt lat="44.11002" lon="1.29532">
        <ele>202.8</ele>
        <time>2023-07-07T06:25:25Z</time>
      </trkpt>
      <trkpt lat="44.10996" lon="1.29548">
        <ele>202.4</ele>
        <time>2023-07-07T06:25:34Z</time>
      </trkpt>
      <trkpt lat="44.10993" lon="1.29557">
        <ele>202</ele>
        <time>2023-07-07T06:25:40Z</time>
      </trkpt>
      <trkpt lat="44.10992" lon="1.29561">
        <ele>201.8</ele>
        <time>2023-07-07T06:25:42Z</time>
      </trkpt>
      <trkpt lat="44.10987" lon="1.29574">
        <ele>202</ele>
        <time>2023-07-07T06:25:50Z</time>
      </trkpt>
      <trkpt lat="44.10986" lon="1.29579">
        <ele>202</ele>
        <time>2023-07-07T06:25:53Z</time>
      </trkpt>
      <trkpt lat="44.10983" lon="1.2959">
        <ele>201.4</ele>
        <time>2023-07-07T06:26:00Z</time>
      </trkpt>
      <trkpt lat="44.10978" lon="1.29604">
        <ele>201.2</ele>
        <time>2023-07-07T06:26:08Z</time>
      </trkpt>
      <trkpt lat="44.10978" lon="1.29605">
        <ele>201</ele>
        <time>2023-07-07T06:26:09Z</time>
      </trkpt>
      <trkpt lat="44.10976" lon="1.29611">
        <ele>201</ele>
        <time>2023-07-07T06:26:12Z</time>
      </trkpt>
      <trkpt lat="44.10973" lon="1.29619">
        <ele>200.8</ele>
        <time>2023-07-07T06:26:17Z</time>
      </trkpt>
      <trkpt lat="44.10973" lon="1.2962">
        <ele>200.8</ele>
        <time>2023-07-07T06:26:18Z</time>
      </trkpt>
      <trkpt lat="44.10973" lon="1.29622">
        <ele>200.8</ele>
        <time>2023-07-07T06:26:20Z</time>
      </trkpt>
      <trkpt lat="44.10972" lon="1.29627">
        <ele>200.8</ele>
        <time>2023-07-07T06:26:23Z</time>
      </trkpt>
      <trkpt lat="44.10971" lon="1.29632">
        <ele>201</ele>
        <time>2023-07-07T06:26:25Z</time>
      </trkpt>
      <trkpt lat="44.10971" lon="1.29643">
        <ele>201</ele>
        <time>2023-07-07T06:26:31Z</time>
      </trkpt>
      <trkpt lat="44.10971" lon="1.29647">
        <ele>200.8</ele>
        <time>2023-07-07T06:26:33Z</time>
      </trkpt>
      <trkpt lat="44.10972" lon="1.29658">
        <ele>200.6</ele>
        <time>2023-07-07T06:26:39Z</time>
      </trkpt>
      <trkpt lat="44.10971" lon="1.29662">
        <ele>200.4</ele>
        <time>2023-07-07T06:26:41Z</time>
      </trkpt>
      <trkpt lat="44.10971" lon="1.29673">
        <ele>200</ele>
        <time>2023-07-07T06:26:47Z</time>
      </trkpt>
      <trkpt lat="44.10971" lon="1.29678">
        <ele>199.8</ele>
        <time>2023-07-07T06:26:50Z</time>
      </trkpt>
      <trkpt lat="44.10971" lon="1.29691">
        <ele>199.8</ele>
        <time>2023-07-07T06:26:57Z</time>
      </trkpt>
      <trkpt lat="44.10972" lon="1.29705">
        <ele>199.6</ele>
        <time>2023-07-07T06:27:05Z</time>
      </trkpt>
      <trkpt lat="44.10972" lon="1.29707">
        <ele>199.4</ele>
        <time>2023-07-07T06:27:06Z</time>
      </trkpt>
      <trkpt lat="44.10974" lon="1.29721">
        <ele>199</ele>
        <time>2023-07-07T06:27:14Z</time>
      </trkpt>
      <trkpt lat="44.10974" lon="1.29723">
        <ele>199</ele>
        <time>2023-07-07T06:27:15Z</time>
      </trkpt>
      <trkpt lat="44.10974" lon="1.29724">
        <ele>199</ele>
        <time>2023-07-07T06:27:16Z</time>
      </trkpt>
      <trkpt lat="44.10976" lon="1.29744">
        <ele>198.4</ele>
        <time>2023-07-07T06:27:27Z</time>
      </trkpt>
      <trkpt lat="44.10976" lon="1.29747">
        <ele>198.4</ele>
        <time>2023-07-07T06:27:29Z</time>
      </trkpt>
      <trkpt lat="44.10978" lon="1.29758">
        <ele>198</ele>
        <time>2023-07-07T06:27:35Z</time>
      </trkpt>
      <trkpt lat="44.10978" lon="1.2976">
        <ele>197.8</ele>
        <time>2023-07-07T06:27:36Z</time>
      </trkpt>
      <trkpt lat="44.10979" lon="1.29769">
        <ele>197.6</ele>
        <time>2023-07-07T06:27:41Z</time>
      </trkpt>
      <trkpt lat="44.10979" lon="1.29773">
        <ele>197.6</ele>
        <time>2023-07-07T06:27:43Z</time>
      </trkpt>
      <trkpt lat="44.1098" lon="1.29779">
        <ele>197.4</ele>
        <time>2023-07-07T06:27:47Z</time>
      </trkpt>
      <trkpt lat="44.10983" lon="1.2979">
        <ele>196.6</ele>
        <time>2023-07-07T06:27:53Z</time>
      </trkpt>
      <trkpt lat="44.10984" lon="1.29796">
        <ele>196.4</ele>
        <time>2023-07-07T06:27:57Z</time>
      </trkpt>
      <trkpt lat="44.10971" lon="1.29799">
        <ele>194.2</ele>
        <time>2023-07-07T06:53:58Z</time>
      </trkpt>
      <trkpt lat="44.10973" lon="1.29796">
        <ele>194.2</ele>
        <time>2023-07-07T06:53:59Z</time>
      </trkpt>
      <trkpt lat="44.10973" lon="1.29795">
        <ele>194.2</ele>
        <time>2023-07-07T06:54:00Z</time>
      </trkpt>
      <trkpt lat="44.10972" lon="1.29794">
        <ele>194.2</ele>
        <time>2023-07-07T06:54:02Z</time>
      </trkpt>
      <trkpt lat="44.10969" lon="1.29791">
        <ele>194.2</ele>
        <time>2023-07-07T06:54:06Z</time>
      </trkpt>
      <trkpt lat="44.1096" lon="1.29793">
        <ele>195.4</ele>
        <time>2023-07-07T06:54:15Z</time>
      </trkpt>
      <trkpt lat="44.10957" lon="1.29794">
        <ele>195.4</ele>
        <time>2023-07-07T06:54:17Z</time>
      </trkpt>
      <trkpt lat="44.10945" lon="1.29795">
        <ele>195.8</ele>
        <time>2023-07-07T06:54:29Z</time>
      </trkpt>
      <trkpt lat="44.10941" lon="1.29794">
        <ele>195.8</ele>
        <time>2023-07-07T06:54:32Z</time>
      </trkpt>
      <trkpt lat="44.10938" lon="1.29794">
        <ele>195.8</ele>
        <time>2023-07-07T06:54:34Z</time>
      </trkpt>
      <trkpt lat="44.10937" lon="1.29795">
        <ele>195.8</ele>
        <time>2023-07-07T06:54:35Z</time>
      </trkpt>
      <trkpt lat="44.10932" lon="1.29796">
        <ele>195.8</ele>
        <time>2023-07-07T06:54:39Z</time>
      </trkpt>
      <trkpt lat="44.10928" lon="1.29796">
        <ele>195</ele>
        <time>2023-07-07T06:54:43Z</time>
      </trkpt>
      <trkpt lat="44.1092" lon="1.29798">
        <ele>194.8</ele>
        <time>2023-07-07T06:54:50Z</time>
      </trkpt>
      <trkpt lat="44.10917" lon="1.29798">
        <ele>194.6</ele>
        <time>2023-07-07T06:54:52Z</time>
      </trkpt>
      <trkpt lat="44.1091" lon="1.298">
        <ele>194.4</ele>
        <time>2023-07-07T06:54:58Z</time>
      </trkpt>
      <trkpt lat="44.10907" lon="1.29801">
        <ele>194.2</ele>
        <time>2023-07-07T06:55:00Z</time>
      </trkpt>
      <trkpt lat="44.10898" lon="1.29802">
        <ele>193.2</ele>
        <time>2023-07-07T06:55:08Z</time>
      </trkpt>
      <trkpt lat="44.10892" lon="1.29803">
        <ele>192.6</ele>
        <time>2023-07-07T06:55:13Z</time>
      </trkpt>
      <trkpt lat="44.10887" lon="1.29804">
        <ele>192.4</ele>
        <time>2023-07-07T06:55:17Z</time>
      </trkpt>
      <trkpt lat="44.10883" lon="1.29804">
        <ele>192.2</ele>
        <time>2023-07-07T06:55:21Z</time>
      </trkpt>
      <trkpt lat="44.10879" lon="1.29805">
        <ele>191.8</ele>
        <time>2023-07-07T06:55:24Z</time>
      </trkpt>
      <trkpt lat="44.10872" lon="1.29808">
        <ele>191</ele>
        <time>2023-07-07T06:55:30Z</time>
      </trkpt>
      <trkpt lat="44.10869" lon="1.29809">
        <ele>190.8</ele>
        <time>2023-07-07T06:55:33Z</time>
      </trkpt>
      <trkpt lat="44.10865" lon="1.2981">
        <ele>190.6</ele>
        <time>2023-07-07T06:55:37Z</time>
      </trkpt>
      <trkpt lat="44.1086" lon="1.29812">
        <ele>190</ele>
        <time>2023-07-07T06:55:42Z</time>
      </trkpt>
      <trkpt lat="44.10858" lon="1.29814">
        <ele>190</ele>
        <time>2023-07-07T06:55:44Z</time>
      </trkpt>
      <trkpt lat="44.10852" lon="1.29818">
        <ele>189.6</ele>
        <time>2023-07-07T06:55:49Z</time>
      </trkpt>
      <trkpt lat="44.1085" lon="1.29819">
        <ele>189.4</ele>
        <time>2023-07-07T06:55:50Z</time>
      </trkpt>
      <trkpt lat="44.10847" lon="1.29821">
        <ele>189.2</ele>
        <time>2023-07-07T06:55:53Z</time>
      </trkpt>
      <trkpt lat="44.10842" lon="1.29823">
        <ele>189.4</ele>
        <time>2023-07-07T06:55:57Z</time>
      </trkpt>
      <trkpt lat="44.10833" lon="1.29828">
        <ele>188.8</ele>
        <time>2023-07-07T06:56:05Z</time>
      </trkpt>
      <trkpt lat="44.1083" lon="1.29832">
        <ele>188.4</ele>
        <time>2023-07-07T06:56:08Z</time>
      </trkpt>
      <trkpt lat="44.10826" lon="1.29835">
        <ele>188.2</ele>
        <time>2023-07-07T06:56:12Z</time>
      </trkpt>
      <trkpt lat="44.10822" lon="1.29837">
        <ele>188.2</ele>
        <time>2023-07-07T06:56:15Z</time>
      </trkpt>
      <trkpt lat="44.10812" lon="1.29844">
        <ele>187.8</ele>
        <time>2023-07-07T06:56:24Z</time>
      </trkpt>
      <trkpt lat="44.10803" lon="1.29851">
        <ele>187.2</ele>
        <time>2023-07-07T06:56:34Z</time>
      </trkpt>
      <trkpt lat="44.10799" lon="1.29854">
        <ele>187</ele>
        <time>2023-07-07T06:56:38Z</time>
      </trkpt>
      <trkpt lat="44.10797" lon="1.29856">
        <ele>186.8</ele>
        <time>2023-07-07T06:56:40Z</time>
      </trkpt>
      <trkpt lat="44.10795" lon="1.29857">
        <ele>186.8</ele>
        <time>2023-07-07T06:56:42Z</time>
      </trkpt>
      <trkpt lat="44.10795" lon="1.29858">
        <ele>186.8</ele>
        <time>2023-07-07T06:56:43Z</time>
      </trkpt>
      <trkpt lat="44.10789" lon="1.29864">
        <ele>186.6</ele>
        <time>2023-07-07T06:56:49Z</time>
      </trkpt>
      <trkpt lat="44.10787" lon="1.29866">
        <ele>186.6</ele>
        <time>2023-07-07T06:56:51Z</time>
      </trkpt>
      <trkpt lat="44.10782" lon="1.2987">
        <ele>186.4</ele>
        <time>2023-07-07T06:56:57Z</time>
      </trkpt>
      <trkpt lat="44.10781" lon="1.29871">
        <ele>186.4</ele>
        <time>2023-07-07T06:56:58Z</time>
      </trkpt>
      <trkpt lat="44.1078" lon="1.29873">
        <ele>186.4</ele>
        <time>2023-07-07T06:56:59Z</time>
      </trkpt>
      <trkpt lat="44.10772" lon="1.29881">
        <ele>186.4</ele>
        <time>2023-07-07T06:57:07Z</time>
      </trkpt>
      <trkpt lat="44.1077" lon="1.29883">
        <ele>186.4</ele>
        <time>2023-07-07T06:57:09Z</time>
      </trkpt>
      <trkpt lat="44.10765" lon="1.29887">
        <ele>186</ele>
        <time>2023-07-07T06:57:15Z</time>
      </trkpt>
      <trkpt lat="44.10757" lon="1.29895">
        <ele>186</ele>
        <time>2023-07-07T06:57:24Z</time>
      </trkpt>
      <trkpt lat="44.10747" lon="1.29901">
        <ele>186.2</ele>
        <time>2023-07-07T06:57:33Z</time>
      </trkpt>
      <trkpt lat="44.1074" lon="1.29906">
        <ele>186.4</ele>
        <time>2023-07-07T06:57:39Z</time>
      </trkpt>
      <trkpt lat="44.10738" lon="1.29907">
        <ele>186.4</ele>
        <time>2023-07-07T06:57:40Z</time>
      </trkpt>
      <trkpt lat="44.10729" lon="1.29915">
        <ele>186.2</ele>
        <time>2023-07-07T06:57:47Z</time>
      </trkpt>
      <trkpt lat="44.10722" lon="1.29922">
        <ele>186.2</ele>
        <time>2023-07-07T06:57:54Z</time>
      </trkpt>
      <trkpt lat="44.10714" lon="1.29932">
        <ele>186.2</ele>
        <time>2023-07-07T06:58:01Z</time>
      </trkpt>
      <trkpt lat="44.10712" lon="1.29934">
        <ele>186.2</ele>
        <time>2023-07-07T06:58:02Z</time>
      </trkpt>
      <trkpt lat="44.10705" lon="1.29942">
        <ele>186.8</ele>
        <time>2023-07-07T06:58:09Z</time>
      </trkpt>
      <trkpt lat="44.10703" lon="1.29946">
        <ele>187</ele>
        <time>2023-07-07T06:58:11Z</time>
      </trkpt>
      <trkpt lat="44.10699" lon="1.29951">
        <ele>186.6</ele>
        <time>2023-07-07T06:58:16Z</time>
      </trkpt>
      <trkpt lat="44.10695" lon="1.29961">
        <ele>186.8</ele>
        <time>2023-07-07T06:58:24Z</time>
      </trkpt>
      <trkpt lat="44.10692" lon="1.29968">
        <ele>186.8</ele>
        <time>2023-07-07T06:58:28Z</time>
      </trkpt>
      <trkpt lat="44.1069" lon="1.29974">
        <ele>186.8</ele>
        <time>2023-07-07T06:58:31Z</time>
      </trkpt>
      <trkpt lat="44.10686" lon="1.2998">
        <ele>186.8</ele>
        <time>2023-07-07T06:58:36Z</time>
      </trkpt>
      <trkpt lat="44.10686" lon="1.29981">
        <ele>186.8</ele>
        <time>2023-07-07T06:58:37Z</time>
      </trkpt>
      <trkpt lat="44.1068" lon="1.2999">
        <ele>186.4</ele>
        <time>2023-07-07T06:58:44Z</time>
      </trkpt>
      <trkpt lat="44.10678" lon="1.29995">
        <ele>186.2</ele>
        <time>2023-07-07T06:58:47Z</time>
      </trkpt>
      <trkpt lat="44.10677" lon="1.29996">
        <ele>186.2</ele>
        <time>2023-07-07T06:58:48Z</time>
      </trkpt>
      <trkpt lat="44.10673" lon="1.30003">
        <ele>186.2</ele>
        <time>2023-07-07T06:58:53Z</time>
      </trkpt>
      <trkpt lat="44.10669" lon="1.3001">
        <ele>185.8</ele>
        <time>2023-07-07T06:58:59Z</time>
      </trkpt>
      <trkpt lat="44.10669" lon="1.30013">
        <ele>185.8</ele>
        <time>2023-07-07T06:59:01Z</time>
      </trkpt>
      <trkpt lat="44.10668" lon="1.30017">
        <ele>185.6</ele>
        <time>2023-07-07T06:59:03Z</time>
      </trkpt>
      <trkpt lat="44.10666" lon="1.30023">
        <ele>185.8</ele>
        <time>2023-07-07T06:59:07Z</time>
      </trkpt>
      <trkpt lat="44.10663" lon="1.30028">
        <ele>185.8</ele>
        <time>2023-07-07T06:59:11Z</time>
      </trkpt>
      <trkpt lat="44.1066" lon="1.30034">
        <ele>185.6</ele>
        <time>2023-07-07T06:59:15Z</time>
      </trkpt>
      <trkpt lat="44.10651" lon="1.30046">
        <ele>185.2</ele>
        <time>2023-07-07T06:59:24Z</time>
      </trkpt>
      <trkpt lat="44.10644" lon="1.30053">
        <ele>185</ele>
        <time>2023-07-07T06:59:32Z</time>
      </trkpt>
      <trkpt lat="44.10635" lon="1.3007">
        <ele>185</ele>
        <time>2023-07-07T06:59:44Z</time>
      </trkpt>
      <trkpt lat="44.10629" lon="1.30082">
        <ele>184.8</ele>
        <time>2023-07-07T06:59:53Z</time>
      </trkpt>
      <trkpt lat="44.10626" lon="1.30086">
        <ele>184.6</ele>
        <time>2023-07-07T06:59:57Z</time>
      </trkpt>
      <trkpt lat="44.10622" lon="1.30095">
        <ele>184.8</ele>
        <time>2023-07-07T07:00:03Z</time>
      </trkpt>
      <trkpt lat="44.10614" lon="1.30108">
        <ele>184.8</ele>
        <time>2023-07-07T07:00:13Z</time>
      </trkpt>
      <trkpt lat="44.10612" lon="1.30112">
        <ele>184.8</ele>
        <time>2023-07-07T07:00:16Z</time>
      </trkpt>
      <trkpt lat="44.10607" lon="1.30122">
        <ele>184.8</ele>
        <time>2023-07-07T07:00:22Z</time>
      </trkpt>
      <trkpt lat="44.10606" lon="1.30125">
        <ele>184.8</ele>
        <time>2023-07-07T07:00:24Z</time>
      </trkpt>
      <trkpt lat="44.10602" lon="1.30134">
        <ele>184.8</ele>
        <time>2023-07-07T07:00:30Z</time>
      </trkpt>
      <trkpt lat="44.10602" lon="1.30135">
        <ele>184.8</ele>
        <time>2023-07-07T07:00:31Z</time>
      </trkpt>
      <trkpt lat="44.10598" lon="1.30142">
        <ele>184.8</ele>
        <time>2023-07-07T07:00:36Z</time>
      </trkpt>
      <trkpt lat="44.10596" lon="1.30146">
        <ele>185</ele>
        <time>2023-07-07T07:00:38Z</time>
      </trkpt>
      <trkpt lat="44.10592" lon="1.30157">
        <ele>184.6</ele>
        <time>2023-07-07T07:00:45Z</time>
      </trkpt>
      <trkpt lat="44.10588" lon="1.30164">
        <ele>184.8</ele>
        <time>2023-07-07T07:00:51Z</time>
      </trkpt>
      <trkpt lat="44.10587" lon="1.30166">
        <ele>184.8</ele>
        <time>2023-07-07T07:00:52Z</time>
      </trkpt>
      <trkpt lat="44.10582" lon="1.30174">
        <ele>184.6</ele>
        <time>2023-07-07T07:00:59Z</time>
      </trkpt>
      <trkpt lat="44.10576" lon="1.30182">
        <ele>184.2</ele>
        <time>2023-07-07T07:01:05Z</time>
      </trkpt>
      <trkpt lat="44.10571" lon="1.30191">
        <ele>184</ele>
        <time>2023-07-07T07:01:12Z</time>
      </trkpt>
      <trkpt lat="44.10571" lon="1.30196">
        <ele>183.6</ele>
        <time>2023-07-07T07:01:15Z</time>
      </trkpt>
      <trkpt lat="44.1057" lon="1.302">
        <ele>183.2</ele>
        <time>2023-07-07T07:01:19Z</time>
      </trkpt>
      <trkpt lat="44.10562" lon="1.30209">
        <ele>182.8</ele>
        <time>2023-07-07T07:01:28Z</time>
      </trkpt>
      <trkpt lat="44.1056" lon="1.30213">
        <ele>182.6</ele>
        <time>2023-07-07T07:01:31Z</time>
      </trkpt>
      <trkpt lat="44.10554" lon="1.30223">
        <ele>181.8</ele>
        <time>2023-07-07T07:01:37Z</time>
      </trkpt>
      <trkpt lat="44.10551" lon="1.30229">
        <ele>181.4</ele>
        <time>2023-07-07T07:01:41Z</time>
      </trkpt>
      <trkpt lat="44.1055" lon="1.30233">
        <ele>181.4</ele>
        <time>2023-07-07T07:01:43Z</time>
      </trkpt>
      <trkpt lat="44.10545" lon="1.30242">
        <ele>180.4</ele>
        <time>2023-07-07T07:01:51Z</time>
      </trkpt>
      <trkpt lat="44.10543" lon="1.30248">
        <ele>179.8</ele>
        <time>2023-07-07T07:01:55Z</time>
      </trkpt>
      <trkpt lat="44.10539" lon="1.30252">
        <ele>179.4</ele>
        <time>2023-07-07T07:01:59Z</time>
      </trkpt>
      <trkpt lat="44.10538" lon="1.30255">
        <ele>179.4</ele>
        <time>2023-07-07T07:02:01Z</time>
      </trkpt>
      <trkpt lat="44.10538" lon="1.30257">
        <ele>179.2</ele>
        <time>2023-07-07T07:02:02Z</time>
      </trkpt>
      <trkpt lat="44.10537" lon="1.30262">
        <ele>178.4</ele>
        <time>2023-07-07T07:02:05Z</time>
      </trkpt>
      <trkpt lat="44.10536" lon="1.30268">
        <ele>178</ele>
        <time>2023-07-07T07:02:08Z</time>
      </trkpt>
      <trkpt lat="44.10535" lon="1.30272">
        <ele>177.4</ele>
        <time>2023-07-07T07:02:10Z</time>
      </trkpt>
      <trkpt lat="44.10534" lon="1.30278">
        <ele>176.8</ele>
        <time>2023-07-07T07:02:14Z</time>
      </trkpt>
      <trkpt lat="44.10535" lon="1.30279">
        <ele>176.6</ele>
        <time>2023-07-07T07:02:15Z</time>
      </trkpt>
      <trkpt lat="44.10534" lon="1.30282">
        <ele>176.2</ele>
        <time>2023-07-07T07:02:17Z</time>
      </trkpt>
      <trkpt lat="44.10533" lon="1.30293">
        <ele>175.4</ele>
        <time>2023-07-07T07:02:24Z</time>
      </trkpt>
      <trkpt lat="44.10532" lon="1.30295">
        <ele>175.2</ele>
        <time>2023-07-07T07:02:25Z</time>
      </trkpt>
      <trkpt lat="44.10531" lon="1.30299">
        <ele>174.8</ele>
        <time>2023-07-07T07:02:28Z</time>
      </trkpt>
      <trkpt lat="44.10531" lon="1.303">
        <ele>174.4</ele>
        <time>2023-07-07T07:02:29Z</time>
      </trkpt>
      <trkpt lat="44.10532" lon="1.30305">
        <ele>174</ele>
        <time>2023-07-07T07:02:32Z</time>
      </trkpt>
      <trkpt lat="44.10532" lon="1.30307">
        <ele>173.8</ele>
        <time>2023-07-07T07:02:33Z</time>
      </trkpt>
      <trkpt lat="44.1053" lon="1.30317">
        <ele>173.2</ele>
        <time>2023-07-07T07:02:39Z</time>
      </trkpt>
      <trkpt lat="44.1053" lon="1.30319">
        <ele>173</ele>
        <time>2023-07-07T07:02:40Z</time>
      </trkpt>
      <trkpt lat="44.10531" lon="1.30329">
        <ele>171.8</ele>
        <time>2023-07-07T07:02:46Z</time>
      </trkpt>
      <trkpt lat="44.10532" lon="1.30332">
        <ele>171.4</ele>
        <time>2023-07-07T07:02:48Z</time>
      </trkpt>
      <trkpt lat="44.10534" lon="1.30337">
        <ele>170.8</ele>
        <time>2023-07-07T07:02:51Z</time>
      </trkpt>
      <trkpt lat="44.10533" lon="1.30339">
        <ele>170.8</ele>
        <time>2023-07-07T07:02:52Z</time>
      </trkpt>
      <trkpt lat="44.10531" lon="1.30344">
        <ele>170</ele>
        <time>2023-07-07T07:02:57Z</time>
      </trkpt>
      <trkpt lat="44.10532" lon="1.30346">
        <ele>169.8</ele>
        <time>2023-07-07T07:02:59Z</time>
      </trkpt>
      <trkpt lat="44.10532" lon="1.30348">
        <ele>169.4</ele>
        <time>2023-07-07T07:03:01Z</time>
      </trkpt>
      <trkpt lat="44.10533" lon="1.30351">
        <ele>169.4</ele>
        <time>2023-07-07T07:03:03Z</time>
      </trkpt>
      <trkpt lat="44.10533" lon="1.30353">
        <ele>169.2</ele>
        <time>2023-07-07T07:03:04Z</time>
      </trkpt>
      <trkpt lat="44.10534" lon="1.30355">
        <ele>169.2</ele>
        <time>2023-07-07T07:03:05Z</time>
      </trkpt>
      <trkpt lat="44.10535" lon="1.30362">
        <ele>168.6</ele>
        <time>2023-07-07T07:03:09Z</time>
      </trkpt>
      <trkpt lat="44.10535" lon="1.30363">
        <ele>168.4</ele>
        <time>2023-07-07T07:03:10Z</time>
      </trkpt>
      <trkpt lat="44.10535" lon="1.30368">
        <ele>167.6</ele>
        <time>2023-07-07T07:03:13Z</time>
      </trkpt>
      <trkpt lat="44.1054" lon="1.30375">
        <ele>167</ele>
        <time>2023-07-07T07:03:17Z</time>
      </trkpt>
      <trkpt lat="44.10542" lon="1.30378">
        <ele>166.4</ele>
        <time>2023-07-07T07:03:19Z</time>
      </trkpt>
      <trkpt lat="44.10542" lon="1.30385">
        <ele>165.8</ele>
        <time>2023-07-07T07:03:23Z</time>
      </trkpt>
      <trkpt lat="44.10543" lon="1.30387">
        <ele>165.4</ele>
        <time>2023-07-07T07:03:25Z</time>
      </trkpt>
      <trkpt lat="44.10543" lon="1.30388">
        <ele>165.2</ele>
        <time>2023-07-07T07:03:26Z</time>
      </trkpt>
      <trkpt lat="44.10543" lon="1.30389">
        <ele>165</ele>
        <time>2023-07-07T07:03:28Z</time>
      </trkpt>
      <trkpt lat="44.10543" lon="1.3039">
        <ele>164.8</ele>
        <time>2023-07-07T07:03:29Z</time>
      </trkpt>
      <trkpt lat="44.10544" lon="1.30394">
        <ele>164.2</ele>
        <time>2023-07-07T07:03:32Z</time>
      </trkpt>
      <trkpt lat="44.10545" lon="1.30396">
        <ele>163.8</ele>
        <time>2023-07-07T07:03:33Z</time>
      </trkpt>
      <trkpt lat="44.10547" lon="1.30399">
        <ele>163.6</ele>
        <time>2023-07-07T07:03:35Z</time>
      </trkpt>
      <trkpt lat="44.10548" lon="1.304">
        <ele>163.4</ele>
        <time>2023-07-07T07:03:36Z</time>
      </trkpt>
      <trkpt lat="44.10549" lon="1.30402">
        <ele>163.2</ele>
        <time>2023-07-07T07:03:38Z</time>
      </trkpt>
      <trkpt lat="44.10551" lon="1.30407">
        <ele>162.6</ele>
        <time>2023-07-07T07:03:43Z</time>
      </trkpt>
      <trkpt lat="44.10552" lon="1.30411">
        <ele>162</ele>
        <time>2023-07-07T07:03:45Z</time>
      </trkpt>
      <trkpt lat="44.10552" lon="1.30413">
        <ele>162</ele>
        <time>2023-07-07T07:03:46Z</time>
      </trkpt>
      <trkpt lat="44.10553" lon="1.30419">
        <ele>161</ele>
        <time>2023-07-07T07:03:49Z</time>
      </trkpt>
      <trkpt lat="44.10553" lon="1.30421">
        <ele>160.8</ele>
        <time>2023-07-07T07:03:50Z</time>
      </trkpt>
      <trkpt lat="44.10556" lon="1.30431">
        <ele>160.2</ele>
        <time>2023-07-07T07:03:56Z</time>
      </trkpt>
      <trkpt lat="44.10558" lon="1.30435">
        <ele>159.8</ele>
        <time>2023-07-07T07:03:58Z</time>
      </trkpt>
      <trkpt lat="44.1056" lon="1.30444">
        <ele>159</ele>
        <time>2023-07-07T07:04:04Z</time>
      </trkpt>
      <trkpt lat="44.1056" lon="1.30448">
        <ele>158.8</ele>
        <time>2023-07-07T07:04:06Z</time>
      </trkpt>
      <trkpt lat="44.1056" lon="1.3045">
        <ele>158.6</ele>
        <time>2023-07-07T07:04:07Z</time>
      </trkpt>
      <trkpt lat="44.10562" lon="1.30455">
        <ele>157.8</ele>
        <time>2023-07-07T07:04:10Z</time>
      </trkpt>
      <trkpt lat="44.10562" lon="1.30457">
        <ele>157.4</ele>
        <time>2023-07-07T07:04:11Z</time>
      </trkpt>
      <trkpt lat="44.10563" lon="1.30466">
        <ele>156.6</ele>
        <time>2023-07-07T07:04:17Z</time>
      </trkpt>
      <trkpt lat="44.10563" lon="1.30468">
        <ele>156.2</ele>
        <time>2023-07-07T07:04:18Z</time>
      </trkpt>
      <trkpt lat="44.10563" lon="1.30469">
        <ele>156</ele>
        <time>2023-07-07T07:04:19Z</time>
      </trkpt>
      <trkpt lat="44.10564" lon="1.30471">
        <ele>155.8</ele>
        <time>2023-07-07T07:04:20Z</time>
      </trkpt>
      <trkpt lat="44.10563" lon="1.30473">
        <ele>155.8</ele>
        <time>2023-07-07T07:04:21Z</time>
      </trkpt>
      <trkpt lat="44.10563" lon="1.30476">
        <ele>155.4</ele>
        <time>2023-07-07T07:04:23Z</time>
      </trkpt>
      <trkpt lat="44.10563" lon="1.30477">
        <ele>155.2</ele>
        <time>2023-07-07T07:04:24Z</time>
      </trkpt>
      <trkpt lat="44.10563" lon="1.3048">
        <ele>154.6</ele>
        <time>2023-07-07T07:04:26Z</time>
      </trkpt>
      <trkpt lat="44.10563" lon="1.30483">
        <ele>154.4</ele>
        <time>2023-07-07T07:04:28Z</time>
      </trkpt>
      <trkpt lat="44.10563" lon="1.30487">
        <ele>153.8</ele>
        <time>2023-07-07T07:04:30Z</time>
      </trkpt>
      <trkpt lat="44.10563" lon="1.30492">
        <ele>153.4</ele>
        <time>2023-07-07T07:04:33Z</time>
      </trkpt>
      <trkpt lat="44.10564" lon="1.30494">
        <ele>153.4</ele>
        <time>2023-07-07T07:04:34Z</time>
      </trkpt>
      <trkpt lat="44.10563" lon="1.305">
        <ele>152.8</ele>
        <time>2023-07-07T07:04:37Z</time>
      </trkpt>
      <trkpt lat="44.10563" lon="1.30505">
        <ele>152.2</ele>
        <time>2023-07-07T07:04:40Z</time>
      </trkpt>
      <trkpt lat="44.10563" lon="1.30513">
        <ele>151.4</ele>
        <time>2023-07-07T07:04:46Z</time>
      </trkpt>
      <trkpt lat="44.10563" lon="1.30514">
        <ele>151.2</ele>
        <time>2023-07-07T07:04:47Z</time>
      </trkpt>
      <trkpt lat="44.10563" lon="1.3052">
        <ele>150.6</ele>
        <time>2023-07-07T07:04:51Z</time>
      </trkpt>
      <trkpt lat="44.10563" lon="1.30522">
        <ele>150.4</ele>
        <time>2023-07-07T07:04:52Z</time>
      </trkpt>
      <trkpt lat="44.10563" lon="1.30526">
        <ele>150.2</ele>
        <time>2023-07-07T07:04:54Z</time>
      </trkpt>
      <trkpt lat="44.10562" lon="1.30533">
        <ele>150</ele>
        <time>2023-07-07T07:04:57Z</time>
      </trkpt>
      <trkpt lat="44.10561" lon="1.30537">
        <ele>149.8</ele>
        <time>2023-07-07T07:04:59Z</time>
      </trkpt>
      <trkpt lat="44.10561" lon="1.30543">
        <ele>149.4</ele>
        <time>2023-07-07T07:05:02Z</time>
      </trkpt>
      <trkpt lat="44.1056" lon="1.30544">
        <ele>149</ele>
        <time>2023-07-07T07:05:03Z</time>
      </trkpt>
      <trkpt lat="44.1056" lon="1.30548">
        <ele>148.4</ele>
        <time>2023-07-07T07:05:05Z</time>
      </trkpt>
      <trkpt lat="44.10561" lon="1.30551">
        <ele>148</ele>
        <time>2023-07-07T07:05:07Z</time>
      </trkpt>
      <trkpt lat="44.1056" lon="1.30557">
        <ele>147.8</ele>
        <time>2023-07-07T07:05:12Z</time>
      </trkpt>
      <trkpt lat="44.10559" lon="1.3056">
        <ele>147.6</ele>
        <time>2023-07-07T07:05:14Z</time>
      </trkpt>
      <trkpt lat="44.10558" lon="1.30562">
        <ele>147.2</ele>
        <time>2023-07-07T07:05:16Z</time>
      </trkpt>
      <trkpt lat="44.10557" lon="1.30564">
        <ele>147</ele>
        <time>2023-07-07T07:05:18Z</time>
      </trkpt>
      <trkpt lat="44.10557" lon="1.30565">
        <ele>147</ele>
        <time>2023-07-07T07:05:19Z</time>
      </trkpt>
      <trkpt lat="44.10554" lon="1.30574">
        <ele>145.8</ele>
        <time>2023-07-07T07:05:26Z</time>
      </trkpt>
      <trkpt lat="44.10554" lon="1.30576">
        <ele>145.8</ele>
        <time>2023-07-07T07:05:27Z</time>
      </trkpt>
      <trkpt lat="44.10551" lon="1.30585">
        <ele>145.4</ele>
        <time>2023-07-07T07:05:32Z</time>
      </trkpt>
      <trkpt lat="44.10549" lon="1.30591">
        <ele>145.4</ele>
        <time>2023-07-07T07:05:35Z</time>
      </trkpt>
      <trkpt lat="44.10547" lon="1.30595">
        <ele>144.8</ele>
        <time>2023-07-07T07:05:38Z</time>
      </trkpt>
      <trkpt lat="44.10546" lon="1.30597">
        <ele>144.6</ele>
        <time>2023-07-07T07:05:39Z</time>
      </trkpt>
      <trkpt lat="44.10546" lon="1.30599">
        <ele>144.6</ele>
        <time>2023-07-07T07:05:40Z</time>
      </trkpt>
      <trkpt lat="44.10545" lon="1.30602">
        <ele>144.6</ele>
        <time>2023-07-07T07:05:42Z</time>
      </trkpt>
      <trkpt lat="44.10541" lon="1.30612">
        <ele>144</ele>
        <time>2023-07-07T07:05:49Z</time>
      </trkpt>
      <trkpt lat="44.1054" lon="1.30614">
        <ele>143.8</ele>
        <time>2023-07-07T07:05:50Z</time>
      </trkpt>
      <trkpt lat="44.10539" lon="1.30616">
        <ele>143.8</ele>
        <time>2023-07-07T07:05:51Z</time>
      </trkpt>
      <trkpt lat="44.10533" lon="1.30627">
        <ele>142.8</ele>
        <time>2023-07-07T07:05:58Z</time>
      </trkpt>
      <trkpt lat="44.10532" lon="1.30629">
        <ele>142.8</ele>
        <time>2023-07-07T07:05:59Z</time>
      </trkpt>
      <trkpt lat="44.10528" lon="1.30638">
        <ele>142.6</ele>
        <time>2023-07-07T07:06:05Z</time>
      </trkpt>
      <trkpt lat="44.10524" lon="1.30649">
        <ele>141.8</ele>
        <time>2023-07-07T07:06:13Z</time>
      </trkpt>
      <trkpt lat="44.10523" lon="1.3065">
        <ele>141.6</ele>
        <time>2023-07-07T07:06:14Z</time>
      </trkpt>
      <trkpt lat="44.10521" lon="1.30659">
        <ele>140.8</ele>
        <time>2023-07-07T07:06:20Z</time>
      </trkpt>
      <trkpt lat="44.10519" lon="1.30662">
        <ele>140.4</ele>
        <time>2023-07-07T07:06:22Z</time>
      </trkpt>
      <trkpt lat="44.10515" lon="1.30671">
        <ele>140</ele>
        <time>2023-07-07T07:06:28Z</time>
      </trkpt>
      <trkpt lat="44.10509" lon="1.30682">
        <ele>139.6</ele>
        <time>2023-07-07T07:06:36Z</time>
      </trkpt>
      <trkpt lat="44.10508" lon="1.30683">
        <ele>139.4</ele>
        <time>2023-07-07T07:06:37Z</time>
      </trkpt>
      <trkpt lat="44.10505" lon="1.30687">
        <ele>139.2</ele>
        <time>2023-07-07T07:06:40Z</time>
      </trkpt>
      <trkpt lat="44.10501" lon="1.30694">
        <ele>138.6</ele>
        <time>2023-07-07T07:06:45Z</time>
      </trkpt>
      <trkpt lat="44.105" lon="1.30695">
        <ele>138.4</ele>
        <time>2023-07-07T07:06:46Z</time>
      </trkpt>
      <trkpt lat="44.10496" lon="1.30699">
        <ele>137.8</ele>
        <time>2023-07-07T07:06:50Z</time>
      </trkpt>
      <trkpt lat="44.10494" lon="1.30701">
        <ele>137.6</ele>
        <time>2023-07-07T07:06:52Z</time>
      </trkpt>
      <trkpt lat="44.1049" lon="1.30703">
        <ele>137.2</ele>
        <time>2023-07-07T07:06:56Z</time>
      </trkpt>
      <trkpt lat="44.10484" lon="1.30705">
        <ele>136.6</ele>
        <time>2023-07-07T07:07:02Z</time>
      </trkpt>
      <trkpt lat="44.10482" lon="1.30705">
        <ele>136.2</ele>
        <time>2023-07-07T07:07:04Z</time>
      </trkpt>
      <trkpt lat="44.10479" lon="1.30706">
        <ele>136</ele>
        <time>2023-07-07T07:07:07Z</time>
      </trkpt>
      <trkpt lat="44.10472" lon="1.30708">
        <ele>135.4</ele>
        <time>2023-07-07T07:07:13Z</time>
      </trkpt>
      <trkpt lat="44.1047" lon="1.30708">
        <ele>135.2</ele>
        <time>2023-07-07T07:07:15Z</time>
      </trkpt>
      <trkpt lat="44.10465" lon="1.30706">
        <ele>134.4</ele>
        <time>2023-07-07T07:07:21Z</time>
      </trkpt>
      <trkpt lat="44.10462" lon="1.30703">
        <ele>134</ele>
        <time>2023-07-07T07:07:24Z</time>
      </trkpt>
      <trkpt lat="44.10457" lon="1.30698">
        <ele>133.4</ele>
        <time>2023-07-07T07:07:30Z</time>
      </trkpt>
      <trkpt lat="44.10449" lon="1.30693">
        <ele>133</ele>
        <time>2023-07-07T07:07:36Z</time>
      </trkpt>
      <trkpt lat="44.10447" lon="1.3069">
        <ele>132.6</ele>
        <time>2023-07-07T07:07:38Z</time>
      </trkpt>
      <trkpt lat="44.10444" lon="1.30686">
        <ele>131.8</ele>
        <time>2023-07-07T07:07:42Z</time>
      </trkpt>
      <trkpt lat="44.1044" lon="1.30679">
        <ele>131</ele>
        <time>2023-07-07T07:07:47Z</time>
      </trkpt>
      <trkpt lat="44.10439" lon="1.30677">
        <ele>130.8</ele>
        <time>2023-07-07T07:07:48Z</time>
      </trkpt>
      <trkpt lat="44.10435" lon="1.3067">
        <ele>129.6</ele>
        <time>2023-07-07T07:07:54Z</time>
      </trkpt>
      <trkpt lat="44.10434" lon="1.30669">
        <ele>129.6</ele>
        <time>2023-07-07T07:07:55Z</time>
      </trkpt>
      <trkpt lat="44.10431" lon="1.30663">
        <ele>129.2</ele>
        <time>2023-07-07T07:07:59Z</time>
      </trkpt>
      <trkpt lat="44.1043" lon="1.3066">
        <ele>128.6</ele>
        <time>2023-07-07T07:08:01Z</time>
      </trkpt>
      <trkpt lat="44.10429" lon="1.30659">
        <ele>128.4</ele>
        <time>2023-07-07T07:08:02Z</time>
      </trkpt>
      <trkpt lat="44.10425" lon="1.30652">
        <ele>127.6</ele>
        <time>2023-07-07T07:08:08Z</time>
      </trkpt>
      <trkpt lat="44.10424" lon="1.30651">
        <ele>127.6</ele>
        <time>2023-07-07T07:08:09Z</time>
      </trkpt>
      <trkpt lat="44.10421" lon="1.30646">
        <ele>126.6</ele>
        <time>2023-07-07T07:08:14Z</time>
      </trkpt>
      <trkpt lat="44.1042" lon="1.30646">
        <ele>126.6</ele>
        <time>2023-07-07T07:08:15Z</time>
      </trkpt>
      <trkpt lat="44.1042" lon="1.30646">
        <ele>126.6</ele>
        <time>2023-07-07T07:08:16Z</time>
      </trkpt>
      <trkpt lat="44.10419" lon="1.30647">
        <ele>126.6</ele>
        <time>2023-07-07T07:08:18Z</time>
      </trkpt>
      <trkpt lat="44.1042" lon="1.30649">
        <ele>126.6</ele>
        <time>2023-07-07T07:08:20Z</time>
      </trkpt>
      <trkpt lat="44.10421" lon="1.30651">
        <ele>126.6</ele>
        <time>2023-07-07T07:08:21Z</time>
      </trkpt>
      <trkpt lat="44.10422" lon="1.30652">
        <ele>126.6</ele>
        <time>2023-07-07T07:08:22Z</time>
      </trkpt>
      <trkpt lat="44.10424" lon="1.30655">
        <ele>127</ele>
        <time>2023-07-07T07:08:25Z</time>
      </trkpt>
      <trkpt lat="44.10425" lon="1.30657">
        <ele>127</ele>
        <time>2023-07-07T07:08:26Z</time>
      </trkpt>
      <trkpt lat="44.10428" lon="1.30664">
        <ele>127.8</ele>
        <time>2023-07-07T07:08:32Z</time>
      </trkpt>
      <trkpt lat="44.1043" lon="1.30666">
        <ele>128.4</ele>
        <time>2023-07-07T07:08:34Z</time>
      </trkpt>
      <trkpt lat="44.10431" lon="1.30666">
        <ele>128.4</ele>
        <time>2023-07-07T07:08:35Z</time>
      </trkpt>
      <trkpt lat="44.10432" lon="1.30667">
        <ele>128.6</ele>
        <time>2023-07-07T07:08:36Z</time>
      </trkpt>
      <trkpt lat="44.10434" lon="1.30669">
        <ele>128.8</ele>
        <time>2023-07-07T07:08:38Z</time>
      </trkpt>
      <trkpt lat="44.10435" lon="1.3067">
        <ele>129</ele>
        <time>2023-07-07T07:08:39Z</time>
      </trkpt>
      <trkpt lat="44.10436" lon="1.30673">
        <ele>129.4</ele>
        <time>2023-07-07T07:08:41Z</time>
      </trkpt>
      <trkpt lat="44.10439" lon="1.30676">
        <ele>129.8</ele>
        <time>2023-07-07T07:08:44Z</time>
      </trkpt>
      <trkpt lat="44.1044" lon="1.30678">
        <ele>130.2</ele>
        <time>2023-07-07T07:08:46Z</time>
      </trkpt>
      <trkpt lat="44.10442" lon="1.30681">
        <ele>130.4</ele>
        <time>2023-07-07T07:08:49Z</time>
      </trkpt>
      <trkpt lat="44.10443" lon="1.30682">
        <ele>130.6</ele>
        <time>2023-07-07T07:08:50Z</time>
      </trkpt>
      <trkpt lat="44.10446" lon="1.30687">
        <ele>131.2</ele>
        <time>2023-07-07T07:08:55Z</time>
      </trkpt>
      <trkpt lat="44.1045" lon="1.30692">
        <ele>132</ele>
        <time>2023-07-07T07:08:59Z</time>
      </trkpt>
      <trkpt lat="44.10453" lon="1.30695">
        <ele>132.4</ele>
        <time>2023-07-07T07:09:02Z</time>
      </trkpt>
      <trkpt lat="44.10457" lon="1.30698">
        <ele>133</ele>
        <time>2023-07-07T07:09:06Z</time>
      </trkpt>
      <trkpt lat="44.10458" lon="1.30699">
        <ele>133</ele>
        <time>2023-07-07T07:09:07Z</time>
      </trkpt>
      <trkpt lat="44.10462" lon="1.30702">
        <ele>133.4</ele>
        <time>2023-07-07T07:09:10Z</time>
      </trkpt>
      <trkpt lat="44.10463" lon="1.30702">
        <ele>133.4</ele>
        <time>2023-07-07T07:09:11Z</time>
      </trkpt>
      <trkpt lat="44.10466" lon="1.30706">
        <ele>134</ele>
        <time>2023-07-07T07:09:15Z</time>
      </trkpt>
      <trkpt lat="44.10462" lon="1.30715">
        <ele>134.2</ele>
        <time>2023-07-07T07:09:20Z</time>
      </trkpt>
      <trkpt lat="44.1046" lon="1.30719">
        <ele>134.4</ele>
        <time>2023-07-07T07:09:23Z</time>
      </trkpt>
      <trkpt lat="44.10458" lon="1.30722">
        <ele>134.4</ele>
        <time>2023-07-07T07:09:25Z</time>
      </trkpt>
      <trkpt lat="44.1045" lon="1.30732">
        <ele>134</ele>
        <time>2023-07-07T07:09:33Z</time>
      </trkpt>
      <trkpt lat="44.10448" lon="1.30736">
        <ele>133.6</ele>
        <time>2023-07-07T07:09:36Z</time>
      </trkpt>
      <trkpt lat="44.10444" lon="1.30741">
        <ele>133.6</ele>
        <time>2023-07-07T07:09:40Z</time>
      </trkpt>
      <trkpt lat="44.10443" lon="1.30743">
        <ele>133.4</ele>
        <time>2023-07-07T07:09:41Z</time>
      </trkpt>
      <trkpt lat="44.10442" lon="1.30745">
        <ele>133.4</ele>
        <time>2023-07-07T07:09:43Z</time>
      </trkpt>
      <trkpt lat="44.10439" lon="1.30749">
        <ele>132.8</ele>
        <time>2023-07-07T07:09:46Z</time>
      </trkpt>
      <trkpt lat="44.10434" lon="1.30759">
        <ele>132.6</ele>
        <time>2023-07-07T07:09:53Z</time>
      </trkpt>
      <trkpt lat="44.10431" lon="1.30764">
        <ele>132.4</ele>
        <time>2023-07-07T07:09:57Z</time>
      </trkpt>
      <trkpt lat="44.10426" lon="1.30772">
        <ele>132</ele>
        <time>2023-07-07T07:10:03Z</time>
      </trkpt>
      <trkpt lat="44.10419" lon="1.30781">
        <ele>132</ele>
        <time>2023-07-07T07:10:11Z</time>
      </trkpt>
      <trkpt lat="44.10417" lon="1.30785">
        <ele>131.6</ele>
        <time>2023-07-07T07:10:14Z</time>
      </trkpt>
      <trkpt lat="44.10416" lon="1.30787">
        <ele>131.4</ele>
        <time>2023-07-07T07:10:15Z</time>
      </trkpt>
      <trkpt lat="44.10415" lon="1.30788">
        <ele>131.4</ele>
        <time>2023-07-07T07:10:16Z</time>
      </trkpt>
      <trkpt lat="44.10413" lon="1.30791">
        <ele>131.2</ele>
        <time>2023-07-07T07:10:19Z</time>
      </trkpt>
      <trkpt lat="44.1041" lon="1.30796">
        <ele>130.8</ele>
        <time>2023-07-07T07:10:23Z</time>
      </trkpt>
      <trkpt lat="44.10408" lon="1.30797">
        <ele>130.8</ele>
        <time>2023-07-07T07:10:25Z</time>
      </trkpt>
      <trkpt lat="44.10407" lon="1.30798">
        <ele>130.8</ele>
        <time>2023-07-07T07:10:26Z</time>
      </trkpt>
      <trkpt lat="44.10405" lon="1.308">
        <ele>130.2</ele>
        <time>2023-07-07T07:10:29Z</time>
      </trkpt>
      <trkpt lat="44.10403" lon="1.30807">
        <ele>129.8</ele>
        <time>2023-07-07T07:10:34Z</time>
      </trkpt>
      <trkpt lat="44.104" lon="1.30813">
        <ele>129.2</ele>
        <time>2023-07-07T07:10:39Z</time>
      </trkpt>
      <trkpt lat="44.10398" lon="1.30817">
        <ele>129</ele>
        <time>2023-07-07T07:10:42Z</time>
      </trkpt>
      <trkpt lat="44.10397" lon="1.3082">
        <ele>128.6</ele>
        <time>2023-07-07T07:10:44Z</time>
      </trkpt>
      <trkpt lat="44.10394" lon="1.30825">
        <ele>128.2</ele>
        <time>2023-07-07T07:10:49Z</time>
      </trkpt>
      <trkpt lat="44.10391" lon="1.3083">
        <ele>127.8</ele>
        <time>2023-07-07T07:10:53Z</time>
      </trkpt>
      <trkpt lat="44.10387" lon="1.30834">
        <ele>127</ele>
        <time>2023-07-07T07:10:58Z</time>
      </trkpt>
      <trkpt lat="44.10384" lon="1.30837">
        <ele>126.6</ele>
        <time>2023-07-07T07:11:02Z</time>
      </trkpt>
      <trkpt lat="44.10383" lon="1.30838">
        <ele>126.2</ele>
        <time>2023-07-07T07:11:04Z</time>
      </trkpt>
      <trkpt lat="44.10382" lon="1.30839">
        <ele>126</ele>
        <time>2023-07-07T07:11:06Z</time>
      </trkpt>
      <trkpt lat="44.10381" lon="1.3084">
        <ele>125.8</ele>
        <time>2023-07-07T07:11:07Z</time>
      </trkpt>
      <trkpt lat="44.10379" lon="1.30842">
        <ele>125.2</ele>
        <time>2023-07-07T07:11:11Z</time>
      </trkpt>
      <trkpt lat="44.10378" lon="1.30843">
        <ele>125</ele>
        <time>2023-07-07T07:11:12Z</time>
      </trkpt>
      <trkpt lat="44.10377" lon="1.30844">
        <ele>125</ele>
        <time>2023-07-07T07:11:13Z</time>
      </trkpt>
      <trkpt lat="44.10372" lon="1.30853">
        <ele>123.8</ele>
        <time>2023-07-07T07:11:21Z</time>
      </trkpt>
      <trkpt lat="44.10368" lon="1.30857">
        <ele>123</ele>
        <time>2023-07-07T07:11:25Z</time>
      </trkpt>
      <trkpt lat="44.10367" lon="1.30859">
        <ele>122.6</ele>
        <time>2023-07-07T07:11:28Z</time>
      </trkpt>
      <trkpt lat="44.10362" lon="1.30863">
        <ele>121.4</ele>
        <time>2023-07-07T07:11:36Z</time>
      </trkpt>
      <trkpt lat="44.10361" lon="1.30864">
        <ele>121</ele>
        <time>2023-07-07T07:11:37Z</time>
      </trkpt>
      <trkpt lat="44.1036" lon="1.30868">
        <ele>120.4</ele>
        <time>2023-07-07T07:11:41Z</time>
      </trkpt>
      <trkpt lat="44.10356" lon="1.30874">
        <ele>119.4</ele>
        <time>2023-07-07T07:11:47Z</time>
      </trkpt>
      <trkpt lat="44.10352" lon="1.30881">
        <ele>118.8</ele>
        <time>2023-07-07T07:11:52Z</time>
      </trkpt>
      <trkpt lat="44.1035" lon="1.30883">
        <ele>118.2</ele>
        <time>2023-07-07T07:11:55Z</time>
      </trkpt>
      <trkpt lat="44.10346" lon="1.30891">
        <ele>117.2</ele>
        <time>2023-07-07T07:12:03Z</time>
      </trkpt>
      <trkpt lat="44.10346" lon="1.30892">
        <ele>117</ele>
        <time>2023-07-07T07:12:04Z</time>
      </trkpt>
      <trkpt lat="44.10346" lon="1.30894">
        <ele>116.8</ele>
        <time>2023-07-07T07:12:06Z</time>
      </trkpt>
      <trkpt lat="44.10345" lon="1.30894">
        <ele>116.6</ele>
        <time>2023-07-07T07:12:07Z</time>
      </trkpt>
      <trkpt lat="44.10344" lon="1.30895">
        <ele>116.4</ele>
        <time>2023-07-07T07:12:08Z</time>
      </trkpt>
      <trkpt lat="44.10343" lon="1.30898">
        <ele>116</ele>
        <time>2023-07-07T07:12:11Z</time>
      </trkpt>
      <trkpt lat="44.10343" lon="1.30899">
        <ele>115.8</ele>
        <time>2023-07-07T07:12:12Z</time>
      </trkpt>
      <trkpt lat="44.1034" lon="1.30907">
        <ele>115</ele>
        <time>2023-07-07T07:12:19Z</time>
      </trkpt>
      <trkpt lat="44.10339" lon="1.30908">
        <ele>114.6</ele>
        <time>2023-07-07T07:12:20Z</time>
      </trkpt>
      <trkpt lat="44.10336" lon="1.30912">
        <ele>114</ele>
        <time>2023-07-07T07:12:23Z</time>
      </trkpt>
      <trkpt lat="44.10333" lon="1.30917">
        <ele>113.4</ele>
        <time>2023-07-07T07:12:27Z</time>
      </trkpt>
      <trkpt lat="44.10329" lon="1.30922">
        <ele>112.4</ele>
        <time>2023-07-07T07:12:32Z</time>
      </trkpt>
      <trkpt lat="44.10328" lon="1.30924">
        <ele>112.4</ele>
        <time>2023-07-07T07:12:33Z</time>
      </trkpt>
      <trkpt lat="44.10327" lon="1.30925">
        <ele>112.4</ele>
        <time>2023-07-07T07:12:34Z</time>
      </trkpt>
      <trkpt lat="44.10324" lon="1.3093">
        <ele>111.4</ele>
        <time>2023-07-07T07:12:40Z</time>
      </trkpt>
      <trkpt lat="44.10323" lon="1.30931">
        <ele>111.2</ele>
        <time>2023-07-07T07:12:42Z</time>
      </trkpt>
      <trkpt lat="44.10323" lon="1.30932">
        <ele>111</ele>
        <time>2023-07-07T07:12:43Z</time>
      </trkpt>
      <trkpt lat="44.10319" lon="1.30936">
        <ele>110.2</ele>
        <time>2023-07-07T07:12:47Z</time>
      </trkpt>
      <trkpt lat="44.10319" lon="1.30937">
        <ele>109.8</ele>
        <time>2023-07-07T07:12:48Z</time>
      </trkpt>
      <trkpt lat="44.10318" lon="1.3094">
        <ele>109.4</ele>
        <time>2023-07-07T07:12:50Z</time>
      </trkpt>
      <trkpt lat="44.10317" lon="1.30952">
        <ele>109.2</ele>
        <time>2023-07-07T07:12:58Z</time>
      </trkpt>
      <trkpt lat="44.10317" lon="1.30953">
        <ele>109</ele>
        <time>2023-07-07T07:12:59Z</time>
      </trkpt>
      <trkpt lat="44.10318" lon="1.30954">
        <ele>108.8</ele>
        <time>2023-07-07T07:13:00Z</time>
      </trkpt>
      <trkpt lat="44.10318" lon="1.30954">
        <ele>108.8</ele>
        <time>2023-07-07T07:13:01Z</time>
      </trkpt>
      <trkpt lat="44.10319" lon="1.30955">
        <ele>108.4</ele>
        <time>2023-07-07T07:13:03Z</time>
      </trkpt>
      <trkpt lat="44.1032" lon="1.30959">
        <ele>108</ele>
        <time>2023-07-07T07:13:07Z</time>
      </trkpt>
      <trkpt lat="44.10321" lon="1.30961">
        <ele>107.8</ele>
        <time>2023-07-07T07:13:09Z</time>
      </trkpt>
      <trkpt lat="44.10323" lon="1.30967">
        <ele>106.6</ele>
        <time>2023-07-07T07:13:14Z</time>
      </trkpt>
      <trkpt lat="44.10325" lon="1.30969">
        <ele>106.2</ele>
        <time>2023-07-07T07:13:17Z</time>
      </trkpt>
      <trkpt lat="44.10328" lon="1.30973">
        <ele>105.8</ele>
        <time>2023-07-07T07:13:21Z</time>
      </trkpt>
      <trkpt lat="44.10329" lon="1.30974">
        <ele>105.6</ele>
        <time>2023-07-07T07:13:22Z</time>
      </trkpt>
      <trkpt lat="44.1033" lon="1.30976">
        <ele>105.6</ele>
        <time>2023-07-07T07:13:24Z</time>
      </trkpt>
      <trkpt lat="44.1033" lon="1.30976">
        <ele>105.4</ele>
        <time>2023-07-07T07:13:25Z</time>
      </trkpt>
      <trkpt lat="44.10331" lon="1.30978">
        <ele>105</ele>
        <time>2023-07-07T07:13:27Z</time>
      </trkpt>
      <trkpt lat="44.10334" lon="1.3098">
        <ele>104.6</ele>
        <time>2023-07-07T07:13:32Z</time>
      </trkpt>
      <trkpt lat="44.10334" lon="1.3098">
        <ele>104.4</ele>
        <time>2023-07-07T07:13:33Z</time>
      </trkpt>
      <trkpt lat="44.10334" lon="1.30981">
        <ele>104.2</ele>
        <time>2023-07-07T07:13:36Z</time>
      </trkpt>
      <trkpt lat="44.10333" lon="1.30984">
        <ele>104.2</ele>
        <time>2023-07-07T07:13:39Z</time>
      </trkpt>
      <trkpt lat="44.10333" lon="1.30988">
        <ele>103.8</ele>
        <time>2023-07-07T07:13:45Z</time>
      </trkpt>
      <trkpt lat="44.10333" lon="1.30992">
        <ele>103.4</ele>
        <time>2023-07-07T07:13:48Z</time>
      </trkpt>
      <trkpt lat="44.10334" lon="1.30998">
        <ele>103.2</ele>
        <time>2023-07-07T07:13:51Z</time>
      </trkpt>
      <trkpt lat="44.10334" lon="1.31002">
        <ele>102.4</ele>
        <time>2023-07-07T07:13:54Z</time>
      </trkpt>
      <trkpt lat="44.10333" lon="1.31003">
        <ele>102.2</ele>
        <time>2023-07-07T07:13:55Z</time>
      </trkpt>
      <trkpt lat="44.10333" lon="1.31003">
        <ele>102.2</ele>
        <time>2023-07-07T07:13:56Z</time>
      </trkpt>
      <trkpt lat="44.10331" lon="1.31002">
        <ele>102.2</ele>
        <time>2023-07-07T07:13:58Z</time>
      </trkpt>
      <trkpt lat="44.10331" lon="1.31002">
        <ele>102.2</ele>
        <time>2023-07-07T07:13:59Z</time>
      </trkpt>
      <trkpt lat="44.1033" lon="1.31">
        <ele>102.2</ele>
        <time>2023-07-07T07:14:00Z</time>
      </trkpt>
      <trkpt lat="44.10329" lon="1.30995">
        <ele>102.6</ele>
        <time>2023-07-07T07:14:05Z</time>
      </trkpt>
      <trkpt lat="44.10329" lon="1.30994">
        <ele>102.8</ele>
        <time>2023-07-07T07:14:06Z</time>
      </trkpt>
      <trkpt lat="44.10328" lon="1.30992">
        <ele>103.4</ele>
        <time>2023-07-07T07:14:08Z</time>
      </trkpt>
      <trkpt lat="44.10327" lon="1.30992">
        <ele>103.6</ele>
        <time>2023-07-07T07:14:10Z</time>
      </trkpt>
      <trkpt lat="44.10324" lon="1.30991">
        <ele>103.8</ele>
        <time>2023-07-07T07:14:16Z</time>
      </trkpt>
      <trkpt lat="44.10323" lon="1.30991">
        <ele>103.6</ele>
        <time>2023-07-07T07:14:17Z</time>
      </trkpt>
      <trkpt lat="44.10319" lon="1.30988">
        <ele>102.4</ele>
        <time>2023-07-07T07:14:23Z</time>
      </trkpt>
      <trkpt lat="44.10318" lon="1.30988">
        <ele>102.2</ele>
        <time>2023-07-07T07:14:24Z</time>
      </trkpt>
      <trkpt lat="44.10316" lon="1.30988">
        <ele>101.6</ele>
        <time>2023-07-07T07:14:27Z</time>
      </trkpt>
      <trkpt lat="44.10314" lon="1.30988">
        <ele>101.2</ele>
        <time>2023-07-07T07:14:30Z</time>
      </trkpt>
      <trkpt lat="44.1031" lon="1.30985">
        <ele>100</ele>
        <time>2023-07-07T07:14:36Z</time>
      </trkpt>
      <trkpt lat="44.1031" lon="1.30984">
        <ele>99.8</ele>
        <time>2023-07-07T07:14:37Z</time>
      </trkpt>
      <trkpt lat="44.10309" lon="1.30983">
        <ele>99.6</ele>
        <time>2023-07-07T07:14:38Z</time>
      </trkpt>
      <trkpt lat="44.10307" lon="1.30979">
        <ele>99.2</ele>
        <time>2023-07-07T07:14:42Z</time>
      </trkpt>
      <trkpt lat="44.10307" lon="1.30979">
        <ele>99</ele>
        <time>2023-07-07T07:14:43Z</time>
      </trkpt>
      <trkpt lat="44.10305" lon="1.30977">
        <ele>98.4</ele>
        <time>2023-07-07T07:14:46Z</time>
      </trkpt>
      <trkpt lat="44.10303" lon="1.30975">
        <ele>98</ele>
        <time>2023-07-07T07:14:49Z</time>
      </trkpt>
      <trkpt lat="44.103" lon="1.30974">
        <ele>97.8</ele>
        <time>2023-07-07T07:14:53Z</time>
      </trkpt>
      <trkpt lat="44.10299" lon="1.30974">
        <ele>97.8</ele>
        <time>2023-07-07T07:14:55Z</time>
      </trkpt>
      <trkpt lat="44.10293" lon="1.30973">
        <ele>97</ele>
        <time>2023-07-07T07:15:02Z</time>
      </trkpt>
      <trkpt lat="44.10293" lon="1.30973">
        <ele>96.8</ele>
        <time>2023-07-07T07:15:03Z</time>
      </trkpt>
      <trkpt lat="44.10288" lon="1.3097">
        <ele>95.8</ele>
        <time>2023-07-07T07:15:10Z</time>
      </trkpt>
      <trkpt lat="44.10286" lon="1.30967">
        <ele>95</ele>
        <time>2023-07-07T07:15:14Z</time>
      </trkpt>
      <trkpt lat="44.10286" lon="1.30966">
        <ele>95</ele>
        <time>2023-07-07T07:15:15Z</time>
      </trkpt>
      <trkpt lat="44.10285" lon="1.30966">
        <ele>94.8</ele>
        <time>2023-07-07T07:15:16Z</time>
      </trkpt>
      <trkpt lat="44.10284" lon="1.30965">
        <ele>94.6</ele>
        <time>2023-07-07T07:15:17Z</time>
      </trkpt>
      <trkpt lat="44.10284" lon="1.30965">
        <ele>94.4</ele>
        <time>2023-07-07T07:15:18Z</time>
      </trkpt>
      <trkpt lat="44.10283" lon="1.30965">
        <ele>94.2</ele>
        <time>2023-07-07T07:15:19Z</time>
      </trkpt>
      <trkpt lat="44.10282" lon="1.30963">
        <ele>94</ele>
        <time>2023-07-07T07:15:21Z</time>
      </trkpt>
      <trkpt lat="44.1028" lon="1.30963">
        <ele>94</ele>
        <time>2023-07-07T07:15:22Z</time>
      </trkpt>
      <trkpt lat="44.10278" lon="1.30962">
        <ele>94</ele>
        <time>2023-07-07T07:15:23Z</time>
      </trkpt>
      <trkpt lat="44.10274" lon="1.30961">
        <ele>93.8</ele>
        <time>2023-07-07T07:15:25Z</time>
      </trkpt>
      <trkpt lat="44.10271" lon="1.3096">
        <ele>93.4</ele>
        <time>2023-07-07T07:15:29Z</time>
      </trkpt>
      <trkpt lat="44.10271" lon="1.3096">
        <ele>93.2</ele>
        <time>2023-07-07T07:15:30Z</time>
      </trkpt>
      <trkpt lat="44.1027" lon="1.3096">
        <ele>93</ele>
        <time>2023-07-07T07:15:31Z</time>
      </trkpt>
      <trkpt lat="44.10268" lon="1.3096">
        <ele>92.2</ele>
        <time>2023-07-07T07:15:34Z</time>
      </trkpt>
      <trkpt lat="44.10268" lon="1.3096">
        <ele>92</ele>
        <time>2023-07-07T07:15:35Z</time>
      </trkpt>
      <trkpt lat="44.10264" lon="1.30959">
        <ele>91.6</ele>
        <time>2023-07-07T07:15:39Z</time>
      </trkpt>
      <trkpt lat="44.10263" lon="1.30958">
        <ele>91.2</ele>
        <time>2023-07-07T07:15:41Z</time>
      </trkpt>
      <trkpt lat="44.10257" lon="1.30958">
        <ele>90.4</ele>
        <time>2023-07-07T07:15:45Z</time>
      </trkpt>
      <trkpt lat="44.10256" lon="1.30958">
        <ele>90.2</ele>
        <time>2023-07-07T07:15:46Z</time>
      </trkpt>
      <trkpt lat="44.10248" lon="1.30957">
        <ele>89</ele>
        <time>2023-07-07T07:15:53Z</time>
      </trkpt>
      <trkpt lat="44.1024" lon="1.30954">
        <ele>88</ele>
        <time>2023-07-07T07:16:01Z</time>
      </trkpt>
      <trkpt lat="44.10234" lon="1.30952">
        <ele>87.4</ele>
        <time>2023-07-07T07:16:06Z</time>
      </trkpt>
      <trkpt lat="44.1023" lon="1.30951">
        <ele>86.8</ele>
        <time>2023-07-07T07:16:10Z</time>
      </trkpt>
      <trkpt lat="44.10228" lon="1.30952">
        <ele>86.6</ele>
        <time>2023-07-07T07:16:11Z</time>
      </trkpt>
      <trkpt lat="44.10221" lon="1.30962">
        <ele>85.8</ele>
        <time>2023-07-07T07:16:16Z</time>
      </trkpt>
      <trkpt lat="44.1022" lon="1.30966">
        <ele>85.8</ele>
        <time>2023-07-07T07:16:18Z</time>
      </trkpt>
      <trkpt lat="44.1022" lon="1.3097">
        <ele>85.8</ele>
        <time>2023-07-07T07:16:21Z</time>
      </trkpt>
      <trkpt lat="44.1022" lon="1.30972">
        <ele>85.4</ele>
        <time>2023-07-07T07:16:22Z</time>
      </trkpt>
      <trkpt lat="44.10218" lon="1.30983">
        <ele>84.8</ele>
        <time>2023-07-07T07:16:29Z</time>
      </trkpt>
      <trkpt lat="44.10218" lon="1.30996">
        <ele>84</ele>
        <time>2023-07-07T07:16:37Z</time>
      </trkpt>
      <trkpt lat="44.10217" lon="1.31001">
        <ele>83.6</ele>
        <time>2023-07-07T07:16:40Z</time>
      </trkpt>
      <trkpt lat="44.10216" lon="1.31009">
        <ele>83.2</ele>
        <time>2023-07-07T07:16:44Z</time>
      </trkpt>
      <trkpt lat="44.10214" lon="1.31022">
        <ele>83</ele>
        <time>2023-07-07T07:16:52Z</time>
      </trkpt>
      <trkpt lat="44.10214" lon="1.31027">
        <ele>82.6</ele>
        <time>2023-07-07T07:16:55Z</time>
      </trkpt>
      <trkpt lat="44.10214" lon="1.31029">
        <ele>82.8</ele>
        <time>2023-07-07T07:16:56Z</time>
      </trkpt>
      <trkpt lat="44.10214" lon="1.31033">
        <ele>82.8</ele>
        <time>2023-07-07T07:16:58Z</time>
      </trkpt>
      <trkpt lat="44.10214" lon="1.31036">
        <ele>82.8</ele>
        <time>2023-07-07T07:17:00Z</time>
      </trkpt>
      <trkpt lat="44.10213" lon="1.31046">
        <ele>82.6</ele>
        <time>2023-07-07T07:17:06Z</time>
      </trkpt>
      <trkpt lat="44.10213" lon="1.31051">
        <ele>82.6</ele>
        <time>2023-07-07T07:17:09Z</time>
      </trkpt>
      <trkpt lat="44.10213" lon="1.31058">
        <ele>82.6</ele>
        <time>2023-07-07T07:17:13Z</time>
      </trkpt>
      <trkpt lat="44.10213" lon="1.3107">
        <ele>82.8</ele>
        <time>2023-07-07T07:17:21Z</time>
      </trkpt>
      <trkpt lat="44.10214" lon="1.31071">
        <ele>83</ele>
        <time>2023-07-07T07:17:22Z</time>
      </trkpt>
      <trkpt lat="44.10211" lon="1.31075">
        <ele>83.2</ele>
        <time>2023-07-07T07:17:25Z</time>
      </trkpt>
      <trkpt lat="44.10209" lon="1.3108">
        <ele>83.6</ele>
        <time>2023-07-07T07:17:28Z</time>
      </trkpt>
      <trkpt lat="44.10208" lon="1.31082">
        <ele>83.8</ele>
        <time>2023-07-07T07:17:29Z</time>
      </trkpt>
      <trkpt lat="44.10205" lon="1.31091">
        <ele>84</ele>
        <time>2023-07-07T07:17:35Z</time>
      </trkpt>
      <trkpt lat="44.10203" lon="1.311">
        <ele>84.2</ele>
        <time>2023-07-07T07:17:40Z</time>
      </trkpt>
      <trkpt lat="44.10203" lon="1.31102">
        <ele>84.4</ele>
        <time>2023-07-07T07:17:41Z</time>
      </trkpt>
      <trkpt lat="44.10203" lon="1.31103">
        <ele>84.4</ele>
        <time>2023-07-07T07:17:42Z</time>
      </trkpt>
      <trkpt lat="44.10202" lon="1.31105">
        <ele>84.4</ele>
        <time>2023-07-07T07:17:43Z</time>
      </trkpt>
      <trkpt lat="44.10201" lon="1.31107">
        <ele>84.8</ele>
        <time>2023-07-07T07:17:45Z</time>
      </trkpt>
      <trkpt lat="44.10198" lon="1.31113">
        <ele>85</ele>
        <time>2023-07-07T07:17:50Z</time>
      </trkpt>
      <trkpt lat="44.10195" lon="1.3112">
        <ele>85.8</ele>
        <time>2023-07-07T07:17:56Z</time>
      </trkpt>
      <trkpt lat="44.10194" lon="1.31121">
        <ele>85.8</ele>
        <time>2023-07-07T07:17:57Z</time>
      </trkpt>
      <trkpt lat="44.10193" lon="1.31123">
        <ele>86.2</ele>
        <time>2023-07-07T07:17:59Z</time>
      </trkpt>
      <trkpt lat="44.10192" lon="1.31127">
        <ele>86.2</ele>
        <time>2023-07-07T07:18:01Z</time>
      </trkpt>
      <trkpt lat="44.1019" lon="1.31129">
        <ele>86.4</ele>
        <time>2023-07-07T07:18:03Z</time>
      </trkpt>
      <trkpt lat="44.10188" lon="1.3113">
        <ele>86.2</ele>
        <time>2023-07-07T07:18:05Z</time>
      </trkpt>
      <trkpt lat="44.10184" lon="1.31139">
        <ele>86.8</ele>
        <time>2023-07-07T07:18:13Z</time>
      </trkpt>
      <trkpt lat="44.10184" lon="1.3114">
        <ele>87</ele>
        <time>2023-07-07T07:18:14Z</time>
      </trkpt>
      <trkpt lat="44.10183" lon="1.31144">
        <ele>87.2</ele>
        <time>2023-07-07T07:18:17Z</time>
      </trkpt>
      <trkpt lat="44.10182" lon="1.31148">
        <ele>87.4</ele>
        <time>2023-07-07T07:18:20Z</time>
      </trkpt>
      <trkpt lat="44.10178" lon="1.31155">
        <ele>87.4</ele>
        <time>2023-07-07T07:18:25Z</time>
      </trkpt>
      <trkpt lat="44.10175" lon="1.31163">
        <ele>87.4</ele>
        <time>2023-07-07T07:18:30Z</time>
      </trkpt>
      <trkpt lat="44.10166" lon="1.31174">
        <ele>87.8</ele>
        <time>2023-07-07T07:18:38Z</time>
      </trkpt>
      <trkpt lat="44.10164" lon="1.31181">
        <ele>88</ele>
        <time>2023-07-07T07:18:43Z</time>
      </trkpt>
      <trkpt lat="44.10163" lon="1.31186">
        <ele>88.4</ele>
        <time>2023-07-07T07:18:47Z</time>
      </trkpt>
      <trkpt lat="44.10163" lon="1.31187">
        <ele>88.4</ele>
        <time>2023-07-07T07:18:48Z</time>
      </trkpt>
      <trkpt lat="44.10162" lon="1.3119">
        <ele>88.4</ele>
        <time>2023-07-07T07:18:51Z</time>
      </trkpt>
      <trkpt lat="44.1016" lon="1.31195">
        <ele>88.4</ele>
        <time>2023-07-07T07:18:54Z</time>
      </trkpt>
      <trkpt lat="44.10158" lon="1.31198">
        <ele>88.4</ele>
        <time>2023-07-07T07:18:55Z</time>
      </trkpt>
      <trkpt lat="44.10157" lon="1.31199">
        <ele>88.6</ele>
        <time>2023-07-07T07:18:56Z</time>
      </trkpt>
      <trkpt lat="44.10151" lon="1.31208">
        <ele>88.4</ele>
        <time>2023-07-07T07:19:02Z</time>
      </trkpt>
      <trkpt lat="44.10151" lon="1.3121">
        <ele>88.2</ele>
        <time>2023-07-07T07:19:04Z</time>
      </trkpt>
      <trkpt lat="44.1015" lon="1.31213">
        <ele>88</ele>
        <time>2023-07-07T07:19:06Z</time>
      </trkpt>
      <trkpt lat="44.10148" lon="1.31218">
        <ele>88</ele>
        <time>2023-07-07T07:19:10Z</time>
      </trkpt>
      <trkpt lat="44.10144" lon="1.31232">
        <ele>88</ele>
        <time>2023-07-07T07:19:19Z</time>
      </trkpt>
      <trkpt lat="44.10143" lon="1.31235">
        <ele>88</ele>
        <time>2023-07-07T07:19:21Z</time>
      </trkpt>
      <trkpt lat="44.10139" lon="1.3124">
        <ele>88</ele>
        <time>2023-07-07T07:19:24Z</time>
      </trkpt>
      <trkpt lat="44.10135" lon="1.31247">
        <ele>88.2</ele>
        <time>2023-07-07T07:19:29Z</time>
      </trkpt>
      <trkpt lat="44.10128" lon="1.31258">
        <ele>88.4</ele>
        <time>2023-07-07T07:19:36Z</time>
      </trkpt>
      <trkpt lat="44.10124" lon="1.31267">
        <ele>88.2</ele>
        <time>2023-07-07T07:19:41Z</time>
      </trkpt>
      <trkpt lat="44.10122" lon="1.31269">
        <ele>88.2</ele>
        <time>2023-07-07T07:19:43Z</time>
      </trkpt>
      <trkpt lat="44.10118" lon="1.31277">
        <ele>88.4</ele>
        <time>2023-07-07T07:19:49Z</time>
      </trkpt>
      <trkpt lat="44.10117" lon="1.31279">
        <ele>88.4</ele>
        <time>2023-07-07T07:19:50Z</time>
      </trkpt>
      <trkpt lat="44.10117" lon="1.3128">
        <ele>88.4</ele>
        <time>2023-07-07T07:19:51Z</time>
      </trkpt>
      <trkpt lat="44.10116" lon="1.31285">
        <ele>88.8</ele>
        <time>2023-07-07T07:19:55Z</time>
      </trkpt>
      <trkpt lat="44.10115" lon="1.31287">
        <ele>88.8</ele>
        <time>2023-07-07T07:19:57Z</time>
      </trkpt>
      <trkpt lat="44.10112" lon="1.31296">
        <ele>88.4</ele>
        <time>2023-07-07T07:20:02Z</time>
      </trkpt>
      <trkpt lat="44.10112" lon="1.31299">
        <ele>88.4</ele>
        <time>2023-07-07T07:20:04Z</time>
      </trkpt>
      <trkpt lat="44.10111" lon="1.313">
        <ele>88.2</ele>
        <time>2023-07-07T07:20:05Z</time>
      </trkpt>
      <trkpt lat="44.10103" lon="1.31313">
        <ele>87.8</ele>
        <time>2023-07-07T07:20:12Z</time>
      </trkpt>
      <trkpt lat="44.10099" lon="1.31323">
        <ele>87.6</ele>
        <time>2023-07-07T07:20:19Z</time>
      </trkpt>
      <trkpt lat="44.10098" lon="1.3133">
        <ele>87.6</ele>
        <time>2023-07-07T07:20:23Z</time>
      </trkpt>
      <trkpt lat="44.10096" lon="1.31339">
        <ele>87.4</ele>
        <time>2023-07-07T07:20:28Z</time>
      </trkpt>
      <trkpt lat="44.1009" lon="1.31348">
        <ele>87.4</ele>
        <time>2023-07-07T07:20:34Z</time>
      </trkpt>
      <trkpt lat="44.10088" lon="1.31351">
        <ele>87.4</ele>
        <time>2023-07-07T07:20:36Z</time>
      </trkpt>
      <trkpt lat="44.10082" lon="1.31357">
        <ele>87.2</ele>
        <time>2023-07-07T07:20:42Z</time>
      </trkpt>
      <trkpt lat="44.1008" lon="1.31361">
        <ele>87.4</ele>
        <time>2023-07-07T07:20:46Z</time>
      </trkpt>
      <trkpt lat="44.10079" lon="1.31363">
        <ele>87.2</ele>
        <time>2023-07-07T07:20:47Z</time>
      </trkpt>
      <trkpt lat="44.10078" lon="1.31369">
        <ele>87.2</ele>
        <time>2023-07-07T07:20:51Z</time>
      </trkpt>
      <trkpt lat="44.10077" lon="1.31371">
        <ele>87.2</ele>
        <time>2023-07-07T07:20:52Z</time>
      </trkpt>
      <trkpt lat="44.10073" lon="1.31384">
        <ele>87.2</ele>
        <time>2023-07-07T07:21:00Z</time>
      </trkpt>
      <trkpt lat="44.10073" lon="1.31394">
        <ele>87</ele>
        <time>2023-07-07T07:21:06Z</time>
      </trkpt>
      <trkpt lat="44.10073" lon="1.31397">
        <ele>86.8</ele>
        <time>2023-07-07T07:21:08Z</time>
      </trkpt>
      <trkpt lat="44.10073" lon="1.31402">
        <ele>87</ele>
        <time>2023-07-07T07:21:12Z</time>
      </trkpt>
      <trkpt lat="44.10071" lon="1.31406">
        <ele>86.8</ele>
        <time>2023-07-07T07:21:15Z</time>
      </trkpt>
      <trkpt lat="44.1007" lon="1.31408">
        <ele>86.8</ele>
        <time>2023-07-07T07:21:16Z</time>
      </trkpt>
      <trkpt lat="44.10066" lon="1.31414">
        <ele>86.8</ele>
        <time>2023-07-07T07:21:21Z</time>
      </trkpt>
      <trkpt lat="44.10061" lon="1.3142">
        <ele>86.8</ele>
        <time>2023-07-07T07:21:25Z</time>
      </trkpt>
      <trkpt lat="44.10061" lon="1.3143">
        <ele>86.8</ele>
        <time>2023-07-07T07:21:32Z</time>
      </trkpt>
      <trkpt lat="44.10057" lon="1.31438">
        <ele>87</ele>
        <time>2023-07-07T07:21:38Z</time>
      </trkpt>
      <trkpt lat="44.10054" lon="1.31441">
        <ele>86.8</ele>
        <time>2023-07-07T07:21:40Z</time>
      </trkpt>
      <trkpt lat="44.10052" lon="1.31443">
        <ele>87</ele>
        <time>2023-07-07T07:21:41Z</time>
      </trkpt>
      <trkpt lat="44.10045" lon="1.31456">
        <ele>87.2</ele>
        <time>2023-07-07T07:21:48Z</time>
      </trkpt>
      <trkpt lat="44.10042" lon="1.31463">
        <ele>87.2</ele>
        <time>2023-07-07T07:21:52Z</time>
      </trkpt>
      <trkpt lat="44.10043" lon="1.31465">
        <ele>87.2</ele>
        <time>2023-07-07T07:21:54Z</time>
      </trkpt>
      <trkpt lat="44.10042" lon="1.31466">
        <ele>87.2</ele>
        <time>2023-07-07T07:21:55Z</time>
      </trkpt>
      <trkpt lat="44.10038" lon="1.31474">
        <ele>87.2</ele>
        <time>2023-07-07T07:22:02Z</time>
      </trkpt>
      <trkpt lat="44.10038" lon="1.31481">
        <ele>87.2</ele>
        <time>2023-07-07T07:22:06Z</time>
      </trkpt>
      <trkpt lat="44.10036" lon="1.31485">
        <ele>87.2</ele>
        <time>2023-07-07T07:22:09Z</time>
      </trkpt>
      <trkpt lat="44.10028" lon="1.31495">
        <ele>87.2</ele>
        <time>2023-07-07T07:22:16Z</time>
      </trkpt>
      <trkpt lat="44.10023" lon="1.31503">
        <ele>87.4</ele>
        <time>2023-07-07T07:22:21Z</time>
      </trkpt>
      <trkpt lat="44.10018" lon="1.31507">
        <ele>87.2</ele>
        <time>2023-07-07T07:22:26Z</time>
      </trkpt>
      <trkpt lat="44.10018" lon="1.31508">
        <ele>87.2</ele>
        <time>2023-07-07T07:22:27Z</time>
      </trkpt>
      <trkpt lat="44.10016" lon="1.31511">
        <ele>87.4</ele>
        <time>2023-07-07T07:22:30Z</time>
      </trkpt>
      <trkpt lat="44.10015" lon="1.31512">
        <ele>87.4</ele>
        <time>2023-07-07T07:22:31Z</time>
      </trkpt>
      <trkpt lat="44.10013" lon="1.31516">
        <ele>87.8</ele>
        <time>2023-07-07T07:22:35Z</time>
      </trkpt>
      <trkpt lat="44.10011" lon="1.31518">
        <ele>87.8</ele>
        <time>2023-07-07T07:22:37Z</time>
      </trkpt>
      <trkpt lat="44.10009" lon="1.3152">
        <ele>87.8</ele>
        <time>2023-07-07T07:22:38Z</time>
      </trkpt>
      <trkpt lat="44.10009" lon="1.31521">
        <ele>87.8</ele>
        <time>2023-07-07T07:22:39Z</time>
      </trkpt>
      <trkpt lat="44.10008" lon="1.31522">
        <ele>87.6</ele>
        <time>2023-07-07T07:22:40Z</time>
      </trkpt>
      <trkpt lat="44.10002" lon="1.3153">
        <ele>87.2</ele>
        <time>2023-07-07T07:22:45Z</time>
      </trkpt>
      <trkpt lat="44.09996" lon="1.31534">
        <ele>87.2</ele>
        <time>2023-07-07T07:22:50Z</time>
      </trkpt>
      <trkpt lat="44.09996" lon="1.31536">
        <ele>87.2</ele>
        <time>2023-07-07T07:22:52Z</time>
      </trkpt>
      <trkpt lat="44.09992" lon="1.31546">
        <ele>87.2</ele>
        <time>2023-07-07T07:23:01Z</time>
      </trkpt>
      <trkpt lat="44.09988" lon="1.3155">
        <ele>87.2</ele>
        <time>2023-07-07T07:23:04Z</time>
      </trkpt>
      <trkpt lat="44.09985" lon="1.31558">
        <ele>87.4</ele>
        <time>2023-07-07T07:23:11Z</time>
      </trkpt>
      <trkpt lat="44.09977" lon="1.31569">
        <ele>87.6</ele>
        <time>2023-07-07T07:23:20Z</time>
      </trkpt>
      <trkpt lat="44.09972" lon="1.31577">
        <ele>88</ele>
        <time>2023-07-07T07:23:26Z</time>
      </trkpt>
      <trkpt lat="44.09971" lon="1.31579">
        <ele>88.2</ele>
        <time>2023-07-07T07:23:28Z</time>
      </trkpt>
      <trkpt lat="44.09967" lon="1.31593">
        <ele>88.2</ele>
        <time>2023-07-07T07:23:38Z</time>
      </trkpt>
      <trkpt lat="44.09964" lon="1.31603">
        <ele>88.2</ele>
        <time>2023-07-07T07:23:46Z</time>
      </trkpt>
      <trkpt lat="44.09953" lon="1.31616">
        <ele>88.4</ele>
        <time>2023-07-07T07:23:54Z</time>
      </trkpt>
      <trkpt lat="44.09946" lon="1.31628">
        <ele>88.8</ele>
        <time>2023-07-07T07:24:02Z</time>
      </trkpt>
      <trkpt lat="44.0994" lon="1.31639">
        <ele>88.8</ele>
        <time>2023-07-07T07:24:09Z</time>
      </trkpt>
      <trkpt lat="44.0994" lon="1.31647">
        <ele>88.6</ele>
        <time>2023-07-07T07:24:13Z</time>
      </trkpt>
      <trkpt lat="44.09938" lon="1.3165">
        <ele>88.6</ele>
        <time>2023-07-07T07:24:15Z</time>
      </trkpt>
      <trkpt lat="44.09934" lon="1.31654">
        <ele>88.6</ele>
        <time>2023-07-07T07:24:19Z</time>
      </trkpt>
      <trkpt lat="44.09934" lon="1.31657">
        <ele>88.6</ele>
        <time>2023-07-07T07:24:21Z</time>
      </trkpt>
      <trkpt lat="44.09933" lon="1.3166">
        <ele>88.4</ele>
        <time>2023-07-07T07:24:23Z</time>
      </trkpt>
      <trkpt lat="44.09927" lon="1.31672">
        <ele>88.4</ele>
        <time>2023-07-07T07:24:31Z</time>
      </trkpt>
      <trkpt lat="44.09921" lon="1.31681">
        <ele>89</ele>
        <time>2023-07-07T07:24:38Z</time>
      </trkpt>
      <trkpt lat="44.09916" lon="1.3169">
        <ele>88.6</ele>
        <time>2023-07-07T07:24:45Z</time>
      </trkpt>
      <trkpt lat="44.09916" lon="1.31691">
        <ele>88.4</ele>
        <time>2023-07-07T07:24:46Z</time>
      </trkpt>
      <trkpt lat="44.09914" lon="1.31695">
        <ele>88.4</ele>
        <time>2023-07-07T07:24:51Z</time>
      </trkpt>
      <trkpt lat="44.09912" lon="1.31697">
        <ele>88.2</ele>
        <time>2023-07-07T07:24:55Z</time>
      </trkpt>
      <trkpt lat="44.09907" lon="1.317">
        <ele>88.2</ele>
        <time>2023-07-07T07:24:57Z</time>
      </trkpt>
      <trkpt lat="44.09901" lon="1.31703">
        <ele>88.4</ele>
        <time>2023-07-07T07:25:01Z</time>
      </trkpt>
      <trkpt lat="44.099" lon="1.31703">
        <ele>88.4</ele>
        <time>2023-07-07T07:25:02Z</time>
      </trkpt>
      <trkpt lat="44.09894" lon="1.31706">
        <ele>88.2</ele>
        <time>2023-07-07T07:25:07Z</time>
      </trkpt>
      <trkpt lat="44.09888" lon="1.31709">
        <ele>88.4</ele>
        <time>2023-07-07T07:25:11Z</time>
      </trkpt>
      <trkpt lat="44.09884" lon="1.31711">
        <ele>88.4</ele>
        <time>2023-07-07T07:25:14Z</time>
      </trkpt>
      <trkpt lat="44.09878" lon="1.31714">
        <ele>88.4</ele>
        <time>2023-07-07T07:25:19Z</time>
      </trkpt>
      <trkpt lat="44.09873" lon="1.31716">
        <ele>88.4</ele>
        <time>2023-07-07T07:25:23Z</time>
      </trkpt>
      <trkpt lat="44.0987" lon="1.31718">
        <ele>88.8</ele>
        <time>2023-07-07T07:25:27Z</time>
      </trkpt>
      <trkpt lat="44.09868" lon="1.31719">
        <ele>88.6</ele>
        <time>2023-07-07T07:25:29Z</time>
      </trkpt>
      <trkpt lat="44.09864" lon="1.31722">
        <ele>88.2</ele>
        <time>2023-07-07T07:25:34Z</time>
      </trkpt>
      <trkpt lat="44.09861" lon="1.31724">
        <ele>88.4</ele>
        <time>2023-07-07T07:25:37Z</time>
      </trkpt>
      <trkpt lat="44.0986" lon="1.31725">
        <ele>88.4</ele>
        <time>2023-07-07T07:25:38Z</time>
      </trkpt>
      <trkpt lat="44.09859" lon="1.31725">
        <ele>88.4</ele>
        <time>2023-07-07T07:25:39Z</time>
      </trkpt>
      <trkpt lat="44.09851" lon="1.3173">
        <ele>88.6</ele>
        <time>2023-07-07T07:25:46Z</time>
      </trkpt>
      <trkpt lat="44.09848" lon="1.31731">
        <ele>88.6</ele>
        <time>2023-07-07T07:25:48Z</time>
      </trkpt>
      <trkpt lat="44.09846" lon="1.31732">
        <ele>88.6</ele>
        <time>2023-07-07T07:25:49Z</time>
      </trkpt>
      <trkpt lat="44.09832" lon="1.31742">
        <ele>88.6</ele>
        <time>2023-07-07T07:26:01Z</time>
      </trkpt>
      <trkpt lat="44.0983" lon="1.31745">
        <ele>88.4</ele>
        <time>2023-07-07T07:26:04Z</time>
      </trkpt>
      <trkpt lat="44.09825" lon="1.3175">
        <ele>88.4</ele>
        <time>2023-07-07T07:26:09Z</time>
      </trkpt>
      <trkpt lat="44.0982" lon="1.31757">
        <ele>88.8</ele>
        <time>2023-07-07T07:26:15Z</time>
      </trkpt>
      <trkpt lat="44.09817" lon="1.31761">
        <ele>88.6</ele>
        <time>2023-07-07T07:26:18Z</time>
      </trkpt>
      <trkpt lat="44.09814" lon="1.31764">
        <ele>88.4</ele>
        <time>2023-07-07T07:26:20Z</time>
      </trkpt>
      <trkpt lat="44.09809" lon="1.31771">
        <ele>88.6</ele>
        <time>2023-07-07T07:26:25Z</time>
      </trkpt>
      <trkpt lat="44.09809" lon="1.31772">
        <ele>88.8</ele>
        <time>2023-07-07T07:26:26Z</time>
      </trkpt>
      <trkpt lat="44.09804" lon="1.31778">
        <ele>88.6</ele>
        <time>2023-07-07T07:26:32Z</time>
      </trkpt>
      <trkpt lat="44.098" lon="1.31779">
        <ele>88.8</ele>
        <time>2023-07-07T07:26:33Z</time>
      </trkpt>
      <trkpt lat="44.09794" lon="1.31792">
        <ele>88.8</ele>
        <time>2023-07-07T07:26:39Z</time>
      </trkpt>
      <trkpt lat="44.0979" lon="1.31813">
        <ele>89.4</ele>
        <time>2023-07-07T07:26:49Z</time>
      </trkpt>
      <trkpt lat="44.09788" lon="1.31823">
        <ele>89.4</ele>
        <time>2023-07-07T07:26:53Z</time>
      </trkpt>
      <trkpt lat="44.09787" lon="1.31829">
        <ele>89.6</ele>
        <time>2023-07-07T07:26:56Z</time>
      </trkpt>
      <trkpt lat="44.09781" lon="1.31832">
        <ele>88.8</ele>
        <time>2023-07-07T07:27:01Z</time>
      </trkpt>
      <trkpt lat="44.0978" lon="1.31831">
        <ele>88.6</ele>
        <time>2023-07-07T07:27:02Z</time>
      </trkpt>
      <trkpt lat="44.09779" lon="1.31831">
        <ele>88.4</ele>
        <time>2023-07-07T07:27:03Z</time>
      </trkpt>
      <trkpt lat="44.09773" lon="1.31827">
        <ele>88</ele>
        <time>2023-07-07T07:27:07Z</time>
      </trkpt>
      <trkpt lat="44.09769" lon="1.31822">
        <ele>87.4</ele>
        <time>2023-07-07T07:27:10Z</time>
      </trkpt>
      <trkpt lat="44.09765" lon="1.31819">
        <ele>87</ele>
        <time>2023-07-07T07:27:13Z</time>
      </trkpt>
      <trkpt lat="44.09763" lon="1.31818">
        <ele>86.8</ele>
        <time>2023-07-07T07:27:14Z</time>
      </trkpt>
      <trkpt lat="44.0976" lon="1.31816">
        <ele>86.2</ele>
        <time>2023-07-07T07:27:16Z</time>
      </trkpt>
      <trkpt lat="44.09758" lon="1.31814">
        <ele>85.8</ele>
        <time>2023-07-07T07:27:18Z</time>
      </trkpt>
      <trkpt lat="44.09756" lon="1.31812">
        <ele>85.6</ele>
        <time>2023-07-07T07:27:19Z</time>
      </trkpt>
      <trkpt lat="44.09749" lon="1.31804">
        <ele>84.6</ele>
        <time>2023-07-07T07:27:26Z</time>
      </trkpt>
      <trkpt lat="44.09748" lon="1.31802">
        <ele>84.4</ele>
        <time>2023-07-07T07:27:28Z</time>
      </trkpt>
      <trkpt lat="44.09744" lon="1.31798">
        <ele>84</ele>
        <time>2023-07-07T07:27:32Z</time>
      </trkpt>
      <trkpt lat="44.09742" lon="1.31796">
        <ele>83.6</ele>
        <time>2023-07-07T07:27:34Z</time>
      </trkpt>
      <trkpt lat="44.09738" lon="1.31792">
        <ele>83</ele>
        <time>2023-07-07T07:27:38Z</time>
      </trkpt>
      <trkpt lat="44.09732" lon="1.31785">
        <ele>82.6</ele>
        <time>2023-07-07T07:27:45Z</time>
      </trkpt>
      <trkpt lat="44.09728" lon="1.31782">
        <ele>82.2</ele>
        <time>2023-07-07T07:27:48Z</time>
      </trkpt>
      <trkpt lat="44.09724" lon="1.31779">
        <ele>81.4</ele>
        <time>2023-07-07T07:27:53Z</time>
      </trkpt>
      <trkpt lat="44.0972" lon="1.31774">
        <ele>81</ele>
        <time>2023-07-07T07:27:58Z</time>
      </trkpt>
      <trkpt lat="44.0971" lon="1.31767">
        <ele>80.6</ele>
        <time>2023-07-07T07:28:07Z</time>
      </trkpt>
      <trkpt lat="44.09708" lon="1.31764">
        <ele>80.4</ele>
        <time>2023-07-07T07:28:09Z</time>
      </trkpt>
      <trkpt lat="44.09707" lon="1.31763">
        <ele>80.2</ele>
        <time>2023-07-07T07:28:10Z</time>
      </trkpt>
      <trkpt lat="44.09704" lon="1.31759">
        <ele>80</ele>
        <time>2023-07-07T07:28:14Z</time>
      </trkpt>
      <trkpt lat="44.09703" lon="1.31758">
        <ele>80</ele>
        <time>2023-07-07T07:28:15Z</time>
      </trkpt>
      <trkpt lat="44.09697" lon="1.31749">
        <ele>79.6</ele>
        <time>2023-07-07T07:28:23Z</time>
      </trkpt>
      <trkpt lat="44.09695" lon="1.31747">
        <ele>79.4</ele>
        <time>2023-07-07T07:28:25Z</time>
      </trkpt>
      <trkpt lat="44.0969" lon="1.31743">
        <ele>79.4</ele>
        <time>2023-07-07T07:28:30Z</time>
      </trkpt>
      <trkpt lat="44.09688" lon="1.31741">
        <ele>79.2</ele>
        <time>2023-07-07T07:28:33Z</time>
      </trkpt>
      <trkpt lat="44.09682" lon="1.31734">
        <ele>79</ele>
        <time>2023-07-07T07:28:39Z</time>
      </trkpt>
      <trkpt lat="44.09674" lon="1.31733">
        <ele>79.2</ele>
        <time>2023-07-07T07:28:44Z</time>
      </trkpt>
      <trkpt lat="44.09669" lon="1.31732">
        <ele>78.8</ele>
        <time>2023-07-07T07:28:47Z</time>
      </trkpt>
      <trkpt lat="44.09662" lon="1.31733">
        <ele>78.8</ele>
        <time>2023-07-07T07:28:53Z</time>
      </trkpt>
      <trkpt lat="44.09659" lon="1.3173">
        <ele>78.4</ele>
        <time>2023-07-07T07:28:58Z</time>
      </trkpt>
      <trkpt lat="44.09658" lon="1.31731">
        <ele>78.4</ele>
        <time>2023-07-07T07:28:59Z</time>
      </trkpt>
      <trkpt lat="44.09652" lon="1.3173">
        <ele>78.8</ele>
        <time>2023-07-07T07:29:06Z</time>
      </trkpt>
      <trkpt lat="44.09638" lon="1.31726">
        <ele>78.8</ele>
        <time>2023-07-07T07:29:14Z</time>
      </trkpt>
      <trkpt lat="44.09627" lon="1.31724">
        <ele>78.6</ele>
        <time>2023-07-07T07:29:21Z</time>
      </trkpt>
      <trkpt lat="44.09622" lon="1.31724">
        <ele>78.4</ele>
        <time>2023-07-07T07:29:24Z</time>
      </trkpt>
      <trkpt lat="44.09619" lon="1.31724">
        <ele>78.2</ele>
        <time>2023-07-07T07:29:26Z</time>
      </trkpt>
      <trkpt lat="44.09619" lon="1.31723">
        <ele>78.2</ele>
        <time>2023-07-07T07:29:27Z</time>
      </trkpt>
      <trkpt lat="44.09616" lon="1.31723">
        <ele>77.4</ele>
        <time>2023-07-07T07:29:30Z</time>
      </trkpt>
      <trkpt lat="44.09614" lon="1.31723">
        <ele>77.2</ele>
        <time>2023-07-07T07:29:32Z</time>
      </trkpt>
      <trkpt lat="44.09612" lon="1.31721">
        <ele>77</ele>
        <time>2023-07-07T07:29:34Z</time>
      </trkpt>
      <trkpt lat="44.09608" lon="1.31714">
        <ele>76.2</ele>
        <time>2023-07-07T07:29:40Z</time>
      </trkpt>
      <trkpt lat="44.09606" lon="1.31714">
        <ele>76</ele>
        <time>2023-07-07T07:29:41Z</time>
      </trkpt>
      <trkpt lat="44.09603" lon="1.31711">
        <ele>75.6</ele>
        <time>2023-07-07T07:29:43Z</time>
      </trkpt>
      <trkpt lat="44.09597" lon="1.31707">
        <ele>75.6</ele>
        <time>2023-07-07T07:29:46Z</time>
      </trkpt>
      <trkpt lat="44.09595" lon="1.31705">
        <ele>75.4</ele>
        <time>2023-07-07T07:29:48Z</time>
      </trkpt>
      <trkpt lat="44.09592" lon="1.31697">
        <ele>75.6</ele>
        <time>2023-07-07T07:29:52Z</time>
      </trkpt>
      <trkpt lat="44.09591" lon="1.31692">
        <ele>75.8</ele>
        <time>2023-07-07T07:29:55Z</time>
      </trkpt>
      <trkpt lat="44.0959" lon="1.3169">
        <ele>75.8</ele>
        <time>2023-07-07T07:29:56Z</time>
      </trkpt>
      <trkpt lat="44.09586" lon="1.31678">
        <ele>75.6</ele>
        <time>2023-07-07T07:30:03Z</time>
      </trkpt>
      <trkpt lat="44.09585" lon="1.31677">
        <ele>75.6</ele>
        <time>2023-07-07T07:30:04Z</time>
      </trkpt>
      <trkpt lat="44.09584" lon="1.31675">
        <ele>75.8</ele>
        <time>2023-07-07T07:30:05Z</time>
      </trkpt>
      <trkpt lat="44.09584" lon="1.31673">
        <ele>75.8</ele>
        <time>2023-07-07T07:30:06Z</time>
      </trkpt>
      <trkpt lat="44.09583" lon="1.3167">
        <ele>75.8</ele>
        <time>2023-07-07T07:30:08Z</time>
      </trkpt>
      <trkpt lat="44.09582" lon="1.31669">
        <ele>75.8</ele>
        <time>2023-07-07T07:30:09Z</time>
      </trkpt>
      <trkpt lat="44.09582" lon="1.31667">
        <ele>75.8</ele>
        <time>2023-07-07T07:30:10Z</time>
      </trkpt>
      <trkpt lat="44.09581" lon="1.31664">
        <ele>75.8</ele>
        <time>2023-07-07T07:30:12Z</time>
      </trkpt>
      <trkpt lat="44.09581" lon="1.31663">
        <ele>75.8</ele>
        <time>2023-07-07T07:30:13Z</time>
      </trkpt>
      <trkpt lat="44.0958" lon="1.3166">
        <ele>75.8</ele>
        <time>2023-07-07T07:30:15Z</time>
      </trkpt>
      <trkpt lat="44.09576" lon="1.31649">
        <ele>75.4</ele>
        <time>2023-07-07T07:30:23Z</time>
      </trkpt>
      <trkpt lat="44.09574" lon="1.31645">
        <ele>75.6</ele>
        <time>2023-07-07T07:30:25Z</time>
      </trkpt>
      <trkpt lat="44.09573" lon="1.31643">
        <ele>75.8</ele>
        <time>2023-07-07T07:30:27Z</time>
      </trkpt>
      <trkpt lat="44.09572" lon="1.3164">
        <ele>75.8</ele>
        <time>2023-07-07T07:30:29Z</time>
      </trkpt>
      <trkpt lat="44.09566" lon="1.31631">
        <ele>75.8</ele>
        <time>2023-07-07T07:30:35Z</time>
      </trkpt>
      <trkpt lat="44.09563" lon="1.31624">
        <ele>75.8</ele>
        <time>2023-07-07T07:30:42Z</time>
      </trkpt>
      <trkpt lat="44.09556" lon="1.31619">
        <ele>76.6</ele>
        <time>2023-07-07T07:30:50Z</time>
      </trkpt>
      <trkpt lat="44.09553" lon="1.31618">
        <ele>77</ele>
        <time>2023-07-07T07:30:54Z</time>
      </trkpt>
      <trkpt lat="44.0955" lon="1.31616">
        <ele>77.2</ele>
        <time>2023-07-07T07:30:57Z</time>
      </trkpt>
      <trkpt lat="44.09548" lon="1.31615">
        <ele>77.4</ele>
        <time>2023-07-07T07:30:59Z</time>
      </trkpt>
      <trkpt lat="44.09538" lon="1.3161">
        <ele>78</ele>
        <time>2023-07-07T07:31:08Z</time>
      </trkpt>
      <trkpt lat="44.09533" lon="1.31608">
        <ele>78.2</ele>
        <time>2023-07-07T07:31:12Z</time>
      </trkpt>
      <trkpt lat="44.09531" lon="1.31606">
        <ele>78.4</ele>
        <time>2023-07-07T07:31:14Z</time>
      </trkpt>
      <trkpt lat="44.09527" lon="1.31603">
        <ele>78.6</ele>
        <time>2023-07-07T07:31:18Z</time>
      </trkpt>
      <trkpt lat="44.09526" lon="1.31602">
        <ele>78.6</ele>
        <time>2023-07-07T07:31:19Z</time>
      </trkpt>
      <trkpt lat="44.09523" lon="1.31602">
        <ele>78.8</ele>
        <time>2023-07-07T07:31:22Z</time>
      </trkpt>
      <trkpt lat="44.0952" lon="1.31602">
        <ele>79</ele>
        <time>2023-07-07T07:31:25Z</time>
      </trkpt>
      <trkpt lat="44.0952" lon="1.31602">
        <ele>79</ele>
        <time>2023-07-07T07:31:26Z</time>
      </trkpt>
      <trkpt lat="44.09517" lon="1.31605">
        <ele>79.2</ele>
        <time>2023-07-07T07:31:30Z</time>
      </trkpt>
      <trkpt lat="44.09517" lon="1.31606">
        <ele>79.4</ele>
        <time>2023-07-07T07:31:31Z</time>
      </trkpt>
      <trkpt lat="44.09516" lon="1.31608">
        <ele>79.4</ele>
        <time>2023-07-07T07:31:33Z</time>
      </trkpt>
      <trkpt lat="44.09515" lon="1.31613">
        <ele>79.8</ele>
        <time>2023-07-07T07:31:38Z</time>
      </trkpt>
      <trkpt lat="44.09514" lon="1.31615">
        <ele>79.8</ele>
        <time>2023-07-07T07:31:40Z</time>
      </trkpt>
      <trkpt lat="44.09506" lon="1.31631">
        <ele>79.6</ele>
        <time>2023-07-07T07:31:47Z</time>
      </trkpt>
      <trkpt lat="44.095" lon="1.3164">
        <ele>80.2</ele>
        <time>2023-07-07T07:31:55Z</time>
      </trkpt>
      <trkpt lat="44.09499" lon="1.31641">
        <ele>80.2</ele>
        <time>2023-07-07T07:31:56Z</time>
      </trkpt>
      <trkpt lat="44.09496" lon="1.31648">
        <ele>80</ele>
        <time>2023-07-07T07:32:01Z</time>
      </trkpt>
      <trkpt lat="44.09494" lon="1.31649">
        <ele>79.8</ele>
        <time>2023-07-07T07:32:02Z</time>
      </trkpt>
      <trkpt lat="44.09488" lon="1.31659">
        <ele>80</ele>
        <time>2023-07-07T07:32:09Z</time>
      </trkpt>
      <trkpt lat="44.09488" lon="1.3166">
        <ele>80</ele>
        <time>2023-07-07T07:32:10Z</time>
      </trkpt>
      <trkpt lat="44.09483" lon="1.31667">
        <ele>79.8</ele>
        <time>2023-07-07T07:32:16Z</time>
      </trkpt>
      <trkpt lat="44.09483" lon="1.31669">
        <ele>79.8</ele>
        <time>2023-07-07T07:32:17Z</time>
      </trkpt>
      <trkpt lat="44.09478" lon="1.31677">
        <ele>79.8</ele>
        <time>2023-07-07T07:32:23Z</time>
      </trkpt>
      <trkpt lat="44.09475" lon="1.31679">
        <ele>79.8</ele>
        <time>2023-07-07T07:32:25Z</time>
      </trkpt>
      <trkpt lat="44.0947" lon="1.31688">
        <ele>79.8</ele>
        <time>2023-07-07T07:32:31Z</time>
      </trkpt>
      <trkpt lat="44.09469" lon="1.31689">
        <ele>79.8</ele>
        <time>2023-07-07T07:32:32Z</time>
      </trkpt>
      <trkpt lat="44.09466" lon="1.31692">
        <ele>79.8</ele>
        <time>2023-07-07T07:32:35Z</time>
      </trkpt>
      <trkpt lat="44.09462" lon="1.31696">
        <ele>79.8</ele>
        <time>2023-07-07T07:32:39Z</time>
      </trkpt>
      <trkpt lat="44.09461" lon="1.31698">
        <ele>79.8</ele>
        <time>2023-07-07T07:32:42Z</time>
      </trkpt>
      <trkpt lat="44.09459" lon="1.31699">
        <ele>79.8</ele>
        <time>2023-07-07T07:32:45Z</time>
      </trkpt>
      <trkpt lat="44.09456" lon="1.31707">
        <ele>80.2</ele>
        <time>2023-07-07T07:32:52Z</time>
      </trkpt>
      <trkpt lat="44.09454" lon="1.31709">
        <ele>80</ele>
        <time>2023-07-07T07:32:55Z</time>
      </trkpt>
      <trkpt lat="44.0945" lon="1.31714">
        <ele>80</ele>
        <time>2023-07-07T07:32:59Z</time>
      </trkpt>
      <trkpt lat="44.09444" lon="1.3172">
        <ele>80.2</ele>
        <time>2023-07-07T07:33:04Z</time>
      </trkpt>
      <trkpt lat="44.09436" lon="1.31728">
        <ele>80.2</ele>
        <time>2023-07-07T07:33:12Z</time>
      </trkpt>
      <trkpt lat="44.09435" lon="1.31729">
        <ele>80.2</ele>
        <time>2023-07-07T07:33:13Z</time>
      </trkpt>
      <trkpt lat="44.09426" lon="1.31737">
        <ele>80.2</ele>
        <time>2023-07-07T07:33:20Z</time>
      </trkpt>
      <trkpt lat="44.09422" lon="1.31744">
        <ele>79.6</ele>
        <time>2023-07-07T07:33:25Z</time>
      </trkpt>
      <trkpt lat="44.09419" lon="1.31745">
        <ele>79.6</ele>
        <time>2023-07-07T07:33:27Z</time>
      </trkpt>
      <trkpt lat="44.09412" lon="1.31755">
        <ele>79.6</ele>
        <time>2023-07-07T07:33:34Z</time>
      </trkpt>
      <trkpt lat="44.09405" lon="1.3176">
        <ele>79.8</ele>
        <time>2023-07-07T07:33:38Z</time>
      </trkpt>
      <trkpt lat="44.09403" lon="1.31765">
        <ele>79.8</ele>
        <time>2023-07-07T07:33:41Z</time>
      </trkpt>
      <trkpt lat="44.09396" lon="1.31772">
        <ele>79.4</ele>
        <time>2023-07-07T07:33:48Z</time>
      </trkpt>
      <trkpt lat="44.09396" lon="1.31773">
        <ele>79.4</ele>
        <time>2023-07-07T07:33:49Z</time>
      </trkpt>
      <trkpt lat="44.09393" lon="1.31778">
        <ele>79.4</ele>
        <time>2023-07-07T07:33:53Z</time>
      </trkpt>
      <trkpt lat="44.09392" lon="1.31781">
        <ele>79.6</ele>
        <time>2023-07-07T07:33:55Z</time>
      </trkpt>
      <trkpt lat="44.09386" lon="1.31789">
        <ele>79.6</ele>
        <time>2023-07-07T07:34:03Z</time>
      </trkpt>
      <trkpt lat="44.09382" lon="1.31793">
        <ele>79.4</ele>
        <time>2023-07-07T07:34:07Z</time>
      </trkpt>
      <trkpt lat="44.09379" lon="1.31799">
        <ele>79.6</ele>
        <time>2023-07-07T07:34:11Z</time>
      </trkpt>
      <trkpt lat="44.09371" lon="1.3181">
        <ele>79.6</ele>
        <time>2023-07-07T07:34:21Z</time>
      </trkpt>
      <trkpt lat="44.09362" lon="1.31819">
        <ele>80</ele>
        <time>2023-07-07T07:34:29Z</time>
      </trkpt>
      <trkpt lat="44.09358" lon="1.31822">
        <ele>79.8</ele>
        <time>2023-07-07T07:34:32Z</time>
      </trkpt>
      <trkpt lat="44.09352" lon="1.3183">
        <ele>79.4</ele>
        <time>2023-07-07T07:34:39Z</time>
      </trkpt>
      <trkpt lat="44.0935" lon="1.31834">
        <ele>79.4</ele>
        <time>2023-07-07T07:34:42Z</time>
      </trkpt>
      <trkpt lat="44.09348" lon="1.31836">
        <ele>79.6</ele>
        <time>2023-07-07T07:34:43Z</time>
      </trkpt>
      <trkpt lat="44.09347" lon="1.31838">
        <ele>79.8</ele>
        <time>2023-07-07T07:34:45Z</time>
      </trkpt>
      <trkpt lat="44.0934" lon="1.31846">
        <ele>80</ele>
        <time>2023-07-07T07:34:52Z</time>
      </trkpt>
      <trkpt lat="44.09337" lon="1.31849">
        <ele>80</ele>
        <time>2023-07-07T07:34:55Z</time>
      </trkpt>
      <trkpt lat="44.09334" lon="1.31852">
        <ele>80</ele>
        <time>2023-07-07T07:34:59Z</time>
      </trkpt>
      <trkpt lat="44.09333" lon="1.31853">
        <ele>80</ele>
        <time>2023-07-07T07:35:00Z</time>
      </trkpt>
      <trkpt lat="44.09324" lon="1.31861">
        <ele>79.6</ele>
        <time>2023-07-07T07:35:09Z</time>
      </trkpt>
      <trkpt lat="44.09322" lon="1.31863">
        <ele>80</ele>
        <time>2023-07-07T07:35:12Z</time>
      </trkpt>
      <trkpt lat="44.09318" lon="1.31867">
        <ele>80</ele>
        <time>2023-07-07T07:35:16Z</time>
      </trkpt>
      <trkpt lat="44.09317" lon="1.31868">
        <ele>80</ele>
        <time>2023-07-07T07:35:17Z</time>
      </trkpt>
      <trkpt lat="44.09313" lon="1.31875">
        <ele>80</ele>
        <time>2023-07-07T07:35:23Z</time>
      </trkpt>
      <trkpt lat="44.09311" lon="1.31877">
        <ele>80</ele>
        <time>2023-07-07T07:35:25Z</time>
      </trkpt>
      <trkpt lat="44.09307" lon="1.31885">
        <ele>80</ele>
        <time>2023-07-07T07:35:30Z</time>
      </trkpt>
      <trkpt lat="44.09306" lon="1.31886">
        <ele>79.8</ele>
        <time>2023-07-07T07:35:33Z</time>
      </trkpt>
      <trkpt lat="44.09301" lon="1.31893">
        <ele>79.6</ele>
        <time>2023-07-07T07:35:40Z</time>
      </trkpt>
      <trkpt lat="44.09296" lon="1.31901">
        <ele>79.6</ele>
        <time>2023-07-07T07:35:46Z</time>
      </trkpt>
      <trkpt lat="44.09294" lon="1.31903">
        <ele>79.6</ele>
        <time>2023-07-07T07:35:48Z</time>
      </trkpt>
      <trkpt lat="44.0929" lon="1.31906">
        <ele>79.6</ele>
        <time>2023-07-07T07:35:51Z</time>
      </trkpt>
      <trkpt lat="44.09288" lon="1.31908">
        <ele>79.6</ele>
        <time>2023-07-07T07:35:53Z</time>
      </trkpt>
      <trkpt lat="44.09285" lon="1.31909">
        <ele>79.6</ele>
        <time>2023-07-07T07:35:55Z</time>
      </trkpt>
      <trkpt lat="44.09281" lon="1.31916">
        <ele>79.8</ele>
        <time>2023-07-07T07:36:00Z</time>
      </trkpt>
      <trkpt lat="44.09276" lon="1.31924">
        <ele>79.4</ele>
        <time>2023-07-07T07:36:05Z</time>
      </trkpt>
      <trkpt lat="44.09273" lon="1.31927">
        <ele>79.6</ele>
        <time>2023-07-07T07:36:08Z</time>
      </trkpt>
      <trkpt lat="44.0927" lon="1.31933">
        <ele>79.6</ele>
        <time>2023-07-07T07:36:12Z</time>
      </trkpt>
      <trkpt lat="44.09263" lon="1.31943">
        <ele>79.4</ele>
        <time>2023-07-07T07:36:20Z</time>
      </trkpt>
      <trkpt lat="44.0926" lon="1.31945">
        <ele>79.2</ele>
        <time>2023-07-07T07:36:22Z</time>
      </trkpt>
      <trkpt lat="44.09259" lon="1.31946">
        <ele>79.4</ele>
        <time>2023-07-07T07:36:23Z</time>
      </trkpt>
      <trkpt lat="44.09257" lon="1.31947">
        <ele>79.4</ele>
        <time>2023-07-07T07:36:24Z</time>
      </trkpt>
      <trkpt lat="44.09253" lon="1.31953">
        <ele>79.4</ele>
        <time>2023-07-07T07:36:28Z</time>
      </trkpt>
      <trkpt lat="44.0925" lon="1.31958">
        <ele>79.4</ele>
        <time>2023-07-07T07:36:32Z</time>
      </trkpt>
      <trkpt lat="44.09247" lon="1.31963">
        <ele>79.4</ele>
        <time>2023-07-07T07:36:36Z</time>
      </trkpt>
      <trkpt lat="44.09242" lon="1.3197">
        <ele>79.8</ele>
        <time>2023-07-07T07:36:44Z</time>
      </trkpt>
      <trkpt lat="44.09241" lon="1.31971">
        <ele>79.8</ele>
        <time>2023-07-07T07:36:45Z</time>
      </trkpt>
      <trkpt lat="44.09234" lon="1.31981">
        <ele>79.6</ele>
        <time>2023-07-07T07:36:52Z</time>
      </trkpt>
      <trkpt lat="44.09232" lon="1.31984">
        <ele>79.6</ele>
        <time>2023-07-07T07:36:54Z</time>
      </trkpt>
      <trkpt lat="44.0923" lon="1.31986">
        <ele>79.6</ele>
        <time>2023-07-07T07:36:57Z</time>
      </trkpt>
      <trkpt lat="44.09227" lon="1.3199">
        <ele>79.6</ele>
        <time>2023-07-07T07:37:00Z</time>
      </trkpt>
      <trkpt lat="44.09224" lon="1.31993">
        <ele>79.8</ele>
        <time>2023-07-07T07:37:03Z</time>
      </trkpt>
      <trkpt lat="44.09223" lon="1.31996">
        <ele>79.8</ele>
        <time>2023-07-07T07:37:05Z</time>
      </trkpt>
      <trkpt lat="44.0922" lon="1.32001">
        <ele>79.4</ele>
        <time>2023-07-07T07:37:10Z</time>
      </trkpt>
      <trkpt lat="44.09219" lon="1.32001">
        <ele>79.6</ele>
        <time>2023-07-07T07:37:11Z</time>
      </trkpt>
      <trkpt lat="44.09217" lon="1.32006">
        <ele>79.4</ele>
        <time>2023-07-07T07:37:15Z</time>
      </trkpt>
      <trkpt lat="44.09214" lon="1.32011">
        <ele>79.4</ele>
        <time>2023-07-07T07:37:18Z</time>
      </trkpt>
      <trkpt lat="44.09206" lon="1.32025">
        <ele>79.4</ele>
        <time>2023-07-07T07:37:27Z</time>
      </trkpt>
      <trkpt lat="44.09205" lon="1.32029">
        <ele>79.4</ele>
        <time>2023-07-07T07:37:29Z</time>
      </trkpt>
      <trkpt lat="44.09201" lon="1.32042">
        <ele>79.2</ele>
        <time>2023-07-07T07:37:34Z</time>
      </trkpt>
      <trkpt lat="44.09198" lon="1.32047">
        <ele>79.2</ele>
        <time>2023-07-07T07:37:37Z</time>
      </trkpt>
      <trkpt lat="44.09195" lon="1.32054">
        <ele>79</ele>
        <time>2023-07-07T07:37:41Z</time>
      </trkpt>
      <trkpt lat="44.09192" lon="1.32058">
        <ele>78.8</ele>
        <time>2023-07-07T07:37:43Z</time>
      </trkpt>
      <trkpt lat="44.09191" lon="1.3206">
        <ele>79</ele>
        <time>2023-07-07T07:37:44Z</time>
      </trkpt>
      <trkpt lat="44.0919" lon="1.32061">
        <ele>78.8</ele>
        <time>2023-07-07T07:37:45Z</time>
      </trkpt>
      <trkpt lat="44.09189" lon="1.32063">
        <ele>78.8</ele>
        <time>2023-07-07T07:37:46Z</time>
      </trkpt>
      <trkpt lat="44.09189" lon="1.32064">
        <ele>78.6</ele>
        <time>2023-07-07T07:37:47Z</time>
      </trkpt>
      <trkpt lat="44.09189" lon="1.32066">
        <ele>78.6</ele>
        <time>2023-07-07T07:37:48Z</time>
      </trkpt>
      <trkpt lat="44.09189" lon="1.32068">
        <ele>78.6</ele>
        <time>2023-07-07T07:37:49Z</time>
      </trkpt>
      <trkpt lat="44.09185" lon="1.32075">
        <ele>78.8</ele>
        <time>2023-07-07T07:37:55Z</time>
      </trkpt>
      <trkpt lat="44.09184" lon="1.32076">
        <ele>79</ele>
        <time>2023-07-07T07:37:56Z</time>
      </trkpt>
      <trkpt lat="44.09183" lon="1.32079">
        <ele>79</ele>
        <time>2023-07-07T07:37:58Z</time>
      </trkpt>
      <trkpt lat="44.09183" lon="1.3208">
        <ele>79</ele>
        <time>2023-07-07T07:37:59Z</time>
      </trkpt>
      <trkpt lat="44.09183" lon="1.32082">
        <ele>79</ele>
        <time>2023-07-07T07:38:01Z</time>
      </trkpt>
      <trkpt lat="44.09182" lon="1.32084">
        <ele>79</ele>
        <time>2023-07-07T07:38:03Z</time>
      </trkpt>
      <trkpt lat="44.09181" lon="1.32085">
        <ele>79.2</ele>
        <time>2023-07-07T07:38:04Z</time>
      </trkpt>
      <trkpt lat="44.09177" lon="1.32089">
        <ele>79</ele>
        <time>2023-07-07T07:38:08Z</time>
      </trkpt>
      <trkpt lat="44.09176" lon="1.32089">
        <ele>79</ele>
        <time>2023-07-07T07:38:09Z</time>
      </trkpt>
      <trkpt lat="44.09174" lon="1.32092">
        <ele>79</ele>
        <time>2023-07-07T07:38:11Z</time>
      </trkpt>
      <trkpt lat="44.09173" lon="1.32093">
        <ele>79</ele>
        <time>2023-07-07T07:38:12Z</time>
      </trkpt>
      <trkpt lat="44.0917" lon="1.32097">
        <ele>79</ele>
        <time>2023-07-07T07:38:15Z</time>
      </trkpt>
      <trkpt lat="44.09169" lon="1.32098">
        <ele>79</ele>
        <time>2023-07-07T07:38:16Z</time>
      </trkpt>
      <trkpt lat="44.09164" lon="1.32104">
        <ele>79.2</ele>
        <time>2023-07-07T07:38:21Z</time>
      </trkpt>
      <trkpt lat="44.09162" lon="1.32107">
        <ele>79.2</ele>
        <time>2023-07-07T07:38:23Z</time>
      </trkpt>
      <trkpt lat="44.09158" lon="1.32116">
        <ele>79.4</ele>
        <time>2023-07-07T07:38:31Z</time>
      </trkpt>
      <trkpt lat="44.09155" lon="1.32122">
        <ele>79.4</ele>
        <time>2023-07-07T07:38:35Z</time>
      </trkpt>
      <trkpt lat="44.09153" lon="1.32126">
        <ele>79.4</ele>
        <time>2023-07-07T07:38:38Z</time>
      </trkpt>
      <trkpt lat="44.09153" lon="1.32127">
        <ele>79.4</ele>
        <time>2023-07-07T07:38:39Z</time>
      </trkpt>
      <trkpt lat="44.09152" lon="1.32133">
        <ele>79.4</ele>
        <time>2023-07-07T07:38:43Z</time>
      </trkpt>
      <trkpt lat="44.09149" lon="1.32139">
        <ele>79.4</ele>
        <time>2023-07-07T07:38:46Z</time>
      </trkpt>
      <trkpt lat="44.09148" lon="1.32142">
        <ele>79.4</ele>
        <time>2023-07-07T07:38:48Z</time>
      </trkpt>
      <trkpt lat="44.09146" lon="1.32147">
        <ele>79.4</ele>
        <time>2023-07-07T07:38:51Z</time>
      </trkpt>
      <trkpt lat="44.09144" lon="1.3215">
        <ele>79.4</ele>
        <time>2023-07-07T07:38:54Z</time>
      </trkpt>
      <trkpt lat="44.09144" lon="1.32151">
        <ele>79.4</ele>
        <time>2023-07-07T07:38:55Z</time>
      </trkpt>
      <trkpt lat="44.09143" lon="1.32152">
        <ele>79.4</ele>
        <time>2023-07-07T07:38:56Z</time>
      </trkpt>
      <trkpt lat="44.0914" lon="1.32155">
        <ele>79.6</ele>
        <time>2023-07-07T07:38:58Z</time>
      </trkpt>
      <trkpt lat="44.09136" lon="1.32161">
        <ele>79.4</ele>
        <time>2023-07-07T07:39:02Z</time>
      </trkpt>
      <trkpt lat="44.09135" lon="1.32162">
        <ele>79.4</ele>
        <time>2023-07-07T07:39:03Z</time>
      </trkpt>
      <trkpt lat="44.0913" lon="1.32169">
        <ele>79.2</ele>
        <time>2023-07-07T07:39:08Z</time>
      </trkpt>
      <trkpt lat="44.09127" lon="1.32175">
        <ele>79.4</ele>
        <time>2023-07-07T07:39:13Z</time>
      </trkpt>
      <trkpt lat="44.09126" lon="1.3218">
        <ele>79.2</ele>
        <time>2023-07-07T07:39:16Z</time>
      </trkpt>
      <trkpt lat="44.09121" lon="1.32189">
        <ele>79</ele>
        <time>2023-07-07T07:39:23Z</time>
      </trkpt>
      <trkpt lat="44.09121" lon="1.32191">
        <ele>79</ele>
        <time>2023-07-07T07:39:25Z</time>
      </trkpt>
      <trkpt lat="44.0912" lon="1.32194">
        <ele>79</ele>
        <time>2023-07-07T07:39:27Z</time>
      </trkpt>
      <trkpt lat="44.09119" lon="1.32197">
        <ele>79</ele>
        <time>2023-07-07T07:39:29Z</time>
      </trkpt>
      <trkpt lat="44.09118" lon="1.32199">
        <ele>79</ele>
        <time>2023-07-07T07:39:30Z</time>
      </trkpt>
      <trkpt lat="44.09111" lon="1.3221">
        <ele>78.8</ele>
        <time>2023-07-07T07:39:37Z</time>
      </trkpt>
      <trkpt lat="44.0911" lon="1.32213">
        <ele>78.8</ele>
        <time>2023-07-07T07:39:39Z</time>
      </trkpt>
      <trkpt lat="44.09108" lon="1.32217">
        <ele>79</ele>
        <time>2023-07-07T07:39:42Z</time>
      </trkpt>
      <trkpt lat="44.09107" lon="1.32223">
        <ele>79.2</ele>
        <time>2023-07-07T07:39:46Z</time>
      </trkpt>
      <trkpt lat="44.09102" lon="1.32238">
        <ele>78.8</ele>
        <time>2023-07-07T07:39:54Z</time>
      </trkpt>
      <trkpt lat="44.091" lon="1.32246">
        <ele>79</ele>
        <time>2023-07-07T07:39:59Z</time>
      </trkpt>
      <trkpt lat="44.09098" lon="1.32249">
        <ele>79</ele>
        <time>2023-07-07T07:40:01Z</time>
      </trkpt>
      <trkpt lat="44.09095" lon="1.32255">
        <ele>79</ele>
        <time>2023-07-07T07:40:05Z</time>
      </trkpt>
      <trkpt lat="44.09093" lon="1.3226">
        <ele>79</ele>
        <time>2023-07-07T07:40:08Z</time>
      </trkpt>
      <trkpt lat="44.09089" lon="1.32272">
        <ele>79</ele>
        <time>2023-07-07T07:40:15Z</time>
      </trkpt>
      <trkpt lat="44.09086" lon="1.3228">
        <ele>79</ele>
        <time>2023-07-07T07:40:20Z</time>
      </trkpt>
      <trkpt lat="44.09084" lon="1.32283">
        <ele>79</ele>
        <time>2023-07-07T07:40:22Z</time>
      </trkpt>
      <trkpt lat="44.09078" lon="1.32292">
        <ele>78.6</ele>
        <time>2023-07-07T07:40:29Z</time>
      </trkpt>
      <trkpt lat="44.09078" lon="1.32294">
        <ele>78.6</ele>
        <time>2023-07-07T07:40:30Z</time>
      </trkpt>
      <trkpt lat="44.09075" lon="1.32298">
        <ele>78.6</ele>
        <time>2023-07-07T07:40:33Z</time>
      </trkpt>
      <trkpt lat="44.09073" lon="1.32305">
        <ele>79</ele>
        <time>2023-07-07T07:40:36Z</time>
      </trkpt>
      <trkpt lat="44.09072" lon="1.32307">
        <ele>79.2</ele>
        <time>2023-07-07T07:40:37Z</time>
      </trkpt>
      <trkpt lat="44.09069" lon="1.32311">
        <ele>79.2</ele>
        <time>2023-07-07T07:40:40Z</time>
      </trkpt>
      <trkpt lat="44.09069" lon="1.32316">
        <ele>79.2</ele>
        <time>2023-07-07T07:40:42Z</time>
      </trkpt>
      <trkpt lat="44.09065" lon="1.3233">
        <ele>79.2</ele>
        <time>2023-07-07T07:40:49Z</time>
      </trkpt>
      <trkpt lat="44.09064" lon="1.32333">
        <ele>79.2</ele>
        <time>2023-07-07T07:40:51Z</time>
      </trkpt>
      <trkpt lat="44.09062" lon="1.3234">
        <ele>79</ele>
        <time>2023-07-07T07:40:56Z</time>
      </trkpt>
      <trkpt lat="44.09059" lon="1.32349">
        <ele>79</ele>
        <time>2023-07-07T07:41:02Z</time>
      </trkpt>
      <trkpt lat="44.09054" lon="1.32357">
        <ele>79.2</ele>
        <time>2023-07-07T07:41:09Z</time>
      </trkpt>
      <trkpt lat="44.09048" lon="1.32369">
        <ele>78.8</ele>
        <time>2023-07-07T07:41:18Z</time>
      </trkpt>
      <trkpt lat="44.0904" lon="1.32379">
        <ele>79.2</ele>
        <time>2023-07-07T07:41:26Z</time>
      </trkpt>
      <trkpt lat="44.09039" lon="1.32381">
        <ele>79.2</ele>
        <time>2023-07-07T07:41:27Z</time>
      </trkpt>
      <trkpt lat="44.0903" lon="1.32395">
        <ele>79.4</ele>
        <time>2023-07-07T07:41:35Z</time>
      </trkpt>
      <trkpt lat="44.09024" lon="1.32403">
        <ele>79.4</ele>
        <time>2023-07-07T07:41:41Z</time>
      </trkpt>
      <trkpt lat="44.09024" lon="1.32405">
        <ele>79.4</ele>
        <time>2023-07-07T07:41:42Z</time>
      </trkpt>
      <trkpt lat="44.09023" lon="1.32407">
        <ele>79.2</ele>
        <time>2023-07-07T07:41:43Z</time>
      </trkpt>
      <trkpt lat="44.09017" lon="1.32421">
        <ele>79.6</ele>
        <time>2023-07-07T07:41:52Z</time>
      </trkpt>
      <trkpt lat="44.09012" lon="1.32431">
        <ele>79.2</ele>
        <time>2023-07-07T07:41:59Z</time>
      </trkpt>
      <trkpt lat="44.09009" lon="1.32442">
        <ele>79.4</ele>
        <time>2023-07-07T07:42:06Z</time>
      </trkpt>
      <trkpt lat="44.09005" lon="1.32453">
        <ele>79.4</ele>
        <time>2023-07-07T07:42:13Z</time>
      </trkpt>
      <trkpt lat="44.09002" lon="1.32459">
        <ele>79.2</ele>
        <time>2023-07-07T07:42:18Z</time>
      </trkpt>
      <trkpt lat="44.09001" lon="1.32463">
        <ele>79</ele>
        <time>2023-07-07T07:42:21Z</time>
      </trkpt>
      <trkpt lat="44.09" lon="1.32464">
        <ele>79</ele>
        <time>2023-07-07T07:42:22Z</time>
      </trkpt>
      <trkpt lat="44.08996" lon="1.32475">
        <ele>79.6</ele>
        <time>2023-07-07T07:42:30Z</time>
      </trkpt>
      <trkpt lat="44.08992" lon="1.32486">
        <ele>79.8</ele>
        <time>2023-07-07T07:42:37Z</time>
      </trkpt>
      <trkpt lat="44.08991" lon="1.32488">
        <ele>79.6</ele>
        <time>2023-07-07T07:42:38Z</time>
      </trkpt>
      <trkpt lat="44.08987" lon="1.32498">
        <ele>79.6</ele>
        <time>2023-07-07T07:42:43Z</time>
      </trkpt>
      <trkpt lat="44.08985" lon="1.32503">
        <ele>79.8</ele>
        <time>2023-07-07T07:42:46Z</time>
      </trkpt>
      <trkpt lat="44.08983" lon="1.32508">
        <ele>79.8</ele>
        <time>2023-07-07T07:42:50Z</time>
      </trkpt>
      <trkpt lat="44.08979" lon="1.32515">
        <ele>80</ele>
        <time>2023-07-07T07:42:55Z</time>
      </trkpt>
      <trkpt lat="44.08976" lon="1.32527">
        <ele>80.2</ele>
        <time>2023-07-07T07:43:01Z</time>
      </trkpt>
      <trkpt lat="44.08974" lon="1.32535">
        <ele>80.2</ele>
        <time>2023-07-07T07:43:06Z</time>
      </trkpt>
      <trkpt lat="44.08972" lon="1.32538">
        <ele>80.4</ele>
        <time>2023-07-07T07:43:08Z</time>
      </trkpt>
      <trkpt lat="44.08966" lon="1.32548">
        <ele>80.2</ele>
        <time>2023-07-07T07:43:15Z</time>
      </trkpt>
      <trkpt lat="44.0896" lon="1.32559">
        <ele>80.2</ele>
        <time>2023-07-07T07:43:23Z</time>
      </trkpt>
      <trkpt lat="44.08956" lon="1.32568">
        <ele>80.6</ele>
        <time>2023-07-07T07:43:29Z</time>
      </trkpt>
      <trkpt lat="44.08953" lon="1.32573">
        <ele>80.6</ele>
        <time>2023-07-07T07:43:33Z</time>
      </trkpt>
      <trkpt lat="44.08952" lon="1.32576">
        <ele>80.6</ele>
        <time>2023-07-07T07:43:35Z</time>
      </trkpt>
      <trkpt lat="44.08949" lon="1.32585">
        <ele>80.4</ele>
        <time>2023-07-07T07:43:41Z</time>
      </trkpt>
      <trkpt lat="44.08948" lon="1.32586">
        <ele>80.2</ele>
        <time>2023-07-07T07:43:42Z</time>
      </trkpt>
      <trkpt lat="44.08946" lon="1.32594">
        <ele>80.2</ele>
        <time>2023-07-07T07:43:48Z</time>
      </trkpt>
      <trkpt lat="44.0894" lon="1.32606">
        <ele>80.2</ele>
        <time>2023-07-07T07:43:56Z</time>
      </trkpt>
      <trkpt lat="44.0894" lon="1.32608">
        <ele>80.6</ele>
        <time>2023-07-07T07:43:57Z</time>
      </trkpt>
      <trkpt lat="44.08939" lon="1.3261">
        <ele>80.6</ele>
        <time>2023-07-07T07:43:58Z</time>
      </trkpt>
      <trkpt lat="44.08936" lon="1.32618">
        <ele>80.4</ele>
        <time>2023-07-07T07:44:03Z</time>
      </trkpt>
      <trkpt lat="44.08933" lon="1.32624">
        <ele>80.4</ele>
        <time>2023-07-07T07:44:06Z</time>
      </trkpt>
      <trkpt lat="44.08931" lon="1.32627">
        <ele>80.4</ele>
        <time>2023-07-07T07:44:08Z</time>
      </trkpt>
      <trkpt lat="44.08929" lon="1.32632">
        <ele>80.2</ele>
        <time>2023-07-07T07:44:11Z</time>
      </trkpt>
      <trkpt lat="44.08928" lon="1.3264">
        <ele>80.4</ele>
        <time>2023-07-07T07:44:16Z</time>
      </trkpt>
      <trkpt lat="44.08928" lon="1.32642">
        <ele>80.4</ele>
        <time>2023-07-07T07:44:17Z</time>
      </trkpt>
      <trkpt lat="44.08924" lon="1.32653">
        <ele>80</ele>
        <time>2023-07-07T07:44:25Z</time>
      </trkpt>
      <trkpt lat="44.08923" lon="1.32654">
        <ele>80</ele>
        <time>2023-07-07T07:44:26Z</time>
      </trkpt>
      <trkpt lat="44.08916" lon="1.32667">
        <ele>80</ele>
        <time>2023-07-07T07:44:35Z</time>
      </trkpt>
      <trkpt lat="44.08914" lon="1.32673">
        <ele>80</ele>
        <time>2023-07-07T07:44:38Z</time>
      </trkpt>
      <trkpt lat="44.08913" lon="1.32675">
        <ele>80</ele>
        <time>2023-07-07T07:44:40Z</time>
      </trkpt>
      <trkpt lat="44.08912" lon="1.32677">
        <ele>80</ele>
        <time>2023-07-07T07:44:41Z</time>
      </trkpt>
      <trkpt lat="44.0891" lon="1.32679">
        <ele>79.6</ele>
        <time>2023-07-07T07:44:43Z</time>
      </trkpt>
      <trkpt lat="44.08909" lon="1.3268">
        <ele>79.4</ele>
        <time>2023-07-07T07:44:44Z</time>
      </trkpt>
      <trkpt lat="44.08908" lon="1.32681">
        <ele>79.4</ele>
        <time>2023-07-07T07:44:45Z</time>
      </trkpt>
      <trkpt lat="44.08905" lon="1.32685">
        <ele>79.6</ele>
        <time>2023-07-07T07:44:49Z</time>
      </trkpt>
      <trkpt lat="44.08903" lon="1.32688">
        <ele>79.8</ele>
        <time>2023-07-07T07:44:52Z</time>
      </trkpt>
      <trkpt lat="44.08902" lon="1.32691">
        <ele>79.8</ele>
        <time>2023-07-07T07:44:54Z</time>
      </trkpt>
      <trkpt lat="44.08899" lon="1.32693">
        <ele>79.8</ele>
        <time>2023-07-07T07:44:56Z</time>
      </trkpt>
      <trkpt lat="44.08896" lon="1.32696">
        <ele>80</ele>
        <time>2023-07-07T07:44:59Z</time>
      </trkpt>
      <trkpt lat="44.08892" lon="1.327">
        <ele>79.8</ele>
        <time>2023-07-07T07:45:02Z</time>
      </trkpt>
      <trkpt lat="44.08885" lon="1.32708">
        <ele>79.6</ele>
        <time>2023-07-07T07:45:08Z</time>
      </trkpt>
      <trkpt lat="44.08875" lon="1.32717">
        <ele>79.6</ele>
        <time>2023-07-07T07:45:17Z</time>
      </trkpt>
      <trkpt lat="44.08873" lon="1.32719">
        <ele>79.8</ele>
        <time>2023-07-07T07:45:19Z</time>
      </trkpt>
      <trkpt lat="44.08872" lon="1.32719">
        <ele>79.8</ele>
        <time>2023-07-07T07:45:20Z</time>
      </trkpt>
      <trkpt lat="44.08869" lon="1.3272">
        <ele>80</ele>
        <time>2023-07-07T07:45:23Z</time>
      </trkpt>
      <trkpt lat="44.08863" lon="1.32725">
        <ele>79.6</ele>
        <time>2023-07-07T07:45:29Z</time>
      </trkpt>
      <trkpt lat="44.08859" lon="1.32728">
        <ele>79.6</ele>
        <time>2023-07-07T07:45:34Z</time>
      </trkpt>
      <trkpt lat="44.08854" lon="1.32731">
        <ele>79.6</ele>
        <time>2023-07-07T07:45:38Z</time>
      </trkpt>
      <trkpt lat="44.08842" lon="1.32738">
        <ele>79.6</ele>
        <time>2023-07-07T07:45:47Z</time>
      </trkpt>
      <trkpt lat="44.08837" lon="1.32738">
        <ele>79.2</ele>
        <time>2023-07-07T07:45:51Z</time>
      </trkpt>
      <trkpt lat="44.08832" lon="1.32739">
        <ele>79.4</ele>
        <time>2023-07-07T07:45:54Z</time>
      </trkpt>
      <trkpt lat="44.08821" lon="1.3274">
        <ele>79.8</ele>
        <time>2023-07-07T07:46:02Z</time>
      </trkpt>
      <trkpt lat="44.08816" lon="1.32739">
        <ele>79.8</ele>
        <time>2023-07-07T07:46:06Z</time>
      </trkpt>
      <trkpt lat="44.08809" lon="1.32735">
        <ele>79.8</ele>
        <time>2023-07-07T07:46:11Z</time>
      </trkpt>
      <trkpt lat="44.08804" lon="1.32733">
        <ele>80</ele>
        <time>2023-07-07T07:46:15Z</time>
      </trkpt>
      <trkpt lat="44.08798" lon="1.32729">
        <ele>80</ele>
        <time>2023-07-07T07:46:20Z</time>
      </trkpt>
      <trkpt lat="44.08796" lon="1.32728">
        <ele>79.8</ele>
        <time>2023-07-07T07:46:22Z</time>
      </trkpt>
      <trkpt lat="44.08789" lon="1.32725">
        <ele>80</ele>
        <time>2023-07-07T07:46:27Z</time>
      </trkpt>
      <trkpt lat="44.08786" lon="1.32724">
        <ele>80.2</ele>
        <time>2023-07-07T07:46:30Z</time>
      </trkpt>
      <trkpt lat="44.08774" lon="1.32723">
        <ele>80.6</ele>
        <time>2023-07-07T07:46:39Z</time>
      </trkpt>
      <trkpt lat="44.08772" lon="1.32724">
        <ele>80.6</ele>
        <time>2023-07-07T07:46:41Z</time>
      </trkpt>
      <trkpt lat="44.08765" lon="1.32724">
        <ele>80.2</ele>
        <time>2023-07-07T07:46:46Z</time>
      </trkpt>
      <trkpt lat="44.08763" lon="1.32724">
        <ele>80</ele>
        <time>2023-07-07T07:46:47Z</time>
      </trkpt>
      <trkpt lat="44.08762" lon="1.32724">
        <ele>80</ele>
        <time>2023-07-07T07:46:48Z</time>
      </trkpt>
      <trkpt lat="44.0876" lon="1.32724">
        <ele>80</ele>
        <time>2023-07-07T07:46:49Z</time>
      </trkpt>
      <trkpt lat="44.08759" lon="1.32724">
        <ele>79.8</ele>
        <time>2023-07-07T07:46:50Z</time>
      </trkpt>
      <trkpt lat="44.08756" lon="1.32725">
        <ele>80</ele>
        <time>2023-07-07T07:46:52Z</time>
      </trkpt>
      <trkpt lat="44.08751" lon="1.32727">
        <ele>79.8</ele>
        <time>2023-07-07T07:46:56Z</time>
      </trkpt>
      <trkpt lat="44.08743" lon="1.32733">
        <ele>80</ele>
        <time>2023-07-07T07:47:03Z</time>
      </trkpt>
      <trkpt lat="44.08741" lon="1.32733">
        <ele>80</ele>
        <time>2023-07-07T07:47:04Z</time>
      </trkpt>
      <trkpt lat="44.08733" lon="1.32736">
        <ele>80.2</ele>
        <time>2023-07-07T07:47:11Z</time>
      </trkpt>
      <trkpt lat="44.0873" lon="1.32738">
        <ele>80.4</ele>
        <time>2023-07-07T07:47:13Z</time>
      </trkpt>
      <trkpt lat="44.08724" lon="1.32743">
        <ele>80.4</ele>
        <time>2023-07-07T07:47:18Z</time>
      </trkpt>
      <trkpt lat="44.08721" lon="1.32745">
        <ele>80.4</ele>
        <time>2023-07-07T07:47:21Z</time>
      </trkpt>
      <trkpt lat="44.08711" lon="1.32753">
        <ele>80.4</ele>
        <time>2023-07-07T07:47:30Z</time>
      </trkpt>
      <trkpt lat="44.087" lon="1.3276">
        <ele>80.4</ele>
        <time>2023-07-07T07:47:39Z</time>
      </trkpt>
      <trkpt lat="44.08696" lon="1.32762">
        <ele>80.6</ele>
        <time>2023-07-07T07:47:42Z</time>
      </trkpt>
      <trkpt lat="44.08695" lon="1.32763">
        <ele>80.6</ele>
        <time>2023-07-07T07:47:43Z</time>
      </trkpt>
      <trkpt lat="44.08694" lon="1.32764">
        <ele>80.6</ele>
        <time>2023-07-07T07:47:44Z</time>
      </trkpt>
      <trkpt lat="44.0869" lon="1.32766">
        <ele>81</ele>
        <time>2023-07-07T07:47:47Z</time>
      </trkpt>
      <trkpt lat="44.08689" lon="1.32767">
        <ele>81</ele>
        <time>2023-07-07T07:47:48Z</time>
      </trkpt>
      <trkpt lat="44.08681" lon="1.32771">
        <ele>81</ele>
        <time>2023-07-07T07:47:54Z</time>
      </trkpt>
      <trkpt lat="44.0868" lon="1.32772">
        <ele>80.8</ele>
        <time>2023-07-07T07:47:55Z</time>
      </trkpt>
      <trkpt lat="44.08669" lon="1.32779">
        <ele>80.8</ele>
        <time>2023-07-07T07:48:05Z</time>
      </trkpt>
      <trkpt lat="44.08661" lon="1.32783">
        <ele>81.2</ele>
        <time>2023-07-07T07:48:12Z</time>
      </trkpt>
      <trkpt lat="44.08658" lon="1.32786">
        <ele>81.2</ele>
        <time>2023-07-07T07:48:15Z</time>
      </trkpt>
      <trkpt lat="44.08649" lon="1.32791">
        <ele>81.2</ele>
        <time>2023-07-07T07:48:22Z</time>
      </trkpt>
      <trkpt lat="44.08644" lon="1.32794">
        <ele>81.4</ele>
        <time>2023-07-07T07:48:26Z</time>
      </trkpt>
      <trkpt lat="44.08639" lon="1.32796">
        <ele>81.2</ele>
        <time>2023-07-07T07:48:31Z</time>
      </trkpt>
      <trkpt lat="44.08631" lon="1.32801">
        <ele>81.4</ele>
        <time>2023-07-07T07:48:38Z</time>
      </trkpt>
      <trkpt lat="44.08628" lon="1.32803">
        <ele>81.2</ele>
        <time>2023-07-07T07:48:41Z</time>
      </trkpt>
      <trkpt lat="44.08624" lon="1.32806">
        <ele>81.2</ele>
        <time>2023-07-07T07:48:45Z</time>
      </trkpt>
      <trkpt lat="44.08616" lon="1.32812">
        <ele>81.4</ele>
        <time>2023-07-07T07:48:51Z</time>
      </trkpt>
      <trkpt lat="44.08616" lon="1.32813">
        <ele>81.4</ele>
        <time>2023-07-07T07:48:52Z</time>
      </trkpt>
      <trkpt lat="44.08612" lon="1.32815">
        <ele>81.4</ele>
        <time>2023-07-07T07:48:55Z</time>
      </trkpt>
      <trkpt lat="44.08608" lon="1.32819">
        <ele>81.4</ele>
        <time>2023-07-07T07:48:59Z</time>
      </trkpt>
      <trkpt lat="44.08601" lon="1.32826">
        <ele>81.6</ele>
        <time>2023-07-07T07:49:05Z</time>
      </trkpt>
      <trkpt lat="44.08598" lon="1.32829">
        <ele>81.6</ele>
        <time>2023-07-07T07:49:08Z</time>
      </trkpt>
      <trkpt lat="44.08594" lon="1.32833">
        <ele>81.4</ele>
        <time>2023-07-07T07:49:11Z</time>
      </trkpt>
      <trkpt lat="44.08589" lon="1.32838">
        <ele>81.6</ele>
        <time>2023-07-07T07:49:16Z</time>
      </trkpt>
      <trkpt lat="44.08581" lon="1.32843">
        <ele>81.8</ele>
        <time>2023-07-07T07:49:23Z</time>
      </trkpt>
      <trkpt lat="44.08578" lon="1.32845">
        <ele>81.8</ele>
        <time>2023-07-07T07:49:26Z</time>
      </trkpt>
      <trkpt lat="44.08577" lon="1.32846">
        <ele>81.8</ele>
        <time>2023-07-07T07:49:27Z</time>
      </trkpt>
      <trkpt lat="44.08572" lon="1.32849">
        <ele>81.8</ele>
        <time>2023-07-07T07:49:31Z</time>
      </trkpt>
      <trkpt lat="44.08566" lon="1.32852">
        <ele>81.8</ele>
        <time>2023-07-07T07:49:36Z</time>
      </trkpt>
      <trkpt lat="44.0856" lon="1.32854">
        <ele>81.6</ele>
        <time>2023-07-07T07:49:41Z</time>
      </trkpt>
      <trkpt lat="44.08557" lon="1.32856">
        <ele>81.6</ele>
        <time>2023-07-07T07:49:43Z</time>
      </trkpt>
      <trkpt lat="44.08549" lon="1.32862">
        <ele>81.6</ele>
        <time>2023-07-07T07:49:49Z</time>
      </trkpt>
      <trkpt lat="44.08548" lon="1.32863">
        <ele>81.4</ele>
        <time>2023-07-07T07:49:50Z</time>
      </trkpt>
      <trkpt lat="44.08545" lon="1.32864">
        <ele>81.2</ele>
        <time>2023-07-07T07:49:52Z</time>
      </trkpt>
      <trkpt lat="44.08536" lon="1.32869">
        <ele>81.2</ele>
        <time>2023-07-07T07:50:00Z</time>
      </trkpt>
      <trkpt lat="44.08531" lon="1.32872">
        <ele>81.4</ele>
        <time>2023-07-07T07:50:05Z</time>
      </trkpt>
      <trkpt lat="44.08527" lon="1.32875">
        <ele>81.4</ele>
        <time>2023-07-07T07:50:08Z</time>
      </trkpt>
      <trkpt lat="44.08526" lon="1.32876">
        <ele>81.6</ele>
        <time>2023-07-07T07:50:09Z</time>
      </trkpt>
      <trkpt lat="44.08524" lon="1.32876">
        <ele>81.4</ele>
        <time>2023-07-07T07:50:11Z</time>
      </trkpt>
      <trkpt lat="44.08518" lon="1.32881">
        <ele>81.4</ele>
        <time>2023-07-07T07:50:16Z</time>
      </trkpt>
      <trkpt lat="44.08517" lon="1.32881">
        <ele>81.4</ele>
        <time>2023-07-07T07:50:17Z</time>
      </trkpt>
      <trkpt lat="44.08514" lon="1.32883">
        <ele>81.4</ele>
        <time>2023-07-07T07:50:19Z</time>
      </trkpt>
      <trkpt lat="44.08507" lon="1.32889">
        <ele>81.8</ele>
        <time>2023-07-07T07:50:27Z</time>
      </trkpt>
      <trkpt lat="44.08496" lon="1.32899">
        <ele>82</ele>
        <time>2023-07-07T07:50:36Z</time>
      </trkpt>
      <trkpt lat="44.08487" lon="1.32905">
        <ele>81.6</ele>
        <time>2023-07-07T07:50:45Z</time>
      </trkpt>
      <trkpt lat="44.08477" lon="1.32913">
        <ele>81.8</ele>
        <time>2023-07-07T07:50:54Z</time>
      </trkpt>
      <trkpt lat="44.08468" lon="1.3292">
        <ele>81.6</ele>
        <time>2023-07-07T07:51:02Z</time>
      </trkpt>
      <trkpt lat="44.08467" lon="1.32921">
        <ele>81.6</ele>
        <time>2023-07-07T07:51:03Z</time>
      </trkpt>
      <trkpt lat="44.08461" lon="1.32926">
        <ele>82</ele>
        <time>2023-07-07T07:51:08Z</time>
      </trkpt>
      <trkpt lat="44.08458" lon="1.3293">
        <ele>82</ele>
        <time>2023-07-07T07:51:11Z</time>
      </trkpt>
      <trkpt lat="44.08456" lon="1.32931">
        <ele>81.8</ele>
        <time>2023-07-07T07:51:13Z</time>
      </trkpt>
      <trkpt lat="44.08448" lon="1.32936">
        <ele>81.6</ele>
        <time>2023-07-07T07:51:20Z</time>
      </trkpt>
      <trkpt lat="44.08437" lon="1.32945">
        <ele>81.6</ele>
        <time>2023-07-07T07:51:29Z</time>
      </trkpt>
      <trkpt lat="44.08423" lon="1.32953">
        <ele>81.6</ele>
        <time>2023-07-07T07:51:40Z</time>
      </trkpt>
      <trkpt lat="44.08415" lon="1.32958">
        <ele>81.8</ele>
        <time>2023-07-07T07:51:47Z</time>
      </trkpt>
      <trkpt lat="44.08406" lon="1.32965">
        <ele>82</ele>
        <time>2023-07-07T07:51:56Z</time>
      </trkpt>
      <trkpt lat="44.08395" lon="1.32972">
        <ele>82</ele>
        <time>2023-07-07T07:52:05Z</time>
      </trkpt>
      <trkpt lat="44.08384" lon="1.32978">
        <ele>82</ele>
        <time>2023-07-07T07:52:14Z</time>
      </trkpt>
      <trkpt lat="44.08376" lon="1.32982">
        <ele>81.8</ele>
        <time>2023-07-07T07:52:20Z</time>
      </trkpt>
      <trkpt lat="44.08365" lon="1.32983">
        <ele>81.6</ele>
        <time>2023-07-07T07:52:28Z</time>
      </trkpt>
      <trkpt lat="44.08355" lon="1.32987">
        <ele>81.6</ele>
        <time>2023-07-07T07:52:36Z</time>
      </trkpt>
      <trkpt lat="44.08345" lon="1.3299">
        <ele>81.4</ele>
        <time>2023-07-07T07:52:44Z</time>
      </trkpt>
      <trkpt lat="44.08339" lon="1.32993">
        <ele>81.2</ele>
        <time>2023-07-07T07:52:49Z</time>
      </trkpt>
      <trkpt lat="44.08336" lon="1.32994">
        <ele>81</ele>
        <time>2023-07-07T07:52:51Z</time>
      </trkpt>
      <trkpt lat="44.08334" lon="1.32995">
        <ele>81</ele>
        <time>2023-07-07T07:52:53Z</time>
      </trkpt>
      <trkpt lat="44.08325" lon="1.32999">
        <ele>81.4</ele>
        <time>2023-07-07T07:53:00Z</time>
      </trkpt>
      <trkpt lat="44.08316" lon="1.33003">
        <ele>81</ele>
        <time>2023-07-07T07:53:07Z</time>
      </trkpt>
      <trkpt lat="44.08306" lon="1.3301">
        <ele>81.4</ele>
        <time>2023-07-07T07:53:16Z</time>
      </trkpt>
      <trkpt lat="44.08298" lon="1.33015">
        <ele>81.2</ele>
        <time>2023-07-07T07:53:23Z</time>
      </trkpt>
      <trkpt lat="44.08286" lon="1.3302">
        <ele>81</ele>
        <time>2023-07-07T07:53:32Z</time>
      </trkpt>
      <trkpt lat="44.0828" lon="1.33023">
        <ele>81</ele>
        <time>2023-07-07T07:53:38Z</time>
      </trkpt>
      <trkpt lat="44.08278" lon="1.33024">
        <ele>81.2</ele>
        <time>2023-07-07T07:53:40Z</time>
      </trkpt>
      <trkpt lat="44.08276" lon="1.33026">
        <ele>81.2</ele>
        <time>2023-07-07T07:53:41Z</time>
      </trkpt>
      <trkpt lat="44.08264" lon="1.33033">
        <ele>81.4</ele>
        <time>2023-07-07T07:53:50Z</time>
      </trkpt>
      <trkpt lat="44.08263" lon="1.33034">
        <ele>81.4</ele>
        <time>2023-07-07T07:53:51Z</time>
      </trkpt>
      <trkpt lat="44.08255" lon="1.33038">
        <ele>81.4</ele>
        <time>2023-07-07T07:53:57Z</time>
      </trkpt>
      <trkpt lat="44.08253" lon="1.33039">
        <ele>81.4</ele>
        <time>2023-07-07T07:53:59Z</time>
      </trkpt>
      <trkpt lat="44.08244" lon="1.33044">
        <ele>81</ele>
        <time>2023-07-07T07:54:06Z</time>
      </trkpt>
      <trkpt lat="44.08241" lon="1.33045">
        <ele>80.8</ele>
        <time>2023-07-07T07:54:08Z</time>
      </trkpt>
      <trkpt lat="44.08236" lon="1.33048">
        <ele>80.8</ele>
        <time>2023-07-07T07:54:13Z</time>
      </trkpt>
      <trkpt lat="44.08227" lon="1.33055">
        <ele>81</ele>
        <time>2023-07-07T07:54:20Z</time>
      </trkpt>
      <trkpt lat="44.08221" lon="1.3306">
        <ele>81</ele>
        <time>2023-07-07T07:54:26Z</time>
      </trkpt>
      <trkpt lat="44.08217" lon="1.33063">
        <ele>80.8</ele>
        <time>2023-07-07T07:54:30Z</time>
      </trkpt>
      <trkpt lat="44.08211" lon="1.33067">
        <ele>80.6</ele>
        <time>2023-07-07T07:54:34Z</time>
      </trkpt>
      <trkpt lat="44.08207" lon="1.33071">
        <ele>81</ele>
        <time>2023-07-07T07:54:38Z</time>
      </trkpt>
      <trkpt lat="44.08202" lon="1.33081">
        <ele>81</ele>
        <time>2023-07-07T07:54:45Z</time>
      </trkpt>
      <trkpt lat="44.08199" lon="1.3309">
        <ele>80.8</ele>
        <time>2023-07-07T07:54:50Z</time>
      </trkpt>
      <trkpt lat="44.08197" lon="1.33095">
        <ele>80.6</ele>
        <time>2023-07-07T07:54:53Z</time>
      </trkpt>
      <trkpt lat="44.08196" lon="1.33108">
        <ele>80.6</ele>
        <time>2023-07-07T07:55:00Z</time>
      </trkpt>
      <trkpt lat="44.08196" lon="1.3311">
        <ele>80.6</ele>
        <time>2023-07-07T07:55:01Z</time>
      </trkpt>
      <trkpt lat="44.08195" lon="1.33122">
        <ele>80.8</ele>
        <time>2023-07-07T07:55:07Z</time>
      </trkpt>
      <trkpt lat="44.08195" lon="1.33131">
        <ele>80.8</ele>
        <time>2023-07-07T07:55:12Z</time>
      </trkpt>
      <trkpt lat="44.08196" lon="1.33135">
        <ele>81</ele>
        <time>2023-07-07T07:55:14Z</time>
      </trkpt>
      <trkpt lat="44.08196" lon="1.33137">
        <ele>81</ele>
        <time>2023-07-07T07:55:15Z</time>
      </trkpt>
      <trkpt lat="44.08197" lon="1.33152">
        <ele>80.8</ele>
        <time>2023-07-07T07:55:24Z</time>
      </trkpt>
      <trkpt lat="44.08198" lon="1.33158">
        <ele>80.8</ele>
        <time>2023-07-07T07:55:28Z</time>
      </trkpt>
      <trkpt lat="44.08198" lon="1.33163">
        <ele>80.8</ele>
        <time>2023-07-07T07:55:31Z</time>
      </trkpt>
      <trkpt lat="44.08198" lon="1.33167">
        <ele>80.8</ele>
        <time>2023-07-07T07:55:33Z</time>
      </trkpt>
      <trkpt lat="44.08198" lon="1.33174">
        <ele>80.8</ele>
        <time>2023-07-07T07:55:37Z</time>
      </trkpt>
      <trkpt lat="44.08198" lon="1.33182">
        <ele>80.8</ele>
        <time>2023-07-07T07:55:41Z</time>
      </trkpt>
      <trkpt lat="44.08196" lon="1.33188">
        <ele>81.2</ele>
        <time>2023-07-07T07:55:45Z</time>
      </trkpt>
      <trkpt lat="44.08196" lon="1.33191">
        <ele>81.4</ele>
        <time>2023-07-07T07:55:47Z</time>
      </trkpt>
      <trkpt lat="44.08197" lon="1.33197">
        <ele>81.2</ele>
        <time>2023-07-07T07:55:50Z</time>
      </trkpt>
      <trkpt lat="44.08196" lon="1.332">
        <ele>81</ele>
        <time>2023-07-07T07:55:52Z</time>
      </trkpt>
      <trkpt lat="44.08196" lon="1.33207">
        <ele>81</ele>
        <time>2023-07-07T07:55:56Z</time>
      </trkpt>
      <trkpt lat="44.08196" lon="1.3322">
        <ele>81</ele>
        <time>2023-07-07T07:56:03Z</time>
      </trkpt>
      <trkpt lat="44.08194" lon="1.3323">
        <ele>81</ele>
        <time>2023-07-07T07:56:09Z</time>
      </trkpt>
      <trkpt lat="44.08194" lon="1.33233">
        <ele>81</ele>
        <time>2023-07-07T07:56:10Z</time>
      </trkpt>
      <trkpt lat="44.08193" lon="1.33234">
        <ele>81</ele>
        <time>2023-07-07T07:56:11Z</time>
      </trkpt>
      <trkpt lat="44.08194" lon="1.33242">
        <ele>80.8</ele>
        <time>2023-07-07T07:56:15Z</time>
      </trkpt>
      <trkpt lat="44.08193" lon="1.33247">
        <ele>80.8</ele>
        <time>2023-07-07T07:56:18Z</time>
      </trkpt>
      <trkpt lat="44.08192" lon="1.33252">
        <ele>80.8</ele>
        <time>2023-07-07T07:56:21Z</time>
      </trkpt>
      <trkpt lat="44.08192" lon="1.33253">
        <ele>80.8</ele>
        <time>2023-07-07T07:56:22Z</time>
      </trkpt>
      <trkpt lat="44.0819" lon="1.33263">
        <ele>80.8</ele>
        <time>2023-07-07T07:56:27Z</time>
      </trkpt>
      <trkpt lat="44.08186" lon="1.33264">
        <ele>81.8</ele>
        <time>2023-07-07T07:58:08Z</time>
      </trkpt>
      <trkpt lat="44.08179" lon="1.33266">
        <ele>81.6</ele>
        <time>2023-07-07T07:58:14Z</time>
      </trkpt>
      <trkpt lat="44.08178" lon="1.33267">
        <ele>81.6</ele>
        <time>2023-07-07T07:58:15Z</time>
      </trkpt>
      <trkpt lat="44.08174" lon="1.33269">
        <ele>81.6</ele>
        <time>2023-07-07T07:58:20Z</time>
      </trkpt>
      <trkpt lat="44.0816" lon="1.33269">
        <ele>81.8</ele>
        <time>2023-07-07T07:58:30Z</time>
      </trkpt>
      <trkpt lat="44.08158" lon="1.33269">
        <ele>81.6</ele>
        <time>2023-07-07T07:58:32Z</time>
      </trkpt>
      <trkpt lat="44.08157" lon="1.33269">
        <ele>81.6</ele>
        <time>2023-07-07T07:58:33Z</time>
      </trkpt>
      <trkpt lat="44.08155" lon="1.33269">
        <ele>81.4</ele>
        <time>2023-07-07T07:58:35Z</time>
      </trkpt>
      <trkpt lat="44.08153" lon="1.3327">
        <ele>81.6</ele>
        <time>2023-07-07T07:58:36Z</time>
      </trkpt>
      <trkpt lat="44.08152" lon="1.3327">
        <ele>81.6</ele>
        <time>2023-07-07T07:58:37Z</time>
      </trkpt>
      <trkpt lat="44.0815" lon="1.3327">
        <ele>81.6</ele>
        <time>2023-07-07T07:58:38Z</time>
      </trkpt>
      <trkpt lat="44.08149" lon="1.3327">
        <ele>81.6</ele>
        <time>2023-07-07T07:58:39Z</time>
      </trkpt>
      <trkpt lat="44.08148" lon="1.33269">
        <ele>81.6</ele>
        <time>2023-07-07T07:58:40Z</time>
      </trkpt>
      <trkpt lat="44.08144" lon="1.33269">
        <ele>81.4</ele>
        <time>2023-07-07T07:58:44Z</time>
      </trkpt>
      <trkpt lat="44.08143" lon="1.33269">
        <ele>81.4</ele>
        <time>2023-07-07T07:58:45Z</time>
      </trkpt>
      <trkpt lat="44.08138" lon="1.33268">
        <ele>81.4</ele>
        <time>2023-07-07T07:58:49Z</time>
      </trkpt>
      <trkpt lat="44.08134" lon="1.33269">
        <ele>81.6</ele>
        <time>2023-07-07T07:58:53Z</time>
      </trkpt>
      <trkpt lat="44.08132" lon="1.33269">
        <ele>81.6</ele>
        <time>2023-07-07T07:58:55Z</time>
      </trkpt>
      <trkpt lat="44.08128" lon="1.33269">
        <ele>81.6</ele>
        <time>2023-07-07T07:58:58Z</time>
      </trkpt>
      <trkpt lat="44.08121" lon="1.3327">
        <ele>81.6</ele>
        <time>2023-07-07T07:59:03Z</time>
      </trkpt>
      <trkpt lat="44.08117" lon="1.33271">
        <ele>81.6</ele>
        <time>2023-07-07T07:59:06Z</time>
      </trkpt>
      <trkpt lat="44.08116" lon="1.33271">
        <ele>81.6</ele>
        <time>2023-07-07T07:59:07Z</time>
      </trkpt>
      <trkpt lat="44.08114" lon="1.33271">
        <ele>81.6</ele>
        <time>2023-07-07T07:59:09Z</time>
      </trkpt>
      <trkpt lat="44.08112" lon="1.33271">
        <ele>81.8</ele>
        <time>2023-07-07T07:59:11Z</time>
      </trkpt>
      <trkpt lat="44.08099" lon="1.33272">
        <ele>81.2</ele>
        <time>2023-07-07T07:59:22Z</time>
      </trkpt>
      <trkpt lat="44.08098" lon="1.33273">
        <ele>81.2</ele>
        <time>2023-07-07T07:59:23Z</time>
      </trkpt>
      <trkpt lat="44.08092" lon="1.33273">
        <ele>81.2</ele>
        <time>2023-07-07T07:59:28Z</time>
      </trkpt>
      <trkpt lat="44.08086" lon="1.33274">
        <ele>81.4</ele>
        <time>2023-07-07T07:59:34Z</time>
      </trkpt>
      <trkpt lat="44.08085" lon="1.33274">
        <ele>81.4</ele>
        <time>2023-07-07T07:59:35Z</time>
      </trkpt>
      <trkpt lat="44.0808" lon="1.33275">
        <ele>81.6</ele>
        <time>2023-07-07T07:59:40Z</time>
      </trkpt>
      <trkpt lat="44.08076" lon="1.33275">
        <ele>81.4</ele>
        <time>2023-07-07T07:59:43Z</time>
      </trkpt>
      <trkpt lat="44.08065" lon="1.33278">
        <ele>81.4</ele>
        <time>2023-07-07T07:59:51Z</time>
      </trkpt>
      <trkpt lat="44.08055" lon="1.33279">
        <ele>81.4</ele>
        <time>2023-07-07T07:59:59Z</time>
      </trkpt>
      <trkpt lat="44.08052" lon="1.3328">
        <ele>81.4</ele>
        <time>2023-07-07T08:00:01Z</time>
      </trkpt>
      <trkpt lat="44.08051" lon="1.3328">
        <ele>81.4</ele>
        <time>2023-07-07T08:00:02Z</time>
      </trkpt>
      <trkpt lat="44.08047" lon="1.33281">
        <ele>81.4</ele>
        <time>2023-07-07T08:00:05Z</time>
      </trkpt>
      <trkpt lat="44.08045" lon="1.33282">
        <ele>81.4</ele>
        <time>2023-07-07T08:00:07Z</time>
      </trkpt>
      <trkpt lat="44.08033" lon="1.33283">
        <ele>81.4</ele>
        <time>2023-07-07T08:00:17Z</time>
      </trkpt>
      <trkpt lat="44.08029" lon="1.33284">
        <ele>81.4</ele>
        <time>2023-07-07T08:00:20Z</time>
      </trkpt>
      <trkpt lat="44.08024" lon="1.33285">
        <ele>81.4</ele>
        <time>2023-07-07T08:00:24Z</time>
      </trkpt>
      <trkpt lat="44.08018" lon="1.33285">
        <ele>81.6</ele>
        <time>2023-07-07T08:00:29Z</time>
      </trkpt>
      <trkpt lat="44.08009" lon="1.33286">
        <ele>81.6</ele>
        <time>2023-07-07T08:00:36Z</time>
      </trkpt>
      <trkpt lat="44.08006" lon="1.33286">
        <ele>81.8</ele>
        <time>2023-07-07T08:00:38Z</time>
      </trkpt>
      <trkpt lat="44.07995" lon="1.33286">
        <ele>81.6</ele>
        <time>2023-07-07T08:00:47Z</time>
      </trkpt>
      <trkpt lat="44.07992" lon="1.33287">
        <ele>81.6</ele>
        <time>2023-07-07T08:00:50Z</time>
      </trkpt>
      <trkpt lat="44.07991" lon="1.33287">
        <ele>81.6</ele>
        <time>2023-07-07T08:00:51Z</time>
      </trkpt>
      <trkpt lat="44.07982" lon="1.33287">
        <ele>81.6</ele>
        <time>2023-07-07T08:00:57Z</time>
      </trkpt>
      <trkpt lat="44.07977" lon="1.33288">
        <ele>81.6</ele>
        <time>2023-07-07T08:01:02Z</time>
      </trkpt>
      <trkpt lat="44.07976" lon="1.33287">
        <ele>81.8</ele>
        <time>2023-07-07T08:01:03Z</time>
      </trkpt>
      <trkpt lat="44.07974" lon="1.33287">
        <ele>81.8</ele>
        <time>2023-07-07T08:01:05Z</time>
      </trkpt>
      <trkpt lat="44.07972" lon="1.33287">
        <ele>81.8</ele>
        <time>2023-07-07T08:01:06Z</time>
      </trkpt>
      <trkpt lat="44.07964" lon="1.33287">
        <ele>81.8</ele>
        <time>2023-07-07T08:01:14Z</time>
      </trkpt>
      <trkpt lat="44.07962" lon="1.33287">
        <ele>82</ele>
        <time>2023-07-07T08:01:16Z</time>
      </trkpt>
      <trkpt lat="44.0795" lon="1.33285">
        <ele>82.2</ele>
        <time>2023-07-07T08:01:26Z</time>
      </trkpt>
      <trkpt lat="44.07948" lon="1.33286">
        <ele>82.4</ele>
        <time>2023-07-07T08:01:28Z</time>
      </trkpt>
      <trkpt lat="44.07944" lon="1.33285">
        <ele>82</ele>
        <time>2023-07-07T08:01:31Z</time>
      </trkpt>
      <trkpt lat="44.07942" lon="1.33285">
        <ele>82</ele>
        <time>2023-07-07T08:01:33Z</time>
      </trkpt>
      <trkpt lat="44.07934" lon="1.33282">
        <ele>82.2</ele>
        <time>2023-07-07T08:01:39Z</time>
      </trkpt>
      <trkpt lat="44.07933" lon="1.33282">
        <ele>82.2</ele>
        <time>2023-07-07T08:01:40Z</time>
      </trkpt>
      <trkpt lat="44.07929" lon="1.33281">
        <ele>82</ele>
        <time>2023-07-07T08:01:43Z</time>
      </trkpt>
      <trkpt lat="44.07917" lon="1.33279">
        <ele>82</ele>
        <time>2023-07-07T08:01:53Z</time>
      </trkpt>
      <trkpt lat="44.07915" lon="1.3328">
        <ele>82</ele>
        <time>2023-07-07T08:01:55Z</time>
      </trkpt>
      <trkpt lat="44.07908" lon="1.33279">
        <ele>82.2</ele>
        <time>2023-07-07T08:02:00Z</time>
      </trkpt>
      <trkpt lat="44.07897" lon="1.33277">
        <ele>82.2</ele>
        <time>2023-07-07T08:02:08Z</time>
      </trkpt>
      <trkpt lat="44.0789" lon="1.33278">
        <ele>82.4</ele>
        <time>2023-07-07T08:02:14Z</time>
      </trkpt>
      <trkpt lat="44.07883" lon="1.33278">
        <ele>82.6</ele>
        <time>2023-07-07T08:02:19Z</time>
      </trkpt>
      <trkpt lat="44.07878" lon="1.33277">
        <ele>82.6</ele>
        <time>2023-07-07T08:02:23Z</time>
      </trkpt>
      <trkpt lat="44.07876" lon="1.33277">
        <ele>82.6</ele>
        <time>2023-07-07T08:02:24Z</time>
      </trkpt>
      <trkpt lat="44.07875" lon="1.33277">
        <ele>82.6</ele>
        <time>2023-07-07T08:02:25Z</time>
      </trkpt>
      <trkpt lat="44.07872" lon="1.33277">
        <ele>82.6</ele>
        <time>2023-07-07T08:02:27Z</time>
      </trkpt>
      <trkpt lat="44.07864" lon="1.33275">
        <ele>82.6</ele>
        <time>2023-07-07T08:02:34Z</time>
      </trkpt>
      <trkpt lat="44.07861" lon="1.33274">
        <ele>82.4</ele>
        <time>2023-07-07T08:02:37Z</time>
      </trkpt>
      <trkpt lat="44.07855" lon="1.33273">
        <ele>82.8</ele>
        <time>2023-07-07T08:02:43Z</time>
      </trkpt>
      <trkpt lat="44.07848" lon="1.33272">
        <ele>82.8</ele>
        <time>2023-07-07T08:02:49Z</time>
      </trkpt>
      <trkpt lat="44.07842" lon="1.33271">
        <ele>82.8</ele>
        <time>2023-07-07T08:02:53Z</time>
      </trkpt>
      <trkpt lat="44.07841" lon="1.3327">
        <ele>83</ele>
        <time>2023-07-07T08:02:54Z</time>
      </trkpt>
      <trkpt lat="44.07835" lon="1.33269">
        <ele>82.8</ele>
        <time>2023-07-07T08:03:00Z</time>
      </trkpt>
      <trkpt lat="44.07828" lon="1.33268">
        <ele>82.8</ele>
        <time>2023-07-07T08:03:05Z</time>
      </trkpt>
      <trkpt lat="44.07822" lon="1.33266">
        <ele>83</ele>
        <time>2023-07-07T08:03:10Z</time>
      </trkpt>
      <trkpt lat="44.07817" lon="1.33264">
        <ele>82.8</ele>
        <time>2023-07-07T08:03:14Z</time>
      </trkpt>
      <trkpt lat="44.07806" lon="1.3326">
        <ele>83</ele>
        <time>2023-07-07T08:03:23Z</time>
      </trkpt>
      <trkpt lat="44.07797" lon="1.33259">
        <ele>83.2</ele>
        <time>2023-07-07T08:03:29Z</time>
      </trkpt>
      <trkpt lat="44.0779" lon="1.33259">
        <ele>83.2</ele>
        <time>2023-07-07T08:03:34Z</time>
      </trkpt>
      <trkpt lat="44.07782" lon="1.33257">
        <ele>83</ele>
        <time>2023-07-07T08:03:40Z</time>
      </trkpt>
      <trkpt lat="44.0778" lon="1.33256">
        <ele>83</ele>
        <time>2023-07-07T08:03:42Z</time>
      </trkpt>
      <trkpt lat="44.07777" lon="1.33255">
        <ele>83.2</ele>
        <time>2023-07-07T08:03:44Z</time>
      </trkpt>
      <trkpt lat="44.07776" lon="1.33254">
        <ele>83.4</ele>
        <time>2023-07-07T08:03:45Z</time>
      </trkpt>
      <trkpt lat="44.07774" lon="1.33253">
        <ele>83.4</ele>
        <time>2023-07-07T08:03:47Z</time>
      </trkpt>
      <trkpt lat="44.07765" lon="1.33249">
        <ele>83.4</ele>
        <time>2023-07-07T08:03:56Z</time>
      </trkpt>
      <trkpt lat="44.07754" lon="1.33244">
        <ele>83</ele>
        <time>2023-07-07T08:04:05Z</time>
      </trkpt>
      <trkpt lat="44.07743" lon="1.33238">
        <ele>82.6</ele>
        <time>2023-07-07T08:04:15Z</time>
      </trkpt>
      <trkpt lat="44.07735" lon="1.33234">
        <ele>83</ele>
        <time>2023-07-07T08:04:22Z</time>
      </trkpt>
      <trkpt lat="44.07725" lon="1.33227">
        <ele>82.8</ele>
        <time>2023-07-07T08:04:31Z</time>
      </trkpt>
      <trkpt lat="44.07718" lon="1.33223">
        <ele>83.2</ele>
        <time>2023-07-07T08:04:37Z</time>
      </trkpt>
      <trkpt lat="44.07714" lon="1.33219">
        <ele>83</ele>
        <time>2023-07-07T08:04:41Z</time>
      </trkpt>
      <trkpt lat="44.07708" lon="1.33215">
        <ele>83</ele>
        <time>2023-07-07T08:04:47Z</time>
      </trkpt>
      <trkpt lat="44.07703" lon="1.33212">
        <ele>83</ele>
        <time>2023-07-07T08:04:51Z</time>
      </trkpt>
      <trkpt lat="44.07692" lon="1.33208">
        <ele>82.8</ele>
        <time>2023-07-07T08:04:59Z</time>
      </trkpt>
      <trkpt lat="44.07688" lon="1.33205">
        <ele>82.6</ele>
        <time>2023-07-07T08:05:03Z</time>
      </trkpt>
      <trkpt lat="44.07681" lon="1.33198">
        <ele>82.6</ele>
        <time>2023-07-07T08:05:10Z</time>
      </trkpt>
      <trkpt lat="44.07676" lon="1.33193">
        <ele>82.4</ele>
        <time>2023-07-07T08:05:15Z</time>
      </trkpt>
      <trkpt lat="44.07674" lon="1.33192">
        <ele>82.4</ele>
        <time>2023-07-07T08:05:17Z</time>
      </trkpt>
      <trkpt lat="44.07669" lon="1.3319">
        <ele>82.4</ele>
        <time>2023-07-07T08:05:21Z</time>
      </trkpt>
      <trkpt lat="44.07664" lon="1.33189">
        <ele>82.4</ele>
        <time>2023-07-07T08:05:25Z</time>
      </trkpt>
      <trkpt lat="44.07652" lon="1.33183">
        <ele>82.8</ele>
        <time>2023-07-07T08:05:35Z</time>
      </trkpt>
      <trkpt lat="44.07645" lon="1.3318">
        <ele>82.4</ele>
        <time>2023-07-07T08:05:42Z</time>
      </trkpt>
      <trkpt lat="44.07644" lon="1.33179">
        <ele>82.4</ele>
        <time>2023-07-07T08:05:43Z</time>
      </trkpt>
      <trkpt lat="44.07632" lon="1.33173">
        <ele>82.4</ele>
        <time>2023-07-07T08:05:53Z</time>
      </trkpt>
      <trkpt lat="44.07622" lon="1.33168">
        <ele>82.4</ele>
        <time>2023-07-07T08:06:01Z</time>
      </trkpt>
      <trkpt lat="44.07617" lon="1.33166">
        <ele>82.2</ele>
        <time>2023-07-07T08:06:05Z</time>
      </trkpt>
      <trkpt lat="44.07613" lon="1.33166">
        <ele>82.2</ele>
        <time>2023-07-07T08:06:08Z</time>
      </trkpt>
      <trkpt lat="44.07612" lon="1.33166">
        <ele>82.2</ele>
        <time>2023-07-07T08:06:09Z</time>
      </trkpt>
      <trkpt lat="44.07601" lon="1.33163">
        <ele>82.2</ele>
        <time>2023-07-07T08:06:18Z</time>
      </trkpt>
      <trkpt lat="44.07594" lon="1.33162">
        <ele>82.2</ele>
        <time>2023-07-07T08:06:24Z</time>
      </trkpt>
      <trkpt lat="44.07593" lon="1.33162">
        <ele>82.2</ele>
        <time>2023-07-07T08:06:25Z</time>
      </trkpt>
      <trkpt lat="44.07591" lon="1.33162">
        <ele>82.4</ele>
        <time>2023-07-07T08:06:26Z</time>
      </trkpt>
      <trkpt lat="44.07588" lon="1.33161">
        <ele>82.2</ele>
        <time>2023-07-07T08:06:29Z</time>
      </trkpt>
      <trkpt lat="44.07582" lon="1.3316">
        <ele>82.2</ele>
        <time>2023-07-07T08:06:33Z</time>
      </trkpt>
      <trkpt lat="44.07581" lon="1.3316">
        <ele>82.2</ele>
        <time>2023-07-07T08:06:34Z</time>
      </trkpt>
      <trkpt lat="44.0758" lon="1.3316">
        <ele>82</ele>
        <time>2023-07-07T08:06:35Z</time>
      </trkpt>
      <trkpt lat="44.07567" lon="1.3316">
        <ele>81.8</ele>
        <time>2023-07-07T08:06:45Z</time>
      </trkpt>
      <trkpt lat="44.07565" lon="1.33159">
        <ele>81.8</ele>
        <time>2023-07-07T08:06:47Z</time>
      </trkpt>
      <trkpt lat="44.07556" lon="1.33157">
        <ele>82</ele>
        <time>2023-07-07T08:06:54Z</time>
      </trkpt>
      <trkpt lat="44.07552" lon="1.33157">
        <ele>81.8</ele>
        <time>2023-07-07T08:06:57Z</time>
      </trkpt>
      <trkpt lat="44.07546" lon="1.33158">
        <ele>82.2</ele>
        <time>2023-07-07T08:07:02Z</time>
      </trkpt>
      <trkpt lat="44.07537" lon="1.33154">
        <ele>82</ele>
        <time>2023-07-07T08:07:10Z</time>
      </trkpt>
      <trkpt lat="44.07523" lon="1.33156">
        <ele>82.4</ele>
        <time>2023-07-07T08:07:21Z</time>
      </trkpt>
      <trkpt lat="44.07509" lon="1.33156">
        <ele>82.6</ele>
        <time>2023-07-07T08:07:31Z</time>
      </trkpt>
      <trkpt lat="44.07504" lon="1.33157">
        <ele>82.8</ele>
        <time>2023-07-07T08:07:36Z</time>
      </trkpt>
      <trkpt lat="44.07498" lon="1.33157">
        <ele>83</ele>
        <time>2023-07-07T08:07:41Z</time>
      </trkpt>
      <trkpt lat="44.07488" lon="1.33158">
        <ele>83</ele>
        <time>2023-07-07T08:07:48Z</time>
      </trkpt>
      <trkpt lat="44.07485" lon="1.33159">
        <ele>83.2</ele>
        <time>2023-07-07T08:07:50Z</time>
      </trkpt>
      <trkpt lat="44.07481" lon="1.33161">
        <ele>83.6</ele>
        <time>2023-07-07T08:07:54Z</time>
      </trkpt>
      <trkpt lat="44.07476" lon="1.33163">
        <ele>83</ele>
        <time>2023-07-07T08:07:58Z</time>
      </trkpt>
      <trkpt lat="44.07463" lon="1.33167">
        <ele>83.2</ele>
        <time>2023-07-07T08:08:08Z</time>
      </trkpt>
      <trkpt lat="44.07452" lon="1.33169">
        <ele>83</ele>
        <time>2023-07-07T08:08:17Z</time>
      </trkpt>
      <trkpt lat="44.07441" lon="1.33169">
        <ele>82.8</ele>
        <time>2023-07-07T08:08:26Z</time>
      </trkpt>
      <trkpt lat="44.07429" lon="1.33168">
        <ele>83.2</ele>
        <time>2023-07-07T08:08:35Z</time>
      </trkpt>
      <trkpt lat="44.07417" lon="1.33166">
        <ele>83.2</ele>
        <time>2023-07-07T08:08:45Z</time>
      </trkpt>
      <trkpt lat="44.07413" lon="1.33164">
        <ele>83.4</ele>
        <time>2023-07-07T08:08:49Z</time>
      </trkpt>
      <trkpt lat="44.07402" lon="1.33167">
        <ele>84.8</ele>
        <time>2023-07-07T08:41:46Z</time>
      </trkpt>
      <trkpt lat="44.07394" lon="1.33164">
        <ele>85</ele>
        <time>2023-07-07T08:41:54Z</time>
      </trkpt>
      <trkpt lat="44.0739" lon="1.33166">
        <ele>85</ele>
        <time>2023-07-07T08:41:56Z</time>
      </trkpt>
      <trkpt lat="44.07386" lon="1.33166">
        <ele>85</ele>
        <time>2023-07-07T08:42:00Z</time>
      </trkpt>
      <trkpt lat="44.0738" lon="1.33166">
        <ele>85</ele>
        <time>2023-07-07T08:42:05Z</time>
      </trkpt>
      <trkpt lat="44.07377" lon="1.33166">
        <ele>84.8</ele>
        <time>2023-07-07T08:42:08Z</time>
      </trkpt>
      <trkpt lat="44.07375" lon="1.33165">
        <ele>84.8</ele>
        <time>2023-07-07T08:42:09Z</time>
      </trkpt>
      <trkpt lat="44.0737" lon="1.33165">
        <ele>85.2</ele>
        <time>2023-07-07T08:42:14Z</time>
      </trkpt>
      <trkpt lat="44.07362" lon="1.33166">
        <ele>85.2</ele>
        <time>2023-07-07T08:42:20Z</time>
      </trkpt>
      <trkpt lat="44.07355" lon="1.33167">
        <ele>85</ele>
        <time>2023-07-07T08:42:26Z</time>
      </trkpt>
      <trkpt lat="44.07347" lon="1.33169">
        <ele>84.8</ele>
        <time>2023-07-07T08:42:34Z</time>
      </trkpt>
      <trkpt lat="44.07343" lon="1.33171">
        <ele>84.8</ele>
        <time>2023-07-07T08:42:38Z</time>
      </trkpt>
      <trkpt lat="44.0734" lon="1.33172">
        <ele>84.6</ele>
        <time>2023-07-07T08:42:41Z</time>
      </trkpt>
      <trkpt lat="44.07331" lon="1.33176">
        <ele>84.8</ele>
        <time>2023-07-07T08:42:49Z</time>
      </trkpt>
      <trkpt lat="44.07324" lon="1.33178">
        <ele>85</ele>
        <time>2023-07-07T08:42:56Z</time>
      </trkpt>
      <trkpt lat="44.07315" lon="1.33183">
        <ele>84.6</ele>
        <time>2023-07-07T08:43:04Z</time>
      </trkpt>
      <trkpt lat="44.07313" lon="1.33186">
        <ele>84.6</ele>
        <time>2023-07-07T08:43:06Z</time>
      </trkpt>
      <trkpt lat="44.07306" lon="1.33192">
        <ele>84.4</ele>
        <time>2023-07-07T08:43:12Z</time>
      </trkpt>
      <trkpt lat="44.07304" lon="1.33193">
        <ele>84.4</ele>
        <time>2023-07-07T08:43:14Z</time>
      </trkpt>
      <trkpt lat="44.07297" lon="1.33198">
        <ele>84.6</ele>
        <time>2023-07-07T08:43:21Z</time>
      </trkpt>
      <trkpt lat="44.07291" lon="1.33202">
        <ele>84.6</ele>
        <time>2023-07-07T08:43:27Z</time>
      </trkpt>
      <trkpt lat="44.07287" lon="1.33206">
        <ele>84.4</ele>
        <time>2023-07-07T08:43:31Z</time>
      </trkpt>
      <trkpt lat="44.07281" lon="1.3321">
        <ele>84.6</ele>
        <time>2023-07-07T08:43:37Z</time>
      </trkpt>
      <trkpt lat="44.07275" lon="1.33218">
        <ele>85</ele>
        <time>2023-07-07T08:43:44Z</time>
      </trkpt>
      <trkpt lat="44.07274" lon="1.33219">
        <ele>85</ele>
        <time>2023-07-07T08:43:45Z</time>
      </trkpt>
      <trkpt lat="44.07268" lon="1.33225">
        <ele>84.4</ele>
        <time>2023-07-07T08:43:51Z</time>
      </trkpt>
      <trkpt lat="44.07264" lon="1.33229">
        <ele>84.6</ele>
        <time>2023-07-07T08:43:56Z</time>
      </trkpt>
      <trkpt lat="44.07259" lon="1.33235">
        <ele>85</ele>
        <time>2023-07-07T08:44:01Z</time>
      </trkpt>
      <trkpt lat="44.07258" lon="1.33237">
        <ele>85</ele>
        <time>2023-07-07T08:44:02Z</time>
      </trkpt>
      <trkpt lat="44.0725" lon="1.33248">
        <ele>85.4</ele>
        <time>2023-07-07T08:44:10Z</time>
      </trkpt>
      <trkpt lat="44.07246" lon="1.33253">
        <ele>85.2</ele>
        <time>2023-07-07T08:44:15Z</time>
      </trkpt>
      <trkpt lat="44.07243" lon="1.33257">
        <ele>85</ele>
        <time>2023-07-07T08:44:19Z</time>
      </trkpt>
      <trkpt lat="44.07236" lon="1.33268">
        <ele>85.2</ele>
        <time>2023-07-07T08:44:28Z</time>
      </trkpt>
      <trkpt lat="44.0723" lon="1.33275">
        <ele>85.6</ele>
        <time>2023-07-07T08:44:35Z</time>
      </trkpt>
      <trkpt lat="44.07229" lon="1.33276">
        <ele>85.6</ele>
        <time>2023-07-07T08:44:36Z</time>
      </trkpt>
      <trkpt lat="44.07223" lon="1.3328">
        <ele>85.4</ele>
        <time>2023-07-07T08:44:42Z</time>
      </trkpt>
      <trkpt lat="44.07222" lon="1.3328">
        <ele>85.4</ele>
        <time>2023-07-07T08:44:43Z</time>
      </trkpt>
      <trkpt lat="44.07216" lon="1.33287">
        <ele>85.2</ele>
        <time>2023-07-07T08:44:49Z</time>
      </trkpt>
      <trkpt lat="44.07215" lon="1.33288">
        <ele>85.2</ele>
        <time>2023-07-07T08:44:50Z</time>
      </trkpt>
      <trkpt lat="44.07208" lon="1.33296">
        <ele>85.2</ele>
        <time>2023-07-07T08:44:57Z</time>
      </trkpt>
      <trkpt lat="44.07207" lon="1.33297">
        <ele>85.2</ele>
        <time>2023-07-07T08:44:58Z</time>
      </trkpt>
      <trkpt lat="44.07201" lon="1.33302">
        <ele>85.4</ele>
        <time>2023-07-07T08:45:05Z</time>
      </trkpt>
      <trkpt lat="44.07194" lon="1.33306">
        <ele>85</ele>
        <time>2023-07-07T08:45:12Z</time>
      </trkpt>
      <trkpt lat="44.07188" lon="1.3331">
        <ele>85.4</ele>
        <time>2023-07-07T08:45:18Z</time>
      </trkpt>
      <trkpt lat="44.07187" lon="1.33311">
        <ele>85.4</ele>
        <time>2023-07-07T08:45:19Z</time>
      </trkpt>
      <trkpt lat="44.07178" lon="1.33319">
        <ele>85.4</ele>
        <time>2023-07-07T08:45:27Z</time>
      </trkpt>
      <trkpt lat="44.07168" lon="1.33326">
        <ele>85.8</ele>
        <time>2023-07-07T08:45:36Z</time>
      </trkpt>
      <trkpt lat="44.07166" lon="1.33327">
        <ele>85.6</ele>
        <time>2023-07-07T08:45:38Z</time>
      </trkpt>
      <trkpt lat="44.07159" lon="1.33332">
        <ele>86</ele>
        <time>2023-07-07T08:45:45Z</time>
      </trkpt>
      <trkpt lat="44.0715" lon="1.3334">
        <ele>85.8</ele>
        <time>2023-07-07T08:45:53Z</time>
      </trkpt>
      <trkpt lat="44.07149" lon="1.33341">
        <ele>85.8</ele>
        <time>2023-07-07T08:45:54Z</time>
      </trkpt>
      <trkpt lat="44.07144" lon="1.33345">
        <ele>85.8</ele>
        <time>2023-07-07T08:45:58Z</time>
      </trkpt>
      <trkpt lat="44.07141" lon="1.33346">
        <ele>85.8</ele>
        <time>2023-07-07T08:46:01Z</time>
      </trkpt>
      <trkpt lat="44.07134" lon="1.33351">
        <ele>85.8</ele>
        <time>2023-07-07T08:46:08Z</time>
      </trkpt>
      <trkpt lat="44.07132" lon="1.33352">
        <ele>85.6</ele>
        <time>2023-07-07T08:46:10Z</time>
      </trkpt>
      <trkpt lat="44.0713" lon="1.33352">
        <ele>85.4</ele>
        <time>2023-07-07T08:46:12Z</time>
      </trkpt>
      <trkpt lat="44.07127" lon="1.33352">
        <ele>85.6</ele>
        <time>2023-07-07T08:46:15Z</time>
      </trkpt>
      <trkpt lat="44.07123" lon="1.33356">
        <ele>85.6</ele>
        <time>2023-07-07T08:46:19Z</time>
      </trkpt>
      <trkpt lat="44.07119" lon="1.33358">
        <ele>86</ele>
        <time>2023-07-07T08:46:22Z</time>
      </trkpt>
      <trkpt lat="44.07118" lon="1.33359">
        <ele>86</ele>
        <time>2023-07-07T08:46:23Z</time>
      </trkpt>
      <trkpt lat="44.07112" lon="1.33363">
        <ele>86</ele>
        <time>2023-07-07T08:46:29Z</time>
      </trkpt>
      <trkpt lat="44.07108" lon="1.33364">
        <ele>86</ele>
        <time>2023-07-07T08:46:32Z</time>
      </trkpt>
      <trkpt lat="44.07104" lon="1.33368">
        <ele>85.8</ele>
        <time>2023-07-07T08:46:36Z</time>
      </trkpt>
      <trkpt lat="44.071" lon="1.3337">
        <ele>86.2</ele>
        <time>2023-07-07T08:46:41Z</time>
      </trkpt>
      <trkpt lat="44.07095" lon="1.33371">
        <ele>86.2</ele>
        <time>2023-07-07T08:46:45Z</time>
      </trkpt>
      <trkpt lat="44.07094" lon="1.3337">
        <ele>86.2</ele>
        <time>2023-07-07T08:46:46Z</time>
      </trkpt>
      <trkpt lat="44.07086" lon="1.33371">
        <ele>85.8</ele>
        <time>2023-07-07T08:46:53Z</time>
      </trkpt>
      <trkpt lat="44.0708" lon="1.33372">
        <ele>86</ele>
        <time>2023-07-07T08:46:59Z</time>
      </trkpt>
      <trkpt lat="44.07078" lon="1.33372">
        <ele>86</ele>
        <time>2023-07-07T08:47:00Z</time>
      </trkpt>
      <trkpt lat="44.07077" lon="1.33373">
        <ele>86</ele>
        <time>2023-07-07T08:47:01Z</time>
      </trkpt>
      <trkpt lat="44.07076" lon="1.33373">
        <ele>86.2</ele>
        <time>2023-07-07T08:47:02Z</time>
      </trkpt>
      <trkpt lat="44.07072" lon="1.33373">
        <ele>86.2</ele>
        <time>2023-07-07T08:47:04Z</time>
      </trkpt>
      <trkpt lat="44.0707" lon="1.33373">
        <ele>86.2</ele>
        <time>2023-07-07T08:47:07Z</time>
      </trkpt>
      <trkpt lat="44.07063" lon="1.3337">
        <ele>86</ele>
        <time>2023-07-07T08:47:15Z</time>
      </trkpt>
      <trkpt lat="44.07057" lon="1.33368">
        <ele>86</ele>
        <time>2023-07-07T08:47:21Z</time>
      </trkpt>
      <trkpt lat="44.07053" lon="1.33367">
        <ele>85.8</ele>
        <time>2023-07-07T08:47:25Z</time>
      </trkpt>
      <trkpt lat="44.07044" lon="1.33366">
        <ele>85.8</ele>
        <time>2023-07-07T08:47:33Z</time>
      </trkpt>
      <trkpt lat="44.07036" lon="1.33367">
        <ele>85.8</ele>
        <time>2023-07-07T08:47:40Z</time>
      </trkpt>
      <trkpt lat="44.07035" lon="1.33367">
        <ele>85.8</ele>
        <time>2023-07-07T08:47:41Z</time>
      </trkpt>
      <trkpt lat="44.07024" lon="1.3337">
        <ele>85.4</ele>
        <time>2023-07-07T08:47:48Z</time>
      </trkpt>
      <trkpt lat="44.07022" lon="1.3337">
        <ele>85.4</ele>
        <time>2023-07-07T08:47:49Z</time>
      </trkpt>
      <trkpt lat="44.07016" lon="1.33371">
        <ele>85.6</ele>
        <time>2023-07-07T08:47:54Z</time>
      </trkpt>
      <trkpt lat="44.07014" lon="1.33371">
        <ele>85.6</ele>
        <time>2023-07-07T08:47:56Z</time>
      </trkpt>
      <trkpt lat="44.07009" lon="1.3337">
        <ele>85.4</ele>
        <time>2023-07-07T08:48:00Z</time>
      </trkpt>
      <trkpt lat="44.07002" lon="1.33369">
        <ele>85.4</ele>
        <time>2023-07-07T08:48:05Z</time>
      </trkpt>
      <trkpt lat="44.06992" lon="1.33368">
        <ele>84.8</ele>
        <time>2023-07-07T08:48:13Z</time>
      </trkpt>
      <trkpt lat="44.06991" lon="1.33367">
        <ele>84.8</ele>
        <time>2023-07-07T08:48:14Z</time>
      </trkpt>
      <trkpt lat="44.06987" lon="1.33366">
        <ele>84.8</ele>
        <time>2023-07-07T08:48:17Z</time>
      </trkpt>
      <trkpt lat="44.06981" lon="1.33363">
        <ele>84.8</ele>
        <time>2023-07-07T08:48:23Z</time>
      </trkpt>
      <trkpt lat="44.06978" lon="1.33361">
        <ele>84.8</ele>
        <time>2023-07-07T08:48:26Z</time>
      </trkpt>
      <trkpt lat="44.06974" lon="1.33359">
        <ele>84.6</ele>
        <time>2023-07-07T08:48:29Z</time>
      </trkpt>
      <trkpt lat="44.06972" lon="1.33357">
        <ele>84.8</ele>
        <time>2023-07-07T08:48:31Z</time>
      </trkpt>
      <trkpt lat="44.06961" lon="1.3335">
        <ele>84.6</ele>
        <time>2023-07-07T08:48:41Z</time>
      </trkpt>
      <trkpt lat="44.06957" lon="1.33347">
        <ele>84.4</ele>
        <time>2023-07-07T08:48:44Z</time>
      </trkpt>
      <trkpt lat="44.06946" lon="1.33342">
        <ele>84.8</ele>
        <time>2023-07-07T08:48:55Z</time>
      </trkpt>
      <trkpt lat="44.06942" lon="1.3334">
        <ele>84.8</ele>
        <time>2023-07-07T08:48:58Z</time>
      </trkpt>
      <trkpt lat="44.06937" lon="1.33336">
        <ele>84.8</ele>
        <time>2023-07-07T08:49:03Z</time>
      </trkpt>
      <trkpt lat="44.06929" lon="1.33332">
        <ele>85.2</ele>
        <time>2023-07-07T08:49:10Z</time>
      </trkpt>
      <trkpt lat="44.06918" lon="1.3333">
        <ele>85.2</ele>
        <time>2023-07-07T08:49:19Z</time>
      </trkpt>
      <trkpt lat="44.06916" lon="1.3333">
        <ele>85.6</ele>
        <time>2023-07-07T08:49:21Z</time>
      </trkpt>
      <trkpt lat="44.06907" lon="1.3333">
        <ele>85.6</ele>
        <time>2023-07-07T08:49:28Z</time>
      </trkpt>
      <trkpt lat="44.06896" lon="1.33331">
        <ele>85</ele>
        <time>2023-07-07T08:49:37Z</time>
      </trkpt>
      <trkpt lat="44.06894" lon="1.33332">
        <ele>85</ele>
        <time>2023-07-07T08:49:39Z</time>
      </trkpt>
      <trkpt lat="44.06891" lon="1.33332">
        <ele>85</ele>
        <time>2023-07-07T08:49:41Z</time>
      </trkpt>
      <trkpt lat="44.06883" lon="1.33334">
        <ele>85</ele>
        <time>2023-07-07T08:49:47Z</time>
      </trkpt>
      <trkpt lat="44.06882" lon="1.33335">
        <ele>85</ele>
        <time>2023-07-07T08:49:48Z</time>
      </trkpt>
      <trkpt lat="44.06878" lon="1.33335">
        <ele>85</ele>
        <time>2023-07-07T08:49:51Z</time>
      </trkpt>
      <trkpt lat="44.06875" lon="1.33335">
        <ele>85</ele>
        <time>2023-07-07T08:49:54Z</time>
      </trkpt>
      <trkpt lat="44.06863" lon="1.33339">
        <ele>84.8</ele>
        <time>2023-07-07T08:50:03Z</time>
      </trkpt>
      <trkpt lat="44.06862" lon="1.33339">
        <ele>84.6</ele>
        <time>2023-07-07T08:50:04Z</time>
      </trkpt>
      <trkpt lat="44.06857" lon="1.33341">
        <ele>84.6</ele>
        <time>2023-07-07T08:50:08Z</time>
      </trkpt>
      <trkpt lat="44.06852" lon="1.33342">
        <ele>84.8</ele>
        <time>2023-07-07T08:50:12Z</time>
      </trkpt>
      <trkpt lat="44.06844" lon="1.33342">
        <ele>84.8</ele>
        <time>2023-07-07T08:50:19Z</time>
      </trkpt>
      <trkpt lat="44.06843" lon="1.33343">
        <ele>84.8</ele>
        <time>2023-07-07T08:50:20Z</time>
      </trkpt>
      <trkpt lat="44.06841" lon="1.33343">
        <ele>84.8</ele>
        <time>2023-07-07T08:50:21Z</time>
      </trkpt>
      <trkpt lat="44.06836" lon="1.33343">
        <ele>84.6</ele>
        <time>2023-07-07T08:50:25Z</time>
      </trkpt>
      <trkpt lat="44.06831" lon="1.33343">
        <ele>84.6</ele>
        <time>2023-07-07T08:50:29Z</time>
      </trkpt>
      <trkpt lat="44.0682" lon="1.33346">
        <ele>84.6</ele>
        <time>2023-07-07T08:50:39Z</time>
      </trkpt>
      <trkpt lat="44.06816" lon="1.33348">
        <ele>84.4</ele>
        <time>2023-07-07T08:50:43Z</time>
      </trkpt>
      <trkpt lat="44.0681" lon="1.3335">
        <ele>84.4</ele>
        <time>2023-07-07T08:50:47Z</time>
      </trkpt>
      <trkpt lat="44.06809" lon="1.3335">
        <ele>84.4</ele>
        <time>2023-07-07T08:50:48Z</time>
      </trkpt>
      <trkpt lat="44.06806" lon="1.33351">
        <ele>84.6</ele>
        <time>2023-07-07T08:50:51Z</time>
      </trkpt>
      <trkpt lat="44.06803" lon="1.33352">
        <ele>84.4</ele>
        <time>2023-07-07T08:50:53Z</time>
      </trkpt>
      <trkpt lat="44.06801" lon="1.33353">
        <ele>84.4</ele>
        <time>2023-07-07T08:50:55Z</time>
      </trkpt>
      <trkpt lat="44.06799" lon="1.33354">
        <ele>84.4</ele>
        <time>2023-07-07T08:50:56Z</time>
      </trkpt>
      <trkpt lat="44.06798" lon="1.33354">
        <ele>84.4</ele>
        <time>2023-07-07T08:50:57Z</time>
      </trkpt>
      <trkpt lat="44.06796" lon="1.33356">
        <ele>84.4</ele>
        <time>2023-07-07T08:50:59Z</time>
      </trkpt>
      <trkpt lat="44.06794" lon="1.33357">
        <ele>84.6</ele>
        <time>2023-07-07T08:51:01Z</time>
      </trkpt>
      <trkpt lat="44.06792" lon="1.33359">
        <ele>84.6</ele>
        <time>2023-07-07T08:51:03Z</time>
      </trkpt>
      <trkpt lat="44.06788" lon="1.33362">
        <ele>84.8</ele>
        <time>2023-07-07T08:51:06Z</time>
      </trkpt>
      <trkpt lat="44.06787" lon="1.33363">
        <ele>84.8</ele>
        <time>2023-07-07T08:51:07Z</time>
      </trkpt>
      <trkpt lat="44.06781" lon="1.33367">
        <ele>84.8</ele>
        <time>2023-07-07T08:51:12Z</time>
      </trkpt>
      <trkpt lat="44.06778" lon="1.33369">
        <ele>84.6</ele>
        <time>2023-07-07T08:51:14Z</time>
      </trkpt>
      <trkpt lat="44.06777" lon="1.3337">
        <ele>84.6</ele>
        <time>2023-07-07T08:51:15Z</time>
      </trkpt>
      <trkpt lat="44.06772" lon="1.33373">
        <ele>84.6</ele>
        <time>2023-07-07T08:51:19Z</time>
      </trkpt>
      <trkpt lat="44.06766" lon="1.33379">
        <ele>85</ele>
        <time>2023-07-07T08:51:25Z</time>
      </trkpt>
      <trkpt lat="44.0676" lon="1.33383">
        <ele>85</ele>
        <time>2023-07-07T08:51:31Z</time>
      </trkpt>
      <trkpt lat="44.06758" lon="1.33385">
        <ele>84.8</ele>
        <time>2023-07-07T08:51:32Z</time>
      </trkpt>
      <trkpt lat="44.06747" lon="1.33394">
        <ele>84.8</ele>
        <time>2023-07-07T08:51:43Z</time>
      </trkpt>
      <trkpt lat="44.06743" lon="1.33399">
        <ele>84.8</ele>
        <time>2023-07-07T08:51:47Z</time>
      </trkpt>
      <trkpt lat="44.06739" lon="1.33404">
        <ele>85</ele>
        <time>2023-07-07T08:51:51Z</time>
      </trkpt>
      <trkpt lat="44.06735" lon="1.33413">
        <ele>85</ele>
        <time>2023-07-07T08:51:58Z</time>
      </trkpt>
      <trkpt lat="44.06729" lon="1.33423">
        <ele>85</ele>
        <time>2023-07-07T08:52:05Z</time>
      </trkpt>
      <trkpt lat="44.06725" lon="1.33431">
        <ele>84.8</ele>
        <time>2023-07-07T08:52:11Z</time>
      </trkpt>
      <trkpt lat="44.06724" lon="1.33434">
        <ele>84.8</ele>
        <time>2023-07-07T08:52:13Z</time>
      </trkpt>
      <trkpt lat="44.06721" lon="1.33438">
        <ele>84.8</ele>
        <time>2023-07-07T08:52:16Z</time>
      </trkpt>
      <trkpt lat="44.06719" lon="1.33442">
        <ele>85.2</ele>
        <time>2023-07-07T08:52:19Z</time>
      </trkpt>
      <trkpt lat="44.06718" lon="1.33443">
        <ele>85.2</ele>
        <time>2023-07-07T08:52:20Z</time>
      </trkpt>
      <trkpt lat="44.06714" lon="1.33451">
        <ele>85.2</ele>
        <time>2023-07-07T08:52:26Z</time>
      </trkpt>
      <trkpt lat="44.06713" lon="1.33454">
        <ele>85.2</ele>
        <time>2023-07-07T08:52:28Z</time>
      </trkpt>
      <trkpt lat="44.06712" lon="1.33458">
        <ele>85.2</ele>
        <time>2023-07-07T08:52:31Z</time>
      </trkpt>
      <trkpt lat="44.06709" lon="1.33463">
        <ele>85.4</ele>
        <time>2023-07-07T08:52:35Z</time>
      </trkpt>
      <trkpt lat="44.06704" lon="1.33473">
        <ele>85.4</ele>
        <time>2023-07-07T08:52:42Z</time>
      </trkpt>
      <trkpt lat="44.06697" lon="1.3348">
        <ele>85.6</ele>
        <time>2023-07-07T08:52:48Z</time>
      </trkpt>
      <trkpt lat="44.06696" lon="1.33481">
        <ele>85.6</ele>
        <time>2023-07-07T08:52:49Z</time>
      </trkpt>
      <trkpt lat="44.06689" lon="1.33491">
        <ele>85.6</ele>
        <time>2023-07-07T08:52:57Z</time>
      </trkpt>
      <trkpt lat="44.06683" lon="1.33501">
        <ele>85.2</ele>
        <time>2023-07-07T08:53:05Z</time>
      </trkpt>
      <trkpt lat="44.06682" lon="1.33505">
        <ele>85.2</ele>
        <time>2023-07-07T08:53:08Z</time>
      </trkpt>
      <trkpt lat="44.0668" lon="1.33511">
        <ele>85.4</ele>
        <time>2023-07-07T08:53:12Z</time>
      </trkpt>
      <trkpt lat="44.06676" lon="1.33526">
        <ele>85.2</ele>
        <time>2023-07-07T08:53:20Z</time>
      </trkpt>
      <trkpt lat="44.06674" lon="1.3353">
        <ele>85.2</ele>
        <time>2023-07-07T08:53:23Z</time>
      </trkpt>
      <trkpt lat="44.06672" lon="1.33533">
        <ele>85.2</ele>
        <time>2023-07-07T08:53:25Z</time>
      </trkpt>
      <trkpt lat="44.06672" lon="1.33534">
        <ele>85.2</ele>
        <time>2023-07-07T08:53:26Z</time>
      </trkpt>
      <trkpt lat="44.06671" lon="1.33538">
        <ele>85.2</ele>
        <time>2023-07-07T08:53:28Z</time>
      </trkpt>
      <trkpt lat="44.06664" lon="1.33548">
        <ele>85.4</ele>
        <time>2023-07-07T08:53:35Z</time>
      </trkpt>
      <trkpt lat="44.06662" lon="1.33557">
        <ele>85.4</ele>
        <time>2023-07-07T08:53:40Z</time>
      </trkpt>
      <trkpt lat="44.0666" lon="1.33562">
        <ele>85.2</ele>
        <time>2023-07-07T08:53:43Z</time>
      </trkpt>
      <trkpt lat="44.06655" lon="1.33573">
        <ele>85.4</ele>
        <time>2023-07-07T08:53:50Z</time>
      </trkpt>
      <trkpt lat="44.06655" lon="1.33577">
        <ele>85.2</ele>
        <time>2023-07-07T08:53:52Z</time>
      </trkpt>
      <trkpt lat="44.06654" lon="1.33589">
        <ele>85</ele>
        <time>2023-07-07T08:53:59Z</time>
      </trkpt>
      <trkpt lat="44.06653" lon="1.336">
        <ele>84.8</ele>
        <time>2023-07-07T08:54:06Z</time>
      </trkpt>
      <trkpt lat="44.06652" lon="1.33611">
        <ele>84.8</ele>
        <time>2023-07-07T08:54:12Z</time>
      </trkpt>
      <trkpt lat="44.06652" lon="1.33616">
        <ele>85</ele>
        <time>2023-07-07T08:54:15Z</time>
      </trkpt>
      <trkpt lat="44.0665" lon="1.33626">
        <ele>85</ele>
        <time>2023-07-07T08:54:21Z</time>
      </trkpt>
      <trkpt lat="44.06649" lon="1.33632">
        <ele>85.2</ele>
        <time>2023-07-07T08:54:24Z</time>
      </trkpt>
      <trkpt lat="44.0665" lon="1.33639">
        <ele>85</ele>
        <time>2023-07-07T08:54:28Z</time>
      </trkpt>
      <trkpt lat="44.0665" lon="1.33647">
        <ele>84.8</ele>
        <time>2023-07-07T08:54:33Z</time>
      </trkpt>
      <trkpt lat="44.06649" lon="1.3365">
        <ele>85</ele>
        <time>2023-07-07T08:54:35Z</time>
      </trkpt>
      <trkpt lat="44.06647" lon="1.33661">
        <ele>85.4</ele>
        <time>2023-07-07T08:54:42Z</time>
      </trkpt>
      <trkpt lat="44.06646" lon="1.33663">
        <ele>85.2</ele>
        <time>2023-07-07T08:54:45Z</time>
      </trkpt>
      <trkpt lat="44.06642" lon="1.33661">
        <ele>85</ele>
        <time>2023-07-07T08:54:49Z</time>
      </trkpt>
      <trkpt lat="44.06641" lon="1.3366">
        <ele>84.8</ele>
        <time>2023-07-07T08:54:51Z</time>
      </trkpt>
      <trkpt lat="44.06635" lon="1.33656">
        <ele>84.8</ele>
        <time>2023-07-07T08:54:57Z</time>
      </trkpt>
      <trkpt lat="44.06633" lon="1.33656">
        <ele>84.8</ele>
        <time>2023-07-07T08:54:59Z</time>
      </trkpt>
      <trkpt lat="44.06625" lon="1.33653">
        <ele>85</ele>
        <time>2023-07-07T08:55:06Z</time>
      </trkpt>
      <trkpt lat="44.06622" lon="1.33653">
        <ele>85</ele>
        <time>2023-07-07T08:55:09Z</time>
      </trkpt>
      <trkpt lat="44.06617" lon="1.33652">
        <ele>85</ele>
        <time>2023-07-07T08:55:13Z</time>
      </trkpt>
      <trkpt lat="44.06614" lon="1.33651">
        <ele>85</ele>
        <time>2023-07-07T08:55:14Z</time>
      </trkpt>
      <trkpt lat="44.06606" lon="1.3365">
        <ele>84.6</ele>
        <time>2023-07-07T08:55:22Z</time>
      </trkpt>
      <trkpt lat="44.06594" lon="1.33648">
        <ele>84.8</ele>
        <time>2023-07-07T08:55:31Z</time>
      </trkpt>
      <trkpt lat="44.06581" lon="1.33645">
        <ele>85</ele>
        <time>2023-07-07T08:55:42Z</time>
      </trkpt>
      <trkpt lat="44.06569" lon="1.33644">
        <ele>85</ele>
        <time>2023-07-07T08:55:52Z</time>
      </trkpt>
      <trkpt lat="44.06562" lon="1.33641">
        <ele>85.6</ele>
        <time>2023-07-07T08:55:57Z</time>
      </trkpt>
      <trkpt lat="44.06555" lon="1.33637">
        <ele>85.8</ele>
        <time>2023-07-07T08:56:03Z</time>
      </trkpt>
      <trkpt lat="44.06543" lon="1.33634">
        <ele>86</ele>
        <time>2023-07-07T08:56:12Z</time>
      </trkpt>
      <trkpt lat="44.06538" lon="1.3363">
        <ele>86</ele>
        <time>2023-07-07T08:56:17Z</time>
      </trkpt>
      <trkpt lat="44.06536" lon="1.33629">
        <ele>86.2</ele>
        <time>2023-07-07T08:56:19Z</time>
      </trkpt>
      <trkpt lat="44.06534" lon="1.33625">
        <ele>86.4</ele>
        <time>2023-07-07T08:56:22Z</time>
      </trkpt>
      <trkpt lat="44.0653" lon="1.33623">
        <ele>86.4</ele>
        <time>2023-07-07T08:56:26Z</time>
      </trkpt>
      <trkpt lat="44.06526" lon="1.33619">
        <ele>86.6</ele>
        <time>2023-07-07T08:56:30Z</time>
      </trkpt>
      <trkpt lat="44.06519" lon="1.33616">
        <ele>87</ele>
        <time>2023-07-07T08:56:35Z</time>
      </trkpt>
      <trkpt lat="44.06515" lon="1.33613">
        <ele>87.2</ele>
        <time>2023-07-07T08:56:39Z</time>
      </trkpt>
      <trkpt lat="44.06512" lon="1.33612">
        <ele>87.2</ele>
        <time>2023-07-07T08:56:42Z</time>
      </trkpt>
      <trkpt lat="44.0651" lon="1.3361">
        <ele>87.6</ele>
        <time>2023-07-07T08:56:45Z</time>
      </trkpt>
      <trkpt lat="44.06508" lon="1.33609">
        <ele>87.8</ele>
        <time>2023-07-07T08:56:47Z</time>
      </trkpt>
      <trkpt lat="44.06505" lon="1.33608">
        <ele>87.8</ele>
        <time>2023-07-07T08:56:49Z</time>
      </trkpt>
      <trkpt lat="44.06503" lon="1.33606">
        <ele>87.8</ele>
        <time>2023-07-07T08:56:51Z</time>
      </trkpt>
      <trkpt lat="44.06496" lon="1.33604">
        <ele>88.6</ele>
        <time>2023-07-07T08:56:58Z</time>
      </trkpt>
      <trkpt lat="44.06495" lon="1.33604">
        <ele>88.6</ele>
        <time>2023-07-07T08:56:59Z</time>
      </trkpt>
      <trkpt lat="44.06493" lon="1.33604">
        <ele>88.8</ele>
        <time>2023-07-07T08:57:01Z</time>
      </trkpt>
      <trkpt lat="44.06492" lon="1.33604">
        <ele>89.2</ele>
        <time>2023-07-07T08:57:03Z</time>
      </trkpt>
      <trkpt lat="44.06486" lon="1.33604">
        <ele>89.8</ele>
        <time>2023-07-07T08:57:09Z</time>
      </trkpt>
      <trkpt lat="44.06485" lon="1.33605">
        <ele>89.8</ele>
        <time>2023-07-07T08:57:10Z</time>
      </trkpt>
      <trkpt lat="44.06483" lon="1.33605">
        <ele>90</ele>
        <time>2023-07-07T08:57:12Z</time>
      </trkpt>
      <trkpt lat="44.06479" lon="1.33606">
        <ele>90.4</ele>
        <time>2023-07-07T08:57:17Z</time>
      </trkpt>
      <trkpt lat="44.06478" lon="1.33607">
        <ele>90.4</ele>
        <time>2023-07-07T08:57:18Z</time>
      </trkpt>
      <trkpt lat="44.06476" lon="1.33608">
        <ele>90.8</ele>
        <time>2023-07-07T08:57:20Z</time>
      </trkpt>
      <trkpt lat="44.06474" lon="1.3361">
        <ele>91</ele>
        <time>2023-07-07T08:57:22Z</time>
      </trkpt>
      <trkpt lat="44.06471" lon="1.33611">
        <ele>91.2</ele>
        <time>2023-07-07T08:57:24Z</time>
      </trkpt>
      <trkpt lat="44.06464" lon="1.33612">
        <ele>91.8</ele>
        <time>2023-07-07T08:57:31Z</time>
      </trkpt>
      <trkpt lat="44.06462" lon="1.33612">
        <ele>91.8</ele>
        <time>2023-07-07T08:57:32Z</time>
      </trkpt>
      <trkpt lat="44.06462" lon="1.33612">
        <ele>91.8</ele>
        <time>2023-07-07T08:57:33Z</time>
      </trkpt>
      <trkpt lat="44.0646" lon="1.33611">
        <ele>92</ele>
        <time>2023-07-07T08:57:35Z</time>
      </trkpt>
      <trkpt lat="44.06456" lon="1.3361">
        <ele>92.8</ele>
        <time>2023-07-07T08:57:39Z</time>
      </trkpt>
      <trkpt lat="44.06454" lon="1.33609">
        <ele>92.8</ele>
        <time>2023-07-07T08:57:41Z</time>
      </trkpt>
      <trkpt lat="44.06451" lon="1.33609">
        <ele>92.8</ele>
        <time>2023-07-07T08:57:43Z</time>
      </trkpt>
      <trkpt lat="44.06445" lon="1.33609">
        <ele>92.6</ele>
        <time>2023-07-07T08:57:47Z</time>
      </trkpt>
      <trkpt lat="44.06444" lon="1.33609">
        <ele>92.8</ele>
        <time>2023-07-07T08:57:48Z</time>
      </trkpt>
      <trkpt lat="44.06443" lon="1.33609">
        <ele>92.8</ele>
        <time>2023-07-07T08:57:49Z</time>
      </trkpt>
      <trkpt lat="44.06442" lon="1.33608">
        <ele>93</ele>
        <time>2023-07-07T08:57:50Z</time>
      </trkpt>
      <trkpt lat="44.06441" lon="1.33608">
        <ele>93</ele>
        <time>2023-07-07T08:57:51Z</time>
      </trkpt>
      <trkpt lat="44.06436" lon="1.33607">
        <ele>93.2</ele>
        <time>2023-07-07T08:57:54Z</time>
      </trkpt>
      <trkpt lat="44.06432" lon="1.33607">
        <ele>93.2</ele>
        <time>2023-07-07T08:57:57Z</time>
      </trkpt>
      <trkpt lat="44.06427" lon="1.33607">
        <ele>93.4</ele>
        <time>2023-07-07T08:58:01Z</time>
      </trkpt>
      <trkpt lat="44.06426" lon="1.33607">
        <ele>93.4</ele>
        <time>2023-07-07T08:58:02Z</time>
      </trkpt>
      <trkpt lat="44.06418" lon="1.33609">
        <ele>93.6</ele>
        <time>2023-07-07T08:58:09Z</time>
      </trkpt>
      <trkpt lat="44.06412" lon="1.3361">
        <ele>93.6</ele>
        <time>2023-07-07T08:58:14Z</time>
      </trkpt>
      <trkpt lat="44.06412" lon="1.3361">
        <ele>93.6</ele>
        <time>2023-07-07T08:58:15Z</time>
      </trkpt>
      <trkpt lat="44.06411" lon="1.33615">
        <ele>93.6</ele>
        <time>2023-07-07T08:58:18Z</time>
      </trkpt>
      <trkpt lat="44.06411" lon="1.33618">
        <ele>93.6</ele>
        <time>2023-07-07T08:58:20Z</time>
      </trkpt>
      <trkpt lat="44.06413" lon="1.33624">
        <ele>93.8</ele>
        <time>2023-07-07T08:58:24Z</time>
      </trkpt>
      <trkpt lat="44.06415" lon="1.33627">
        <ele>94</ele>
        <time>2023-07-07T08:58:26Z</time>
      </trkpt>
      <trkpt lat="44.06415" lon="1.33633">
        <ele>94</ele>
        <time>2023-07-07T08:58:29Z</time>
      </trkpt>
      <trkpt lat="44.06416" lon="1.33638">
        <ele>94</ele>
        <time>2023-07-07T08:58:32Z</time>
      </trkpt>
      <trkpt lat="44.06416" lon="1.33643">
        <ele>93.8</ele>
        <time>2023-07-07T08:58:35Z</time>
      </trkpt>
      <trkpt lat="44.06416" lon="1.33653">
        <ele>93.8</ele>
        <time>2023-07-07T08:58:42Z</time>
      </trkpt>
      <trkpt lat="44.06415" lon="1.33658">
        <ele>94.2</ele>
        <time>2023-07-07T08:58:45Z</time>
      </trkpt>
      <trkpt lat="44.06415" lon="1.33662">
        <ele>94.6</ele>
        <time>2023-07-07T08:58:47Z</time>
      </trkpt>
      <trkpt lat="44.06414" lon="1.33667">
        <ele>94.8</ele>
        <time>2023-07-07T08:58:50Z</time>
      </trkpt>
      <trkpt lat="44.06413" lon="1.33675">
        <ele>94.8</ele>
        <time>2023-07-07T08:58:54Z</time>
      </trkpt>
      <trkpt lat="44.06412" lon="1.33682">
        <ele>94.6</ele>
        <time>2023-07-07T08:58:58Z</time>
      </trkpt>
      <trkpt lat="44.0641" lon="1.33698">
        <ele>93.6</ele>
        <time>2023-07-07T08:59:06Z</time>
      </trkpt>
      <trkpt lat="44.0641" lon="1.337">
        <ele>93.6</ele>
        <time>2023-07-07T08:59:07Z</time>
      </trkpt>
      <trkpt lat="44.0641" lon="1.33712">
        <ele>93.4</ele>
        <time>2023-07-07T08:59:14Z</time>
      </trkpt>
      <trkpt lat="44.06409" lon="1.33716">
        <ele>93.4</ele>
        <time>2023-07-07T08:59:17Z</time>
      </trkpt>
      <trkpt lat="44.06408" lon="1.33723">
        <ele>93.2</ele>
        <time>2023-07-07T08:59:21Z</time>
      </trkpt>
      <trkpt lat="44.06408" lon="1.33725">
        <ele>93.2</ele>
        <time>2023-07-07T08:59:22Z</time>
      </trkpt>
      <trkpt lat="44.06407" lon="1.33729">
        <ele>93</ele>
        <time>2023-07-07T08:59:25Z</time>
      </trkpt>
      <trkpt lat="44.06407" lon="1.3373">
        <ele>93</ele>
        <time>2023-07-07T08:59:26Z</time>
      </trkpt>
      <trkpt lat="44.06407" lon="1.33732">
        <ele>93.2</ele>
        <time>2023-07-07T08:59:27Z</time>
      </trkpt>
      <trkpt lat="44.06406" lon="1.33742">
        <ele>92.8</ele>
        <time>2023-07-07T08:59:32Z</time>
      </trkpt>
      <trkpt lat="44.06405" lon="1.33746">
        <ele>92.8</ele>
        <time>2023-07-07T08:59:35Z</time>
      </trkpt>
      <trkpt lat="44.06404" lon="1.33752">
        <ele>92.6</ele>
        <time>2023-07-07T08:59:38Z</time>
      </trkpt>
      <trkpt lat="44.06403" lon="1.33758">
        <ele>92.8</ele>
        <time>2023-07-07T08:59:41Z</time>
      </trkpt>
      <trkpt lat="44.06402" lon="1.33772">
        <ele>92.4</ele>
        <time>2023-07-07T08:59:49Z</time>
      </trkpt>
      <trkpt lat="44.064" lon="1.33786">
        <ele>92.4</ele>
        <time>2023-07-07T08:59:57Z</time>
      </trkpt>
      <trkpt lat="44.064" lon="1.33787">
        <ele>92.4</ele>
        <time>2023-07-07T08:59:58Z</time>
      </trkpt>
      <trkpt lat="44.06399" lon="1.33792">
        <ele>92.4</ele>
        <time>2023-07-07T09:00:01Z</time>
      </trkpt>
      <trkpt lat="44.06398" lon="1.33802">
        <ele>92.6</ele>
        <time>2023-07-07T09:00:07Z</time>
      </trkpt>
      <trkpt lat="44.06397" lon="1.33809">
        <ele>92.4</ele>
        <time>2023-07-07T09:00:12Z</time>
      </trkpt>
      <trkpt lat="44.06396" lon="1.33813">
        <ele>92.2</ele>
        <time>2023-07-07T09:00:14Z</time>
      </trkpt>
      <trkpt lat="44.06396" lon="1.33815">
        <ele>92.2</ele>
        <time>2023-07-07T09:00:15Z</time>
      </trkpt>
      <trkpt lat="44.06394" lon="1.33829">
        <ele>91.8</ele>
        <time>2023-07-07T09:00:24Z</time>
      </trkpt>
      <trkpt lat="44.06393" lon="1.33838">
        <ele>91.4</ele>
        <time>2023-07-07T09:00:29Z</time>
      </trkpt>
      <trkpt lat="44.06392" lon="1.33842">
        <ele>91.4</ele>
        <time>2023-07-07T09:00:31Z</time>
      </trkpt>
      <trkpt lat="44.06388" lon="1.33853">
        <ele>91.4</ele>
        <time>2023-07-07T09:00:38Z</time>
      </trkpt>
      <trkpt lat="44.06387" lon="1.33861">
        <ele>91.2</ele>
        <time>2023-07-07T09:00:43Z</time>
      </trkpt>
      <trkpt lat="44.06387" lon="1.33863">
        <ele>91.2</ele>
        <time>2023-07-07T09:00:44Z</time>
      </trkpt>
      <trkpt lat="44.06387" lon="1.33865">
        <ele>91.2</ele>
        <time>2023-07-07T09:00:45Z</time>
      </trkpt>
      <trkpt lat="44.06387" lon="1.33876">
        <ele>91</ele>
        <time>2023-07-07T09:00:52Z</time>
      </trkpt>
      <trkpt lat="44.06387" lon="1.33878">
        <ele>91</ele>
        <time>2023-07-07T09:00:53Z</time>
      </trkpt>
      <trkpt lat="44.06386" lon="1.33887">
        <ele>90.8</ele>
        <time>2023-07-07T09:00:59Z</time>
      </trkpt>
      <trkpt lat="44.06386" lon="1.33891">
        <ele>90.6</ele>
        <time>2023-07-07T09:01:01Z</time>
      </trkpt>
      <trkpt lat="44.06386" lon="1.33892">
        <ele>90.6</ele>
        <time>2023-07-07T09:01:02Z</time>
      </trkpt>
      <trkpt lat="44.06386" lon="1.33898">
        <ele>90.4</ele>
        <time>2023-07-07T09:01:06Z</time>
      </trkpt>
      <trkpt lat="44.06382" lon="1.3391">
        <ele>90.6</ele>
        <time>2023-07-07T09:01:14Z</time>
      </trkpt>
      <trkpt lat="44.06381" lon="1.33914">
        <ele>91</ele>
        <time>2023-07-07T09:01:16Z</time>
      </trkpt>
      <trkpt lat="44.06379" lon="1.33926">
        <ele>90.4</ele>
        <time>2023-07-07T09:01:23Z</time>
      </trkpt>
      <trkpt lat="44.06379" lon="1.33935">
        <ele>90</ele>
        <time>2023-07-07T09:01:27Z</time>
      </trkpt>
      <trkpt lat="44.06379" lon="1.33947">
        <ele>89.4</ele>
        <time>2023-07-07T09:01:32Z</time>
      </trkpt>
      <trkpt lat="44.06377" lon="1.33958">
        <ele>89.4</ele>
        <time>2023-07-07T09:01:39Z</time>
      </trkpt>
      <trkpt lat="44.06376" lon="1.3396">
        <ele>89.4</ele>
        <time>2023-07-07T09:01:40Z</time>
      </trkpt>
      <trkpt lat="44.06375" lon="1.33962">
        <ele>89.4</ele>
        <time>2023-07-07T09:01:41Z</time>
      </trkpt>
      <trkpt lat="44.06372" lon="1.33978">
        <ele>89.2</ele>
        <time>2023-07-07T09:01:50Z</time>
      </trkpt>
      <trkpt lat="44.06371" lon="1.33986">
        <ele>89.2</ele>
        <time>2023-07-07T09:01:55Z</time>
      </trkpt>
      <trkpt lat="44.0637" lon="1.33991">
        <ele>89.2</ele>
        <time>2023-07-07T09:01:58Z</time>
      </trkpt>
      <trkpt lat="44.06369" lon="1.33997">
        <ele>89</ele>
        <time>2023-07-07T09:02:02Z</time>
      </trkpt>
      <trkpt lat="44.06369" lon="1.34001">
        <ele>88.8</ele>
        <time>2023-07-07T09:02:05Z</time>
      </trkpt>
      <trkpt lat="44.06369" lon="1.34008">
        <ele>88.8</ele>
        <time>2023-07-07T09:02:10Z</time>
      </trkpt>
      <trkpt lat="44.06369" lon="1.3401">
        <ele>88.8</ele>
        <time>2023-07-07T09:02:12Z</time>
      </trkpt>
      <trkpt lat="44.06369" lon="1.34014">
        <ele>89</ele>
        <time>2023-07-07T09:02:16Z</time>
      </trkpt>
      <trkpt lat="44.0637" lon="1.34018">
        <ele>89.2</ele>
        <time>2023-07-07T09:02:19Z</time>
      </trkpt>
      <trkpt lat="44.06369" lon="1.34023">
        <ele>89.2</ele>
        <time>2023-07-07T09:02:22Z</time>
      </trkpt>
      <trkpt lat="44.06367" lon="1.34032">
        <ele>89.6</ele>
        <time>2023-07-07T09:02:27Z</time>
      </trkpt>
      <trkpt lat="44.06367" lon="1.34034">
        <ele>90</ele>
        <time>2023-07-07T09:02:28Z</time>
      </trkpt>
      <trkpt lat="44.06367" lon="1.34036">
        <ele>90</ele>
        <time>2023-07-07T09:02:29Z</time>
      </trkpt>
      <trkpt lat="44.06367" lon="1.34041">
        <ele>90.2</ele>
        <time>2023-07-07T09:02:33Z</time>
      </trkpt>
      <trkpt lat="44.06366" lon="1.34048">
        <ele>89.8</ele>
        <time>2023-07-07T09:02:37Z</time>
      </trkpt>
      <trkpt lat="44.06365" lon="1.34057">
        <ele>90.4</ele>
        <time>2023-07-07T09:02:42Z</time>
      </trkpt>
      <trkpt lat="44.06365" lon="1.34062">
        <ele>90.4</ele>
        <time>2023-07-07T09:02:45Z</time>
      </trkpt>
      <trkpt lat="44.06365" lon="1.34063">
        <ele>90.4</ele>
        <time>2023-07-07T09:02:46Z</time>
      </trkpt>
      <trkpt lat="44.06362" lon="1.34075">
        <ele>90.6</ele>
        <time>2023-07-07T09:02:52Z</time>
      </trkpt>
      <trkpt lat="44.06359" lon="1.34088">
        <ele>90.8</ele>
        <time>2023-07-07T09:03:01Z</time>
      </trkpt>
      <trkpt lat="44.06358" lon="1.34091">
        <ele>90.8</ele>
        <time>2023-07-07T09:03:03Z</time>
      </trkpt>
      <trkpt lat="44.06355" lon="1.34099">
        <ele>91</ele>
        <time>2023-07-07T09:03:09Z</time>
      </trkpt>
      <trkpt lat="44.06353" lon="1.34103">
        <ele>90.8</ele>
        <time>2023-07-07T09:03:11Z</time>
      </trkpt>
      <trkpt lat="44.0635" lon="1.34112">
        <ele>91</ele>
        <time>2023-07-07T09:03:18Z</time>
      </trkpt>
      <trkpt lat="44.06349" lon="1.34116">
        <ele>90.8</ele>
        <time>2023-07-07T09:03:20Z</time>
      </trkpt>
      <trkpt lat="44.06348" lon="1.34118">
        <ele>91.2</ele>
        <time>2023-07-07T09:03:21Z</time>
      </trkpt>
      <trkpt lat="44.06347" lon="1.3412">
        <ele>91.2</ele>
        <time>2023-07-07T09:03:22Z</time>
      </trkpt>
      <trkpt lat="44.06346" lon="1.34123">
        <ele>91.4</ele>
        <time>2023-07-07T09:03:24Z</time>
      </trkpt>
      <trkpt lat="44.06344" lon="1.34127">
        <ele>91.6</ele>
        <time>2023-07-07T09:03:27Z</time>
      </trkpt>
      <trkpt lat="44.06343" lon="1.34129">
        <ele>91.6</ele>
        <time>2023-07-07T09:03:29Z</time>
      </trkpt>
      <trkpt lat="44.06342" lon="1.34131">
        <ele>91.8</ele>
        <time>2023-07-07T09:03:30Z</time>
      </trkpt>
      <trkpt lat="44.06335" lon="1.34145">
        <ele>92</ele>
        <time>2023-07-07T09:03:41Z</time>
      </trkpt>
      <trkpt lat="44.06334" lon="1.34147">
        <ele>92</ele>
        <time>2023-07-07T09:03:43Z</time>
      </trkpt>
      <trkpt lat="44.06332" lon="1.34151">
        <ele>92</ele>
        <time>2023-07-07T09:03:46Z</time>
      </trkpt>
      <trkpt lat="44.06331" lon="1.34154">
        <ele>92.2</ele>
        <time>2023-07-07T09:03:48Z</time>
      </trkpt>
      <trkpt lat="44.0633" lon="1.34156">
        <ele>92.2</ele>
        <time>2023-07-07T09:03:50Z</time>
      </trkpt>
      <trkpt lat="44.06324" lon="1.3417">
        <ele>92.2</ele>
        <time>2023-07-07T09:03:59Z</time>
      </trkpt>
      <trkpt lat="44.06318" lon="1.34185">
        <ele>92.6</ele>
        <time>2023-07-07T09:04:08Z</time>
      </trkpt>
      <trkpt lat="44.06316" lon="1.34191">
        <ele>92.8</ele>
        <time>2023-07-07T09:04:12Z</time>
      </trkpt>
      <trkpt lat="44.06314" lon="1.34195">
        <ele>93.2</ele>
        <time>2023-07-07T09:04:15Z</time>
      </trkpt>
      <trkpt lat="44.06312" lon="1.34201">
        <ele>92.8</ele>
        <time>2023-07-07T09:04:19Z</time>
      </trkpt>
      <trkpt lat="44.06309" lon="1.34209">
        <ele>92.8</ele>
        <time>2023-07-07T09:04:24Z</time>
      </trkpt>
      <trkpt lat="44.06309" lon="1.3421">
        <ele>92.8</ele>
        <time>2023-07-07T09:04:25Z</time>
      </trkpt>
      <trkpt lat="44.06308" lon="1.34212">
        <ele>92.8</ele>
        <time>2023-07-07T09:04:26Z</time>
      </trkpt>
      <trkpt lat="44.06304" lon="1.34224">
        <ele>93</ele>
        <time>2023-07-07T09:04:33Z</time>
      </trkpt>
      <trkpt lat="44.06304" lon="1.34225">
        <ele>93</ele>
        <time>2023-07-07T09:04:34Z</time>
      </trkpt>
      <trkpt lat="44.06304" lon="1.34227">
        <ele>93</ele>
        <time>2023-07-07T09:04:35Z</time>
      </trkpt>
      <trkpt lat="44.06302" lon="1.34234">
        <ele>93.2</ele>
        <time>2023-07-07T09:04:40Z</time>
      </trkpt>
      <trkpt lat="44.063" lon="1.34237">
        <ele>93.2</ele>
        <time>2023-07-07T09:04:41Z</time>
      </trkpt>
      <trkpt lat="44.06299" lon="1.34239">
        <ele>93.2</ele>
        <time>2023-07-07T09:04:44Z</time>
      </trkpt>
      <trkpt lat="44.06296" lon="1.34249">
        <ele>93.4</ele>
        <time>2023-07-07T09:04:52Z</time>
      </trkpt>
      <trkpt lat="44.06296" lon="1.3425">
        <ele>93.4</ele>
        <time>2023-07-07T09:04:53Z</time>
      </trkpt>
      <trkpt lat="44.06293" lon="1.34259">
        <ele>93.6</ele>
        <time>2023-07-07T09:04:57Z</time>
      </trkpt>
      <trkpt lat="44.06293" lon="1.3426">
        <ele>93.6</ele>
        <time>2023-07-07T09:04:58Z</time>
      </trkpt>
      <trkpt lat="44.06292" lon="1.34265">
        <ele>93.6</ele>
        <time>2023-07-07T09:05:02Z</time>
      </trkpt>
      <trkpt lat="44.06291" lon="1.3427">
        <ele>93.6</ele>
        <time>2023-07-07T09:05:05Z</time>
      </trkpt>
      <trkpt lat="44.0629" lon="1.34277">
        <ele>93.6</ele>
        <time>2023-07-07T09:05:08Z</time>
      </trkpt>
      <trkpt lat="44.06288" lon="1.3429">
        <ele>93.6</ele>
        <time>2023-07-07T09:05:16Z</time>
      </trkpt>
      <trkpt lat="44.06287" lon="1.34293">
        <ele>93.6</ele>
        <time>2023-07-07T09:05:18Z</time>
      </trkpt>
      <trkpt lat="44.06286" lon="1.34298">
        <ele>93.6</ele>
        <time>2023-07-07T09:05:22Z</time>
      </trkpt>
      <trkpt lat="44.06285" lon="1.34303">
        <ele>93.6</ele>
        <time>2023-07-07T09:05:25Z</time>
      </trkpt>
      <trkpt lat="44.06282" lon="1.34318">
        <ele>93.6</ele>
        <time>2023-07-07T09:05:34Z</time>
      </trkpt>
      <trkpt lat="44.06282" lon="1.34319">
        <ele>93.6</ele>
        <time>2023-07-07T09:05:35Z</time>
      </trkpt>
      <trkpt lat="44.06279" lon="1.34331">
        <ele>93.8</ele>
        <time>2023-07-07T09:05:43Z</time>
      </trkpt>
      <trkpt lat="44.06278" lon="1.34333">
        <ele>93.8</ele>
        <time>2023-07-07T09:05:44Z</time>
      </trkpt>
      <trkpt lat="44.06276" lon="1.34341">
        <ele>93.6</ele>
        <time>2023-07-07T09:05:51Z</time>
      </trkpt>
      <trkpt lat="44.06272" lon="1.34355">
        <ele>93.8</ele>
        <time>2023-07-07T09:06:00Z</time>
      </trkpt>
      <trkpt lat="44.06269" lon="1.34369">
        <ele>93.8</ele>
        <time>2023-07-07T09:06:08Z</time>
      </trkpt>
      <trkpt lat="44.06264" lon="1.34384">
        <ele>94</ele>
        <time>2023-07-07T09:06:17Z</time>
      </trkpt>
      <trkpt lat="44.06262" lon="1.3439">
        <ele>94.2</ele>
        <time>2023-07-07T09:06:21Z</time>
      </trkpt>
      <trkpt lat="44.0626" lon="1.34394">
        <ele>94</ele>
        <time>2023-07-07T09:06:25Z</time>
      </trkpt>
      <trkpt lat="44.06257" lon="1.34402">
        <ele>94.4</ele>
        <time>2023-07-07T09:06:31Z</time>
      </trkpt>
      <trkpt lat="44.06255" lon="1.34404">
        <ele>94.4</ele>
        <time>2023-07-07T09:06:33Z</time>
      </trkpt>
      <trkpt lat="44.06254" lon="1.34407">
        <ele>94.4</ele>
        <time>2023-07-07T09:06:35Z</time>
      </trkpt>
      <trkpt lat="44.0625" lon="1.34415">
        <ele>94</ele>
        <time>2023-07-07T09:06:40Z</time>
      </trkpt>
      <trkpt lat="44.06248" lon="1.34421">
        <ele>94</ele>
        <time>2023-07-07T09:06:43Z</time>
      </trkpt>
      <trkpt lat="44.06244" lon="1.3443">
        <ele>94.2</ele>
        <time>2023-07-07T09:06:49Z</time>
      </trkpt>
      <trkpt lat="44.06243" lon="1.34434">
        <ele>94</ele>
        <time>2023-07-07T09:06:51Z</time>
      </trkpt>
      <trkpt lat="44.06242" lon="1.34434">
        <ele>94</ele>
        <time>2023-07-07T09:06:52Z</time>
      </trkpt>
      <trkpt lat="44.06241" lon="1.34436">
        <ele>93.8</ele>
        <time>2023-07-07T09:06:53Z</time>
      </trkpt>
      <trkpt lat="44.0624" lon="1.34437">
        <ele>93.8</ele>
        <time>2023-07-07T09:06:54Z</time>
      </trkpt>
      <trkpt lat="44.06231" lon="1.34453">
        <ele>94.4</ele>
        <time>2023-07-07T09:07:04Z</time>
      </trkpt>
      <trkpt lat="44.06229" lon="1.34456">
        <ele>94.4</ele>
        <time>2023-07-07T09:07:06Z</time>
      </trkpt>
      <trkpt lat="44.06225" lon="1.34465">
        <ele>94.8</ele>
        <time>2023-07-07T09:07:11Z</time>
      </trkpt>
      <trkpt lat="44.06218" lon="1.34483">
        <ele>94.8</ele>
        <time>2023-07-07T09:07:22Z</time>
      </trkpt>
      <trkpt lat="44.06216" lon="1.34485">
        <ele>93.8</ele>
        <time>2023-07-07T09:07:24Z</time>
      </trkpt>
      <trkpt lat="44.06212" lon="1.34496">
        <ele>93.8</ele>
        <time>2023-07-07T09:07:31Z</time>
      </trkpt>
      <trkpt lat="44.06206" lon="1.34512">
        <ele>94.2</ele>
        <time>2023-07-07T09:07:41Z</time>
      </trkpt>
      <trkpt lat="44.06203" lon="1.34524">
        <ele>94.2</ele>
        <time>2023-07-07T09:07:48Z</time>
      </trkpt>
      <trkpt lat="44.06202" lon="1.34526">
        <ele>94.2</ele>
        <time>2023-07-07T09:07:50Z</time>
      </trkpt>
      <trkpt lat="44.06193" lon="1.34541">
        <ele>94.8</ele>
        <time>2023-07-07T09:08:01Z</time>
      </trkpt>
      <trkpt lat="44.06193" lon="1.34553">
        <ele>94.4</ele>
        <time>2023-07-07T09:08:08Z</time>
      </trkpt>
      <trkpt lat="44.06193" lon="1.34557">
        <ele>94.4</ele>
        <time>2023-07-07T09:08:10Z</time>
      </trkpt>
      <trkpt lat="44.06193" lon="1.34567">
        <ele>94.6</ele>
        <time>2023-07-07T09:08:15Z</time>
      </trkpt>
      <trkpt lat="44.06192" lon="1.34574">
        <ele>94.8</ele>
        <time>2023-07-07T09:08:19Z</time>
      </trkpt>
      <trkpt lat="44.06191" lon="1.3458">
        <ele>94.6</ele>
        <time>2023-07-07T09:08:22Z</time>
      </trkpt>
      <trkpt lat="44.0619" lon="1.3459">
        <ele>94.8</ele>
        <time>2023-07-07T09:08:27Z</time>
      </trkpt>
      <trkpt lat="44.06186" lon="1.34604">
        <ele>95.2</ele>
        <time>2023-07-07T09:08:35Z</time>
      </trkpt>
      <trkpt lat="44.06185" lon="1.34607">
        <ele>95.4</ele>
        <time>2023-07-07T09:08:37Z</time>
      </trkpt>
      <trkpt lat="44.06182" lon="1.34617">
        <ele>95.2</ele>
        <time>2023-07-07T09:08:45Z</time>
      </trkpt>
      <trkpt lat="44.06181" lon="1.3462">
        <ele>95.4</ele>
        <time>2023-07-07T09:08:47Z</time>
      </trkpt>
      <trkpt lat="44.06179" lon="1.34634">
        <ele>95.6</ele>
        <time>2023-07-07T09:08:54Z</time>
      </trkpt>
      <trkpt lat="44.06178" lon="1.34637">
        <ele>96.2</ele>
        <time>2023-07-07T09:08:56Z</time>
      </trkpt>
      <trkpt lat="44.06177" lon="1.3464">
        <ele>96.4</ele>
        <time>2023-07-07T09:08:58Z</time>
      </trkpt>
      <trkpt lat="44.06176" lon="1.34642">
        <ele>96.4</ele>
        <time>2023-07-07T09:08:59Z</time>
      </trkpt>
      <trkpt lat="44.06175" lon="1.34648">
        <ele>96.6</ele>
        <time>2023-07-07T09:09:03Z</time>
      </trkpt>
      <trkpt lat="44.06174" lon="1.34652">
        <ele>96.6</ele>
        <time>2023-07-07T09:09:05Z</time>
      </trkpt>
      <trkpt lat="44.06169" lon="1.34668">
        <ele>96.4</ele>
        <time>2023-07-07T09:09:14Z</time>
      </trkpt>
      <trkpt lat="44.06165" lon="1.3468">
        <ele>96.4</ele>
        <time>2023-07-07T09:09:21Z</time>
      </trkpt>
      <trkpt lat="44.06162" lon="1.34692">
        <ele>96.2</ele>
        <time>2023-07-07T09:09:28Z</time>
      </trkpt>
      <trkpt lat="44.06162" lon="1.34693">
        <ele>96.2</ele>
        <time>2023-07-07T09:09:29Z</time>
      </trkpt>
      <trkpt lat="44.0616" lon="1.34705">
        <ele>95.8</ele>
        <time>2023-07-07T09:09:36Z</time>
      </trkpt>
      <trkpt lat="44.06158" lon="1.34711">
        <ele>95.8</ele>
        <time>2023-07-07T09:09:39Z</time>
      </trkpt>
      <trkpt lat="44.06157" lon="1.34715">
        <ele>95.4</ele>
        <time>2023-07-07T09:09:42Z</time>
      </trkpt>
      <trkpt lat="44.06154" lon="1.34725">
        <ele>95.8</ele>
        <time>2023-07-07T09:09:48Z</time>
      </trkpt>
      <trkpt lat="44.06151" lon="1.34738">
        <ele>96</ele>
        <time>2023-07-07T09:09:56Z</time>
      </trkpt>
      <trkpt lat="44.06147" lon="1.34755">
        <ele>95.8</ele>
        <time>2023-07-07T09:10:06Z</time>
      </trkpt>
      <trkpt lat="44.06144" lon="1.34767">
        <ele>95.4</ele>
        <time>2023-07-07T09:10:14Z</time>
      </trkpt>
      <trkpt lat="44.06143" lon="1.34772">
        <ele>95.4</ele>
        <time>2023-07-07T09:10:17Z</time>
      </trkpt>
      <trkpt lat="44.06142" lon="1.34782">
        <ele>95.4</ele>
        <time>2023-07-07T09:10:23Z</time>
      </trkpt>
      <trkpt lat="44.06141" lon="1.34797">
        <ele>95.8</ele>
        <time>2023-07-07T09:10:32Z</time>
      </trkpt>
      <trkpt lat="44.0614" lon="1.34809">
        <ele>96</ele>
        <time>2023-07-07T09:10:39Z</time>
      </trkpt>
      <trkpt lat="44.0614" lon="1.3481">
        <ele>96.2</ele>
        <time>2023-07-07T09:10:40Z</time>
      </trkpt>
      <trkpt lat="44.06139" lon="1.34813">
        <ele>96.2</ele>
        <time>2023-07-07T09:10:42Z</time>
      </trkpt>
      <trkpt lat="44.0614" lon="1.34819">
        <ele>96.2</ele>
        <time>2023-07-07T09:10:46Z</time>
      </trkpt>
      <trkpt lat="44.06143" lon="1.3483">
        <ele>95.8</ele>
        <time>2023-07-07T09:10:53Z</time>
      </trkpt>
      <trkpt lat="44.06144" lon="1.34837">
        <ele>95.8</ele>
        <time>2023-07-07T09:10:58Z</time>
      </trkpt>
      <trkpt lat="44.06145" lon="1.3484">
        <ele>95.6</ele>
        <time>2023-07-07T09:11:00Z</time>
      </trkpt>
      <trkpt lat="44.06147" lon="1.34848">
        <ele>95.6</ele>
        <time>2023-07-07T09:11:04Z</time>
      </trkpt>
      <trkpt lat="44.06147" lon="1.34851">
        <ele>95.6</ele>
        <time>2023-07-07T09:11:06Z</time>
      </trkpt>
      <trkpt lat="44.06147" lon="1.34863">
        <ele>95.8</ele>
        <time>2023-07-07T09:11:13Z</time>
      </trkpt>
      <trkpt lat="44.06147" lon="1.34872">
        <ele>95.8</ele>
        <time>2023-07-07T09:11:18Z</time>
      </trkpt>
      <trkpt lat="44.06146" lon="1.34874">
        <ele>96</ele>
        <time>2023-07-07T09:11:19Z</time>
      </trkpt>
      <trkpt lat="44.06145" lon="1.34886">
        <ele>96</ele>
        <time>2023-07-07T09:11:25Z</time>
      </trkpt>
      <trkpt lat="44.06147" lon="1.34896">
        <ele>96</ele>
        <time>2023-07-07T09:11:31Z</time>
      </trkpt>
      <trkpt lat="44.06147" lon="1.34899">
        <ele>96</ele>
        <time>2023-07-07T09:11:33Z</time>
      </trkpt>
      <trkpt lat="44.06149" lon="1.34908">
        <ele>95.6</ele>
        <time>2023-07-07T09:11:39Z</time>
      </trkpt>
      <trkpt lat="44.0615" lon="1.34909">
        <ele>95.6</ele>
        <time>2023-07-07T09:11:40Z</time>
      </trkpt>
      <trkpt lat="44.0615" lon="1.34911">
        <ele>95.6</ele>
        <time>2023-07-07T09:11:41Z</time>
      </trkpt>
      <trkpt lat="44.0615" lon="1.34913">
        <ele>95.6</ele>
        <time>2023-07-07T09:11:42Z</time>
      </trkpt>
      <trkpt lat="44.0615" lon="1.34917">
        <ele>95.6</ele>
        <time>2023-07-07T09:11:44Z</time>
      </trkpt>
      <trkpt lat="44.0615" lon="1.34922">
        <ele>95.6</ele>
        <time>2023-07-07T09:11:47Z</time>
      </trkpt>
      <trkpt lat="44.06146" lon="1.34937">
        <ele>95.4</ele>
        <time>2023-07-07T09:11:55Z</time>
      </trkpt>
      <trkpt lat="44.06145" lon="1.34947">
        <ele>95.4</ele>
        <time>2023-07-07T09:12:02Z</time>
      </trkpt>
      <trkpt lat="44.06143" lon="1.34955">
        <ele>95.2</ele>
        <time>2023-07-07T09:12:07Z</time>
      </trkpt>
      <trkpt lat="44.06142" lon="1.34958">
        <ele>95.2</ele>
        <time>2023-07-07T09:12:09Z</time>
      </trkpt>
      <trkpt lat="44.06138" lon="1.34968">
        <ele>95</ele>
        <time>2023-07-07T09:12:16Z</time>
      </trkpt>
      <trkpt lat="44.06134" lon="1.34977">
        <ele>94.8</ele>
        <time>2023-07-07T09:12:23Z</time>
      </trkpt>
      <trkpt lat="44.06129" lon="1.34988">
        <ele>94.8</ele>
        <time>2023-07-07T09:12:29Z</time>
      </trkpt>
      <trkpt lat="44.06128" lon="1.3499">
        <ele>94.8</ele>
        <time>2023-07-07T09:12:30Z</time>
      </trkpt>
      <trkpt lat="44.06127" lon="1.34992">
        <ele>95</ele>
        <time>2023-07-07T09:12:31Z</time>
      </trkpt>
      <trkpt lat="44.06126" lon="1.34995">
        <ele>94.8</ele>
        <time>2023-07-07T09:12:33Z</time>
      </trkpt>
      <trkpt lat="44.06125" lon="1.34999">
        <ele>94.8</ele>
        <time>2023-07-07T09:12:35Z</time>
      </trkpt>
      <trkpt lat="44.06123" lon="1.35002">
        <ele>94.8</ele>
        <time>2023-07-07T09:12:37Z</time>
      </trkpt>
      <trkpt lat="44.06116" lon="1.35015">
        <ele>94.8</ele>
        <time>2023-07-07T09:12:46Z</time>
      </trkpt>
      <trkpt lat="44.06111" lon="1.35023">
        <ele>95</ele>
        <time>2023-07-07T09:12:53Z</time>
      </trkpt>
      <trkpt lat="44.06107" lon="1.3503">
        <ele>94.8</ele>
        <time>2023-07-07T09:12:59Z</time>
      </trkpt>
      <trkpt lat="44.06106" lon="1.35032">
        <ele>94.6</ele>
        <time>2023-07-07T09:13:01Z</time>
      </trkpt>
      <trkpt lat="44.06103" lon="1.35039">
        <ele>94.4</ele>
        <time>2023-07-07T09:13:05Z</time>
      </trkpt>
      <trkpt lat="44.061" lon="1.35043">
        <ele>94.6</ele>
        <time>2023-07-07T09:13:09Z</time>
      </trkpt>
      <trkpt lat="44.06094" lon="1.35054">
        <ele>95.2</ele>
        <time>2023-07-07T09:13:16Z</time>
      </trkpt>
      <trkpt lat="44.06092" lon="1.35058">
        <ele>95</ele>
        <time>2023-07-07T09:13:18Z</time>
      </trkpt>
      <trkpt lat="44.06088" lon="1.35064">
        <ele>94.6</ele>
        <time>2023-07-07T09:13:22Z</time>
      </trkpt>
      <trkpt lat="44.06088" lon="1.35066">
        <ele>94.4</ele>
        <time>2023-07-07T09:13:23Z</time>
      </trkpt>
      <trkpt lat="44.06084" lon="1.35073">
        <ele>94.4</ele>
        <time>2023-07-07T09:13:28Z</time>
      </trkpt>
      <trkpt lat="44.06081" lon="1.35078">
        <ele>94.6</ele>
        <time>2023-07-07T09:13:31Z</time>
      </trkpt>
      <trkpt lat="44.06075" lon="1.35086">
        <ele>95.2</ele>
        <time>2023-07-07T09:13:37Z</time>
      </trkpt>
      <trkpt lat="44.06074" lon="1.35087">
        <ele>95.2</ele>
        <time>2023-07-07T09:13:38Z</time>
      </trkpt>
      <trkpt lat="44.06068" lon="1.35096">
        <ele>95.2</ele>
        <time>2023-07-07T09:13:43Z</time>
      </trkpt>
      <trkpt lat="44.06067" lon="1.35098">
        <ele>95.2</ele>
        <time>2023-07-07T09:13:44Z</time>
      </trkpt>
      <trkpt lat="44.06062" lon="1.35104">
        <ele>94.8</ele>
        <time>2023-07-07T09:13:50Z</time>
      </trkpt>
      <trkpt lat="44.06055" lon="1.35114">
        <ele>95</ele>
        <time>2023-07-07T09:13:59Z</time>
      </trkpt>
      <trkpt lat="44.06051" lon="1.35126">
        <ele>95.2</ele>
        <time>2023-07-07T09:14:06Z</time>
      </trkpt>
      <trkpt lat="44.06045" lon="1.35137">
        <ele>95.4</ele>
        <time>2023-07-07T09:14:14Z</time>
      </trkpt>
      <trkpt lat="44.06038" lon="1.35147">
        <ele>95.4</ele>
        <time>2023-07-07T09:14:22Z</time>
      </trkpt>
      <trkpt lat="44.06031" lon="1.35158">
        <ele>95.2</ele>
        <time>2023-07-07T09:14:30Z</time>
      </trkpt>
      <trkpt lat="44.06027" lon="1.35163">
        <ele>96</ele>
        <time>2023-07-07T09:14:34Z</time>
      </trkpt>
      <trkpt lat="44.06025" lon="1.35168">
        <ele>96</ele>
        <time>2023-07-07T09:14:38Z</time>
      </trkpt>
      <trkpt lat="44.06022" lon="1.35171">
        <ele>96</ele>
        <time>2023-07-07T09:14:41Z</time>
      </trkpt>
      <trkpt lat="44.0602" lon="1.35175">
        <ele>96</ele>
        <time>2023-07-07T09:14:44Z</time>
      </trkpt>
      <trkpt lat="44.06016" lon="1.3518">
        <ele>95.8</ele>
        <time>2023-07-07T09:14:48Z</time>
      </trkpt>
      <trkpt lat="44.06008" lon="1.35191">
        <ele>96</ele>
        <time>2023-07-07T09:14:56Z</time>
      </trkpt>
      <trkpt lat="44.06002" lon="1.35202">
        <ele>96</ele>
        <time>2023-07-07T09:15:05Z</time>
      </trkpt>
      <trkpt lat="44.05999" lon="1.35207">
        <ele>95.8</ele>
        <time>2023-07-07T09:15:09Z</time>
      </trkpt>
      <trkpt lat="44.05995" lon="1.35212">
        <ele>96.4</ele>
        <time>2023-07-07T09:15:13Z</time>
      </trkpt>
      <trkpt lat="44.05994" lon="1.35214">
        <ele>96.4</ele>
        <time>2023-07-07T09:15:14Z</time>
      </trkpt>
      <trkpt lat="44.05991" lon="1.35218">
        <ele>96.6</ele>
        <time>2023-07-07T09:15:18Z</time>
      </trkpt>
      <trkpt lat="44.05991" lon="1.35219">
        <ele>96.6</ele>
        <time>2023-07-07T09:15:19Z</time>
      </trkpt>
      <trkpt lat="44.0599" lon="1.3522">
        <ele>96.6</ele>
        <time>2023-07-07T09:15:20Z</time>
      </trkpt>
      <trkpt lat="44.05989" lon="1.35222">
        <ele>96.6</ele>
        <time>2023-07-07T09:15:21Z</time>
      </trkpt>
      <trkpt lat="44.05982" lon="1.35233">
        <ele>96.4</ele>
        <time>2023-07-07T09:15:29Z</time>
      </trkpt>
      <trkpt lat="44.05977" lon="1.35239">
        <ele>96.6</ele>
        <time>2023-07-07T09:15:32Z</time>
      </trkpt>
      <trkpt lat="44.05974" lon="1.35244">
        <ele>96.6</ele>
        <time>2023-07-07T09:15:37Z</time>
      </trkpt>
      <trkpt lat="44.05969" lon="1.35254">
        <ele>96.4</ele>
        <time>2023-07-07T09:15:44Z</time>
      </trkpt>
      <trkpt lat="44.05969" lon="1.35256">
        <ele>96.4</ele>
        <time>2023-07-07T09:15:45Z</time>
      </trkpt>
      <trkpt lat="44.05962" lon="1.3527">
        <ele>96.4</ele>
        <time>2023-07-07T09:15:53Z</time>
      </trkpt>
      <trkpt lat="44.05961" lon="1.35271">
        <ele>96.4</ele>
        <time>2023-07-07T09:15:54Z</time>
      </trkpt>
      <trkpt lat="44.0596" lon="1.35273">
        <ele>96.4</ele>
        <time>2023-07-07T09:15:56Z</time>
      </trkpt>
      <trkpt lat="44.05956" lon="1.35276">
        <ele>96.4</ele>
        <time>2023-07-07T09:15:59Z</time>
      </trkpt>
      <trkpt lat="44.0595" lon="1.35283">
        <ele>96.4</ele>
        <time>2023-07-07T09:16:06Z</time>
      </trkpt>
      <trkpt lat="44.05944" lon="1.35288">
        <ele>96.4</ele>
        <time>2023-07-07T09:16:12Z</time>
      </trkpt>
      <trkpt lat="44.05939" lon="1.35295">
        <ele>96.4</ele>
        <time>2023-07-07T09:16:18Z</time>
      </trkpt>
      <trkpt lat="44.05938" lon="1.35297">
        <ele>96.4</ele>
        <time>2023-07-07T09:16:19Z</time>
      </trkpt>
      <trkpt lat="44.05934" lon="1.35302">
        <ele>96.2</ele>
        <time>2023-07-07T09:16:23Z</time>
      </trkpt>
      <trkpt lat="44.05931" lon="1.35306">
        <ele>96.2</ele>
        <time>2023-07-07T09:16:27Z</time>
      </trkpt>
      <trkpt lat="44.05924" lon="1.35314">
        <ele>96.4</ele>
        <time>2023-07-07T09:16:35Z</time>
      </trkpt>
      <trkpt lat="44.05916" lon="1.35328">
        <ele>96</ele>
        <time>2023-07-07T09:16:44Z</time>
      </trkpt>
      <trkpt lat="44.0591" lon="1.35336">
        <ele>96.2</ele>
        <time>2023-07-07T09:16:52Z</time>
      </trkpt>
      <trkpt lat="44.05903" lon="1.35344">
        <ele>96.6</ele>
        <time>2023-07-07T09:17:00Z</time>
      </trkpt>
      <trkpt lat="44.05897" lon="1.35353">
        <ele>96.6</ele>
        <time>2023-07-07T09:17:06Z</time>
      </trkpt>
      <trkpt lat="44.05893" lon="1.35361">
        <ele>96.2</ele>
        <time>2023-07-07T09:17:11Z</time>
      </trkpt>
      <trkpt lat="44.05892" lon="1.35363">
        <ele>96.2</ele>
        <time>2023-07-07T09:17:13Z</time>
      </trkpt>
      <trkpt lat="44.05887" lon="1.3537">
        <ele>96.6</ele>
        <time>2023-07-07T09:17:19Z</time>
      </trkpt>
      <trkpt lat="44.05885" lon="1.35373">
        <ele>96.8</ele>
        <time>2023-07-07T09:17:21Z</time>
      </trkpt>
      <trkpt lat="44.05878" lon="1.35384">
        <ele>96.4</ele>
        <time>2023-07-07T09:17:29Z</time>
      </trkpt>
      <trkpt lat="44.05871" lon="1.35393">
        <ele>96.4</ele>
        <time>2023-07-07T09:17:35Z</time>
      </trkpt>
      <trkpt lat="44.05865" lon="1.35402">
        <ele>96.4</ele>
        <time>2023-07-07T09:17:42Z</time>
      </trkpt>
      <trkpt lat="44.05861" lon="1.35406">
        <ele>97</ele>
        <time>2023-07-07T09:17:46Z</time>
      </trkpt>
      <trkpt lat="44.0586" lon="1.35408">
        <ele>97</ele>
        <time>2023-07-07T09:17:47Z</time>
      </trkpt>
      <trkpt lat="44.05856" lon="1.35412">
        <ele>97</ele>
        <time>2023-07-07T09:17:51Z</time>
      </trkpt>
      <trkpt lat="44.05854" lon="1.35415">
        <ele>96.8</ele>
        <time>2023-07-07T09:17:53Z</time>
      </trkpt>
      <trkpt lat="44.05853" lon="1.35416">
        <ele>96.8</ele>
        <time>2023-07-07T09:17:54Z</time>
      </trkpt>
      <trkpt lat="44.05847" lon="1.35422">
        <ele>96.6</ele>
        <time>2023-07-07T09:17:59Z</time>
      </trkpt>
      <trkpt lat="44.05839" lon="1.3543">
        <ele>97.2</ele>
        <time>2023-07-07T09:18:06Z</time>
      </trkpt>
      <trkpt lat="44.05832" lon="1.35439">
        <ele>96.6</ele>
        <time>2023-07-07T09:18:15Z</time>
      </trkpt>
      <trkpt lat="44.05826" lon="1.35449">
        <ele>96.8</ele>
        <time>2023-07-07T09:18:23Z</time>
      </trkpt>
      <trkpt lat="44.0582" lon="1.35458">
        <ele>96.8</ele>
        <time>2023-07-07T09:18:31Z</time>
      </trkpt>
      <trkpt lat="44.05814" lon="1.35469">
        <ele>96.8</ele>
        <time>2023-07-07T09:18:40Z</time>
      </trkpt>
      <trkpt lat="44.05808" lon="1.35477">
        <ele>95.6</ele>
        <time>2023-07-07T09:18:46Z</time>
      </trkpt>
      <trkpt lat="44.05807" lon="1.35478">
        <ele>95.6</ele>
        <time>2023-07-07T09:18:47Z</time>
      </trkpt>
      <trkpt lat="44.05796" lon="1.35492">
        <ele>95.8</ele>
        <time>2023-07-07T09:18:57Z</time>
      </trkpt>
      <trkpt lat="44.05786" lon="1.35504">
        <ele>95.8</ele>
        <time>2023-07-07T09:19:06Z</time>
      </trkpt>
      <trkpt lat="44.0578" lon="1.35511">
        <ele>96.2</ele>
        <time>2023-07-07T09:19:12Z</time>
      </trkpt>
      <trkpt lat="44.05778" lon="1.35514">
        <ele>96.2</ele>
        <time>2023-07-07T09:19:14Z</time>
      </trkpt>
      <trkpt lat="44.05775" lon="1.35516">
        <ele>96.2</ele>
        <time>2023-07-07T09:19:16Z</time>
      </trkpt>
      <trkpt lat="44.05774" lon="1.35519">
        <ele>96</ele>
        <time>2023-07-07T09:19:18Z</time>
      </trkpt>
      <trkpt lat="44.05769" lon="1.35525">
        <ele>96</ele>
        <time>2023-07-07T09:19:23Z</time>
      </trkpt>
      <trkpt lat="44.05767" lon="1.35529">
        <ele>96.2</ele>
        <time>2023-07-07T09:19:26Z</time>
      </trkpt>
      <trkpt lat="44.0576" lon="1.35537">
        <ele>96.2</ele>
        <time>2023-07-07T09:19:33Z</time>
      </trkpt>
      <trkpt lat="44.05755" lon="1.35545">
        <ele>96.6</ele>
        <time>2023-07-07T09:19:40Z</time>
      </trkpt>
      <trkpt lat="44.05753" lon="1.35547">
        <ele>96.6</ele>
        <time>2023-07-07T09:19:42Z</time>
      </trkpt>
      <trkpt lat="44.0575" lon="1.35551">
        <ele>96.4</ele>
        <time>2023-07-07T09:19:45Z</time>
      </trkpt>
      <trkpt lat="44.05743" lon="1.35561">
        <ele>96.2</ele>
        <time>2023-07-07T09:19:52Z</time>
      </trkpt>
      <trkpt lat="44.05738" lon="1.35566">
        <ele>95.6</ele>
        <time>2023-07-07T09:19:59Z</time>
      </trkpt>
      <trkpt lat="44.05733" lon="1.35571">
        <ele>95.4</ele>
        <time>2023-07-07T09:20:05Z</time>
      </trkpt>
      <trkpt lat="44.05731" lon="1.35573">
        <ele>95.2</ele>
        <time>2023-07-07T09:20:06Z</time>
      </trkpt>
      <trkpt lat="44.05731" lon="1.35573">
        <ele>95.2</ele>
        <time>2023-07-07T09:20:07Z</time>
      </trkpt>
      <trkpt lat="44.05727" lon="1.35577">
        <ele>95.6</ele>
        <time>2023-07-07T09:20:10Z</time>
      </trkpt>
      <trkpt lat="44.05721" lon="1.35585">
        <ele>95.8</ele>
        <time>2023-07-07T09:20:16Z</time>
      </trkpt>
      <trkpt lat="44.05713" lon="1.35596">
        <ele>95.6</ele>
        <time>2023-07-07T09:20:24Z</time>
      </trkpt>
      <trkpt lat="44.05709" lon="1.356">
        <ele>95.2</ele>
        <time>2023-07-07T09:20:29Z</time>
      </trkpt>
      <trkpt lat="44.05708" lon="1.35601">
        <ele>95.2</ele>
        <time>2023-07-07T09:20:30Z</time>
      </trkpt>
      <trkpt lat="44.05707" lon="1.35602">
        <ele>95</ele>
        <time>2023-07-07T09:20:31Z</time>
      </trkpt>
      <trkpt lat="44.05706" lon="1.35602">
        <ele>95</ele>
        <time>2023-07-07T09:20:32Z</time>
      </trkpt>
      <trkpt lat="44.05705" lon="1.35603">
        <ele>95</ele>
        <time>2023-07-07T09:20:33Z</time>
      </trkpt>
      <trkpt lat="44.05704" lon="1.35604">
        <ele>95</ele>
        <time>2023-07-07T09:20:34Z</time>
      </trkpt>
      <trkpt lat="44.05703" lon="1.35605">
        <ele>94.8</ele>
        <time>2023-07-07T09:20:35Z</time>
      </trkpt>
      <trkpt lat="44.05701" lon="1.35609">
        <ele>94.8</ele>
        <time>2023-07-07T09:20:38Z</time>
      </trkpt>
      <trkpt lat="44.05699" lon="1.35611">
        <ele>94.8</ele>
        <time>2023-07-07T09:20:40Z</time>
      </trkpt>
      <trkpt lat="44.05696" lon="1.35613">
        <ele>94.8</ele>
        <time>2023-07-07T09:20:42Z</time>
      </trkpt>
      <trkpt lat="44.05692" lon="1.35618">
        <ele>94.8</ele>
        <time>2023-07-07T09:20:46Z</time>
      </trkpt>
      <trkpt lat="44.0569" lon="1.3562">
        <ele>95.2</ele>
        <time>2023-07-07T09:20:48Z</time>
      </trkpt>
      <trkpt lat="44.0568" lon="1.35628">
        <ele>95</ele>
        <time>2023-07-07T09:20:56Z</time>
      </trkpt>
      <trkpt lat="44.05679" lon="1.35629">
        <ele>95</ele>
        <time>2023-07-07T09:20:57Z</time>
      </trkpt>
      <trkpt lat="44.05678" lon="1.3563">
        <ele>95</ele>
        <time>2023-07-07T09:20:58Z</time>
      </trkpt>
      <trkpt lat="44.05676" lon="1.35631">
        <ele>95</ele>
        <time>2023-07-07T09:21:00Z</time>
      </trkpt>
      <trkpt lat="44.05672" lon="1.35635">
        <ele>94.8</ele>
        <time>2023-07-07T09:21:04Z</time>
      </trkpt>
      <trkpt lat="44.05672" lon="1.35635">
        <ele>94.8</ele>
        <time>2023-07-07T09:21:05Z</time>
      </trkpt>
      <trkpt lat="44.05666" lon="1.35644">
        <ele>94.4</ele>
        <time>2023-07-07T09:21:11Z</time>
      </trkpt>
      <trkpt lat="44.05665" lon="1.35645">
        <ele>94.2</ele>
        <time>2023-07-07T09:21:12Z</time>
      </trkpt>
      <trkpt lat="44.05656" lon="1.35655">
        <ele>94.4</ele>
        <time>2023-07-07T09:21:20Z</time>
      </trkpt>
      <trkpt lat="44.05652" lon="1.35658">
        <ele>94.8</ele>
        <time>2023-07-07T09:21:24Z</time>
      </trkpt>
      <trkpt lat="44.05649" lon="1.35662">
        <ele>94.8</ele>
        <time>2023-07-07T09:21:28Z</time>
      </trkpt>
      <trkpt lat="44.05643" lon="1.35671">
        <ele>94.6</ele>
        <time>2023-07-07T09:21:34Z</time>
      </trkpt>
      <trkpt lat="44.05638" lon="1.35677">
        <ele>94.4</ele>
        <time>2023-07-07T09:21:39Z</time>
      </trkpt>
      <trkpt lat="44.05634" lon="1.35682">
        <ele>94.2</ele>
        <time>2023-07-07T09:21:43Z</time>
      </trkpt>
      <trkpt lat="44.05629" lon="1.35686">
        <ele>94.6</ele>
        <time>2023-07-07T09:21:49Z</time>
      </trkpt>
      <trkpt lat="44.05624" lon="1.35694">
        <ele>94.4</ele>
        <time>2023-07-07T09:21:55Z</time>
      </trkpt>
      <trkpt lat="44.05621" lon="1.35698">
        <ele>94.2</ele>
        <time>2023-07-07T09:21:58Z</time>
      </trkpt>
      <trkpt lat="44.05617" lon="1.35704">
        <ele>94.2</ele>
        <time>2023-07-07T09:22:03Z</time>
      </trkpt>
      <trkpt lat="44.05616" lon="1.35705">
        <ele>94.2</ele>
        <time>2023-07-07T09:22:04Z</time>
      </trkpt>
      <trkpt lat="44.05613" lon="1.35708">
        <ele>94</ele>
        <time>2023-07-07T09:22:07Z</time>
      </trkpt>
      <trkpt lat="44.05611" lon="1.35711">
        <ele>94.6</ele>
        <time>2023-07-07T09:22:10Z</time>
      </trkpt>
      <trkpt lat="44.05607" lon="1.35716">
        <ele>94.6</ele>
        <time>2023-07-07T09:22:14Z</time>
      </trkpt>
      <trkpt lat="44.05606" lon="1.35718">
        <ele>94.4</ele>
        <time>2023-07-07T09:22:15Z</time>
      </trkpt>
      <trkpt lat="44.05604" lon="1.3572">
        <ele>94.4</ele>
        <time>2023-07-07T09:22:17Z</time>
      </trkpt>
      <trkpt lat="44.05601" lon="1.35723">
        <ele>94.6</ele>
        <time>2023-07-07T09:22:20Z</time>
      </trkpt>
      <trkpt lat="44.05597" lon="1.35732">
        <ele>94.8</ele>
        <time>2023-07-07T09:22:25Z</time>
      </trkpt>
      <trkpt lat="44.05596" lon="1.35734">
        <ele>94.8</ele>
        <time>2023-07-07T09:22:26Z</time>
      </trkpt>
      <trkpt lat="44.05595" lon="1.35736">
        <ele>94.8</ele>
        <time>2023-07-07T09:22:27Z</time>
      </trkpt>
      <trkpt lat="44.05594" lon="1.35737">
        <ele>95</ele>
        <time>2023-07-07T09:22:28Z</time>
      </trkpt>
      <trkpt lat="44.05592" lon="1.3574">
        <ele>95.2</ele>
        <time>2023-07-07T09:22:30Z</time>
      </trkpt>
      <trkpt lat="44.05591" lon="1.35741">
        <ele>95.2</ele>
        <time>2023-07-07T09:22:31Z</time>
      </trkpt>
      <trkpt lat="44.0559" lon="1.35742">
        <ele>95.2</ele>
        <time>2023-07-07T09:22:32Z</time>
      </trkpt>
      <trkpt lat="44.05589" lon="1.35743">
        <ele>95.2</ele>
        <time>2023-07-07T09:22:33Z</time>
      </trkpt>
      <trkpt lat="44.05585" lon="1.35749">
        <ele>94.6</ele>
        <time>2023-07-07T09:22:37Z</time>
      </trkpt>
      <trkpt lat="44.05582" lon="1.35753">
        <ele>94.6</ele>
        <time>2023-07-07T09:22:41Z</time>
      </trkpt>
      <trkpt lat="44.05578" lon="1.3576">
        <ele>95.2</ele>
        <time>2023-07-07T09:22:47Z</time>
      </trkpt>
      <trkpt lat="44.05575" lon="1.35764">
        <ele>95.4</ele>
        <time>2023-07-07T09:22:50Z</time>
      </trkpt>
      <trkpt lat="44.05569" lon="1.35771">
        <ele>95.4</ele>
        <time>2023-07-07T09:22:55Z</time>
      </trkpt>
      <trkpt lat="44.05566" lon="1.35775">
        <ele>95.4</ele>
        <time>2023-07-07T09:22:59Z</time>
      </trkpt>
      <trkpt lat="44.05561" lon="1.35781">
        <ele>95</ele>
        <time>2023-07-07T09:23:06Z</time>
      </trkpt>
      <trkpt lat="44.05558" lon="1.35784">
        <ele>95</ele>
        <time>2023-07-07T09:23:09Z</time>
      </trkpt>
      <trkpt lat="44.05553" lon="1.35792">
        <ele>95.2</ele>
        <time>2023-07-07T09:23:15Z</time>
      </trkpt>
      <trkpt lat="44.05546" lon="1.35803">
        <ele>95.4</ele>
        <time>2023-07-07T09:23:23Z</time>
      </trkpt>
      <trkpt lat="44.05543" lon="1.35806">
        <ele>95.4</ele>
        <time>2023-07-07T09:23:26Z</time>
      </trkpt>
      <trkpt lat="44.05542" lon="1.35807">
        <ele>95.4</ele>
        <time>2023-07-07T09:23:27Z</time>
      </trkpt>
      <trkpt lat="44.0554" lon="1.35809">
        <ele>95.4</ele>
        <time>2023-07-07T09:23:29Z</time>
      </trkpt>
      <trkpt lat="44.05537" lon="1.35813">
        <ele>95.4</ele>
        <time>2023-07-07T09:23:32Z</time>
      </trkpt>
      <trkpt lat="44.05529" lon="1.35825">
        <ele>96</ele>
        <time>2023-07-07T09:23:41Z</time>
      </trkpt>
      <trkpt lat="44.05526" lon="1.3583">
        <ele>96.4</ele>
        <time>2023-07-07T09:23:44Z</time>
      </trkpt>
      <trkpt lat="44.05517" lon="1.35839">
        <ele>96.2</ele>
        <time>2023-07-07T09:23:52Z</time>
      </trkpt>
      <trkpt lat="44.05509" lon="1.35849">
        <ele>96</ele>
        <time>2023-07-07T09:24:00Z</time>
      </trkpt>
      <trkpt lat="44.05499" lon="1.35858">
        <ele>96.6</ele>
        <time>2023-07-07T09:24:10Z</time>
      </trkpt>
      <trkpt lat="44.05495" lon="1.35859">
        <ele>96.6</ele>
        <time>2023-07-07T09:24:14Z</time>
      </trkpt>
      <trkpt lat="44.05495" lon="1.3586">
        <ele>96.6</ele>
        <time>2023-07-07T09:24:15Z</time>
      </trkpt>
      <trkpt lat="44.05494" lon="1.35861">
        <ele>96.8</ele>
        <time>2023-07-07T09:24:16Z</time>
      </trkpt>
      <trkpt lat="44.05491" lon="1.35864">
        <ele>97</ele>
        <time>2023-07-07T09:24:19Z</time>
      </trkpt>
      <trkpt lat="44.05488" lon="1.35864">
        <ele>96.8</ele>
        <time>2023-07-07T09:24:22Z</time>
      </trkpt>
      <trkpt lat="44.05484" lon="1.35866">
        <ele>96.6</ele>
        <time>2023-07-07T09:24:25Z</time>
      </trkpt>
      <trkpt lat="44.05474" lon="1.3587">
        <ele>97</ele>
        <time>2023-07-07T09:24:33Z</time>
      </trkpt>
      <trkpt lat="44.05465" lon="1.3587">
        <ele>96.6</ele>
        <time>2023-07-07T09:24:40Z</time>
      </trkpt>
      <trkpt lat="44.05456" lon="1.35873">
        <ele>96.8</ele>
        <time>2023-07-07T09:24:47Z</time>
      </trkpt>
      <trkpt lat="44.05452" lon="1.35873">
        <ele>97.4</ele>
        <time>2023-07-07T09:24:50Z</time>
      </trkpt>
      <trkpt lat="44.05449" lon="1.35874">
        <ele>97.4</ele>
        <time>2023-07-07T09:24:52Z</time>
      </trkpt>
      <trkpt lat="44.05444" lon="1.35877">
        <ele>96.8</ele>
        <time>2023-07-07T09:24:56Z</time>
      </trkpt>
      <trkpt lat="44.05436" lon="1.35881">
        <ele>97</ele>
        <time>2023-07-07T09:25:02Z</time>
      </trkpt>
      <trkpt lat="44.05433" lon="1.35883">
        <ele>97</ele>
        <time>2023-07-07T09:25:04Z</time>
      </trkpt>
      <trkpt lat="44.05424" lon="1.35887">
        <ele>97.4</ele>
        <time>2023-07-07T09:25:12Z</time>
      </trkpt>
      <trkpt lat="44.05421" lon="1.35888">
        <ele>97.6</ele>
        <time>2023-07-07T09:25:14Z</time>
      </trkpt>
      <trkpt lat="44.0542" lon="1.35889">
        <ele>97.4</ele>
        <time>2023-07-07T09:25:15Z</time>
      </trkpt>
      <trkpt lat="44.05412" lon="1.35891">
        <ele>97.6</ele>
        <time>2023-07-07T09:25:22Z</time>
      </trkpt>
      <trkpt lat="44.05411" lon="1.35892">
        <ele>97.6</ele>
        <time>2023-07-07T09:25:23Z</time>
      </trkpt>
      <trkpt lat="44.05406" lon="1.35895">
        <ele>97.8</ele>
        <time>2023-07-07T09:25:28Z</time>
      </trkpt>
      <trkpt lat="44.054" lon="1.35897">
        <ele>97.8</ele>
        <time>2023-07-07T09:25:32Z</time>
      </trkpt>
      <trkpt lat="44.05394" lon="1.359">
        <ele>97.8</ele>
        <time>2023-07-07T09:25:37Z</time>
      </trkpt>
      <trkpt lat="44.05387" lon="1.35902">
        <ele>97.4</ele>
        <time>2023-07-07T09:25:42Z</time>
      </trkpt>
      <trkpt lat="44.05377" lon="1.35904">
        <ele>98.2</ele>
        <time>2023-07-07T09:25:50Z</time>
      </trkpt>
      <trkpt lat="44.05375" lon="1.35904">
        <ele>98.4</ele>
        <time>2023-07-07T09:25:52Z</time>
      </trkpt>
      <trkpt lat="44.05366" lon="1.35905">
        <ele>98.2</ele>
        <time>2023-07-07T09:25:59Z</time>
      </trkpt>
      <trkpt lat="44.05359" lon="1.3591">
        <ele>98.2</ele>
        <time>2023-07-07T09:26:04Z</time>
      </trkpt>
      <trkpt lat="44.05356" lon="1.35911">
        <ele>98.2</ele>
        <time>2023-07-07T09:26:06Z</time>
      </trkpt>
      <trkpt lat="44.05347" lon="1.35917">
        <ele>98.6</ele>
        <time>2023-07-07T09:26:13Z</time>
      </trkpt>
      <trkpt lat="44.05346" lon="1.35917">
        <ele>98.6</ele>
        <time>2023-07-07T09:26:14Z</time>
      </trkpt>
      <trkpt lat="44.05337" lon="1.35918">
        <ele>98.8</ele>
        <time>2023-07-07T09:26:21Z</time>
      </trkpt>
      <trkpt lat="44.05336" lon="1.35918">
        <ele>98.6</ele>
        <time>2023-07-07T09:26:22Z</time>
      </trkpt>
      <trkpt lat="44.05334" lon="1.35919">
        <ele>98.6</ele>
        <time>2023-07-07T09:26:23Z</time>
      </trkpt>
      <trkpt lat="44.05327" lon="1.3592">
        <ele>98.6</ele>
        <time>2023-07-07T09:26:29Z</time>
      </trkpt>
      <trkpt lat="44.05316" lon="1.35926">
        <ele>99</ele>
        <time>2023-07-07T09:26:38Z</time>
      </trkpt>
      <trkpt lat="44.05313" lon="1.35926">
        <ele>99</ele>
        <time>2023-07-07T09:26:40Z</time>
      </trkpt>
      <trkpt lat="44.05305" lon="1.35929">
        <ele>99.2</ele>
        <time>2023-07-07T09:26:47Z</time>
      </trkpt>
      <trkpt lat="44.05294" lon="1.35931">
        <ele>99.2</ele>
        <time>2023-07-07T09:26:55Z</time>
      </trkpt>
      <trkpt lat="44.05292" lon="1.35931">
        <ele>99.4</ele>
        <time>2023-07-07T09:26:57Z</time>
      </trkpt>
      <trkpt lat="44.05284" lon="1.35933">
        <ele>100</ele>
        <time>2023-07-07T09:27:03Z</time>
      </trkpt>
      <trkpt lat="44.0528" lon="1.35937">
        <ele>100</ele>
        <time>2023-07-07T09:27:07Z</time>
      </trkpt>
      <trkpt lat="44.05278" lon="1.35938">
        <ele>100</ele>
        <time>2023-07-07T09:27:08Z</time>
      </trkpt>
      <trkpt lat="44.05277" lon="1.35939">
        <ele>100</ele>
        <time>2023-07-07T09:27:09Z</time>
      </trkpt>
      <trkpt lat="44.05267" lon="1.35944">
        <ele>100</ele>
        <time>2023-07-07T09:27:18Z</time>
      </trkpt>
      <trkpt lat="44.05267" lon="1.35944">
        <ele>100</ele>
        <time>2023-07-07T09:27:19Z</time>
      </trkpt>
      <trkpt lat="44.05264" lon="1.35946">
        <ele>100</ele>
        <time>2023-07-07T09:27:23Z</time>
      </trkpt>
      <trkpt lat="44.05264" lon="1.35946">
        <ele>100</ele>
        <time>2023-07-07T09:27:24Z</time>
      </trkpt>
      <trkpt lat="44.05263" lon="1.35946">
        <ele>100</ele>
        <time>2023-07-07T09:27:25Z</time>
      </trkpt>
      <trkpt lat="44.05259" lon="1.35946">
        <ele>100.2</ele>
        <time>2023-07-07T09:27:28Z</time>
      </trkpt>
      <trkpt lat="44.05254" lon="1.35947">
        <ele>100.2</ele>
        <time>2023-07-07T09:27:32Z</time>
      </trkpt>
      <trkpt lat="44.05254" lon="1.35947">
        <ele>100.2</ele>
        <time>2023-07-07T09:27:33Z</time>
      </trkpt>
      <trkpt lat="44.05248" lon="1.35948">
        <ele>100.4</ele>
        <time>2023-07-07T09:27:37Z</time>
      </trkpt>
      <trkpt lat="44.05245" lon="1.35947">
        <ele>100.6</ele>
        <time>2023-07-07T09:27:39Z</time>
      </trkpt>
      <trkpt lat="44.0524" lon="1.35947">
        <ele>100.4</ele>
        <time>2023-07-07T09:27:43Z</time>
      </trkpt>
      <trkpt lat="44.05235" lon="1.35947">
        <ele>100.2</ele>
        <time>2023-07-07T09:27:47Z</time>
      </trkpt>
      <trkpt lat="44.05229" lon="1.35944">
        <ele>100.4</ele>
        <time>2023-07-07T09:27:53Z</time>
      </trkpt>
      <trkpt lat="44.05228" lon="1.35944">
        <ele>100.4</ele>
        <time>2023-07-07T09:27:54Z</time>
      </trkpt>
      <trkpt lat="44.05227" lon="1.35944">
        <ele>100.6</ele>
        <time>2023-07-07T09:27:55Z</time>
      </trkpt>
      <trkpt lat="44.05221" lon="1.35942">
        <ele>100.6</ele>
        <time>2023-07-07T09:27:59Z</time>
      </trkpt>
      <trkpt lat="44.05216" lon="1.35942">
        <ele>100.6</ele>
        <time>2023-07-07T09:28:02Z</time>
      </trkpt>
      <trkpt lat="44.05205" lon="1.35941">
        <ele>101.2</ele>
        <time>2023-07-07T09:28:10Z</time>
      </trkpt>
      <trkpt lat="44.05202" lon="1.35941">
        <ele>101.6</ele>
        <time>2023-07-07T09:28:13Z</time>
      </trkpt>
      <trkpt lat="44.05196" lon="1.35938">
        <ele>101.6</ele>
        <time>2023-07-07T09:28:18Z</time>
      </trkpt>
      <trkpt lat="44.05191" lon="1.35938">
        <ele>101.2</ele>
        <time>2023-07-07T09:28:22Z</time>
      </trkpt>
      <trkpt lat="44.05189" lon="1.35937">
        <ele>101.2</ele>
        <time>2023-07-07T09:28:24Z</time>
      </trkpt>
      <trkpt lat="44.05186" lon="1.35935">
        <ele>101.4</ele>
        <time>2023-07-07T09:28:27Z</time>
      </trkpt>
      <trkpt lat="44.05182" lon="1.35933">
        <ele>101.6</ele>
        <time>2023-07-07T09:28:31Z</time>
      </trkpt>
      <trkpt lat="44.0518" lon="1.35932">
        <ele>102</ele>
        <time>2023-07-07T09:28:33Z</time>
      </trkpt>
      <trkpt lat="44.05177" lon="1.35931">
        <ele>102.2</ele>
        <time>2023-07-07T09:28:35Z</time>
      </trkpt>
      <trkpt lat="44.05174" lon="1.35931">
        <ele>102.2</ele>
        <time>2023-07-07T09:28:38Z</time>
      </trkpt>
      <trkpt lat="44.05171" lon="1.3593">
        <ele>102</ele>
        <time>2023-07-07T09:28:40Z</time>
      </trkpt>
      <trkpt lat="44.05165" lon="1.35929">
        <ele>102.4</ele>
        <time>2023-07-07T09:28:45Z</time>
      </trkpt>
      <trkpt lat="44.05161" lon="1.35928">
        <ele>102.2</ele>
        <time>2023-07-07T09:28:48Z</time>
      </trkpt>
      <trkpt lat="44.05157" lon="1.35927">
        <ele>102.2</ele>
        <time>2023-07-07T09:28:51Z</time>
      </trkpt>
      <trkpt lat="44.05155" lon="1.35926">
        <ele>102.2</ele>
        <time>2023-07-07T09:28:53Z</time>
      </trkpt>
      <trkpt lat="44.05145" lon="1.35923">
        <ele>102.4</ele>
        <time>2023-07-07T09:29:02Z</time>
      </trkpt>
      <trkpt lat="44.05143" lon="1.35923">
        <ele>102.6</ele>
        <time>2023-07-07T09:29:04Z</time>
      </trkpt>
      <trkpt lat="44.05136" lon="1.35923">
        <ele>103</ele>
        <time>2023-07-07T09:29:09Z</time>
      </trkpt>
      <trkpt lat="44.05127" lon="1.35921">
        <ele>102.8</ele>
        <time>2023-07-07T09:29:17Z</time>
      </trkpt>
      <trkpt lat="44.05115" lon="1.35917">
        <ele>103</ele>
        <time>2023-07-07T09:29:26Z</time>
      </trkpt>
      <trkpt lat="44.05114" lon="1.35917">
        <ele>103</ele>
        <time>2023-07-07T09:29:27Z</time>
      </trkpt>
      <trkpt lat="44.05104" lon="1.35914">
        <ele>103.2</ele>
        <time>2023-07-07T09:29:34Z</time>
      </trkpt>
      <trkpt lat="44.05102" lon="1.35913">
        <ele>103.4</ele>
        <time>2023-07-07T09:29:36Z</time>
      </trkpt>
      <trkpt lat="44.05099" lon="1.35912">
        <ele>103.8</ele>
        <time>2023-07-07T09:29:39Z</time>
      </trkpt>
      <trkpt lat="44.05097" lon="1.35911">
        <ele>103.8</ele>
        <time>2023-07-07T09:29:42Z</time>
      </trkpt>
      <trkpt lat="44.05088" lon="1.35909">
        <ele>103.6</ele>
        <time>2023-07-07T09:29:49Z</time>
      </trkpt>
      <trkpt lat="44.05079" lon="1.35909">
        <ele>104</ele>
        <time>2023-07-07T09:29:57Z</time>
      </trkpt>
      <trkpt lat="44.05069" lon="1.35906">
        <ele>104.2</ele>
        <time>2023-07-07T09:30:05Z</time>
      </trkpt>
      <trkpt lat="44.05065" lon="1.35904">
        <ele>103.6</ele>
        <time>2023-07-07T09:30:09Z</time>
      </trkpt>
      <trkpt lat="44.05058" lon="1.35902">
        <ele>103.8</ele>
        <time>2023-07-07T09:30:14Z</time>
      </trkpt>
      <trkpt lat="44.05057" lon="1.35902">
        <ele>103.8</ele>
        <time>2023-07-07T09:30:15Z</time>
      </trkpt>
      <trkpt lat="44.05047" lon="1.359">
        <ele>103.8</ele>
        <time>2023-07-07T09:30:23Z</time>
      </trkpt>
      <trkpt lat="44.05043" lon="1.359">
        <ele>104</ele>
        <time>2023-07-07T09:30:26Z</time>
      </trkpt>
      <trkpt lat="44.05037" lon="1.35898">
        <ele>104</ele>
        <time>2023-07-07T09:30:32Z</time>
      </trkpt>
      <trkpt lat="44.05026" lon="1.35895">
        <ele>104</ele>
        <time>2023-07-07T09:30:41Z</time>
      </trkpt>
      <trkpt lat="44.05013" lon="1.35893">
        <ele>104.4</ele>
        <time>2023-07-07T09:30:50Z</time>
      </trkpt>
      <trkpt lat="44.05011" lon="1.35893">
        <ele>104.6</ele>
        <time>2023-07-07T09:30:51Z</time>
      </trkpt>
      <trkpt lat="44.05008" lon="1.35893">
        <ele>104.8</ele>
        <time>2023-07-07T09:30:53Z</time>
      </trkpt>
      <trkpt lat="44.05003" lon="1.35893">
        <ele>105.2</ele>
        <time>2023-07-07T09:30:58Z</time>
      </trkpt>
      <trkpt lat="44.05001" lon="1.35894">
        <ele>105.2</ele>
        <time>2023-07-07T09:31:00Z</time>
      </trkpt>
      <trkpt lat="44.04999" lon="1.35896">
        <ele>105.2</ele>
        <time>2023-07-07T09:31:02Z</time>
      </trkpt>
      <trkpt lat="44.04997" lon="1.35899">
        <ele>105.2</ele>
        <time>2023-07-07T09:31:04Z</time>
      </trkpt>
      <trkpt lat="44.04996" lon="1.359">
        <ele>105.2</ele>
        <time>2023-07-07T09:31:05Z</time>
      </trkpt>
      <trkpt lat="44.04994" lon="1.35903">
        <ele>104.8</ele>
        <time>2023-07-07T09:31:07Z</time>
      </trkpt>
      <trkpt lat="44.04992" lon="1.35906">
        <ele>104.8</ele>
        <time>2023-07-07T09:31:09Z</time>
      </trkpt>
      <trkpt lat="44.04991" lon="1.35908">
        <ele>104.6</ele>
        <time>2023-07-07T09:31:10Z</time>
      </trkpt>
      <trkpt lat="44.04985" lon="1.35921">
        <ele>104.8</ele>
        <time>2023-07-07T09:31:18Z</time>
      </trkpt>
      <trkpt lat="44.04986" lon="1.35934">
        <ele>105</ele>
        <time>2023-07-07T09:31:25Z</time>
      </trkpt>
      <trkpt lat="44.04986" lon="1.35939">
        <ele>105</ele>
        <time>2023-07-07T09:31:28Z</time>
      </trkpt>
      <trkpt lat="44.04984" lon="1.35948">
        <ele>104.8</ele>
        <time>2023-07-07T09:31:34Z</time>
      </trkpt>
      <trkpt lat="44.0499" lon="1.35961">
        <ele>104.4</ele>
        <time>2023-07-07T09:31:42Z</time>
      </trkpt>
      <trkpt lat="44.04993" lon="1.35969">
        <ele>104.2</ele>
        <time>2023-07-07T09:31:47Z</time>
      </trkpt>
      <trkpt lat="44.04993" lon="1.35972">
        <ele>104</ele>
        <time>2023-07-07T09:31:49Z</time>
      </trkpt>
      <trkpt lat="44.04994" lon="1.35975">
        <ele>104</ele>
        <time>2023-07-07T09:31:51Z</time>
      </trkpt>
      <trkpt lat="44.04994" lon="1.35978">
        <ele>103.8</ele>
        <time>2023-07-07T09:31:53Z</time>
      </trkpt>
      <trkpt lat="44.04995" lon="1.3598">
        <ele>103.8</ele>
        <time>2023-07-07T09:31:55Z</time>
      </trkpt>
      <trkpt lat="44.04994" lon="1.35988">
        <ele>104</ele>
        <time>2023-07-07T09:32:00Z</time>
      </trkpt>
      <trkpt lat="44.04994" lon="1.3599">
        <ele>104</ele>
        <time>2023-07-07T09:32:01Z</time>
      </trkpt>
      <trkpt lat="44.04988" lon="1.36001">
        <ele>103.8</ele>
        <time>2023-07-07T09:32:09Z</time>
      </trkpt>
      <trkpt lat="44.04988" lon="1.36002">
        <ele>103.8</ele>
        <time>2023-07-07T09:32:10Z</time>
      </trkpt>
      <trkpt lat="44.04984" lon="1.36013">
        <ele>103.6</ele>
        <time>2023-07-07T09:32:16Z</time>
      </trkpt>
      <trkpt lat="44.04979" lon="1.36021">
        <ele>103.8</ele>
        <time>2023-07-07T09:32:22Z</time>
      </trkpt>
      <trkpt lat="44.04979" lon="1.36024">
        <ele>103.8</ele>
        <time>2023-07-07T09:32:24Z</time>
      </trkpt>
      <trkpt lat="44.04978" lon="1.36026">
        <ele>103.8</ele>
        <time>2023-07-07T09:32:25Z</time>
      </trkpt>
      <trkpt lat="44.04977" lon="1.36029">
        <ele>103.8</ele>
        <time>2023-07-07T09:32:27Z</time>
      </trkpt>
      <trkpt lat="44.04977" lon="1.3603">
        <ele>103.8</ele>
        <time>2023-07-07T09:32:28Z</time>
      </trkpt>
      <trkpt lat="44.04977" lon="1.36037">
        <ele>103.6</ele>
        <time>2023-07-07T09:32:32Z</time>
      </trkpt>
      <trkpt lat="44.04972" lon="1.36043">
        <ele>103.6</ele>
        <time>2023-07-07T09:32:38Z</time>
      </trkpt>
      <trkpt lat="44.04966" lon="1.36058">
        <ele>103.6</ele>
        <time>2023-07-07T09:32:47Z</time>
      </trkpt>
      <trkpt lat="44.04964" lon="1.36066">
        <ele>104</ele>
        <time>2023-07-07T09:32:53Z</time>
      </trkpt>
      <trkpt lat="44.04964" lon="1.36067">
        <ele>104</ele>
        <time>2023-07-07T09:32:54Z</time>
      </trkpt>
      <trkpt lat="44.04963" lon="1.3607">
        <ele>104</ele>
        <time>2023-07-07T09:32:56Z</time>
      </trkpt>
      <trkpt lat="44.04957" lon="1.36081">
        <ele>103.4</ele>
        <time>2023-07-07T09:33:05Z</time>
      </trkpt>
      <trkpt lat="44.0495" lon="1.36091">
        <ele>103.6</ele>
        <time>2023-07-07T09:33:13Z</time>
      </trkpt>
      <trkpt lat="44.04948" lon="1.36099">
        <ele>103.6</ele>
        <time>2023-07-07T09:33:19Z</time>
      </trkpt>
      <trkpt lat="44.04947" lon="1.36101">
        <ele>103.4</ele>
        <time>2023-07-07T09:33:20Z</time>
      </trkpt>
      <trkpt lat="44.04947" lon="1.36103">
        <ele>103.4</ele>
        <time>2023-07-07T09:33:21Z</time>
      </trkpt>
      <trkpt lat="44.04943" lon="1.36111">
        <ele>103</ele>
        <time>2023-07-07T09:33:27Z</time>
      </trkpt>
      <trkpt lat="44.04942" lon="1.36114">
        <ele>103</ele>
        <time>2023-07-07T09:33:29Z</time>
      </trkpt>
      <trkpt lat="44.04936" lon="1.36125">
        <ele>103.2</ele>
        <time>2023-07-07T09:33:36Z</time>
      </trkpt>
      <trkpt lat="44.04928" lon="1.36137">
        <ele>102.8</ele>
        <time>2023-07-07T09:33:44Z</time>
      </trkpt>
      <trkpt lat="44.04923" lon="1.36148">
        <ele>103.2</ele>
        <time>2023-07-07T09:33:52Z</time>
      </trkpt>
      <trkpt lat="44.04923" lon="1.36158">
        <ele>103.2</ele>
        <time>2023-07-07T09:34:00Z</time>
      </trkpt>
      <trkpt lat="44.04922" lon="1.3616">
        <ele>103.2</ele>
        <time>2023-07-07T09:34:01Z</time>
      </trkpt>
      <trkpt lat="44.04922" lon="1.36165">
        <ele>103</ele>
        <time>2023-07-07T09:34:05Z</time>
      </trkpt>
      <trkpt lat="44.0492" lon="1.3617">
        <ele>102.8</ele>
        <time>2023-07-07T09:34:09Z</time>
      </trkpt>
      <trkpt lat="44.04917" lon="1.36175">
        <ele>102.8</ele>
        <time>2023-07-07T09:34:12Z</time>
      </trkpt>
      <trkpt lat="44.04916" lon="1.36179">
        <ele>102.8</ele>
        <time>2023-07-07T09:34:15Z</time>
      </trkpt>
      <trkpt lat="44.04913" lon="1.36185">
        <ele>102.6</ele>
        <time>2023-07-07T09:34:19Z</time>
      </trkpt>
      <trkpt lat="44.04912" lon="1.36188">
        <ele>102.4</ele>
        <time>2023-07-07T09:34:21Z</time>
      </trkpt>
      <trkpt lat="44.0491" lon="1.36192">
        <ele>102.4</ele>
        <time>2023-07-07T09:34:24Z</time>
      </trkpt>
      <trkpt lat="44.04909" lon="1.36193">
        <ele>102.4</ele>
        <time>2023-07-07T09:34:25Z</time>
      </trkpt>
      <trkpt lat="44.04907" lon="1.36197">
        <ele>103</ele>
        <time>2023-07-07T09:34:29Z</time>
      </trkpt>
      <trkpt lat="44.04906" lon="1.36199">
        <ele>103</ele>
        <time>2023-07-07T09:34:30Z</time>
      </trkpt>
      <trkpt lat="44.04903" lon="1.36203">
        <ele>103.2</ele>
        <time>2023-07-07T09:34:33Z</time>
      </trkpt>
      <trkpt lat="44.049" lon="1.36208">
        <ele>102.8</ele>
        <time>2023-07-07T09:34:37Z</time>
      </trkpt>
      <trkpt lat="44.04893" lon="1.36216">
        <ele>102.6</ele>
        <time>2023-07-07T09:34:44Z</time>
      </trkpt>
      <trkpt lat="44.04886" lon="1.36221">
        <ele>102.6</ele>
        <time>2023-07-07T09:34:50Z</time>
      </trkpt>
      <trkpt lat="44.04885" lon="1.36223">
        <ele>102.6</ele>
        <time>2023-07-07T09:34:51Z</time>
      </trkpt>
      <trkpt lat="44.0488" lon="1.36234">
        <ele>102.8</ele>
        <time>2023-07-07T09:34:57Z</time>
      </trkpt>
      <trkpt lat="44.0488" lon="1.36236">
        <ele>102.6</ele>
        <time>2023-07-07T09:34:58Z</time>
      </trkpt>
      <trkpt lat="44.04875" lon="1.36253">
        <ele>102.4</ele>
        <time>2023-07-07T09:35:08Z</time>
      </trkpt>
      <trkpt lat="44.0487" lon="1.36264">
        <ele>102.6</ele>
        <time>2023-07-07T09:35:15Z</time>
      </trkpt>
      <trkpt lat="44.04864" lon="1.36275">
        <ele>103</ele>
        <time>2023-07-07T09:35:23Z</time>
      </trkpt>
      <trkpt lat="44.04855" lon="1.36287">
        <ele>102.8</ele>
        <time>2023-07-07T09:35:32Z</time>
      </trkpt>
      <trkpt lat="44.04855" lon="1.36289">
        <ele>102.8</ele>
        <time>2023-07-07T09:35:34Z</time>
      </trkpt>
      <trkpt lat="44.0485" lon="1.36297">
        <ele>102.6</ele>
        <time>2023-07-07T09:35:40Z</time>
      </trkpt>
      <trkpt lat="44.04849" lon="1.36298">
        <ele>102.6</ele>
        <time>2023-07-07T09:35:41Z</time>
      </trkpt>
      <trkpt lat="44.04844" lon="1.36305">
        <ele>102.6</ele>
        <time>2023-07-07T09:35:46Z</time>
      </trkpt>
      <trkpt lat="44.04842" lon="1.36311">
        <ele>102.6</ele>
        <time>2023-07-07T09:35:50Z</time>
      </trkpt>
      <trkpt lat="44.04841" lon="1.36314">
        <ele>102.4</ele>
        <time>2023-07-07T09:35:52Z</time>
      </trkpt>
      <trkpt lat="44.04841" lon="1.36316">
        <ele>102.4</ele>
        <time>2023-07-07T09:35:53Z</time>
      </trkpt>
      <trkpt lat="44.04835" lon="1.36327">
        <ele>101.8</ele>
        <time>2023-07-07T09:36:01Z</time>
      </trkpt>
      <trkpt lat="44.04834" lon="1.36329">
        <ele>101.8</ele>
        <time>2023-07-07T09:36:03Z</time>
      </trkpt>
      <trkpt lat="44.04829" lon="1.36338">
        <ele>102</ele>
        <time>2023-07-07T09:36:09Z</time>
      </trkpt>
      <trkpt lat="44.04829" lon="1.3634">
        <ele>102</ele>
        <time>2023-07-07T09:36:10Z</time>
      </trkpt>
      <trkpt lat="44.04828" lon="1.36342">
        <ele>102</ele>
        <time>2023-07-07T09:36:12Z</time>
      </trkpt>
      <trkpt lat="44.04827" lon="1.36347">
        <ele>102</ele>
        <time>2023-07-07T09:36:13Z</time>
      </trkpt>
      <trkpt lat="44.04827" lon="1.36347">
        <ele>102</ele>
        <time>2023-07-07T09:36:14Z</time>
      </trkpt>
      <trkpt lat="44.04826" lon="1.36351">
        <ele>102.2</ele>
        <time>2023-07-07T09:36:17Z</time>
      </trkpt>
      <trkpt lat="44.04824" lon="1.36358">
        <ele>102.2</ele>
        <time>2023-07-07T09:36:22Z</time>
      </trkpt>
      <trkpt lat="44.04822" lon="1.36362">
        <ele>102</ele>
        <time>2023-07-07T09:36:25Z</time>
      </trkpt>
      <trkpt lat="44.04816" lon="1.36372">
        <ele>102.2</ele>
        <time>2023-07-07T09:36:32Z</time>
      </trkpt>
      <trkpt lat="44.04816" lon="1.36373">
        <ele>102.2</ele>
        <time>2023-07-07T09:36:33Z</time>
      </trkpt>
      <trkpt lat="44.04811" lon="1.3638">
        <ele>102.2</ele>
        <time>2023-07-07T09:36:39Z</time>
      </trkpt>
      <trkpt lat="44.04809" lon="1.36385">
        <ele>102.4</ele>
        <time>2023-07-07T09:36:42Z</time>
      </trkpt>
      <trkpt lat="44.04806" lon="1.3639">
        <ele>102.8</ele>
        <time>2023-07-07T09:36:46Z</time>
      </trkpt>
      <trkpt lat="44.04802" lon="1.36397">
        <ele>102.8</ele>
        <time>2023-07-07T09:36:51Z</time>
      </trkpt>
      <trkpt lat="44.048" lon="1.36402">
        <ele>102.6</ele>
        <time>2023-07-07T09:36:54Z</time>
      </trkpt>
      <trkpt lat="44.04792" lon="1.3641">
        <ele>102.6</ele>
        <time>2023-07-07T09:37:02Z</time>
      </trkpt>
      <trkpt lat="44.04792" lon="1.36411">
        <ele>102.4</ele>
        <time>2023-07-07T09:37:03Z</time>
      </trkpt>
      <trkpt lat="44.04795" lon="1.36432">
        <ele>102</ele>
        <time>2023-07-07T09:48:23Z</time>
      </trkpt>
      <trkpt lat="44.04788" lon="1.36432">
        <ele>102.2</ele>
        <time>2023-07-07T09:48:27Z</time>
      </trkpt>
      <trkpt lat="44.04783" lon="1.36435">
        <ele>101.8</ele>
        <time>2023-07-07T09:48:32Z</time>
      </trkpt>
      <trkpt lat="44.0478" lon="1.3644">
        <ele>101.8</ele>
        <time>2023-07-07T09:48:37Z</time>
      </trkpt>
      <trkpt lat="44.04772" lon="1.36449">
        <ele>102</ele>
        <time>2023-07-07T09:48:45Z</time>
      </trkpt>
      <trkpt lat="44.04769" lon="1.36452">
        <ele>101.8</ele>
        <time>2023-07-07T09:48:49Z</time>
      </trkpt>
      <trkpt lat="44.04759" lon="1.36464">
        <ele>101.8</ele>
        <time>2023-07-07T09:49:03Z</time>
      </trkpt>
      <trkpt lat="44.04749" lon="1.36475">
        <ele>101.6</ele>
        <time>2023-07-07T09:49:15Z</time>
      </trkpt>
      <trkpt lat="44.04749" lon="1.36476">
        <ele>101.6</ele>
        <time>2023-07-07T09:49:16Z</time>
      </trkpt>
      <trkpt lat="44.04747" lon="1.36479">
        <ele>101.8</ele>
        <time>2023-07-07T09:49:19Z</time>
      </trkpt>
      <trkpt lat="44.04744" lon="1.36484">
        <ele>101.6</ele>
        <time>2023-07-07T09:49:23Z</time>
      </trkpt>
      <trkpt lat="44.04742" lon="1.36487">
        <ele>101.6</ele>
        <time>2023-07-07T09:49:26Z</time>
      </trkpt>
      <trkpt lat="44.04739" lon="1.36491">
        <ele>101.6</ele>
        <time>2023-07-07T09:49:30Z</time>
      </trkpt>
      <trkpt lat="44.04739" lon="1.36492">
        <ele>101.6</ele>
        <time>2023-07-07T09:49:31Z</time>
      </trkpt>
      <trkpt lat="44.04736" lon="1.36495">
        <ele>101.6</ele>
        <time>2023-07-07T09:49:35Z</time>
      </trkpt>
      <trkpt lat="44.04735" lon="1.36498">
        <ele>101.4</ele>
        <time>2023-07-07T09:49:37Z</time>
      </trkpt>
      <trkpt lat="44.04728" lon="1.36503">
        <ele>101.4</ele>
        <time>2023-07-07T09:49:44Z</time>
      </trkpt>
      <trkpt lat="44.04724" lon="1.36504">
        <ele>101.2</ele>
        <time>2023-07-07T09:49:47Z</time>
      </trkpt>
      <trkpt lat="44.04713" lon="1.36503">
        <ele>101.6</ele>
        <time>2023-07-07T09:49:56Z</time>
      </trkpt>
      <trkpt lat="44.04712" lon="1.36502">
        <ele>101.8</ele>
        <time>2023-07-07T09:49:57Z</time>
      </trkpt>
      <trkpt lat="44.04705" lon="1.36496">
        <ele>101.8</ele>
        <time>2023-07-07T09:50:04Z</time>
      </trkpt>
      <trkpt lat="44.04696" lon="1.36492">
        <ele>101.8</ele>
        <time>2023-07-07T09:50:10Z</time>
      </trkpt>
      <trkpt lat="44.04686" lon="1.36485">
        <ele>102</ele>
        <time>2023-07-07T09:50:19Z</time>
      </trkpt>
      <trkpt lat="44.04677" lon="1.36478">
        <ele>101.8</ele>
        <time>2023-07-07T09:50:28Z</time>
      </trkpt>
      <trkpt lat="44.0467" lon="1.36473">
        <ele>102.2</ele>
        <time>2023-07-07T09:50:33Z</time>
      </trkpt>
      <trkpt lat="44.04667" lon="1.36472">
        <ele>102.2</ele>
        <time>2023-07-07T09:50:35Z</time>
      </trkpt>
      <trkpt lat="44.04658" lon="1.36464">
        <ele>102.4</ele>
        <time>2023-07-07T09:50:44Z</time>
      </trkpt>
      <trkpt lat="44.04649" lon="1.36457">
        <ele>102.4</ele>
        <time>2023-07-07T09:50:52Z</time>
      </trkpt>
      <trkpt lat="44.0464" lon="1.36447">
        <ele>102.2</ele>
        <time>2023-07-07T09:51:02Z</time>
      </trkpt>
      <trkpt lat="44.04629" lon="1.36439">
        <ele>102.6</ele>
        <time>2023-07-07T09:51:11Z</time>
      </trkpt>
      <trkpt lat="44.04622" lon="1.36435">
        <ele>102.6</ele>
        <time>2023-07-07T09:51:19Z</time>
      </trkpt>
      <trkpt lat="44.04615" lon="1.36434">
        <ele>102.6</ele>
        <time>2023-07-07T09:51:25Z</time>
      </trkpt>
      <trkpt lat="44.04613" lon="1.36433">
        <ele>102.6</ele>
        <time>2023-07-07T09:51:27Z</time>
      </trkpt>
      <trkpt lat="44.04606" lon="1.36431">
        <ele>103</ele>
        <time>2023-07-07T09:51:32Z</time>
      </trkpt>
      <trkpt lat="44.04603" lon="1.36429">
        <ele>103</ele>
        <time>2023-07-07T09:51:35Z</time>
      </trkpt>
      <trkpt lat="44.04592" lon="1.36428">
        <ele>103.2</ele>
        <time>2023-07-07T09:51:43Z</time>
      </trkpt>
      <trkpt lat="44.04582" lon="1.36426">
        <ele>103.2</ele>
        <time>2023-07-07T09:51:51Z</time>
      </trkpt>
      <trkpt lat="44.0458" lon="1.36425">
        <ele>103.2</ele>
        <time>2023-07-07T09:51:52Z</time>
      </trkpt>
      <trkpt lat="44.04579" lon="1.36426">
        <ele>103.2</ele>
        <time>2023-07-07T09:51:53Z</time>
      </trkpt>
      <trkpt lat="44.04578" lon="1.36425">
        <ele>103.4</ele>
        <time>2023-07-07T09:51:54Z</time>
      </trkpt>
      <trkpt lat="44.04575" lon="1.36425">
        <ele>103.4</ele>
        <time>2023-07-07T09:51:56Z</time>
      </trkpt>
      <trkpt lat="44.04573" lon="1.36424">
        <ele>103.4</ele>
        <time>2023-07-07T09:51:58Z</time>
      </trkpt>
      <trkpt lat="44.0457" lon="1.36422">
        <ele>103.6</ele>
        <time>2023-07-07T09:52:01Z</time>
      </trkpt>
      <trkpt lat="44.04567" lon="1.36421">
        <ele>103.6</ele>
        <time>2023-07-07T09:52:05Z</time>
      </trkpt>
      <trkpt lat="44.04564" lon="1.36419">
        <ele>103.6</ele>
        <time>2023-07-07T09:52:08Z</time>
      </trkpt>
      <trkpt lat="44.0456" lon="1.36419">
        <ele>103.8</ele>
        <time>2023-07-07T09:52:12Z</time>
      </trkpt>
      <trkpt lat="44.04551" lon="1.36417">
        <ele>103.6</ele>
        <time>2023-07-07T09:52:19Z</time>
      </trkpt>
      <trkpt lat="44.04548" lon="1.36417">
        <ele>103.8</ele>
        <time>2023-07-07T09:52:22Z</time>
      </trkpt>
      <trkpt lat="44.04544" lon="1.36417">
        <ele>103.6</ele>
        <time>2023-07-07T09:52:26Z</time>
      </trkpt>
      <trkpt lat="44.04536" lon="1.36416">
        <ele>103.6</ele>
        <time>2023-07-07T09:52:32Z</time>
      </trkpt>
      <trkpt lat="44.04534" lon="1.36415">
        <ele>103.8</ele>
        <time>2023-07-07T09:52:33Z</time>
      </trkpt>
      <trkpt lat="44.04528" lon="1.36414">
        <ele>103.8</ele>
        <time>2023-07-07T09:52:38Z</time>
      </trkpt>
      <trkpt lat="44.04519" lon="1.36412">
        <ele>104</ele>
        <time>2023-07-07T09:52:46Z</time>
      </trkpt>
      <trkpt lat="44.04513" lon="1.36412">
        <ele>103.8</ele>
        <time>2023-07-07T09:52:51Z</time>
      </trkpt>
      <trkpt lat="44.0451" lon="1.3641">
        <ele>103.8</ele>
        <time>2023-07-07T09:52:54Z</time>
      </trkpt>
      <trkpt lat="44.04504" lon="1.3641">
        <ele>103.6</ele>
        <time>2023-07-07T09:52:59Z</time>
      </trkpt>
      <trkpt lat="44.04499" lon="1.36407">
        <ele>103.4</ele>
        <time>2023-07-07T09:53:03Z</time>
      </trkpt>
      <trkpt lat="44.04489" lon="1.36404">
        <ele>103.4</ele>
        <time>2023-07-07T09:53:12Z</time>
      </trkpt>
      <trkpt lat="44.04486" lon="1.36406">
        <ele>103.4</ele>
        <time>2023-07-07T09:53:15Z</time>
      </trkpt>
      <trkpt lat="44.04482" lon="1.36405">
        <ele>103.4</ele>
        <time>2023-07-07T09:53:18Z</time>
      </trkpt>
      <trkpt lat="44.0448" lon="1.36405">
        <ele>103.4</ele>
        <time>2023-07-07T09:53:19Z</time>
      </trkpt>
      <trkpt lat="44.04471" lon="1.36402">
        <ele>103.4</ele>
        <time>2023-07-07T09:53:26Z</time>
      </trkpt>
      <trkpt lat="44.04467" lon="1.364">
        <ele>103.4</ele>
        <time>2023-07-07T09:53:29Z</time>
      </trkpt>
      <trkpt lat="44.04465" lon="1.364">
        <ele>103.6</ele>
        <time>2023-07-07T09:53:30Z</time>
      </trkpt>
      <trkpt lat="44.04461" lon="1.364">
        <ele>103.8</ele>
        <time>2023-07-07T09:53:33Z</time>
      </trkpt>
      <trkpt lat="44.04456" lon="1.36399">
        <ele>103.8</ele>
        <time>2023-07-07T09:53:36Z</time>
      </trkpt>
      <trkpt lat="44.04455" lon="1.36399">
        <ele>103.8</ele>
        <time>2023-07-07T09:53:37Z</time>
      </trkpt>
      <trkpt lat="44.04445" lon="1.36398">
        <ele>103.8</ele>
        <time>2023-07-07T09:53:45Z</time>
      </trkpt>
      <trkpt lat="44.04437" lon="1.36396">
        <ele>104.2</ele>
        <time>2023-07-07T09:53:52Z</time>
      </trkpt>
      <trkpt lat="44.04434" lon="1.36396">
        <ele>104.2</ele>
        <time>2023-07-07T09:53:58Z</time>
      </trkpt>
      <trkpt lat="44.04433" lon="1.36396">
        <ele>104.2</ele>
        <time>2023-07-07T09:53:59Z</time>
      </trkpt>
      <trkpt lat="44.04431" lon="1.36396">
        <ele>104.2</ele>
        <time>2023-07-07T09:54:01Z</time>
      </trkpt>
      <trkpt lat="44.04428" lon="1.36398">
        <ele>104.2</ele>
        <time>2023-07-07T09:54:03Z</time>
      </trkpt>
      <trkpt lat="44.04426" lon="1.36397">
        <ele>104</ele>
        <time>2023-07-07T09:54:05Z</time>
      </trkpt>
      <trkpt lat="44.04425" lon="1.36396">
        <ele>104</ele>
        <time>2023-07-07T09:54:06Z</time>
      </trkpt>
      <trkpt lat="44.04419" lon="1.36394">
        <ele>104.4</ele>
        <time>2023-07-07T09:54:11Z</time>
      </trkpt>
      <trkpt lat="44.04408" lon="1.36391">
        <ele>104.8</ele>
        <time>2023-07-07T09:54:19Z</time>
      </trkpt>
      <trkpt lat="44.04398" lon="1.36388">
        <ele>104.2</ele>
        <time>2023-07-07T09:54:27Z</time>
      </trkpt>
      <trkpt lat="44.04389" lon="1.36388">
        <ele>104.4</ele>
        <time>2023-07-07T09:54:34Z</time>
      </trkpt>
      <trkpt lat="44.04381" lon="1.36388">
        <ele>104.4</ele>
        <time>2023-07-07T09:54:41Z</time>
      </trkpt>
      <trkpt lat="44.0438" lon="1.36388">
        <ele>104.4</ele>
        <time>2023-07-07T09:54:42Z</time>
      </trkpt>
      <trkpt lat="44.04373" lon="1.36386">
        <ele>104.4</ele>
        <time>2023-07-07T09:54:47Z</time>
      </trkpt>
      <trkpt lat="44.04371" lon="1.36385">
        <ele>104.6</ele>
        <time>2023-07-07T09:54:49Z</time>
      </trkpt>
      <trkpt lat="44.04367" lon="1.36377">
        <ele>104.8</ele>
        <time>2023-07-07T09:54:55Z</time>
      </trkpt>
      <trkpt lat="44.04359" lon="1.3637">
        <ele>105</ele>
        <time>2023-07-07T09:55:02Z</time>
      </trkpt>
      <trkpt lat="44.04356" lon="1.36368">
        <ele>105</ele>
        <time>2023-07-07T09:55:05Z</time>
      </trkpt>
      <trkpt lat="44.0435" lon="1.36367">
        <ele>105</ele>
        <time>2023-07-07T09:55:09Z</time>
      </trkpt>
      <trkpt lat="44.04349" lon="1.36367">
        <ele>105</ele>
        <time>2023-07-07T09:55:10Z</time>
      </trkpt>
      <trkpt lat="44.04339" lon="1.36372">
        <ele>104.4</ele>
        <time>2023-07-07T09:55:19Z</time>
      </trkpt>
      <trkpt lat="44.04329" lon="1.36379">
        <ele>104.6</ele>
        <time>2023-07-07T09:55:28Z</time>
      </trkpt>
      <trkpt lat="44.04323" lon="1.36384">
        <ele>104.4</ele>
        <time>2023-07-07T09:55:33Z</time>
      </trkpt>
      <trkpt lat="44.04321" lon="1.36383">
        <ele>104.4</ele>
        <time>2023-07-07T09:55:35Z</time>
      </trkpt>
      <trkpt lat="44.04318" lon="1.36382">
        <ele>104.2</ele>
        <time>2023-07-07T09:55:37Z</time>
      </trkpt>
      <trkpt lat="44.0431" lon="1.3638">
        <ele>104.2</ele>
        <time>2023-07-07T09:55:44Z</time>
      </trkpt>
      <trkpt lat="44.04304" lon="1.36376">
        <ele>104.2</ele>
        <time>2023-07-07T09:55:49Z</time>
      </trkpt>
      <trkpt lat="44.04301" lon="1.36374">
        <ele>104.2</ele>
        <time>2023-07-07T09:55:52Z</time>
      </trkpt>
      <trkpt lat="44.04295" lon="1.3637">
        <ele>104.4</ele>
        <time>2023-07-07T09:55:59Z</time>
      </trkpt>
      <trkpt lat="44.04284" lon="1.36367">
        <ele>104.4</ele>
        <time>2023-07-07T09:56:07Z</time>
      </trkpt>
      <trkpt lat="44.04275" lon="1.36361">
        <ele>104</ele>
        <time>2023-07-07T09:56:16Z</time>
      </trkpt>
      <trkpt lat="44.04274" lon="1.3636">
        <ele>104</ele>
        <time>2023-07-07T09:56:17Z</time>
      </trkpt>
      <trkpt lat="44.04266" lon="1.36357">
        <ele>104</ele>
        <time>2023-07-07T09:56:26Z</time>
      </trkpt>
      <trkpt lat="44.04263" lon="1.36356">
        <ele>103.8</ele>
        <time>2023-07-07T09:56:28Z</time>
      </trkpt>
      <trkpt lat="44.0426" lon="1.36355">
        <ele>104</ele>
        <time>2023-07-07T09:56:31Z</time>
      </trkpt>
      <trkpt lat="44.04254" lon="1.36351">
        <ele>104.2</ele>
        <time>2023-07-07T09:56:36Z</time>
      </trkpt>
      <trkpt lat="44.04244" lon="1.36348">
        <ele>104</ele>
        <time>2023-07-07T09:56:44Z</time>
      </trkpt>
      <trkpt lat="44.04236" lon="1.36344">
        <ele>104</ele>
        <time>2023-07-07T09:56:52Z</time>
      </trkpt>
      <trkpt lat="44.0423" lon="1.36342">
        <ele>103.8</ele>
        <time>2023-07-07T09:56:57Z</time>
      </trkpt>
      <trkpt lat="44.04227" lon="1.36341">
        <ele>103.8</ele>
        <time>2023-07-07T09:56:59Z</time>
      </trkpt>
      <trkpt lat="44.04225" lon="1.36339">
        <ele>103.8</ele>
        <time>2023-07-07T09:57:01Z</time>
      </trkpt>
      <trkpt lat="44.0422" lon="1.36339">
        <ele>104</ele>
        <time>2023-07-07T09:57:05Z</time>
      </trkpt>
      <trkpt lat="44.04219" lon="1.3634">
        <ele>104</ele>
        <time>2023-07-07T09:57:08Z</time>
      </trkpt>
      <trkpt lat="44.0422" lon="1.36342">
        <ele>104</ele>
        <time>2023-07-07T09:57:10Z</time>
      </trkpt>
      <trkpt lat="44.0422" lon="1.36344">
        <ele>104.4</ele>
        <time>2023-07-07T09:57:14Z</time>
      </trkpt>
      <trkpt lat="44.04221" lon="1.3635">
        <ele>104.6</ele>
        <time>2023-07-07T09:57:19Z</time>
      </trkpt>
      <trkpt lat="44.04223" lon="1.36358">
        <ele>104.6</ele>
        <time>2023-07-07T09:57:23Z</time>
      </trkpt>
      <trkpt lat="44.04223" lon="1.36359">
        <ele>104.6</ele>
        <time>2023-07-07T09:57:24Z</time>
      </trkpt>
      <trkpt lat="44.04226" lon="1.36368">
        <ele>104.2</ele>
        <time>2023-07-07T09:57:29Z</time>
      </trkpt>
      <trkpt lat="44.04226" lon="1.36372">
        <ele>104</ele>
        <time>2023-07-07T09:57:32Z</time>
      </trkpt>
      <trkpt lat="44.04225" lon="1.36382">
        <ele>103.6</ele>
        <time>2023-07-07T09:57:38Z</time>
      </trkpt>
      <trkpt lat="44.04225" lon="1.36387">
        <ele>103</ele>
        <time>2023-07-07T09:57:41Z</time>
      </trkpt>
      <trkpt lat="44.04226" lon="1.3639">
        <ele>103</ele>
        <time>2023-07-07T09:57:43Z</time>
      </trkpt>
      <trkpt lat="44.04226" lon="1.36393">
        <ele>102.8</ele>
        <time>2023-07-07T09:57:45Z</time>
      </trkpt>
      <trkpt lat="44.04226" lon="1.36396">
        <ele>102.6</ele>
        <time>2023-07-07T09:57:48Z</time>
      </trkpt>
      <trkpt lat="44.04227" lon="1.364">
        <ele>102.6</ele>
        <time>2023-07-07T09:57:51Z</time>
      </trkpt>
      <trkpt lat="44.04228" lon="1.36418">
        <ele>102.8</ele>
        <time>2023-07-07T09:58:01Z</time>
      </trkpt>
      <trkpt lat="44.04229" lon="1.3643">
        <ele>102.8</ele>
        <time>2023-07-07T09:58:07Z</time>
      </trkpt>
      <trkpt lat="44.04229" lon="1.36437">
        <ele>102.8</ele>
        <time>2023-07-07T09:58:11Z</time>
      </trkpt>
      <trkpt lat="44.04228" lon="1.36442">
        <ele>102.6</ele>
        <time>2023-07-07T09:58:14Z</time>
      </trkpt>
      <trkpt lat="44.04227" lon="1.36456">
        <ele>103</ele>
        <time>2023-07-07T09:58:21Z</time>
      </trkpt>
      <trkpt lat="44.04227" lon="1.36458">
        <ele>103</ele>
        <time>2023-07-07T09:58:22Z</time>
      </trkpt>
      <trkpt lat="44.04227" lon="1.36461">
        <ele>103.2</ele>
        <time>2023-07-07T09:58:24Z</time>
      </trkpt>
      <trkpt lat="44.04227" lon="1.36471">
        <ele>103</ele>
        <time>2023-07-07T09:58:30Z</time>
      </trkpt>
      <trkpt lat="44.04228" lon="1.36476">
        <ele>102.8</ele>
        <time>2023-07-07T09:58:34Z</time>
      </trkpt>
      <trkpt lat="44.04229" lon="1.36476">
        <ele>102.8</ele>
        <time>2023-07-07T09:58:35Z</time>
      </trkpt>
      <trkpt lat="44.04229" lon="1.36476">
        <ele>102.8</ele>
        <time>2023-07-07T09:58:36Z</time>
      </trkpt>
      <trkpt lat="44.04229" lon="1.36476">
        <ele>102.8</ele>
        <time>2023-07-07T09:58:37Z</time>
      </trkpt>
      <trkpt lat="44.04227" lon="1.36474">
        <ele>102.6</ele>
        <time>2023-07-07T09:58:43Z</time>
      </trkpt>
      <trkpt lat="44.04225" lon="1.36478">
        <ele>102.8</ele>
        <time>2023-07-07T09:58:50Z</time>
      </trkpt>
      <trkpt lat="44.04225" lon="1.36477">
        <ele>103.4</ele>
        <time>2023-07-07T09:58:56Z</time>
      </trkpt>
      <trkpt lat="44.04225" lon="1.36481">
        <ele>103.4</ele>
        <time>2023-07-07T09:59:00Z</time>
      </trkpt>
      <trkpt lat="44.04225" lon="1.36483">
        <ele>103.4</ele>
        <time>2023-07-07T09:59:01Z</time>
      </trkpt>
      <trkpt lat="44.04224" lon="1.36489">
        <ele>104.2</ele>
        <time>2023-07-07T09:59:04Z</time>
      </trkpt>
      <trkpt lat="44.04224" lon="1.36494">
        <ele>104</ele>
        <time>2023-07-07T09:59:07Z</time>
      </trkpt>
      <trkpt lat="44.04224" lon="1.36497">
        <ele>103.8</ele>
        <time>2023-07-07T09:59:09Z</time>
      </trkpt>
      <trkpt lat="44.04225" lon="1.36505">
        <ele>103.8</ele>
        <time>2023-07-07T09:59:13Z</time>
      </trkpt>
      <trkpt lat="44.04226" lon="1.36513">
        <ele>103.8</ele>
        <time>2023-07-07T09:59:18Z</time>
      </trkpt>
      <trkpt lat="44.04228" lon="1.36518">
        <ele>104</ele>
        <time>2023-07-07T09:59:21Z</time>
      </trkpt>
      <trkpt lat="44.04229" lon="1.36532">
        <ele>104.2</ele>
        <time>2023-07-07T09:59:28Z</time>
      </trkpt>
      <trkpt lat="44.04229" lon="1.36543">
        <ele>104.4</ele>
        <time>2023-07-07T09:59:34Z</time>
      </trkpt>
      <trkpt lat="44.04229" lon="1.36551">
        <ele>104.2</ele>
        <time>2023-07-07T09:59:38Z</time>
      </trkpt>
      <trkpt lat="44.04233" lon="1.36559">
        <ele>102.8</ele>
        <time>2023-07-07T09:59:44Z</time>
      </trkpt>
      <trkpt lat="44.04234" lon="1.36561">
        <ele>102.2</ele>
        <time>2023-07-07T09:59:46Z</time>
      </trkpt>
      <trkpt lat="44.04235" lon="1.36569">
        <ele>103.8</ele>
        <time>2023-07-07T09:59:51Z</time>
      </trkpt>
      <trkpt lat="44.04235" lon="1.36571">
        <ele>104.2</ele>
        <time>2023-07-07T09:59:52Z</time>
      </trkpt>
      <trkpt lat="44.04235" lon="1.36581">
        <ele>104.2</ele>
        <time>2023-07-07T09:59:57Z</time>
      </trkpt>
      <trkpt lat="44.04235" lon="1.36586">
        <ele>103.6</ele>
        <time>2023-07-07T10:00:00Z</time>
      </trkpt>
      <trkpt lat="44.04237" lon="1.36599">
        <ele>102.8</ele>
        <time>2023-07-07T10:00:07Z</time>
      </trkpt>
      <trkpt lat="44.04237" lon="1.366">
        <ele>102.8</ele>
        <time>2023-07-07T10:00:08Z</time>
      </trkpt>
      <trkpt lat="44.04237" lon="1.36604">
        <ele>102.4</ele>
        <time>2023-07-07T10:00:10Z</time>
      </trkpt>
      <trkpt lat="44.04238" lon="1.3661">
        <ele>102.4</ele>
        <time>2023-07-07T10:00:13Z</time>
      </trkpt>
      <trkpt lat="44.04238" lon="1.36615">
        <ele>102.6</ele>
        <time>2023-07-07T10:00:16Z</time>
      </trkpt>
      <trkpt lat="44.0424" lon="1.36624">
        <ele>102.8</ele>
        <time>2023-07-07T10:00:21Z</time>
      </trkpt>
      <trkpt lat="44.0424" lon="1.36626">
        <ele>102.8</ele>
        <time>2023-07-07T10:00:22Z</time>
      </trkpt>
      <trkpt lat="44.04241" lon="1.36631">
        <ele>102.8</ele>
        <time>2023-07-07T10:00:25Z</time>
      </trkpt>
      <trkpt lat="44.04242" lon="1.36636">
        <ele>102.8</ele>
        <time>2023-07-07T10:00:29Z</time>
      </trkpt>
      <trkpt lat="44.04243" lon="1.36643">
        <ele>102.8</ele>
        <time>2023-07-07T10:00:33Z</time>
      </trkpt>
      <trkpt lat="44.04244" lon="1.3665">
        <ele>102.8</ele>
        <time>2023-07-07T10:00:37Z</time>
      </trkpt>
      <trkpt lat="44.04245" lon="1.36651">
        <ele>102.8</ele>
        <time>2023-07-07T10:00:38Z</time>
      </trkpt>
      <trkpt lat="44.04246" lon="1.3666">
        <ele>103.2</ele>
        <time>2023-07-07T10:00:43Z</time>
      </trkpt>
      <trkpt lat="44.04247" lon="1.36672">
        <ele>103</ele>
        <time>2023-07-07T10:00:50Z</time>
      </trkpt>
      <trkpt lat="44.0425" lon="1.36684">
        <ele>102.8</ele>
        <time>2023-07-07T10:00:57Z</time>
      </trkpt>
      <trkpt lat="44.04253" lon="1.36691">
        <ele>102.8</ele>
        <time>2023-07-07T10:01:01Z</time>
      </trkpt>
      <trkpt lat="44.04254" lon="1.36696">
        <ele>102.8</ele>
        <time>2023-07-07T10:01:04Z</time>
      </trkpt>
      <trkpt lat="44.04255" lon="1.36699">
        <ele>102.8</ele>
        <time>2023-07-07T10:01:06Z</time>
      </trkpt>
      <trkpt lat="44.0426" lon="1.36706">
        <ele>102.8</ele>
        <time>2023-07-07T10:01:11Z</time>
      </trkpt>
      <trkpt lat="44.04261" lon="1.36709">
        <ele>102.8</ele>
        <time>2023-07-07T10:01:13Z</time>
      </trkpt>
      <trkpt lat="44.04262" lon="1.3671">
        <ele>102.8</ele>
        <time>2023-07-07T10:01:14Z</time>
      </trkpt>
      <trkpt lat="44.04262" lon="1.36712">
        <ele>102.8</ele>
        <time>2023-07-07T10:01:15Z</time>
      </trkpt>
      <trkpt lat="44.04263" lon="1.36713">
        <ele>102.8</ele>
        <time>2023-07-07T10:01:16Z</time>
      </trkpt>
      <trkpt lat="44.04264" lon="1.36716">
        <ele>103</ele>
        <time>2023-07-07T10:01:18Z</time>
      </trkpt>
      <trkpt lat="44.04265" lon="1.36719">
        <ele>103</ele>
        <time>2023-07-07T10:01:20Z</time>
      </trkpt>
      <trkpt lat="44.04268" lon="1.36726">
        <ele>103</ele>
        <time>2023-07-07T10:01:24Z</time>
      </trkpt>
      <trkpt lat="44.0427" lon="1.36732">
        <ele>103</ele>
        <time>2023-07-07T10:01:28Z</time>
      </trkpt>
      <trkpt lat="44.04273" lon="1.36733">
        <ele>103.2</ele>
        <time>2023-07-07T10:01:31Z</time>
      </trkpt>
      <trkpt lat="44.04276" lon="1.36733">
        <ele>103.2</ele>
        <time>2023-07-07T10:01:54Z</time>
      </trkpt>
      <trkpt lat="44.04275" lon="1.36734">
        <ele>103.2</ele>
        <time>2023-07-07T10:01:55Z</time>
      </trkpt>
      <trkpt lat="44.04274" lon="1.3674">
        <ele>103.8</ele>
        <time>2023-07-07T10:02:00Z</time>
      </trkpt>
      <trkpt lat="44.04274" lon="1.36746">
        <ele>104</ele>
        <time>2023-07-07T10:02:04Z</time>
      </trkpt>
      <trkpt lat="44.04273" lon="1.3675">
        <ele>103.8</ele>
        <time>2023-07-07T10:02:07Z</time>
      </trkpt>
      <trkpt lat="44.0427" lon="1.36754">
        <ele>104.2</ele>
        <time>2023-07-07T10:02:10Z</time>
      </trkpt>
      <trkpt lat="44.04267" lon="1.36757">
        <ele>104.4</ele>
        <time>2023-07-07T10:02:13Z</time>
      </trkpt>
      <trkpt lat="44.04265" lon="1.36761">
        <ele>104</ele>
        <time>2023-07-07T10:02:18Z</time>
      </trkpt>
      <trkpt lat="44.04261" lon="1.36762">
        <ele>103.8</ele>
        <time>2023-07-07T10:02:21Z</time>
      </trkpt>
      <trkpt lat="44.0426" lon="1.36763">
        <ele>103.8</ele>
        <time>2023-07-07T10:02:22Z</time>
      </trkpt>
      <trkpt lat="44.04258" lon="1.36765">
        <ele>103.8</ele>
        <time>2023-07-07T10:02:24Z</time>
      </trkpt>
      <trkpt lat="44.04253" lon="1.36774">
        <ele>104</ele>
        <time>2023-07-07T10:02:30Z</time>
      </trkpt>
      <trkpt lat="44.04248" lon="1.36787">
        <ele>103.8</ele>
        <time>2023-07-07T10:02:39Z</time>
      </trkpt>
      <trkpt lat="44.04244" lon="1.36796">
        <ele>103.8</ele>
        <time>2023-07-07T10:02:45Z</time>
      </trkpt>
      <trkpt lat="44.04244" lon="1.36798">
        <ele>103.6</ele>
        <time>2023-07-07T10:02:46Z</time>
      </trkpt>
      <trkpt lat="44.04242" lon="1.36801">
        <ele>103.4</ele>
        <time>2023-07-07T10:02:48Z</time>
      </trkpt>
      <trkpt lat="44.04242" lon="1.36804">
        <ele>103.2</ele>
        <time>2023-07-07T10:02:50Z</time>
      </trkpt>
      <trkpt lat="44.04241" lon="1.36807">
        <ele>103.4</ele>
        <time>2023-07-07T10:02:52Z</time>
      </trkpt>
      <trkpt lat="44.04238" lon="1.36813">
        <ele>103.6</ele>
        <time>2023-07-07T10:02:55Z</time>
      </trkpt>
      <trkpt lat="44.04237" lon="1.36818">
        <ele>103.8</ele>
        <time>2023-07-07T10:02:58Z</time>
      </trkpt>
      <trkpt lat="44.04236" lon="1.36825">
        <ele>104</ele>
        <time>2023-07-07T10:03:02Z</time>
      </trkpt>
      <trkpt lat="44.04233" lon="1.36829">
        <ele>104</ele>
        <time>2023-07-07T10:03:05Z</time>
      </trkpt>
      <trkpt lat="44.04228" lon="1.36835">
        <ele>103.8</ele>
        <time>2023-07-07T10:03:09Z</time>
      </trkpt>
      <trkpt lat="44.04226" lon="1.3684">
        <ele>103.8</ele>
        <time>2023-07-07T10:03:12Z</time>
      </trkpt>
      <trkpt lat="44.04223" lon="1.36848">
        <ele>104</ele>
        <time>2023-07-07T10:03:17Z</time>
      </trkpt>
      <trkpt lat="44.0422" lon="1.36856">
        <ele>103.8</ele>
        <time>2023-07-07T10:03:22Z</time>
      </trkpt>
      <trkpt lat="44.04218" lon="1.36859">
        <ele>103.8</ele>
        <time>2023-07-07T10:03:25Z</time>
      </trkpt>
      <trkpt lat="44.04216" lon="1.36863">
        <ele>103.6</ele>
        <time>2023-07-07T10:03:29Z</time>
      </trkpt>
      <trkpt lat="44.04215" lon="1.36866">
        <ele>103.8</ele>
        <time>2023-07-07T10:03:32Z</time>
      </trkpt>
      <trkpt lat="44.04214" lon="1.36868">
        <ele>104</ele>
        <time>2023-07-07T10:03:34Z</time>
      </trkpt>
      <trkpt lat="44.04213" lon="1.36873">
        <ele>104.4</ele>
        <time>2023-07-07T10:03:37Z</time>
      </trkpt>
      <trkpt lat="44.04211" lon="1.36879">
        <ele>104.4</ele>
        <time>2023-07-07T10:03:42Z</time>
      </trkpt>
      <trkpt lat="44.04209" lon="1.36888">
        <ele>104.4</ele>
        <time>2023-07-07T10:03:47Z</time>
      </trkpt>
      <trkpt lat="44.04208" lon="1.36891">
        <ele>104.4</ele>
        <time>2023-07-07T10:03:49Z</time>
      </trkpt>
      <trkpt lat="44.04207" lon="1.36892">
        <ele>104.4</ele>
        <time>2023-07-07T10:03:50Z</time>
      </trkpt>
      <trkpt lat="44.04201" lon="1.36903">
        <ele>103.8</ele>
        <time>2023-07-07T10:03:58Z</time>
      </trkpt>
      <trkpt lat="44.04197" lon="1.36913">
        <ele>103.6</ele>
        <time>2023-07-07T10:04:05Z</time>
      </trkpt>
      <trkpt lat="44.04195" lon="1.36915">
        <ele>103.8</ele>
        <time>2023-07-07T10:04:07Z</time>
      </trkpt>
      <trkpt lat="44.04191" lon="1.36922">
        <ele>103.8</ele>
        <time>2023-07-07T10:04:11Z</time>
      </trkpt>
      <trkpt lat="44.04186" lon="1.3693">
        <ele>103.8</ele>
        <time>2023-07-07T10:04:17Z</time>
      </trkpt>
      <trkpt lat="44.04185" lon="1.36931">
        <ele>103.8</ele>
        <time>2023-07-07T10:04:18Z</time>
      </trkpt>
      <trkpt lat="44.04183" lon="1.36934">
        <ele>103.8</ele>
        <time>2023-07-07T10:04:20Z</time>
      </trkpt>
      <trkpt lat="44.04177" lon="1.36942">
        <ele>104</ele>
        <time>2023-07-07T10:04:27Z</time>
      </trkpt>
      <trkpt lat="44.04168" lon="1.36951">
        <ele>104.4</ele>
        <time>2023-07-07T10:04:35Z</time>
      </trkpt>
      <trkpt lat="44.04165" lon="1.36955">
        <ele>104.4</ele>
        <time>2023-07-07T10:04:38Z</time>
      </trkpt>
      <trkpt lat="44.04162" lon="1.36959">
        <ele>104.4</ele>
        <time>2023-07-07T10:04:41Z</time>
      </trkpt>
      <trkpt lat="44.0416" lon="1.36961">
        <ele>104.4</ele>
        <time>2023-07-07T10:04:43Z</time>
      </trkpt>
      <trkpt lat="44.04151" lon="1.36972">
        <ele>104</ele>
        <time>2023-07-07T10:04:53Z</time>
      </trkpt>
      <trkpt lat="44.04146" lon="1.36978">
        <ele>104.4</ele>
        <time>2023-07-07T10:05:01Z</time>
      </trkpt>
      <trkpt lat="44.04142" lon="1.36982">
        <ele>104.2</ele>
        <time>2023-07-07T10:05:07Z</time>
      </trkpt>
      <trkpt lat="44.04141" lon="1.36984">
        <ele>104</ele>
        <time>2023-07-07T10:05:08Z</time>
      </trkpt>
      <trkpt lat="44.04134" lon="1.36993">
        <ele>104.2</ele>
        <time>2023-07-07T10:05:15Z</time>
      </trkpt>
      <trkpt lat="44.0413" lon="1.36999">
        <ele>104.4</ele>
        <time>2023-07-07T10:05:19Z</time>
      </trkpt>
      <trkpt lat="44.04129" lon="1.37">
        <ele>104.8</ele>
        <time>2023-07-07T10:05:21Z</time>
      </trkpt>
      <trkpt lat="44.04125" lon="1.37007">
        <ele>104.8</ele>
        <time>2023-07-07T10:05:26Z</time>
      </trkpt>
      <trkpt lat="44.04122" lon="1.37011">
        <ele>104.6</ele>
        <time>2023-07-07T10:05:29Z</time>
      </trkpt>
      <trkpt lat="44.0412" lon="1.37014">
        <ele>104.6</ele>
        <time>2023-07-07T10:05:31Z</time>
      </trkpt>
      <trkpt lat="44.04113" lon="1.37024">
        <ele>104.6</ele>
        <time>2023-07-07T10:05:39Z</time>
      </trkpt>
      <trkpt lat="44.04108" lon="1.37031">
        <ele>104.6</ele>
        <time>2023-07-07T10:05:44Z</time>
      </trkpt>
      <trkpt lat="44.04107" lon="1.37033">
        <ele>104.4</ele>
        <time>2023-07-07T10:05:46Z</time>
      </trkpt>
      <trkpt lat="44.04101" lon="1.37042">
        <ele>104.2</ele>
        <time>2023-07-07T10:05:54Z</time>
      </trkpt>
      <trkpt lat="44.04097" lon="1.37046">
        <ele>105</ele>
        <time>2023-07-07T10:05:58Z</time>
      </trkpt>
      <trkpt lat="44.04093" lon="1.3705">
        <ele>105</ele>
        <time>2023-07-07T10:06:02Z</time>
      </trkpt>
      <trkpt lat="44.04089" lon="1.37054">
        <ele>104.6</ele>
        <time>2023-07-07T10:06:06Z</time>
      </trkpt>
      <trkpt lat="44.04085" lon="1.37058">
        <ele>104.8</ele>
        <time>2023-07-07T10:06:10Z</time>
      </trkpt>
      <trkpt lat="44.04083" lon="1.3706">
        <ele>104.8</ele>
        <time>2023-07-07T10:06:12Z</time>
      </trkpt>
      <trkpt lat="44.04079" lon="1.37064">
        <ele>104.8</ele>
        <time>2023-07-07T10:06:16Z</time>
      </trkpt>
      <trkpt lat="44.04077" lon="1.37067">
        <ele>104.8</ele>
        <time>2023-07-07T10:06:18Z</time>
      </trkpt>
      <trkpt lat="44.04071" lon="1.37076">
        <ele>104.4</ele>
        <time>2023-07-07T10:06:25Z</time>
      </trkpt>
      <trkpt lat="44.04066" lon="1.37082">
        <ele>104.8</ele>
        <time>2023-07-07T10:06:31Z</time>
      </trkpt>
      <trkpt lat="44.04062" lon="1.37086">
        <ele>105</ele>
        <time>2023-07-07T10:06:36Z</time>
      </trkpt>
      <trkpt lat="44.0406" lon="1.37089">
        <ele>105</ele>
        <time>2023-07-07T10:06:38Z</time>
      </trkpt>
      <trkpt lat="44.04055" lon="1.37093">
        <ele>105</ele>
        <time>2023-07-07T10:06:43Z</time>
      </trkpt>
      <trkpt lat="44.04052" lon="1.37095">
        <ele>105.2</ele>
        <time>2023-07-07T10:06:45Z</time>
      </trkpt>
      <trkpt lat="44.04047" lon="1.37102">
        <ele>104.6</ele>
        <time>2023-07-07T10:06:52Z</time>
      </trkpt>
      <trkpt lat="44.04046" lon="1.37103">
        <ele>104.4</ele>
        <time>2023-07-07T10:06:54Z</time>
      </trkpt>
      <trkpt lat="44.04045" lon="1.37105">
        <ele>104.4</ele>
        <time>2023-07-07T10:06:57Z</time>
      </trkpt>
      <trkpt lat="44.04042" lon="1.37108">
        <ele>104.8</ele>
        <time>2023-07-07T10:07:00Z</time>
      </trkpt>
      <trkpt lat="44.04041" lon="1.37109">
        <ele>105</ele>
        <time>2023-07-07T10:07:01Z</time>
      </trkpt>
      <trkpt lat="44.04033" lon="1.37116">
        <ele>105.2</ele>
        <time>2023-07-07T10:07:08Z</time>
      </trkpt>
      <trkpt lat="44.0403" lon="1.3712">
        <ele>105.2</ele>
        <time>2023-07-07T10:07:12Z</time>
      </trkpt>
      <trkpt lat="44.04028" lon="1.37122">
        <ele>105.2</ele>
        <time>2023-07-07T10:07:15Z</time>
      </trkpt>
      <trkpt lat="44.04028" lon="1.37123">
        <ele>105</ele>
        <time>2023-07-07T10:07:16Z</time>
      </trkpt>
      <trkpt lat="44.04027" lon="1.37124">
        <ele>104.8</ele>
        <time>2023-07-07T10:07:17Z</time>
      </trkpt>
      <trkpt lat="44.04024" lon="1.37131">
        <ele>104.4</ele>
        <time>2023-07-07T10:07:22Z</time>
      </trkpt>
      <trkpt lat="44.04023" lon="1.37131">
        <ele>104.6</ele>
        <time>2023-07-07T10:07:23Z</time>
      </trkpt>
      <trkpt lat="44.04021" lon="1.37134">
        <ele>104.8</ele>
        <time>2023-07-07T10:07:27Z</time>
      </trkpt>
      <trkpt lat="44.04019" lon="1.37136">
        <ele>105</ele>
        <time>2023-07-07T10:07:29Z</time>
      </trkpt>
      <trkpt lat="44.04015" lon="1.37139">
        <ele>104.8</ele>
        <time>2023-07-07T10:07:33Z</time>
      </trkpt>
      <trkpt lat="44.04012" lon="1.37142">
        <ele>104.6</ele>
        <time>2023-07-07T10:07:36Z</time>
      </trkpt>
      <trkpt lat="44.0401" lon="1.37144">
        <ele>104.6</ele>
        <time>2023-07-07T10:07:38Z</time>
      </trkpt>
      <trkpt lat="44.04006" lon="1.3715">
        <ele>104.6</ele>
        <time>2023-07-07T10:07:43Z</time>
      </trkpt>
      <trkpt lat="44.04005" lon="1.37152">
        <ele>104.8</ele>
        <time>2023-07-07T10:07:44Z</time>
      </trkpt>
      <trkpt lat="44.04005" lon="1.37154">
        <ele>104.8</ele>
        <time>2023-07-07T10:07:45Z</time>
      </trkpt>
      <trkpt lat="44.03996" lon="1.37166">
        <ele>105.4</ele>
        <time>2023-07-07T10:07:53Z</time>
      </trkpt>
      <trkpt lat="44.03991" lon="1.37173">
        <ele>105.4</ele>
        <time>2023-07-07T10:07:59Z</time>
      </trkpt>
      <trkpt lat="44.03989" lon="1.37175">
        <ele>105.4</ele>
        <time>2023-07-07T10:08:01Z</time>
      </trkpt>
      <trkpt lat="44.03985" lon="1.3718">
        <ele>105</ele>
        <time>2023-07-07T10:08:07Z</time>
      </trkpt>
      <trkpt lat="44.03984" lon="1.37181">
        <ele>105</ele>
        <time>2023-07-07T10:08:08Z</time>
      </trkpt>
      <trkpt lat="44.0398" lon="1.37186">
        <ele>105.4</ele>
        <time>2023-07-07T10:08:14Z</time>
      </trkpt>
      <trkpt lat="44.03979" lon="1.37187">
        <ele>105.4</ele>
        <time>2023-07-07T10:08:15Z</time>
      </trkpt>
      <trkpt lat="44.03979" lon="1.37188">
        <ele>105.4</ele>
        <time>2023-07-07T10:08:16Z</time>
      </trkpt>
      <trkpt lat="44.03979" lon="1.37191">
        <ele>105.4</ele>
        <time>2023-07-07T10:08:17Z</time>
      </trkpt>
      <trkpt lat="44.03981" lon="1.37192">
        <ele>105.2</ele>
        <time>2023-07-07T10:08:21Z</time>
      </trkpt>
      <trkpt lat="44.03983" lon="1.37192">
        <ele>105</ele>
        <time>2023-07-07T10:08:23Z</time>
      </trkpt>
      <trkpt lat="44.03989" lon="1.37193">
        <ele>105.8</ele>
        <time>2023-07-07T10:08:33Z</time>
      </trkpt>
      <trkpt lat="44.03994" lon="1.37195">
        <ele>105.8</ele>
        <time>2023-07-07T10:08:38Z</time>
      </trkpt>
      <trkpt lat="44.03997" lon="1.37196">
        <ele>105.6</ele>
        <time>2023-07-07T10:08:41Z</time>
      </trkpt>
      <trkpt lat="44.04004" lon="1.37198">
        <ele>106</ele>
        <time>2023-07-07T10:08:48Z</time>
      </trkpt>
      <trkpt lat="44.04006" lon="1.37198">
        <ele>106.2</ele>
        <time>2023-07-07T10:08:49Z</time>
      </trkpt>
      <trkpt lat="44.04006" lon="1.37199">
        <ele>106.4</ele>
        <time>2023-07-07T10:08:50Z</time>
      </trkpt>
      <trkpt lat="44.04007" lon="1.372">
        <ele>106.4</ele>
        <time>2023-07-07T10:08:51Z</time>
      </trkpt>
      <trkpt lat="44.04007" lon="1.37201">
        <ele>106.6</ele>
        <time>2023-07-07T10:08:52Z</time>
      </trkpt>
      <trkpt lat="44.04008" lon="1.37202">
        <ele>106.4</ele>
        <time>2023-07-07T10:08:53Z</time>
      </trkpt>
      <trkpt lat="44.04016" lon="1.37206">
        <ele>106</ele>
        <time>2023-07-07T10:09:01Z</time>
      </trkpt>
      <trkpt lat="44.04017" lon="1.37206">
        <ele>106</ele>
        <time>2023-07-07T10:09:02Z</time>
      </trkpt>
      <trkpt lat="44.04024" lon="1.37207">
        <ele>106</ele>
        <time>2023-07-07T10:09:07Z</time>
      </trkpt>
      <trkpt lat="44.04029" lon="1.37205">
        <ele>106</ele>
        <time>2023-07-07T10:09:11Z</time>
      </trkpt>
      <trkpt lat="44.04037" lon="1.37204">
        <ele>106.2</ele>
        <time>2023-07-07T10:09:19Z</time>
      </trkpt>
      <trkpt lat="44.0404" lon="1.37204">
        <ele>106</ele>
        <time>2023-07-07T10:09:21Z</time>
      </trkpt>
    </trkseg>
  </trk>
</gpx>